<?xml version='1.0' encoding='UTF-8'?><gpx version="1.1" creator="JPX - https://github.com/jenetics/jpx" xmlns="http://www.topografix.com/GPX/1/1"><trk><trkseg><trkpt lat="45.6320683" lon="10.6012467"><ele>65.0</ele><time>2026-03-28T16:46:26.377Z</time></trkpt><trkpt lat="45.63215" lon="10.60125"><ele>65.0</ele><time>2026-03-28T16:46:28.877Z</time></trkpt><trkpt lat="45.6321917" lon="10.6011633"><ele>65.0</ele><time>2026-03-28T16:46:29.877Z</time></trkpt><trkpt lat="45.632275" lon="10.6011617"><ele>65.0</ele><time>2026-03-28T16:46:33.877Z</time></trkpt><trkpt lat="45.632345" lon="10.6011267"><ele>65.0</ele><time>2026-03-28T16:46:37.877Z</time></trkpt><trkpt lat="45.6324067" lon="10.601145"><ele>65.0</ele><time>2026-03-28T16:46:46.877Z</time></trkpt><trkpt lat="45.632485" lon="10.601095"><ele>64.66666666666667</ele><time>2026-03-28T16:46:55.877Z</time></trkpt><trkpt lat="45.6325683" lon="10.6010233"><ele>64.33333333333334</ele><time>2026-03-28T16:48:43.878Z</time></trkpt><trkpt lat="45.6326133" lon="10.6009433"><ele>64.0</ele><time>2026-03-28T16:48:47.877Z</time></trkpt><trkpt lat="45.6326783" lon="10.600935"><ele>63.66666666666667</ele><time>2026-03-28T16:48:53.878Z</time></trkpt><trkpt lat="45.6327433" lon="10.6008867"><ele>63.333333333333336</ele><time>2026-03-28T16:48:58.877Z</time></trkpt><trkpt lat="45.6328033" lon="10.6008483"><ele>63.0</ele><time>2026-03-28T16:49:05.878Z</time></trkpt><trkpt lat="45.63288" lon="10.6009117"><ele>63.714285714285715</ele><time>2026-03-28T16:49:20.878Z</time></trkpt><trkpt lat="45.6329467" lon="10.6009167"><ele>64.42857142857143</ele><time>2026-03-28T16:49:26.878Z</time></trkpt><trkpt lat="45.6330033" lon="10.6009683"><ele>65.14285714285714</ele><time>2026-03-28T16:49:31.878Z</time></trkpt><trkpt lat="45.633005" lon="10.6010683"><ele>65.85714285714286</ele><time>2026-03-28T16:49:37.878Z</time></trkpt><trkpt lat="45.6329833" lon="10.6011533"><ele>66.57142857142857</ele><time>2026-03-28T16:49:44.878Z</time></trkpt><trkpt lat="45.63296" lon="10.6012383"><ele>67.28571428571428</ele><time>2026-03-28T16:49:51.878Z</time></trkpt><trkpt lat="45.6329167" lon="10.6013433"><ele>68.0</ele><time>2026-03-28T16:51:12.879Z</time></trkpt><trkpt lat="45.632905" lon="10.6014567"><ele>67.99999999999999</ele><time>2026-03-28T16:51:15.878Z</time></trkpt><trkpt lat="45.63288" lon="10.6015417"><ele>68.0</ele><time>2026-03-28T16:51:18.878Z</time></trkpt><trkpt lat="45.6328333" lon="10.601605"><ele>68.0</ele><time>2026-03-28T16:51:29.878Z</time></trkpt><trkpt lat="45.6328" lon="10.6017083"><ele>68.0</ele><time>2026-03-28T16:51:45.878Z</time></trkpt><trkpt lat="45.6327733" lon="10.6017967"><ele>68.0</ele><time>2026-03-28T16:51:54.878Z</time></trkpt><trkpt lat="45.6327517" lon="10.6018933"><ele>67.99999999999999</ele><time>2026-03-28T16:51:57.879Z</time></trkpt><trkpt lat="45.6327283" lon="10.6019783"><ele>68.0</ele><time>2026-03-28T16:52:02.878Z</time></trkpt><trkpt lat="45.6326967" lon="10.6020617"><ele>68.0</ele><time>2026-03-28T16:53:19.878Z</time></trkpt><trkpt lat="45.6326783" lon="10.6021717"><ele>68.0</ele><time>2026-03-28T16:53:35.878Z</time></trkpt><trkpt lat="45.63265" lon="10.6022567"><ele>68.0</ele><time>2026-03-28T16:53:39.878Z</time></trkpt><trkpt lat="45.632615" lon="10.60235"><ele>68.0</ele><time>2026-03-28T16:57:45.878Z</time></trkpt><trkpt lat="45.6325783" lon="10.60246"><ele>68.0</ele><time>2026-03-28T16:57:48.877Z</time></trkpt><trkpt lat="45.632545" lon="10.6025717"><ele>68.0</ele><time>2026-03-28T16:57:51.877Z</time></trkpt><trkpt lat="45.63252" lon="10.6026767"><ele>68.0</ele><time>2026-03-28T16:57:54.877Z</time></trkpt><trkpt lat="45.6325067" lon="10.6027717"><ele>68.0</ele><time>2026-03-28T16:57:59.877Z</time></trkpt><trkpt lat="45.63248" lon="10.6028733"><ele>68.0</ele><time>2026-03-28T16:58:30.877Z</time></trkpt><trkpt lat="45.632455" lon="10.602965"><ele>68.0</ele><time>2026-03-28T16:58:33.877Z</time></trkpt><trkpt lat="45.6324183" lon="10.60307"><ele>68.0</ele><time>2026-03-28T16:58:36.877Z</time></trkpt><trkpt lat="45.6322567" lon="10.603925"><ele>68.16666666666667</ele><time>2026-03-28T17:00:34.616Z</time></trkpt><trkpt lat="45.632325" lon="10.60405"><ele>68.33333333333334</ele><time>2026-03-28T17:00:43.877Z</time></trkpt><trkpt lat="45.6323783" lon="10.6041117"><ele>68.5</ele><time>2026-03-28T17:00:44.877Z</time></trkpt><trkpt lat="45.6324367" lon="10.6041767"><ele>68.66666666666667</ele><time>2026-03-28T17:00:45.877Z</time></trkpt><trkpt lat="45.6324933" lon="10.6042483"><ele>68.83333333333333</ele><time>2026-03-28T17:00:46.878Z</time></trkpt><trkpt lat="45.6325533" lon="10.6043367"><ele>69.0</ele><time>2026-03-28T17:00:47.877Z</time></trkpt><trkpt lat="45.63263" lon="10.6044133"><ele>68.8</ele><time>2026-03-28T17:00:48.877Z</time></trkpt><trkpt lat="45.632695" lon="10.6045133"><ele>68.60000000000001</ele><time>2026-03-28T17:00:49.877Z</time></trkpt><trkpt lat="45.6327583" lon="10.6046117"><ele>68.4</ele><time>2026-03-28T17:00:50.878Z</time></trkpt><trkpt lat="45.632825" lon="10.6047183"><ele>68.2</ele><time>2026-03-28T17:00:51.877Z</time></trkpt><trkpt lat="45.6329017" lon="10.604835"><ele>68.0</ele><time>2026-03-28T17:00:52.877Z</time></trkpt><trkpt lat="45.6329717" lon="10.6049667"><ele>68.0</ele><time>2026-03-28T17:00:53.878Z</time></trkpt><trkpt lat="45.6330483" lon="10.6050833"><ele>68.0</ele><time>2026-03-28T17:00:54.877Z</time></trkpt><trkpt lat="45.633135" lon="10.6052067"><ele>68.0</ele><time>2026-03-28T17:00:55.877Z</time></trkpt><trkpt lat="45.6332133" lon="10.6053267"><ele>68.0</ele><time>2026-03-28T17:00:56.877Z</time></trkpt><trkpt lat="45.6332917" lon="10.6054383"><ele>68.4</ele><time>2026-03-28T17:00:57.877Z</time></trkpt><trkpt lat="45.6333733" lon="10.6055467"><ele>68.8</ele><time>2026-03-28T17:00:58.878Z</time></trkpt><trkpt lat="45.63344" lon="10.6056333"><ele>69.2</ele><time>2026-03-28T17:00:59.877Z</time></trkpt><trkpt lat="45.6335133" lon="10.60572"><ele>69.6</ele><time>2026-03-28T17:01:00.877Z</time></trkpt><trkpt lat="45.63359" lon="10.6058217"><ele>70.0</ele><time>2026-03-28T17:01:01.877Z</time></trkpt><trkpt lat="45.63367" lon="10.6059267"><ele>70.0</ele><time>2026-03-28T17:01:02.877Z</time></trkpt><trkpt lat="45.63376" lon="10.6060317"><ele>70.0</ele><time>2026-03-28T17:01:03.877Z</time></trkpt><trkpt lat="45.6338383" lon="10.6061267"><ele>70.0</ele><time>2026-03-28T17:01:04.877Z</time></trkpt><trkpt lat="45.6339017" lon="10.6062017"><ele>70.0</ele><time>2026-03-28T17:01:05.877Z</time></trkpt><trkpt lat="45.6339733" lon="10.6062833"><ele>70.0</ele><time>2026-03-28T17:01:06.877Z</time></trkpt><trkpt lat="45.6340367" lon="10.6063467"><ele>70.0</ele><time>2026-03-28T17:01:07.877Z</time></trkpt><trkpt lat="45.634095" lon="10.6064233"><ele>70.0</ele><time>2026-03-28T17:01:08.877Z</time></trkpt><trkpt lat="45.6341917" lon="10.60652"><ele>70.0</ele><time>2026-03-28T17:01:10.877Z</time></trkpt><trkpt lat="45.6342467" lon="10.6065683"><ele>70.0</ele><time>2026-03-28T17:01:11.877Z</time></trkpt><trkpt lat="45.63432" lon="10.606625"><ele>70.0</ele><time>2026-03-28T17:01:12.878Z</time></trkpt><trkpt lat="45.634405" lon="10.6066933"><ele>70.0</ele><time>2026-03-28T17:01:13.877Z</time></trkpt><trkpt lat="45.6344967" lon="10.6067633"><ele>70.2</ele><time>2026-03-28T17:01:14.877Z</time></trkpt><trkpt lat="45.6345883" lon="10.6068467"><ele>70.4</ele><time>2026-03-28T17:01:15.877Z</time></trkpt><trkpt lat="45.63466" lon="10.606935"><ele>70.6</ele><time>2026-03-28T17:01:16.877Z</time></trkpt><trkpt lat="45.63472" lon="10.6070383"><ele>70.8</ele><time>2026-03-28T17:01:17.877Z</time></trkpt><trkpt lat="45.6347767" lon="10.6071483"><ele>71.0</ele><time>2026-03-28T17:01:18.877Z</time></trkpt><trkpt lat="45.6348367" lon="10.6072417"><ele>71.0</ele><time>2026-03-28T17:01:19.877Z</time></trkpt><trkpt lat="45.6349" lon="10.60733"><ele>71.0</ele><time>2026-03-28T17:01:20.877Z</time></trkpt><trkpt lat="45.6349617" lon="10.607415"><ele>71.0</ele><time>2026-03-28T17:01:21.877Z</time></trkpt><trkpt lat="45.6350083" lon="10.6075167"><ele>71.0</ele><time>2026-03-28T17:01:22.877Z</time></trkpt><trkpt lat="45.6350833" lon="10.60762"><ele>71.0</ele><time>2026-03-28T17:01:24.877Z</time></trkpt><trkpt lat="45.635175" lon="10.6076417"><ele>71.0</ele><time>2026-03-28T17:01:27.877Z</time></trkpt><trkpt lat="45.635235" lon="10.6076033"><ele>71.0</ele><time>2026-03-28T17:01:28.877Z</time></trkpt><trkpt lat="45.635295" lon="10.60753"><ele>71.0</ele><time>2026-03-28T17:01:29.877Z</time></trkpt><trkpt lat="45.6353583" lon="10.6074333"><ele>71.0</ele><time>2026-03-28T17:01:30.877Z</time></trkpt><trkpt lat="45.6354233" lon="10.6073133"><ele>71.0</ele><time>2026-03-28T17:01:31.878Z</time></trkpt><trkpt lat="45.635495" lon="10.6071967"><ele>71.25</ele><time>2026-03-28T17:01:32.877Z</time></trkpt><trkpt lat="45.6355683" lon="10.6070767"><ele>71.5</ele><time>2026-03-28T17:01:33.877Z</time></trkpt><trkpt lat="45.6356417" lon="10.6069483"><ele>71.75</ele><time>2026-03-28T17:01:34.877Z</time></trkpt><trkpt lat="45.6357183" lon="10.6068333"><ele>72.0</ele><time>2026-03-28T17:01:35.877Z</time></trkpt><trkpt lat="45.6358033" lon="10.6067133"><ele>72.0</ele><time>2026-03-28T17:01:36.877Z</time></trkpt><trkpt lat="45.635885" lon="10.606585"><ele>72.0</ele><time>2026-03-28T17:01:37.877Z</time></trkpt><trkpt lat="45.635965" lon="10.60646"><ele>72.0</ele><time>2026-03-28T17:01:38.877Z</time></trkpt><trkpt lat="45.6360467" lon="10.606335"><ele>72.0</ele><time>2026-03-28T17:01:39.877Z</time></trkpt><trkpt lat="45.6361333" lon="10.606225"><ele>72.4</ele><time>2026-03-28T17:01:40.877Z</time></trkpt><trkpt lat="45.636215" lon="10.6061167"><ele>72.80000000000001</ele><time>2026-03-28T17:01:41.877Z</time></trkpt><trkpt lat="45.6362883" lon="10.6060233"><ele>73.2</ele><time>2026-03-28T17:01:42.877Z</time></trkpt><trkpt lat="45.6363517" lon="10.6059267"><ele>73.60000000000001</ele><time>2026-03-28T17:01:43.877Z</time></trkpt><trkpt lat="45.6364167" lon="10.6058317"><ele>74.0</ele><time>2026-03-28T17:01:44.877Z</time></trkpt><trkpt lat="45.6364833" lon="10.60574"><ele>74.0</ele><time>2026-03-28T17:01:45.877Z</time></trkpt><trkpt lat="45.6365433" lon="10.6056517"><ele>74.0</ele><time>2026-03-28T17:01:46.877Z</time></trkpt><trkpt lat="45.636595" lon="10.605565"><ele>74.0</ele><time>2026-03-28T17:01:47.877Z</time></trkpt><trkpt lat="45.6366633" lon="10.6054567"><ele>74.0</ele><time>2026-03-28T17:01:49.877Z</time></trkpt><trkpt lat="45.636705" lon="10.6053817"><ele>74.0</ele><time>2026-03-28T17:01:52.877Z</time></trkpt><trkpt lat="45.6367617" lon="10.605305"><ele>74.0</ele><time>2026-03-28T17:01:55.877Z</time></trkpt><trkpt lat="45.6368283" lon="10.6052283"><ele>73.8</ele><time>2026-03-28T17:01:57.877Z</time></trkpt><trkpt lat="45.6368417" lon="10.6051283"><ele>73.60000000000001</ele><time>2026-03-28T17:01:59.877Z</time></trkpt><trkpt lat="45.63679" lon="10.6050483"><ele>73.4</ele><time>2026-03-28T17:02:01.877Z</time></trkpt><trkpt lat="45.6367083" lon="10.604955"><ele>73.2</ele><time>2026-03-28T17:02:03.877Z</time></trkpt><trkpt lat="45.636645" lon="10.6048467"><ele>73.0</ele><time>2026-03-28T17:02:05.877Z</time></trkpt><trkpt lat="45.6365867" lon="10.6047233"><ele>73.0</ele><time>2026-03-28T17:02:07.877Z</time></trkpt><trkpt lat="45.6365167" lon="10.6045867"><ele>73.0</ele><time>2026-03-28T17:02:09.877Z</time></trkpt><trkpt lat="45.6364733" lon="10.60451"><ele>73.0</ele><time>2026-03-28T17:02:10.877Z</time></trkpt><trkpt lat="45.6364333" lon="10.6044267"><ele>73.0</ele><time>2026-03-28T17:02:11.877Z</time></trkpt><trkpt lat="45.63639" lon="10.604345"><ele>73.0</ele><time>2026-03-28T17:02:12.877Z</time></trkpt><trkpt lat="45.6363483" lon="10.6042617"><ele>73.0</ele><time>2026-03-28T17:02:13.877Z</time></trkpt><trkpt lat="45.6363117" lon="10.6041683"><ele>72.83333333333333</ele><time>2026-03-28T17:02:14.877Z</time></trkpt><trkpt lat="45.636265" lon="10.6040733"><ele>72.66666666666666</ele><time>2026-03-28T17:02:15.877Z</time></trkpt><trkpt lat="45.6362217" lon="10.6039867"><ele>72.5</ele><time>2026-03-28T17:02:16.877Z</time></trkpt><trkpt lat="45.6361767" lon="10.603895"><ele>72.33333333333333</ele><time>2026-03-28T17:02:17.877Z</time></trkpt><trkpt lat="45.6361317" lon="10.6038017"><ele>72.16666666666667</ele><time>2026-03-28T17:02:18.877Z</time></trkpt><trkpt lat="45.636085" lon="10.60372"><ele>72.0</ele><time>2026-03-28T17:02:19.877Z</time></trkpt><trkpt lat="45.6360333" lon="10.6036217"><ele>71.66666666666667</ele><time>2026-03-28T17:02:20.877Z</time></trkpt><trkpt lat="45.6359783" lon="10.603525"><ele>71.33333333333333</ele><time>2026-03-28T17:02:21.877Z</time></trkpt><trkpt lat="45.635925" lon="10.6034333"><ele>71.0</ele><time>2026-03-28T17:02:22.877Z</time></trkpt><trkpt lat="45.6358767" lon="10.60334"><ele>70.66666666666666</ele><time>2026-03-28T17:02:23.877Z</time></trkpt><trkpt lat="45.63583" lon="10.6032433"><ele>70.33333333333333</ele><time>2026-03-28T17:02:24.877Z</time></trkpt><trkpt lat="45.6357817" lon="10.60314"><ele>70.0</ele><time>2026-03-28T17:02:25.877Z</time></trkpt><trkpt lat="45.6357383" lon="10.6030383"><ele>70.0</ele><time>2026-03-28T17:02:26.877Z</time></trkpt><trkpt lat="45.6356917" lon="10.6029383"><ele>70.0</ele><time>2026-03-28T17:02:27.878Z</time></trkpt><trkpt lat="45.6356367" lon="10.6028433"><ele>70.0</ele><time>2026-03-28T17:02:28.877Z</time></trkpt><trkpt lat="45.6355867" lon="10.60275"><ele>70.0</ele><time>2026-03-28T17:02:29.877Z</time></trkpt><trkpt lat="45.6355483" lon="10.602655"><ele>70.0</ele><time>2026-03-28T17:02:30.878Z</time></trkpt><trkpt lat="45.635505" lon="10.602565"><ele>70.0</ele><time>2026-03-28T17:02:31.877Z</time></trkpt><trkpt lat="45.6354517" lon="10.6024633"><ele>70.2</ele><time>2026-03-28T17:02:32.877Z</time></trkpt><trkpt lat="45.6353783" lon="10.6023517"><ele>70.4</ele><time>2026-03-28T17:02:33.877Z</time></trkpt><trkpt lat="45.6353117" lon="10.60223"><ele>70.6</ele><time>2026-03-28T17:02:34.877Z</time></trkpt><trkpt lat="45.635245" lon="10.6021067"><ele>70.8</ele><time>2026-03-28T17:02:35.877Z</time></trkpt><trkpt lat="45.63518" lon="10.60199"><ele>71.0</ele><time>2026-03-28T17:02:36.877Z</time></trkpt><trkpt lat="45.635125" lon="10.6018817"><ele>70.6</ele><time>2026-03-28T17:02:37.877Z</time></trkpt><trkpt lat="45.6350683" lon="10.6017733"><ele>70.19999999999999</ele><time>2026-03-28T17:02:38.877Z</time></trkpt><trkpt lat="45.6350133" lon="10.601645"><ele>69.80000000000001</ele><time>2026-03-28T17:02:39.877Z</time></trkpt><trkpt lat="45.6349667" lon="10.6015117"><ele>69.4</ele><time>2026-03-28T17:02:40.877Z</time></trkpt><trkpt lat="45.6349317" lon="10.6013733"><ele>69.0</ele><time>2026-03-28T17:02:41.877Z</time></trkpt><trkpt lat="45.6349217" lon="10.60123"><ele>69.16666666666667</ele><time>2026-03-28T17:02:42.878Z</time></trkpt><trkpt lat="45.6349133" lon="10.6010967"><ele>69.33333333333333</ele><time>2026-03-28T17:02:43.877Z</time></trkpt><trkpt lat="45.63492" lon="10.6009633"><ele>69.5</ele><time>2026-03-28T17:02:44.877Z</time></trkpt><trkpt lat="45.6349367" lon="10.6008433"><ele>69.66666666666666</ele><time>2026-03-28T17:02:45.877Z</time></trkpt><trkpt lat="45.6349617" lon="10.6007267"><ele>69.83333333333333</ele><time>2026-03-28T17:02:46.877Z</time></trkpt><trkpt lat="45.634985" lon="10.6006217"><ele>70.0</ele><time>2026-03-28T17:02:47.877Z</time></trkpt><trkpt lat="45.6350117" lon="10.6005333"><ele>70.0</ele><time>2026-03-28T17:02:48.877Z</time></trkpt><trkpt lat="45.6350417" lon="10.6004483"><ele>70.0</ele><time>2026-03-28T17:02:49.877Z</time></trkpt><trkpt lat="45.63507" lon="10.600365"><ele>70.0</ele><time>2026-03-28T17:02:50.877Z</time></trkpt><trkpt lat="45.6351133" lon="10.60023"><ele>70.0</ele><time>2026-03-28T17:02:52.877Z</time></trkpt><trkpt lat="45.6351567" lon="10.6001017"><ele>70.0</ele><time>2026-03-28T17:02:54.877Z</time></trkpt><trkpt lat="45.6352083" lon="10.5999633"><ele>70.0</ele><time>2026-03-28T17:02:56.877Z</time></trkpt><trkpt lat="45.6352667" lon="10.599815"><ele>70.4</ele><time>2026-03-28T17:02:58.877Z</time></trkpt><trkpt lat="45.6353333" lon="10.59968"><ele>70.8</ele><time>2026-03-28T17:03:00.877Z</time></trkpt><trkpt lat="45.635395" lon="10.5995417"><ele>71.2</ele><time>2026-03-28T17:03:02.878Z</time></trkpt><trkpt lat="45.63547" lon="10.5994"><ele>71.6</ele><time>2026-03-28T17:03:04.877Z</time></trkpt><trkpt lat="45.63552" lon="10.599325"><ele>72.0</ele><time>2026-03-28T17:03:05.877Z</time></trkpt><trkpt lat="45.6355633" lon="10.5992467"><ele>72.00000000000001</ele><time>2026-03-28T17:03:06.878Z</time></trkpt><trkpt lat="45.6356017" lon="10.59916"><ele>72.0</ele><time>2026-03-28T17:03:07.877Z</time></trkpt><trkpt lat="45.635635" lon="10.5990683"><ele>72.0</ele><time>2026-03-28T17:03:08.877Z</time></trkpt><trkpt lat="45.6356633" lon="10.5989817"><ele>72.0</ele><time>2026-03-28T17:03:09.877Z</time></trkpt><trkpt lat="45.6356833" lon="10.59889"><ele>72.0</ele><time>2026-03-28T17:03:10.877Z</time></trkpt><trkpt lat="45.635705" lon="10.598785"><ele>72.00000000000001</ele><time>2026-03-28T17:03:11.878Z</time></trkpt><trkpt lat="45.6357217" lon="10.5986767"><ele>72.0</ele><time>2026-03-28T17:03:12.877Z</time></trkpt><trkpt lat="45.6357317" lon="10.5985583"><ele>72.33333333333333</ele><time>2026-03-28T17:03:13.877Z</time></trkpt><trkpt lat="45.6357283" lon="10.5984317"><ele>72.66666666666667</ele><time>2026-03-28T17:03:14.877Z</time></trkpt><trkpt lat="45.6357267" lon="10.5983083"><ele>73.0</ele><time>2026-03-28T17:03:15.877Z</time></trkpt><trkpt lat="45.63573" lon="10.5981883"><ele>73.33333333333334</ele><time>2026-03-28T17:03:16.877Z</time></trkpt><trkpt lat="45.6357267" lon="10.5980617"><ele>73.66666666666667</ele><time>2026-03-28T17:03:17.877Z</time></trkpt><trkpt lat="45.63572" lon="10.59794"><ele>74.0</ele><time>2026-03-28T17:03:18.877Z</time></trkpt><trkpt lat="45.6357083" lon="10.5978067"><ele>75.0</ele><time>2026-03-28T17:03:19.877Z</time></trkpt><trkpt lat="45.6356933" lon="10.5976767"><ele>76.0</ele><time>2026-03-28T17:03:20.877Z</time></trkpt><trkpt lat="45.6356733" lon="10.5975483"><ele>77.0</ele><time>2026-03-28T17:03:21.877Z</time></trkpt><trkpt lat="45.63565" lon="10.5974133"><ele>78.0</ele><time>2026-03-28T17:03:22.878Z</time></trkpt><trkpt lat="45.635625" lon="10.59729"><ele>79.0</ele><time>2026-03-28T17:03:23.877Z</time></trkpt><trkpt lat="45.6355933" lon="10.5971583"><ele>79.0</ele><time>2026-03-28T17:03:24.877Z</time></trkpt><trkpt lat="45.6355483" lon="10.597045"><ele>79.0</ele><time>2026-03-28T17:03:25.877Z</time></trkpt><trkpt lat="45.635505" lon="10.5969317"><ele>79.0</ele><time>2026-03-28T17:03:26.877Z</time></trkpt><trkpt lat="45.6354567" lon="10.5968133"><ele>79.0</ele><time>2026-03-28T17:03:27.877Z</time></trkpt><trkpt lat="45.6354033" lon="10.5966933"><ele>79.0</ele><time>2026-03-28T17:03:28.877Z</time></trkpt><trkpt lat="45.6353483" lon="10.596575"><ele>78.8</ele><time>2026-03-28T17:03:29.877Z</time></trkpt><trkpt lat="45.635295" lon="10.59646"><ele>78.60000000000001</ele><time>2026-03-28T17:03:30.877Z</time></trkpt><trkpt lat="45.6352383" lon="10.5963417"><ele>78.4</ele><time>2026-03-28T17:03:31.878Z</time></trkpt><trkpt lat="45.6351833" lon="10.5962267"><ele>78.2</ele><time>2026-03-28T17:03:32.877Z</time></trkpt><trkpt lat="45.635135" lon="10.59611"><ele>78.0</ele><time>2026-03-28T17:03:33.877Z</time></trkpt><trkpt lat="45.635085" lon="10.5959917"><ele>78.0</ele><time>2026-03-28T17:03:34.877Z</time></trkpt><trkpt lat="45.6350333" lon="10.5958683"><ele>78.0</ele><time>2026-03-28T17:03:35.877Z</time></trkpt><trkpt lat="45.6349833" lon="10.5957383"><ele>78.0</ele><time>2026-03-28T17:03:36.877Z</time></trkpt><trkpt lat="45.6349333" lon="10.5956133"><ele>78.0</ele><time>2026-03-28T17:03:37.877Z</time></trkpt><trkpt lat="45.6348867" lon="10.5954883"><ele>78.0</ele><time>2026-03-28T17:03:38.877Z</time></trkpt><trkpt lat="45.6348383" lon="10.59535"><ele>83.8</ele><time>2026-03-28T17:03:39.877Z</time></trkpt><trkpt lat="45.6347867" lon="10.5952083"><ele>89.6</ele><time>2026-03-28T17:03:40.877Z</time></trkpt><trkpt lat="45.6347367" lon="10.5950733"><ele>95.39999999999999</ele><time>2026-03-28T17:03:41.877Z</time></trkpt><trkpt lat="45.6346767" lon="10.5949517"><ele>101.19999999999999</ele><time>2026-03-28T17:03:42.878Z</time></trkpt><trkpt lat="45.6346233" lon="10.5948317"><ele>107.0</ele><time>2026-03-28T17:03:43.877Z</time></trkpt><trkpt lat="45.6345567" lon="10.5947167"><ele>107.0</ele><time>2026-03-28T17:03:44.878Z</time></trkpt><trkpt lat="45.6344933" lon="10.5945983"><ele>106.99999999999999</ele><time>2026-03-28T17:03:45.877Z</time></trkpt><trkpt lat="45.634435" lon="10.5944833"><ele>106.99999999999999</ele><time>2026-03-28T17:03:46.877Z</time></trkpt><trkpt lat="45.6343833" lon="10.5943683"><ele>107.0</ele><time>2026-03-28T17:03:47.877Z</time></trkpt><trkpt lat="45.634325" lon="10.5942483"><ele>107.0</ele><time>2026-03-28T17:03:48.877Z</time></trkpt><trkpt lat="45.6342667" lon="10.5941267"><ele>104.25</ele><time>2026-03-28T17:03:49.877Z</time></trkpt><trkpt lat="45.6342" lon="10.5940017"><ele>101.5</ele><time>2026-03-28T17:03:50.877Z</time></trkpt><trkpt lat="45.6341333" lon="10.5938683"><ele>98.75</ele><time>2026-03-28T17:03:51.877Z</time></trkpt><trkpt lat="45.6340667" lon="10.593745"><ele>96.0</ele><time>2026-03-28T17:03:52.877Z</time></trkpt><trkpt lat="45.6339933" lon="10.5936067"><ele>96.0</ele><time>2026-03-28T17:03:53.877Z</time></trkpt><trkpt lat="45.6339233" lon="10.59347"><ele>96.0</ele><time>2026-03-28T17:03:54.877Z</time></trkpt><trkpt lat="45.6338567" lon="10.5933483"><ele>96.0</ele><time>2026-03-28T17:03:55.878Z</time></trkpt><trkpt lat="45.63379" lon="10.59321"><ele>96.0</ele><time>2026-03-28T17:03:56.877Z</time></trkpt><trkpt lat="45.6337133" lon="10.593065"><ele>96.0</ele><time>2026-03-28T17:03:57.877Z</time></trkpt><trkpt lat="45.63364" lon="10.592915"><ele>96.0</ele><time>2026-03-28T17:03:58.877Z</time></trkpt><trkpt lat="45.6335683" lon="10.59277"><ele>96.0</ele><time>2026-03-28T17:03:59.878Z</time></trkpt><trkpt lat="45.6334983" lon="10.5926317"><ele>96.0</ele><time>2026-03-28T17:04:00.877Z</time></trkpt><trkpt lat="45.633425" lon="10.5924917"><ele>98.75</ele><time>2026-03-28T17:04:01.877Z</time></trkpt><trkpt lat="45.6333517" lon="10.5923483"><ele>101.5</ele><time>2026-03-28T17:04:02.877Z</time></trkpt><trkpt lat="45.633265" lon="10.5922083"><ele>104.25</ele><time>2026-03-28T17:04:03.878Z</time></trkpt><trkpt lat="45.6331767" lon="10.5920867"><ele>107.0</ele><time>2026-03-28T17:04:04.877Z</time></trkpt><trkpt lat="45.63308" lon="10.591975"><ele>107.0</ele><time>2026-03-28T17:04:05.877Z</time></trkpt><trkpt lat="45.6329833" lon="10.59187"><ele>107.0</ele><time>2026-03-28T17:04:06.877Z</time></trkpt><trkpt lat="45.6328867" lon="10.59177"><ele>107.0</ele><time>2026-03-28T17:04:07.878Z</time></trkpt><trkpt lat="45.6327917" lon="10.5916783"><ele>107.0</ele><time>2026-03-28T17:04:08.877Z</time></trkpt><trkpt lat="45.6327017" lon="10.5915867"><ele>103.0</ele><time>2026-03-28T17:04:09.877Z</time></trkpt><trkpt lat="45.6326117" lon="10.5914883"><ele>99.0</ele><time>2026-03-28T17:04:10.877Z</time></trkpt><trkpt lat="45.6325267" lon="10.5913783"><ele>95.0</ele><time>2026-03-28T17:04:11.877Z</time></trkpt><trkpt lat="45.6324517" lon="10.5912483"><ele>91.0</ele><time>2026-03-28T17:04:12.877Z</time></trkpt><trkpt lat="45.6323933" lon="10.591075"><ele>91.0</ele><time>2026-03-28T17:04:13.877Z</time></trkpt><trkpt lat="45.6323333" lon="10.5909017"><ele>91.0</ele><time>2026-03-28T17:04:14.877Z</time></trkpt><trkpt lat="45.6322667" lon="10.590725"><ele>91.0</ele><time>2026-03-28T17:04:15.877Z</time></trkpt><trkpt lat="45.6322017" lon="10.5905533"><ele>91.0</ele><time>2026-03-28T17:04:16.877Z</time></trkpt><trkpt lat="45.6321417" lon="10.5904017"><ele>87.25</ele><time>2026-03-28T17:04:17.878Z</time></trkpt><trkpt lat="45.6320717" lon="10.590245"><ele>83.5</ele><time>2026-03-28T17:04:18.877Z</time></trkpt><trkpt lat="45.6319967" lon="10.5900867"><ele>79.75</ele><time>2026-03-28T17:04:19.877Z</time></trkpt><trkpt lat="45.6319217" lon="10.5899417"><ele>76.0</ele><time>2026-03-28T17:04:20.877Z</time></trkpt><trkpt lat="45.63184" lon="10.5897933"><ele>76.0</ele><time>2026-03-28T17:04:21.877Z</time></trkpt><trkpt lat="45.6317617" lon="10.589645"><ele>76.0</ele><time>2026-03-28T17:04:22.877Z</time></trkpt><trkpt lat="45.6316817" lon="10.5894983"><ele>76.0</ele><time>2026-03-28T17:04:23.877Z</time></trkpt><trkpt lat="45.6316" lon="10.589355"><ele>76.0</ele><time>2026-03-28T17:04:24.877Z</time></trkpt><trkpt lat="45.6315167" lon="10.589215"><ele>78.5</ele><time>2026-03-28T17:04:25.877Z</time></trkpt><trkpt lat="45.6314333" lon="10.5890683"><ele>81.0</ele><time>2026-03-28T17:04:26.877Z</time></trkpt><trkpt lat="45.6313517" lon="10.5889317"><ele>83.5</ele><time>2026-03-28T17:04:27.878Z</time></trkpt><trkpt lat="45.6312683" lon="10.588805"><ele>86.0</ele><time>2026-03-28T17:04:28.877Z</time></trkpt><trkpt lat="45.6311817" lon="10.5886717"><ele>83.5</ele><time>2026-03-28T17:04:29.877Z</time></trkpt><trkpt lat="45.631095" lon="10.588535"><ele>81.0</ele><time>2026-03-28T17:04:30.877Z</time></trkpt><trkpt lat="45.6309983" lon="10.588395"><ele>78.5</ele><time>2026-03-28T17:04:31.877Z</time></trkpt><trkpt lat="45.630905" lon="10.5882583"><ele>76.0</ele><time>2026-03-28T17:04:32.877Z</time></trkpt><trkpt lat="45.6308117" lon="10.588125"><ele>76.0</ele><time>2026-03-28T17:04:33.877Z</time></trkpt><trkpt lat="45.6307167" lon="10.58799"><ele>76.0</ele><time>2026-03-28T17:04:34.877Z</time></trkpt><trkpt lat="45.6306217" lon="10.587845"><ele>76.0</ele><time>2026-03-28T17:04:35.877Z</time></trkpt><trkpt lat="45.63052" lon="10.5877"><ele>76.0</ele><time>2026-03-28T17:04:36.877Z</time></trkpt><trkpt lat="45.6304233" lon="10.5875617"><ele>77.0</ele><time>2026-03-28T17:04:37.877Z</time></trkpt><trkpt lat="45.6303183" lon="10.5874233"><ele>78.0</ele><time>2026-03-28T17:04:38.877Z</time></trkpt><trkpt lat="45.6302167" lon="10.587285"><ele>79.0</ele><time>2026-03-28T17:04:39.877Z</time></trkpt><trkpt lat="45.6301117" lon="10.5871517"><ele>80.0</ele><time>2026-03-28T17:04:40.877Z</time></trkpt><trkpt lat="45.6300117" lon="10.5870267"><ele>85.0</ele><time>2026-03-28T17:04:41.877Z</time></trkpt><trkpt lat="45.6299133" lon="10.5869067"><ele>90.0</ele><time>2026-03-28T17:04:42.877Z</time></trkpt><trkpt lat="45.6298083" lon="10.5867967"><ele>95.0</ele><time>2026-03-28T17:04:43.877Z</time></trkpt><trkpt lat="45.6296933" lon="10.5866983"><ele>100.0</ele><time>2026-03-28T17:04:44.877Z</time></trkpt><trkpt lat="45.6295617" lon="10.5866467"><ele>94.25</ele><time>2026-03-28T17:04:45.877Z</time></trkpt><trkpt lat="45.62943" lon="10.586595"><ele>88.5</ele><time>2026-03-28T17:04:46.877Z</time></trkpt><trkpt lat="45.6292967" lon="10.5865517"><ele>82.75</ele><time>2026-03-28T17:04:47.877Z</time></trkpt><trkpt lat="45.6291583" lon="10.5865517"><ele>77.0</ele><time>2026-03-28T17:04:48.877Z</time></trkpt><trkpt lat="45.6290183" lon="10.5865517"><ele>77.0</ele><time>2026-03-28T17:04:49.877Z</time></trkpt><trkpt lat="45.6288817" lon="10.5865733"><ele>77.0</ele><time>2026-03-28T17:04:50.877Z</time></trkpt><trkpt lat="45.6287383" lon="10.58658"><ele>77.0</ele><time>2026-03-28T17:04:51.877Z</time></trkpt><trkpt lat="45.6286017" lon="10.5865867"><ele>77.0</ele><time>2026-03-28T17:04:52.877Z</time></trkpt><trkpt lat="45.6284583" lon="10.5865933"><ele>76.5</ele><time>2026-03-28T17:04:53.877Z</time></trkpt><trkpt lat="45.6283183" lon="10.5866133"><ele>76.0</ele><time>2026-03-28T17:04:54.877Z</time></trkpt><trkpt lat="45.6281783" lon="10.5866217"><ele>75.5</ele><time>2026-03-28T17:04:55.877Z</time></trkpt><trkpt lat="45.6280433" lon="10.5866183"><ele>75.0</ele><time>2026-03-28T17:04:56.877Z</time></trkpt><trkpt lat="45.6279117" lon="10.5866"><ele>75.25</ele><time>2026-03-28T17:04:57.877Z</time></trkpt><trkpt lat="45.62778" lon="10.5865617"><ele>75.5</ele><time>2026-03-28T17:04:58.878Z</time></trkpt><trkpt lat="45.6276483" lon="10.5865033"><ele>75.75</ele><time>2026-03-28T17:04:59.877Z</time></trkpt><trkpt lat="45.6275267" lon="10.5864233"><ele>76.0</ele><time>2026-03-28T17:05:00.877Z</time></trkpt><trkpt lat="45.627415" lon="10.586325"><ele>76.0</ele><time>2026-03-28T17:05:01.877Z</time></trkpt><trkpt lat="45.6273117" lon="10.5862133"><ele>76.0</ele><time>2026-03-28T17:05:02.877Z</time></trkpt><trkpt lat="45.6272117" lon="10.5861017"><ele>76.0</ele><time>2026-03-28T17:05:03.877Z</time></trkpt><trkpt lat="45.6271067" lon="10.5859983"><ele>76.0</ele><time>2026-03-28T17:05:04.877Z</time></trkpt><trkpt lat="45.6270017" lon="10.5859"><ele>76.5</ele><time>2026-03-28T17:05:05.877Z</time></trkpt><trkpt lat="45.6268817" lon="10.5857983"><ele>77.0</ele><time>2026-03-28T17:05:06.877Z</time></trkpt><trkpt lat="45.626775" lon="10.5857017"><ele>77.5</ele><time>2026-03-28T17:05:07.877Z</time></trkpt><trkpt lat="45.6266683" lon="10.5856083"><ele>78.0</ele><time>2026-03-28T17:05:08.877Z</time></trkpt><trkpt lat="45.626575" lon="10.58551"><ele>78.0</ele><time>2026-03-28T17:05:09.877Z</time></trkpt><trkpt lat="45.626485" lon="10.5853983"><ele>78.0</ele><time>2026-03-28T17:05:10.877Z</time></trkpt><trkpt lat="45.6263983" lon="10.5852883"><ele>78.0</ele><time>2026-03-28T17:05:11.877Z</time></trkpt><trkpt lat="45.62632" lon="10.5851533"><ele>78.0</ele><time>2026-03-28T17:05:12.877Z</time></trkpt><trkpt lat="45.626245" lon="10.5849967"><ele>78.25</ele><time>2026-03-28T17:05:13.877Z</time></trkpt><trkpt lat="45.62617" lon="10.5848367"><ele>78.5</ele><time>2026-03-28T17:05:14.877Z</time></trkpt><trkpt lat="45.62612" lon="10.5846667"><ele>78.75</ele><time>2026-03-28T17:05:15.877Z</time></trkpt><trkpt lat="45.6260767" lon="10.5844933"><ele>79.0</ele><time>2026-03-28T17:05:16.877Z</time></trkpt><trkpt lat="45.626055" lon="10.5843217"><ele>77.75</ele><time>2026-03-28T17:05:17.878Z</time></trkpt><trkpt lat="45.6260467" lon="10.5841467"><ele>76.5</ele><time>2026-03-28T17:05:18.877Z</time></trkpt><trkpt lat="45.6260617" lon="10.5839683"><ele>75.25</ele><time>2026-03-28T17:05:19.877Z</time></trkpt><trkpt lat="45.6260883" lon="10.583795"><ele>74.0</ele><time>2026-03-28T17:05:20.877Z</time></trkpt><trkpt lat="45.6261133" lon="10.58364"><ele>73.60000000000001</ele><time>2026-03-28T17:05:21.877Z</time></trkpt><trkpt lat="45.6261317" lon="10.58348"><ele>73.2</ele><time>2026-03-28T17:05:22.877Z</time></trkpt><trkpt lat="45.6261517" lon="10.5833233"><ele>72.80000000000001</ele><time>2026-03-28T17:05:23.877Z</time></trkpt><trkpt lat="45.6261817" lon="10.5831667"><ele>72.4</ele><time>2026-03-28T17:05:24.877Z</time></trkpt><trkpt lat="45.6261983" lon="10.5830217"><ele>72.0</ele><time>2026-03-28T17:05:25.877Z</time></trkpt><trkpt lat="45.6262083" lon="10.5828717"><ele>74.6</ele><time>2026-03-28T17:05:26.877Z</time></trkpt><trkpt lat="45.626215" lon="10.58273"><ele>77.2</ele><time>2026-03-28T17:05:27.877Z</time></trkpt><trkpt lat="45.62622" lon="10.5825967"><ele>79.8</ele><time>2026-03-28T17:05:28.877Z</time></trkpt><trkpt lat="45.6262217" lon="10.58246"><ele>82.4</ele><time>2026-03-28T17:05:29.877Z</time></trkpt><trkpt lat="45.6262317" lon="10.58233"><ele>85.0</ele><time>2026-03-28T17:05:30.877Z</time></trkpt><trkpt lat="45.6262267" lon="10.5822067"><ele>85.0</ele><time>2026-03-28T17:05:31.877Z</time></trkpt><trkpt lat="45.6262233" lon="10.582095"><ele>85.0</ele><time>2026-03-28T17:05:32.878Z</time></trkpt><trkpt lat="45.62622" lon="10.5819883"><ele>85.0</ele><time>2026-03-28T17:05:33.877Z</time></trkpt><trkpt lat="45.6262183" lon="10.58189"><ele>85.0</ele><time>2026-03-28T17:05:34.878Z</time></trkpt><trkpt lat="45.626215" lon="10.5817983"><ele>85.0</ele><time>2026-03-28T17:05:35.877Z</time></trkpt><trkpt lat="45.626215" lon="10.5816233"><ele>85.0</ele><time>2026-03-28T17:05:37.877Z</time></trkpt><trkpt lat="45.6262083" lon="10.58144"><ele>85.0</ele><time>2026-03-28T17:05:39.877Z</time></trkpt><trkpt lat="45.6262017" lon="10.58134"><ele>85.0</ele><time>2026-03-28T17:05:40.877Z</time></trkpt><trkpt lat="45.6261967" lon="10.5812367"><ele>85.0</ele><time>2026-03-28T17:05:41.877Z</time></trkpt><trkpt lat="45.62619" lon="10.5811283"><ele>85.0</ele><time>2026-03-28T17:05:42.877Z</time></trkpt><trkpt lat="45.6261867" lon="10.5810217"><ele>85.0</ele><time>2026-03-28T17:05:43.877Z</time></trkpt><trkpt lat="45.6261917" lon="10.58092"><ele>85.0</ele><time>2026-03-28T17:05:44.877Z</time></trkpt><trkpt lat="45.6261883" lon="10.5808117"><ele>85.0</ele><time>2026-03-28T17:05:45.877Z</time></trkpt><trkpt lat="45.6261967" lon="10.5807"><ele>85.0</ele><time>2026-03-28T17:05:46.877Z</time></trkpt><trkpt lat="45.626195" lon="10.5805817"><ele>85.0</ele><time>2026-03-28T17:05:47.877Z</time></trkpt><trkpt lat="45.6261933" lon="10.5804667"><ele>85.0</ele><time>2026-03-28T17:05:48.877Z</time></trkpt><trkpt lat="45.6261933" lon="10.5803483"><ele>85.0</ele><time>2026-03-28T17:05:49.876Z</time></trkpt><trkpt lat="45.62619" lon="10.580225"><ele>85.0</ele><time>2026-03-28T17:05:50.877Z</time></trkpt><trkpt lat="45.6261883" lon="10.5801033"><ele>85.0</ele><time>2026-03-28T17:05:51.877Z</time></trkpt><trkpt lat="45.6261883" lon="10.57998"><ele>85.6</ele><time>2026-03-28T17:05:52.877Z</time></trkpt><trkpt lat="45.6261917" lon="10.5798467"><ele>86.2</ele><time>2026-03-28T17:05:53.877Z</time></trkpt><trkpt lat="45.6261917" lon="10.5797117"><ele>86.80000000000001</ele><time>2026-03-28T17:05:54.877Z</time></trkpt><trkpt lat="45.626195" lon="10.5795767"><ele>87.4</ele><time>2026-03-28T17:05:55.877Z</time></trkpt><trkpt lat="45.6261867" lon="10.5794467"><ele>88.0</ele><time>2026-03-28T17:05:56.877Z</time></trkpt><trkpt lat="45.62618" lon="10.5793117"><ele>88.0</ele><time>2026-03-28T17:05:57.878Z</time></trkpt><trkpt lat="45.6261683" lon="10.5791783"><ele>88.0</ele><time>2026-03-28T17:05:58.877Z</time></trkpt><trkpt lat="45.62616" lon="10.5790433"><ele>88.0</ele><time>2026-03-28T17:05:59.877Z</time></trkpt><trkpt lat="45.6261383" lon="10.5789083"><ele>88.0</ele><time>2026-03-28T17:06:00.877Z</time></trkpt><trkpt lat="45.6261217" lon="10.5787817"><ele>88.0</ele><time>2026-03-28T17:06:01.877Z</time></trkpt><trkpt lat="45.6261083" lon="10.578645"><ele>85.2</ele><time>2026-03-28T17:06:02.877Z</time></trkpt><trkpt lat="45.6260917" lon="10.5785033"><ele>82.4</ele><time>2026-03-28T17:06:03.877Z</time></trkpt><trkpt lat="45.6260717" lon="10.578355"><ele>79.60000000000001</ele><time>2026-03-28T17:06:04.878Z</time></trkpt><trkpt lat="45.6260517" lon="10.5781983"><ele>76.80000000000001</ele><time>2026-03-28T17:06:05.877Z</time></trkpt><trkpt lat="45.6260333" lon="10.5780367"><ele>74.0</ele><time>2026-03-28T17:06:06.877Z</time></trkpt><trkpt lat="45.6260133" lon="10.5778783"><ele>74.8</ele><time>2026-03-28T17:06:07.877Z</time></trkpt><trkpt lat="45.625995" lon="10.57772"><ele>75.60000000000001</ele><time>2026-03-28T17:06:08.877Z</time></trkpt><trkpt lat="45.6259767" lon="10.57756"><ele>76.4</ele><time>2026-03-28T17:06:09.877Z</time></trkpt><trkpt lat="45.6259583" lon="10.5773967"><ele>77.2</ele><time>2026-03-28T17:06:10.877Z</time></trkpt><trkpt lat="45.6259467" lon="10.5772433"><ele>78.0</ele><time>2026-03-28T17:06:11.877Z</time></trkpt><trkpt lat="45.6259267" lon="10.5771033"><ele>78.6</ele><time>2026-03-28T17:06:12.877Z</time></trkpt><trkpt lat="45.6259" lon="10.576965"><ele>79.19999999999999</ele><time>2026-03-28T17:06:13.877Z</time></trkpt><trkpt lat="45.6258683" lon="10.5768317"><ele>79.8</ele><time>2026-03-28T17:06:14.877Z</time></trkpt><trkpt lat="45.6258367" lon="10.576705"><ele>80.39999999999999</ele><time>2026-03-28T17:06:15.877Z</time></trkpt><trkpt lat="45.6258067" lon="10.5765767"><ele>81.0</ele><time>2026-03-28T17:06:16.877Z</time></trkpt><trkpt lat="45.6257783" lon="10.5764517"><ele>81.0</ele><time>2026-03-28T17:06:17.877Z</time></trkpt><trkpt lat="45.6257483" lon="10.5763317"><ele>81.0</ele><time>2026-03-28T17:06:18.877Z</time></trkpt><trkpt lat="45.62572" lon="10.57622"><ele>81.0</ele><time>2026-03-28T17:06:19.877Z</time></trkpt><trkpt lat="45.62569" lon="10.5761133"><ele>81.0</ele><time>2026-03-28T17:06:20.877Z</time></trkpt><trkpt lat="45.6256617" lon="10.5760267"><ele>81.0</ele><time>2026-03-28T17:06:21.877Z</time></trkpt><trkpt lat="45.6256267" lon="10.5758783"><ele>81.0</ele><time>2026-03-28T17:06:23.877Z</time></trkpt><trkpt lat="45.62558" lon="10.57573"><ele>82.0</ele><time>2026-03-28T17:06:25.877Z</time></trkpt><trkpt lat="45.6255433" lon="10.5756233"><ele>83.0</ele><time>2026-03-28T17:06:26.877Z</time></trkpt><trkpt lat="45.62551" lon="10.5755167"><ele>84.0</ele><time>2026-03-28T17:06:27.877Z</time></trkpt><trkpt lat="45.6254733" lon="10.5754017"><ele>85.0</ele><time>2026-03-28T17:06:28.877Z</time></trkpt><trkpt lat="45.6254383" lon="10.5752933"><ele>86.0</ele><time>2026-03-28T17:06:29.877Z</time></trkpt><trkpt lat="45.6254033" lon="10.5751883"><ele>87.0</ele><time>2026-03-28T17:06:30.877Z</time></trkpt><trkpt lat="45.6253633" lon="10.5750683"><ele>89.6</ele><time>2026-03-28T17:06:31.877Z</time></trkpt><trkpt lat="45.6253233" lon="10.57495"><ele>92.19999999999999</ele><time>2026-03-28T17:06:32.877Z</time></trkpt><trkpt lat="45.6252783" lon="10.57483"><ele>94.8</ele><time>2026-03-28T17:06:33.877Z</time></trkpt><trkpt lat="45.6252317" lon="10.5747183"><ele>97.4</ele><time>2026-03-28T17:06:34.877Z</time></trkpt><trkpt lat="45.6251783" lon="10.574615"><ele>100.0</ele><time>2026-03-28T17:06:35.877Z</time></trkpt><trkpt lat="45.62512" lon="10.574525"><ele>96.4</ele><time>2026-03-28T17:06:36.877Z</time></trkpt><trkpt lat="45.6250617" lon="10.5744317"><ele>92.8</ele><time>2026-03-28T17:06:37.877Z</time></trkpt><trkpt lat="45.6249933" lon="10.5743383"><ele>89.19999999999999</ele><time>2026-03-28T17:06:38.877Z</time></trkpt><trkpt lat="45.62492" lon="10.5742417"><ele>85.6</ele><time>2026-03-28T17:06:39.877Z</time></trkpt><trkpt lat="45.6248533" lon="10.5741367"><ele>82.0</ele><time>2026-03-28T17:06:40.877Z</time></trkpt><trkpt lat="45.62478" lon="10.5740483"><ele>82.0</ele><time>2026-03-28T17:06:41.878Z</time></trkpt><trkpt lat="45.6247067" lon="10.5739733"><ele>82.0</ele><time>2026-03-28T17:06:42.877Z</time></trkpt><trkpt lat="45.62465" lon="10.5738983"><ele>82.0</ele><time>2026-03-28T17:06:43.877Z</time></trkpt><trkpt lat="45.6245633" lon="10.57382"><ele>82.0</ele><time>2026-03-28T17:06:45.877Z</time></trkpt><trkpt lat="45.624475" lon="10.5737217"><ele>82.0</ele><time>2026-03-28T17:06:47.877Z</time></trkpt><trkpt lat="45.6244083" lon="10.57365"><ele>81.0</ele><time>2026-03-28T17:06:49.877Z</time></trkpt><trkpt lat="45.6243417" lon="10.57353"><ele>80.0</ele><time>2026-03-28T17:06:51.878Z</time></trkpt><trkpt lat="45.62431" lon="10.5734433"><ele>79.0</ele><time>2026-03-28T17:06:52.877Z</time></trkpt><trkpt lat="45.624245" lon="10.573305"><ele>78.0</ele><time>2026-03-28T17:06:54.877Z</time></trkpt><trkpt lat="45.6241967" lon="10.573195"><ele>77.0</ele><time>2026-03-28T17:06:56.877Z</time></trkpt><trkpt lat="45.6241583" lon="10.5730983"><ele>77.0</ele><time>2026-03-28T17:06:58.877Z</time></trkpt><trkpt lat="45.62411" lon="10.5729717"><ele>77.0</ele><time>2026-03-28T17:07:00.877Z</time></trkpt><trkpt lat="45.6240717" lon="10.57286"><ele>77.0</ele><time>2026-03-28T17:07:02.877Z</time></trkpt><trkpt lat="45.6240417" lon="10.57278"><ele>77.0</ele><time>2026-03-28T17:07:04.877Z</time></trkpt><trkpt lat="45.62401" lon="10.572675"><ele>77.0</ele><time>2026-03-28T17:07:07.877Z</time></trkpt><trkpt lat="45.6239817" lon="10.57259"><ele>77.0</ele><time>2026-03-28T17:07:10.877Z</time></trkpt><trkpt lat="45.623955" lon="10.5724817"><ele>77.83333333333334</ele><time>2026-03-28T17:07:13.877Z</time></trkpt><trkpt lat="45.6239" lon="10.57228"><ele>78.66666666666667</ele><time>2026-03-28T17:07:16.877Z</time></trkpt><trkpt lat="45.6238733" lon="10.572195"><ele>79.5</ele><time>2026-03-28T17:07:17.877Z</time></trkpt><trkpt lat="45.6238517" lon="10.572105"><ele>80.33333333333333</ele><time>2026-03-28T17:07:18.877Z</time></trkpt><trkpt lat="45.62382" lon="10.572005"><ele>81.16666666666666</ele><time>2026-03-28T17:07:19.877Z</time></trkpt><trkpt lat="45.6237833" lon="10.571895"><ele>82.0</ele><time>2026-03-28T17:07:20.877Z</time></trkpt><trkpt lat="45.6237433" lon="10.5717867"><ele>82.66666666666666</ele><time>2026-03-28T17:07:21.877Z</time></trkpt><trkpt lat="45.6236917" lon="10.57168"><ele>83.33333333333333</ele><time>2026-03-28T17:07:22.877Z</time></trkpt><trkpt lat="45.62364" lon="10.5715733"><ele>84.0</ele><time>2026-03-28T17:07:23.877Z</time></trkpt><trkpt lat="45.6235883" lon="10.571475"><ele>84.66666666666667</ele><time>2026-03-28T17:07:24.877Z</time></trkpt><trkpt lat="45.62354" lon="10.5714017"><ele>85.33333333333334</ele><time>2026-03-28T17:07:25.877Z</time></trkpt><trkpt lat="45.6235" lon="10.57133"><ele>86.0</ele><time>2026-03-28T17:07:26.877Z</time></trkpt><trkpt lat="45.6234517" lon="10.5712567"><ele>85.16666666666667</ele><time>2026-03-28T17:07:27.877Z</time></trkpt><trkpt lat="45.62339" lon="10.57119"><ele>84.33333333333334</ele><time>2026-03-28T17:07:28.877Z</time></trkpt><trkpt lat="45.62332" lon="10.5711067"><ele>83.5</ele><time>2026-03-28T17:07:29.877Z</time></trkpt><trkpt lat="45.6232567" lon="10.5710283"><ele>82.66666666666667</ele><time>2026-03-28T17:07:30.877Z</time></trkpt><trkpt lat="45.6231867" lon="10.5709533"><ele>81.83333333333333</ele><time>2026-03-28T17:07:31.877Z</time></trkpt><trkpt lat="45.6231217" lon="10.5708767"><ele>81.0</ele><time>2026-03-28T17:07:32.877Z</time></trkpt><trkpt lat="45.6230517" lon="10.5708"><ele>81.0</ele><time>2026-03-28T17:07:33.877Z</time></trkpt><trkpt lat="45.622985" lon="10.5707283"><ele>81.0</ele><time>2026-03-28T17:07:34.877Z</time></trkpt><trkpt lat="45.622915" lon="10.5706517"><ele>81.0</ele><time>2026-03-28T17:07:35.877Z</time></trkpt><trkpt lat="45.6228533" lon="10.5705733"><ele>81.0</ele><time>2026-03-28T17:07:36.877Z</time></trkpt><trkpt lat="45.62279" lon="10.5705"><ele>81.0</ele><time>2026-03-28T17:07:37.877Z</time></trkpt><trkpt lat="45.62274" lon="10.5704217"><ele>81.0</ele><time>2026-03-28T17:07:38.878Z</time></trkpt><trkpt lat="45.622685" lon="10.5703367"><ele>79.8</ele><time>2026-03-28T17:07:39.877Z</time></trkpt><trkpt lat="45.6226317" lon="10.57024"><ele>78.6</ele><time>2026-03-28T17:07:40.877Z</time></trkpt><trkpt lat="45.6225667" lon="10.57012"><ele>77.4</ele><time>2026-03-28T17:07:41.877Z</time></trkpt><trkpt lat="45.6224967" lon="10.5700017"><ele>76.2</ele><time>2026-03-28T17:07:42.877Z</time></trkpt><trkpt lat="45.6224367" lon="10.5698817"><ele>75.0</ele><time>2026-03-28T17:07:43.877Z</time></trkpt><trkpt lat="45.6223767" lon="10.5697717"><ele>75.0</ele><time>2026-03-28T17:07:44.877Z</time></trkpt><trkpt lat="45.62232" lon="10.5696633"><ele>75.0</ele><time>2026-03-28T17:07:45.877Z</time></trkpt><trkpt lat="45.6222667" lon="10.5695467"><ele>75.0</ele><time>2026-03-28T17:07:46.877Z</time></trkpt><trkpt lat="45.6222167" lon="10.5694233"><ele>75.0</ele><time>2026-03-28T17:07:47.877Z</time></trkpt><trkpt lat="45.62216" lon="10.56929"><ele>75.0</ele><time>2026-03-28T17:07:48.877Z</time></trkpt><trkpt lat="45.6221033" lon="10.5691633"><ele>75.2</ele><time>2026-03-28T17:07:49.878Z</time></trkpt><trkpt lat="45.622055" lon="10.56905"><ele>75.4</ele><time>2026-03-28T17:07:50.877Z</time></trkpt><trkpt lat="45.6220183" lon="10.5689567"><ele>75.6</ele><time>2026-03-28T17:07:51.877Z</time></trkpt><trkpt lat="45.6219617" lon="10.5688167"><ele>75.8</ele><time>2026-03-28T17:07:53.877Z</time></trkpt><trkpt lat="45.6219133" lon="10.568715"><ele>76.0</ele><time>2026-03-28T17:07:55.877Z</time></trkpt><trkpt lat="45.6218517" lon="10.5685917"><ele>76.0</ele><time>2026-03-28T17:07:57.877Z</time></trkpt><trkpt lat="45.6217733" lon="10.5684317"><ele>76.0</ele><time>2026-03-28T17:07:59.877Z</time></trkpt><trkpt lat="45.621725" lon="10.56833"><ele>76.0</ele><time>2026-03-28T17:08:00.877Z</time></trkpt><trkpt lat="45.6216783" lon="10.5682317"><ele>76.0</ele><time>2026-03-28T17:08:01.878Z</time></trkpt><trkpt lat="45.6216367" lon="10.5681533"><ele>76.0</ele><time>2026-03-28T17:08:02.877Z</time></trkpt><trkpt lat="45.6215633" lon="10.5680483"><ele>76.0</ele><time>2026-03-28T17:08:04.877Z</time></trkpt><trkpt lat="45.62152" lon="10.5679733"><ele>76.0</ele><time>2026-03-28T17:08:05.877Z</time></trkpt><trkpt lat="45.6214667" lon="10.5678933"><ele>76.0</ele><time>2026-03-28T17:08:06.877Z</time></trkpt><trkpt lat="45.6214067" lon="10.5678"><ele>76.0</ele><time>2026-03-28T17:08:07.877Z</time></trkpt><trkpt lat="45.6213533" lon="10.5676983"><ele>76.0</ele><time>2026-03-28T17:08:08.877Z</time></trkpt><trkpt lat="45.6213067" lon="10.567605"><ele>76.0</ele><time>2026-03-28T17:08:09.877Z</time></trkpt><trkpt lat="45.621255" lon="10.567515"><ele>75.83333333333333</ele><time>2026-03-28T17:08:10.877Z</time></trkpt><trkpt lat="45.6212017" lon="10.5674233"><ele>75.66666666666666</ele><time>2026-03-28T17:08:11.877Z</time></trkpt><trkpt lat="45.6211433" lon="10.5673283"><ele>75.5</ele><time>2026-03-28T17:08:12.877Z</time></trkpt><trkpt lat="45.6210867" lon="10.56725"><ele>75.33333333333333</ele><time>2026-03-28T17:08:13.877Z</time></trkpt><trkpt lat="45.6210383" lon="10.5671767"><ele>75.16666666666667</ele><time>2026-03-28T17:08:14.877Z</time></trkpt><trkpt lat="45.6209833" lon="10.567095"><ele>75.0</ele><time>2026-03-28T17:08:15.878Z</time></trkpt><trkpt lat="45.6209333" lon="10.5670133"><ele>75.0</ele><time>2026-03-28T17:08:16.877Z</time></trkpt><trkpt lat="45.6208733" lon="10.5669317"><ele>75.0</ele><time>2026-03-28T17:08:17.877Z</time></trkpt><trkpt lat="45.6208083" lon="10.5668483"><ele>75.0</ele><time>2026-03-28T17:08:18.877Z</time></trkpt><trkpt lat="45.6207533" lon="10.56676"><ele>75.0</ele><time>2026-03-28T17:08:19.877Z</time></trkpt><trkpt lat="45.6206933" lon="10.5666817"><ele>75.0</ele><time>2026-03-28T17:08:20.877Z</time></trkpt><trkpt lat="45.6206317" lon="10.5666067"><ele>75.0</ele><time>2026-03-28T17:08:21.877Z</time></trkpt><trkpt lat="45.62056" lon="10.5665167"><ele>75.0</ele><time>2026-03-28T17:08:22.877Z</time></trkpt><trkpt lat="45.6204883" lon="10.5664117"><ele>75.0</ele><time>2026-03-28T17:08:23.878Z</time></trkpt><trkpt lat="45.62042" lon="10.5663117"><ele>75.0</ele><time>2026-03-28T17:08:24.877Z</time></trkpt><trkpt lat="45.6203467" lon="10.5662033"><ele>75.0</ele><time>2026-03-28T17:08:25.877Z</time></trkpt><trkpt lat="45.620265" lon="10.5661017"><ele>75.0</ele><time>2026-03-28T17:08:26.877Z</time></trkpt><trkpt lat="45.620195" lon="10.56599"><ele>73.8</ele><time>2026-03-28T17:08:27.877Z</time></trkpt><trkpt lat="45.62012" lon="10.5658617"><ele>72.6</ele><time>2026-03-28T17:08:28.878Z</time></trkpt><trkpt lat="45.6200433" lon="10.565735"><ele>71.4</ele><time>2026-03-28T17:08:29.877Z</time></trkpt><trkpt lat="45.61997" lon="10.565625"><ele>70.2</ele><time>2026-03-28T17:08:30.878Z</time></trkpt><trkpt lat="45.6199033" lon="10.5655267"><ele>69.0</ele><time>2026-03-28T17:08:31.877Z</time></trkpt><trkpt lat="45.6198417" lon="10.565435"><ele>70.2</ele><time>2026-03-28T17:08:32.877Z</time></trkpt><trkpt lat="45.6197817" lon="10.5653483"><ele>71.4</ele><time>2026-03-28T17:08:33.877Z</time></trkpt><trkpt lat="45.6197117" lon="10.5652167"><ele>72.6</ele><time>2026-03-28T17:08:35.877Z</time></trkpt><trkpt lat="45.6196433" lon="10.5651267"><ele>73.8</ele><time>2026-03-28T17:08:37.878Z</time></trkpt><trkpt lat="45.61957" lon="10.5650133"><ele>75.0</ele><time>2026-03-28T17:08:39.877Z</time></trkpt><trkpt lat="45.6195" lon="10.564885"><ele>74.6</ele><time>2026-03-28T17:08:41.877Z</time></trkpt><trkpt lat="45.61945" lon="10.5647783"><ele>74.2</ele><time>2026-03-28T17:08:43.877Z</time></trkpt><trkpt lat="45.619395" lon="10.56464"><ele>73.8</ele><time>2026-03-28T17:08:45.877Z</time></trkpt><trkpt lat="45.6193583" lon="10.5644817"><ele>73.4</ele><time>2026-03-28T17:08:47.877Z</time></trkpt><trkpt lat="45.619325" lon="10.5644017"><ele>73.0</ele><time>2026-03-28T17:08:48.877Z</time></trkpt><trkpt lat="45.6192933" lon="10.5642967"><ele>73.0</ele><time>2026-03-28T17:08:49.877Z</time></trkpt><trkpt lat="45.6192583" lon="10.564195"><ele>73.0</ele><time>2026-03-28T17:08:50.877Z</time></trkpt><trkpt lat="45.6192133" lon="10.5640817"><ele>73.0</ele><time>2026-03-28T17:08:51.877Z</time></trkpt><trkpt lat="45.6191733" lon="10.5639833"><ele>73.0</ele><time>2026-03-28T17:08:52.877Z</time></trkpt><trkpt lat="45.61915" lon="10.5638967"><ele>73.0</ele><time>2026-03-28T17:08:53.877Z</time></trkpt><trkpt lat="45.6191233" lon="10.5638083"><ele>73.0</ele><time>2026-03-28T17:08:54.877Z</time></trkpt><trkpt lat="45.6190917" lon="10.5636717"><ele>73.5</ele><time>2026-03-28T17:08:56.878Z</time></trkpt><trkpt lat="45.61906" lon="10.5635533"><ele>74.0</ele><time>2026-03-28T17:09:00.877Z</time></trkpt><trkpt lat="45.619045" lon="10.5634533"><ele>74.5</ele><time>2026-03-28T17:09:02.877Z</time></trkpt><trkpt lat="45.619005" lon="10.5633233"><ele>75.0</ele><time>2026-03-28T17:09:04.877Z</time></trkpt><trkpt lat="45.618955" lon="10.5631683"><ele>75.5</ele><time>2026-03-28T17:09:06.877Z</time></trkpt><trkpt lat="45.6189267" lon="10.5630767"><ele>76.0</ele><time>2026-03-28T17:09:07.877Z</time></trkpt><trkpt lat="45.618895" lon="10.56298"><ele>76.0</ele><time>2026-03-28T17:09:08.877Z</time></trkpt><trkpt lat="45.6188633" lon="10.5628867"><ele>76.0</ele><time>2026-03-28T17:09:09.878Z</time></trkpt><trkpt lat="45.6188283" lon="10.5627467"><ele>76.0</ele><time>2026-03-28T17:09:11.877Z</time></trkpt><trkpt lat="45.6188083" lon="10.5626533"><ele>76.0</ele><time>2026-03-28T17:09:14.877Z</time></trkpt><trkpt lat="45.6187933" lon="10.562565"><ele>76.0</ele><time>2026-03-28T17:09:29.877Z</time></trkpt><trkpt lat="45.61876" lon="10.5624133"><ele>76.0</ele><time>2026-03-28T17:09:31.877Z</time></trkpt><trkpt lat="45.6187333" lon="10.5623033"><ele>76.8</ele><time>2026-03-28T17:09:32.877Z</time></trkpt><trkpt lat="45.6187067" lon="10.56218"><ele>77.6</ele><time>2026-03-28T17:09:33.878Z</time></trkpt><trkpt lat="45.6186783" lon="10.56205"><ele>78.4</ele><time>2026-03-28T17:09:34.878Z</time></trkpt><trkpt lat="45.6186483" lon="10.56191"><ele>79.2</ele><time>2026-03-28T17:09:35.878Z</time></trkpt><trkpt lat="45.6186167" lon="10.5617667"><ele>80.0</ele><time>2026-03-28T17:09:36.877Z</time></trkpt><trkpt lat="45.618585" lon="10.5616267"><ele>78.83333333333334</ele><time>2026-03-28T17:09:37.878Z</time></trkpt><trkpt lat="45.6185483" lon="10.561495"><ele>77.66666666666667</ele><time>2026-03-28T17:09:38.877Z</time></trkpt><trkpt lat="45.61852" lon="10.5613567"><ele>76.5</ele><time>2026-03-28T17:09:39.877Z</time></trkpt><trkpt lat="45.6184933" lon="10.56124"><ele>75.33333333333333</ele><time>2026-03-28T17:09:40.877Z</time></trkpt><trkpt lat="45.6184733" lon="10.5611417"><ele>74.16666666666666</ele><time>2026-03-28T17:09:41.877Z</time></trkpt><trkpt lat="45.6184567" lon="10.5610333"><ele>73.0</ele><time>2026-03-28T17:09:42.877Z</time></trkpt><trkpt lat="45.61844" lon="10.5609133"><ele>73.0</ele><time>2026-03-28T17:09:43.878Z</time></trkpt><trkpt lat="45.6184133" lon="10.5608"><ele>73.0</ele><time>2026-03-28T17:09:44.877Z</time></trkpt><trkpt lat="45.6184" lon="10.5606633"><ele>73.0</ele><time>2026-03-28T17:09:45.877Z</time></trkpt><trkpt lat="45.618375" lon="10.560535"><ele>73.0</ele><time>2026-03-28T17:09:46.877Z</time></trkpt><trkpt lat="45.6183517" lon="10.5604033"><ele>73.0</ele><time>2026-03-28T17:09:47.877Z</time></trkpt><trkpt lat="45.6183317" lon="10.5602883"><ele>73.16666666666666</ele><time>2026-03-28T17:09:48.877Z</time></trkpt><trkpt lat="45.6183217" lon="10.5601867"><ele>73.33333333333333</ele><time>2026-03-28T17:09:49.877Z</time></trkpt><trkpt lat="45.6183133" lon="10.5600917"><ele>73.5</ele><time>2026-03-28T17:09:50.877Z</time></trkpt><trkpt lat="45.61828" lon="10.5599017"><ele>73.66666666666667</ele><time>2026-03-28T17:09:52.877Z</time></trkpt><trkpt lat="45.6182583" lon="10.5597933"><ele>73.83333333333334</ele><time>2026-03-28T17:09:53.877Z</time></trkpt><trkpt lat="45.6182333" lon="10.5596783"><ele>74.0</ele><time>2026-03-28T17:09:54.877Z</time></trkpt><trkpt lat="45.6182117" lon="10.55957"><ele>74.33333333333334</ele><time>2026-03-28T17:09:55.877Z</time></trkpt><trkpt lat="45.61819" lon="10.5594633"><ele>74.66666666666667</ele><time>2026-03-28T17:09:56.877Z</time></trkpt><trkpt lat="45.6181683" lon="10.5593617"><ele>75.0</ele><time>2026-03-28T17:09:57.878Z</time></trkpt><trkpt lat="45.61815" lon="10.55927"><ele>75.33333333333333</ele><time>2026-03-28T17:09:58.877Z</time></trkpt><trkpt lat="45.6181333" lon="10.5591767"><ele>75.66666666666666</ele><time>2026-03-28T17:09:59.877Z</time></trkpt><trkpt lat="45.6181167" lon="10.5590783"><ele>76.0</ele><time>2026-03-28T17:10:00.877Z</time></trkpt><trkpt lat="45.6180867" lon="10.5589017"><ele>76.0</ele><time>2026-03-28T17:10:02.877Z</time></trkpt><trkpt lat="45.618065" lon="10.5588017"><ele>76.0</ele><time>2026-03-28T17:10:03.877Z</time></trkpt><trkpt lat="45.6180483" lon="10.5587067"><ele>76.0</ele><time>2026-03-28T17:10:04.877Z</time></trkpt><trkpt lat="45.618" lon="10.5585517"><ele>76.0</ele><time>2026-03-28T17:10:06.877Z</time></trkpt><trkpt lat="45.6179517" lon="10.558405"><ele>76.0</ele><time>2026-03-28T17:10:08.877Z</time></trkpt><trkpt lat="45.617925" lon="10.5583067"><ele>76.0</ele><time>2026-03-28T17:10:11.878Z</time></trkpt><trkpt lat="45.6178883" lon="10.5582067"><ele>75.8</ele><time>2026-03-28T17:10:20.877Z</time></trkpt><trkpt lat="45.617825" lon="10.5580367"><ele>75.6</ele><time>2026-03-28T17:10:42.878Z</time></trkpt><trkpt lat="45.6177817" lon="10.5579567"><ele>75.4</ele><time>2026-03-28T17:10:43.877Z</time></trkpt><trkpt lat="45.6177217" lon="10.5578517"><ele>75.2</ele><time>2026-03-28T17:10:44.877Z</time></trkpt><trkpt lat="45.6176467" lon="10.55773"><ele>75.0</ele><time>2026-03-28T17:10:45.877Z</time></trkpt><trkpt lat="45.61758" lon="10.5576167"><ele>75.66666666666667</ele><time>2026-03-28T17:10:46.877Z</time></trkpt><trkpt lat="45.61752" lon="10.557505"><ele>76.33333333333333</ele><time>2026-03-28T17:10:47.877Z</time></trkpt><trkpt lat="45.617465" lon="10.5574117"><ele>77.0</ele><time>2026-03-28T17:10:48.878Z</time></trkpt><trkpt lat="45.6174117" lon="10.5573183"><ele>77.66666666666666</ele><time>2026-03-28T17:10:49.877Z</time></trkpt><trkpt lat="45.617365" lon="10.5572233"><ele>78.33333333333333</ele><time>2026-03-28T17:10:50.877Z</time></trkpt><trkpt lat="45.617315" lon="10.5571317"><ele>79.0</ele><time>2026-03-28T17:10:51.877Z</time></trkpt><trkpt lat="45.617275" lon="10.5570483"><ele>79.2</ele><time>2026-03-28T17:10:52.877Z</time></trkpt><trkpt lat="45.6172417" lon="10.5569717"><ele>79.4</ele><time>2026-03-28T17:10:53.877Z</time></trkpt><trkpt lat="45.617185" lon="10.5568267"><ele>79.6</ele><time>2026-03-28T17:10:55.877Z</time></trkpt><trkpt lat="45.61712" lon="10.5566883"><ele>79.8</ele><time>2026-03-28T17:10:57.877Z</time></trkpt><trkpt lat="45.61706" lon="10.5565917"><ele>80.0</ele><time>2026-03-28T17:10:59.877Z</time></trkpt><trkpt lat="45.6170133" lon="10.556515"><ele>79.5</ele><time>2026-03-28T17:11:01.877Z</time></trkpt><trkpt lat="45.61696" lon="10.5564367"><ele>79.0</ele><time>2026-03-28T17:11:07.877Z</time></trkpt><trkpt lat="45.6169067" lon="10.556345"><ele>78.5</ele><time>2026-03-28T17:11:10.877Z</time></trkpt><trkpt lat="45.6168383" lon="10.5561967"><ele>78.0</ele><time>2026-03-28T17:11:12.877Z</time></trkpt><trkpt lat="45.6167967" lon="10.5561233"><ele>77.5</ele><time>2026-03-28T17:11:13.877Z</time></trkpt><trkpt lat="45.6167533" lon="10.5560517"><ele>77.0</ele><time>2026-03-28T17:11:14.878Z</time></trkpt><trkpt lat="45.6167133" lon="10.55598"><ele>77.0</ele><time>2026-03-28T17:11:15.877Z</time></trkpt><trkpt lat="45.6166633" lon="10.5558833"><ele>77.0</ele><time>2026-03-28T17:11:16.877Z</time></trkpt><trkpt lat="45.616615" lon="10.55579"><ele>77.0</ele><time>2026-03-28T17:11:17.877Z</time></trkpt><trkpt lat="45.6165633" lon="10.5557"><ele>77.0</ele><time>2026-03-28T17:11:18.877Z</time></trkpt><trkpt lat="45.6165117" lon="10.5556033"><ele>77.0</ele><time>2026-03-28T17:11:19.877Z</time></trkpt><trkpt lat="45.616455" lon="10.5554933"><ele>77.0</ele><time>2026-03-28T17:11:20.877Z</time></trkpt><trkpt lat="45.6164033" lon="10.5553717"><ele>77.0</ele><time>2026-03-28T17:11:21.877Z</time></trkpt><trkpt lat="45.6163467" lon="10.5552533"><ele>77.0</ele><time>2026-03-28T17:11:22.877Z</time></trkpt><trkpt lat="45.6162833" lon="10.55513"><ele>77.0</ele><time>2026-03-28T17:11:23.877Z</time></trkpt><trkpt lat="45.6162183" lon="10.5550017"><ele>77.0</ele><time>2026-03-28T17:11:24.877Z</time></trkpt><trkpt lat="45.6161583" lon="10.55487"><ele>77.0</ele><time>2026-03-28T17:11:25.877Z</time></trkpt><trkpt lat="45.6160983" lon="10.5547517"><ele>77.0</ele><time>2026-03-28T17:11:26.877Z</time></trkpt><trkpt lat="45.6160533" lon="10.5546467"><ele>77.0</ele><time>2026-03-28T17:11:27.877Z</time></trkpt><trkpt lat="45.6160083" lon="10.5545533"><ele>77.0</ele><time>2026-03-28T17:11:28.877Z</time></trkpt><trkpt lat="45.6159683" lon="10.55446"><ele>77.0</ele><time>2026-03-28T17:11:29.877Z</time></trkpt><trkpt lat="45.6159317" lon="10.55438"><ele>77.0</ele><time>2026-03-28T17:11:30.878Z</time></trkpt><trkpt lat="45.6158967" lon="10.554305"><ele>77.0</ele><time>2026-03-28T17:11:31.877Z</time></trkpt><trkpt lat="45.6158367" lon="10.5542"><ele>77.66666666666667</ele><time>2026-03-28T17:11:33.877Z</time></trkpt><trkpt lat="45.6157883" lon="10.554105"><ele>78.33333333333334</ele><time>2026-03-28T17:11:35.877Z</time></trkpt><trkpt lat="45.6157383" lon="10.5540117"><ele>79.0</ele><time>2026-03-28T17:11:37.877Z</time></trkpt><trkpt lat="45.615675" lon="10.5538933"><ele>79.66666666666667</ele><time>2026-03-28T17:11:39.877Z</time></trkpt><trkpt lat="45.6156333" lon="10.5538133"><ele>80.33333333333333</ele><time>2026-03-28T17:11:40.877Z</time></trkpt><trkpt lat="45.615585" lon="10.5537117"><ele>81.0</ele><time>2026-03-28T17:11:41.877Z</time></trkpt><trkpt lat="45.61554" lon="10.5536083"><ele>81.16666666666667</ele><time>2026-03-28T17:11:42.877Z</time></trkpt><trkpt lat="45.615495" lon="10.5535017"><ele>81.33333333333333</ele><time>2026-03-28T17:11:43.877Z</time></trkpt><trkpt lat="45.6154467" lon="10.5534017"><ele>81.5</ele><time>2026-03-28T17:11:44.877Z</time></trkpt><trkpt lat="45.6154167" lon="10.5532983"><ele>81.66666666666666</ele><time>2026-03-28T17:11:45.877Z</time></trkpt><trkpt lat="45.6153767" lon="10.5531917"><ele>81.83333333333333</ele><time>2026-03-28T17:11:46.877Z</time></trkpt><trkpt lat="45.6153317" lon="10.5530867"><ele>82.0</ele><time>2026-03-28T17:11:47.877Z</time></trkpt><trkpt lat="45.615285" lon="10.55297"><ele>80.8</ele><time>2026-03-28T17:11:48.877Z</time></trkpt><trkpt lat="45.61524" lon="10.5528483"><ele>79.6</ele><time>2026-03-28T17:11:49.877Z</time></trkpt><trkpt lat="45.6151917" lon="10.552745"><ele>78.39999999999999</ele><time>2026-03-28T17:11:50.877Z</time></trkpt><trkpt lat="45.6151467" lon="10.55263"><ele>77.19999999999999</ele><time>2026-03-28T17:11:51.877Z</time></trkpt><trkpt lat="45.615095" lon="10.5524983"><ele>76.0</ele><time>2026-03-28T17:11:52.877Z</time></trkpt><trkpt lat="45.61504" lon="10.5523517"><ele>76.0</ele><time>2026-03-28T17:11:53.877Z</time></trkpt><trkpt lat="45.6149883" lon="10.5522133"><ele>76.0</ele><time>2026-03-28T17:11:54.877Z</time></trkpt><trkpt lat="45.6149467" lon="10.5520833"><ele>76.0</ele><time>2026-03-28T17:11:55.877Z</time></trkpt><trkpt lat="45.614895" lon="10.551965"><ele>76.0</ele><time>2026-03-28T17:11:56.877Z</time></trkpt><trkpt lat="45.6148483" lon="10.5518533"><ele>76.0</ele><time>2026-03-28T17:11:57.877Z</time></trkpt><trkpt lat="45.6147933" lon="10.5517333"><ele>76.2</ele><time>2026-03-28T17:11:58.877Z</time></trkpt><trkpt lat="45.61475" lon="10.55161"><ele>76.39999999999999</ele><time>2026-03-28T17:11:59.877Z</time></trkpt><trkpt lat="45.6146967" lon="10.551475"><ele>76.6</ele><time>2026-03-28T17:12:00.877Z</time></trkpt><trkpt lat="45.6146533" lon="10.5513533"><ele>76.8</ele><time>2026-03-28T17:12:01.877Z</time></trkpt><trkpt lat="45.6146083" lon="10.551235"><ele>77.0</ele><time>2026-03-28T17:12:02.877Z</time></trkpt><trkpt lat="45.614565" lon="10.5511233"><ele>77.5</ele><time>2026-03-28T17:12:03.877Z</time></trkpt><trkpt lat="45.6145183" lon="10.55101"><ele>78.0</ele><time>2026-03-28T17:12:04.877Z</time></trkpt><trkpt lat="45.6144767" lon="10.5508983"><ele>78.5</ele><time>2026-03-28T17:12:05.877Z</time></trkpt><trkpt lat="45.61444" lon="10.550785"><ele>79.0</ele><time>2026-03-28T17:12:06.877Z</time></trkpt><trkpt lat="45.6144083" lon="10.5506733"><ele>79.5</ele><time>2026-03-28T17:12:07.877Z</time></trkpt><trkpt lat="45.61438" lon="10.55056"><ele>80.0</ele><time>2026-03-28T17:12:08.877Z</time></trkpt><trkpt lat="45.6143567" lon="10.5504517"><ele>78.83333333333334</ele><time>2026-03-28T17:12:09.877Z</time></trkpt><trkpt lat="45.61434" lon="10.5503383"><ele>77.66666666666667</ele><time>2026-03-28T17:12:10.877Z</time></trkpt><trkpt lat="45.6143183" lon="10.5502217"><ele>76.5</ele><time>2026-03-28T17:12:11.877Z</time></trkpt><trkpt lat="45.6142967" lon="10.5501083"><ele>75.33333333333333</ele><time>2026-03-28T17:12:12.877Z</time></trkpt><trkpt lat="45.6142767" lon="10.5499933"><ele>74.16666666666666</ele><time>2026-03-28T17:12:13.877Z</time></trkpt><trkpt lat="45.6142617" lon="10.5498767"><ele>73.0</ele><time>2026-03-28T17:12:14.877Z</time></trkpt><trkpt lat="45.6142417" lon="10.5497633"><ele>73.0</ele><time>2026-03-28T17:12:15.877Z</time></trkpt><trkpt lat="45.61422" lon="10.5496633"><ele>73.0</ele><time>2026-03-28T17:12:16.877Z</time></trkpt><trkpt lat="45.6141933" lon="10.549575"><ele>73.0</ele><time>2026-03-28T17:12:17.877Z</time></trkpt><trkpt lat="45.61416" lon="10.5494933"><ele>73.0</ele><time>2026-03-28T17:12:18.877Z</time></trkpt><trkpt lat="45.61408" lon="10.549375"><ele>73.0</ele><time>2026-03-28T17:12:20.877Z</time></trkpt><trkpt lat="45.6139917" lon="10.5493367"><ele>73.0</ele><time>2026-03-28T17:12:22.877Z</time></trkpt><trkpt lat="45.6139333" lon="10.5492617"><ele>73.0</ele><time>2026-03-28T17:12:25.877Z</time></trkpt><trkpt lat="45.613905" lon="10.5491733"><ele>73.0</ele><time>2026-03-28T17:13:45.877Z</time></trkpt><trkpt lat="45.6138867" lon="10.54906"><ele>73.0</ele><time>2026-03-28T17:13:48.877Z</time></trkpt><trkpt lat="45.6139167" lon="10.5489683"><ele>73.0</ele><time>2026-03-28T17:13:51.877Z</time></trkpt><trkpt lat="45.61399" lon="10.5490217"><ele>73.0</ele><time>2026-03-28T17:13:54.877Z</time></trkpt><trkpt lat="45.61402" lon="10.5491167"><ele>73.0</ele><time>2026-03-28T17:13:57.877Z</time></trkpt><trkpt lat="45.6139683" lon="10.5491683"><ele>73.0</ele><time>2026-03-28T17:14:07.878Z</time></trkpt><trkpt lat="45.6139217" lon="10.549245"><ele>73.0</ele><time>2026-03-28T17:14:11.877Z</time></trkpt><trkpt lat="45.6139667" lon="10.5493117"><ele>73.0</ele><time>2026-03-28T17:14:15.877Z</time></trkpt><trkpt lat="45.6140217" lon="10.5492567"><ele>73.0</ele><time>2026-03-28T17:14:25.877Z</time></trkpt><trkpt lat="45.6140183" lon="10.549145"><ele>73.0</ele><time>2026-03-28T17:14:30.878Z</time></trkpt><trkpt lat="45.6139667" lon="10.5490583"><ele>73.0</ele><time>2026-03-28T17:15:29.877Z</time></trkpt><trkpt lat="45.613925" lon="10.5489733"><ele>73.0</ele><time>2026-03-28T17:15:32.877Z</time></trkpt><trkpt lat="45.6138717" lon="10.54906"><ele>73.0</ele><time>2026-03-28T17:15:35.877Z</time></trkpt><trkpt lat="45.6139033" lon="10.5491483"><ele>73.0</ele><time>2026-03-28T17:15:37.877Z</time></trkpt><trkpt lat="45.6139383" lon="10.5492317"><ele>73.0</ele><time>2026-03-28T17:15:39.877Z</time></trkpt><trkpt lat="45.6139767" lon="10.5493367"><ele>73.0</ele><time>2026-03-28T17:15:42.877Z</time></trkpt><trkpt lat="45.614045" lon="10.5492933"><ele>73.0</ele><time>2026-03-28T17:15:46.877Z</time></trkpt><trkpt lat="45.614035" lon="10.5491833"><ele>73.0</ele><time>2026-03-28T17:15:49.877Z</time></trkpt><trkpt lat="45.6140017" lon="10.5490567"><ele>73.0</ele><time>2026-03-28T17:15:52.878Z</time></trkpt><trkpt lat="45.6139467" lon="10.5489883"><ele>73.0</ele><time>2026-03-28T17:15:54.877Z</time></trkpt><trkpt lat="45.613885" lon="10.5490433"><ele>73.0</ele><time>2026-03-28T17:15:57.877Z</time></trkpt><trkpt lat="45.613905" lon="10.5491417"><ele>73.0</ele><time>2026-03-28T17:15:59.877Z</time></trkpt><trkpt lat="45.61393" lon="10.549235"><ele>73.0</ele><time>2026-03-28T17:16:01.877Z</time></trkpt><trkpt lat="45.613995" lon="10.5492883"><ele>73.0</ele><time>2026-03-28T17:16:04.877Z</time></trkpt><trkpt lat="45.6140283" lon="10.5491867"><ele>73.0</ele><time>2026-03-28T17:16:07.877Z</time></trkpt><trkpt lat="45.61399" lon="10.5491117"><ele>73.0</ele><time>2026-03-28T17:16:10.877Z</time></trkpt><trkpt lat="45.6140017" lon="10.5489883"><ele>73.0</ele><time>2026-03-28T17:17:18.877Z</time></trkpt><trkpt lat="45.6139333" lon="10.5489667"><ele>73.0</ele><time>2026-03-28T17:17:21.877Z</time></trkpt><trkpt lat="45.6139033" lon="10.5490867"><ele>73.0</ele><time>2026-03-28T17:17:23.877Z</time></trkpt><trkpt lat="45.6139233" lon="10.549215"><ele>73.0</ele><time>2026-03-28T17:17:25.877Z</time></trkpt><trkpt lat="45.613955" lon="10.54931"><ele>73.0</ele><time>2026-03-28T17:17:27.877Z</time></trkpt><trkpt lat="45.614005" lon="10.5493667"><ele>73.0</ele><time>2026-03-28T17:17:29.877Z</time></trkpt><trkpt lat="45.614055" lon="10.5492767"><ele>73.0</ele><time>2026-03-28T17:17:33.877Z</time></trkpt><trkpt lat="45.61403" lon="10.5491733"><ele>73.0</ele><time>2026-03-28T17:17:36.877Z</time></trkpt><trkpt lat="45.6139933" lon="10.5490667"><ele>73.0</ele><time>2026-03-28T17:17:39.877Z</time></trkpt><trkpt lat="45.6139267" lon="10.54899"><ele>73.0</ele><time>2026-03-28T17:17:42.877Z</time></trkpt><trkpt lat="45.6138867" lon="10.5490767"><ele>73.0</ele><time>2026-03-28T17:17:45.877Z</time></trkpt><trkpt lat="45.6139217" lon="10.54919"><ele>73.0</ele><time>2026-03-28T17:17:47.877Z</time></trkpt><trkpt lat="45.6139633" lon="10.5492833"><ele>73.0</ele><time>2026-03-28T17:17:49.877Z</time></trkpt><trkpt lat="45.6140267" lon="10.549245"><ele>73.0</ele><time>2026-03-28T17:17:52.877Z</time></trkpt><trkpt lat="45.6140283" lon="10.5491517"><ele>73.0</ele><time>2026-03-28T17:17:54.877Z</time></trkpt><trkpt lat="45.61399" lon="10.5490583"><ele>73.0</ele><time>2026-03-28T17:17:57.877Z</time></trkpt><trkpt lat="45.6139333" lon="10.5489933"><ele>73.0</ele><time>2026-03-28T17:18:00.877Z</time></trkpt><trkpt lat="45.6138917" lon="10.5490883"><ele>73.0</ele><time>2026-03-28T17:18:04.877Z</time></trkpt><trkpt lat="45.61393" lon="10.5492033"><ele>73.0</ele><time>2026-03-28T17:18:07.877Z</time></trkpt><trkpt lat="45.613965" lon="10.5492817"><ele>73.0</ele><time>2026-03-28T17:18:09.877Z</time></trkpt><trkpt lat="45.614035" lon="10.549245"><ele>73.0</ele><time>2026-03-28T17:18:12.877Z</time></trkpt><trkpt lat="45.6140233" lon="10.54914"><ele>73.0</ele><time>2026-03-28T17:18:15.877Z</time></trkpt><trkpt lat="45.6139933" lon="10.549035"><ele>73.0</ele><time>2026-03-28T17:18:19.877Z</time></trkpt><trkpt lat="45.61402" lon="10.5489333"><ele>73.0</ele><time>2026-03-28T17:18:23.877Z</time></trkpt><trkpt lat="45.6140433" lon="10.54883"><ele>73.0</ele><time>2026-03-28T17:18:46.877Z</time></trkpt><trkpt lat="45.61404" lon="10.5487233"><ele>73.33333333333333</ele><time>2026-03-28T17:18:47.877Z</time></trkpt><trkpt lat="45.6140233" lon="10.5486033"><ele>73.66666666666666</ele><time>2026-03-28T17:18:48.877Z</time></trkpt><trkpt lat="45.6139967" lon="10.54848"><ele>74.0</ele><time>2026-03-28T17:18:49.877Z</time></trkpt><trkpt lat="45.61397" lon="10.5483517"><ele>74.33333333333333</ele><time>2026-03-28T17:18:50.877Z</time></trkpt><trkpt lat="45.6139467" lon="10.54822"><ele>74.66666666666667</ele><time>2026-03-28T17:18:51.877Z</time></trkpt><trkpt lat="45.6139283" lon="10.5481067"><ele>75.0</ele><time>2026-03-28T17:18:52.877Z</time></trkpt><trkpt lat="45.6139067" lon="10.5479717"><ele>75.8</ele><time>2026-03-28T17:18:53.877Z</time></trkpt><trkpt lat="45.61388" lon="10.5478283"><ele>76.6</ele><time>2026-03-28T17:18:54.877Z</time></trkpt><trkpt lat="45.6138517" lon="10.54768"><ele>77.4</ele><time>2026-03-28T17:18:55.877Z</time></trkpt><trkpt lat="45.613825" lon="10.5475267"><ele>78.2</ele><time>2026-03-28T17:18:56.877Z</time></trkpt><trkpt lat="45.613795" lon="10.5473667"><ele>79.0</ele><time>2026-03-28T17:18:57.877Z</time></trkpt><trkpt lat="45.6137617" lon="10.5471933"><ele>79.5</ele><time>2026-03-28T17:18:58.877Z</time></trkpt><trkpt lat="45.6137283" lon="10.547025"><ele>80.0</ele><time>2026-03-28T17:18:59.877Z</time></trkpt><trkpt lat="45.6136933" lon="10.5468517"><ele>80.5</ele><time>2026-03-28T17:19:00.877Z</time></trkpt><trkpt lat="45.613655" lon="10.5466683"><ele>81.0</ele><time>2026-03-28T17:19:01.877Z</time></trkpt><trkpt lat="45.6136167" lon="10.5464783"><ele>79.75</ele><time>2026-03-28T17:19:02.877Z</time></trkpt><trkpt lat="45.61358" lon="10.5462683"><ele>78.5</ele><time>2026-03-28T17:19:03.877Z</time></trkpt><trkpt lat="45.6135467" lon="10.546065"><ele>77.25</ele><time>2026-03-28T17:19:04.877Z</time></trkpt><trkpt lat="45.6135017" lon="10.54586"><ele>76.0</ele><time>2026-03-28T17:19:05.877Z</time></trkpt><trkpt lat="45.6134583" lon="10.5456633"><ele>76.0</ele><time>2026-03-28T17:19:06.877Z</time></trkpt><trkpt lat="45.61342" lon="10.5454633"><ele>76.0</ele><time>2026-03-28T17:19:07.877Z</time></trkpt><trkpt lat="45.613375" lon="10.54527"><ele>76.0</ele><time>2026-03-28T17:19:08.877Z</time></trkpt><trkpt lat="45.6133183" lon="10.54509"><ele>76.0</ele><time>2026-03-28T17:19:09.877Z</time></trkpt><trkpt lat="45.6132483" lon="10.5448983"><ele>78.25</ele><time>2026-03-28T17:19:10.877Z</time></trkpt><trkpt lat="45.6131717" lon="10.54471"><ele>80.5</ele><time>2026-03-28T17:19:11.877Z</time></trkpt><trkpt lat="45.6131017" lon="10.54452"><ele>82.75</ele><time>2026-03-28T17:19:12.877Z</time></trkpt><trkpt lat="45.6130383" lon="10.5443367"><ele>85.0</ele><time>2026-03-28T17:19:13.877Z</time></trkpt><trkpt lat="45.612975" lon="10.54417"><ele>82.25</ele><time>2026-03-28T17:19:14.877Z</time></trkpt><trkpt lat="45.6129117" lon="10.5439967"><ele>79.5</ele><time>2026-03-28T17:19:15.877Z</time></trkpt><trkpt lat="45.6128517" lon="10.54381"><ele>76.75</ele><time>2026-03-28T17:19:16.877Z</time></trkpt><trkpt lat="45.6128083" lon="10.5436117"><ele>74.0</ele><time>2026-03-28T17:19:17.877Z</time></trkpt><trkpt lat="45.6127867" lon="10.5433833"><ele>74.0</ele><time>2026-03-28T17:19:18.877Z</time></trkpt><trkpt lat="45.6127417" lon="10.5431933"><ele>74.0</ele><time>2026-03-28T17:19:19.878Z</time></trkpt><trkpt lat="45.6127067" lon="10.5429933"><ele>74.0</ele><time>2026-03-28T17:19:20.877Z</time></trkpt><trkpt lat="45.612665" lon="10.5427917"><ele>74.0</ele><time>2026-03-28T17:19:21.878Z</time></trkpt><trkpt lat="45.6126183" lon="10.542585"><ele>75.25</ele><time>2026-03-28T17:19:22.877Z</time></trkpt><trkpt lat="45.6125667" lon="10.5424017"><ele>76.5</ele><time>2026-03-28T17:19:23.877Z</time></trkpt><trkpt lat="45.6125117" lon="10.542225"><ele>77.75</ele><time>2026-03-28T17:19:24.877Z</time></trkpt><trkpt lat="45.6124533" lon="10.5420683"><ele>79.0</ele><time>2026-03-28T17:19:25.877Z</time></trkpt><trkpt lat="45.6124" lon="10.5419183"><ele>80.2</ele><time>2026-03-28T17:19:26.877Z</time></trkpt><trkpt lat="45.6123517" lon="10.5417767"><ele>81.4</ele><time>2026-03-28T17:19:27.878Z</time></trkpt><trkpt lat="45.61229" lon="10.541635"><ele>82.6</ele><time>2026-03-28T17:19:28.877Z</time></trkpt><trkpt lat="45.6122367" lon="10.5415033"><ele>83.8</ele><time>2026-03-28T17:19:29.877Z</time></trkpt><trkpt lat="45.612195" lon="10.541385"><ele>85.0</ele><time>2026-03-28T17:19:30.877Z</time></trkpt><trkpt lat="45.612155" lon="10.5412783"><ele>83.4</ele><time>2026-03-28T17:19:31.877Z</time></trkpt><trkpt lat="45.61211" lon="10.5411583"><ele>81.8</ele><time>2026-03-28T17:19:32.877Z</time></trkpt><trkpt lat="45.612065" lon="10.5410367"><ele>80.2</ele><time>2026-03-28T17:19:33.877Z</time></trkpt><trkpt lat="45.6120183" lon="10.540895"><ele>78.6</ele><time>2026-03-28T17:19:34.877Z</time></trkpt><trkpt lat="45.61197" lon="10.5407567"><ele>77.0</ele><time>2026-03-28T17:19:35.877Z</time></trkpt><trkpt lat="45.6119233" lon="10.5406183"><ele>77.0</ele><time>2026-03-28T17:19:36.877Z</time></trkpt><trkpt lat="45.6118717" lon="10.54048"><ele>77.0</ele><time>2026-03-28T17:19:37.878Z</time></trkpt><trkpt lat="45.61182" lon="10.54035"><ele>77.0</ele><time>2026-03-28T17:19:38.877Z</time></trkpt><trkpt lat="45.61176" lon="10.5402183"><ele>77.0</ele><time>2026-03-28T17:19:39.878Z</time></trkpt><trkpt lat="45.6116983" lon="10.5400617"><ele>79.25</ele><time>2026-03-28T17:19:40.877Z</time></trkpt><trkpt lat="45.6116383" lon="10.5399033"><ele>81.5</ele><time>2026-03-28T17:19:41.877Z</time></trkpt><trkpt lat="45.611575" lon="10.5397317"><ele>83.75</ele><time>2026-03-28T17:19:42.877Z</time></trkpt><trkpt lat="45.6115117" lon="10.53957"><ele>86.0</ele><time>2026-03-28T17:19:43.877Z</time></trkpt><trkpt lat="45.6114483" lon="10.5394067"><ele>87.4</ele><time>2026-03-28T17:19:44.877Z</time></trkpt><trkpt lat="45.61139" lon="10.5392533"><ele>88.8</ele><time>2026-03-28T17:19:45.877Z</time></trkpt><trkpt lat="45.6113417" lon="10.5391017"><ele>90.2</ele><time>2026-03-28T17:19:46.877Z</time></trkpt><trkpt lat="45.61129" lon="10.5389733"><ele>91.60000000000001</ele><time>2026-03-28T17:19:47.877Z</time></trkpt><trkpt lat="45.61124" lon="10.538845"><ele>93.0</ele><time>2026-03-28T17:19:48.877Z</time></trkpt><trkpt lat="45.611195" lon="10.538705"><ele>91.2</ele><time>2026-03-28T17:19:49.877Z</time></trkpt><trkpt lat="45.61115" lon="10.53857"><ele>89.4</ele><time>2026-03-28T17:19:50.877Z</time></trkpt><trkpt lat="45.6110983" lon="10.5384317"><ele>87.60000000000001</ele><time>2026-03-28T17:19:51.877Z</time></trkpt><trkpt lat="45.6110533" lon="10.5383017"><ele>85.80000000000001</ele><time>2026-03-28T17:19:52.877Z</time></trkpt><trkpt lat="45.6110083" lon="10.538175"><ele>84.0</ele><time>2026-03-28T17:19:53.877Z</time></trkpt><trkpt lat="45.6109633" lon="10.5380433"><ele>84.0</ele><time>2026-03-28T17:19:54.877Z</time></trkpt><trkpt lat="45.6109233" lon="10.5378917"><ele>84.0</ele><time>2026-03-28T17:19:55.877Z</time></trkpt><trkpt lat="45.6108883" lon="10.5377367"><ele>84.0</ele><time>2026-03-28T17:19:56.877Z</time></trkpt><trkpt lat="45.6108533" lon="10.53759"><ele>84.0</ele><time>2026-03-28T17:19:57.878Z</time></trkpt><trkpt lat="45.6108233" lon="10.5374333"><ele>84.0</ele><time>2026-03-28T17:19:58.877Z</time></trkpt><trkpt lat="45.6108" lon="10.5372833"><ele>85.80000000000001</ele><time>2026-03-28T17:19:59.877Z</time></trkpt><trkpt lat="45.6107883" lon="10.5371267"><ele>87.60000000000001</ele><time>2026-03-28T17:20:00.877Z</time></trkpt><trkpt lat="45.6107967" lon="10.536965"><ele>89.4</ele><time>2026-03-28T17:20:01.878Z</time></trkpt><trkpt lat="45.6108233" lon="10.536805"><ele>91.2</ele><time>2026-03-28T17:20:02.877Z</time></trkpt><trkpt lat="45.6108383" lon="10.5366567"><ele>93.0</ele><time>2026-03-28T17:20:03.877Z</time></trkpt><trkpt lat="45.6108283" lon="10.5364983"><ele>95.25</ele><time>2026-03-28T17:20:04.877Z</time></trkpt><trkpt lat="45.6107883" lon="10.53636"><ele>97.5</ele><time>2026-03-28T17:20:05.877Z</time></trkpt><trkpt lat="45.6107217" lon="10.536215"><ele>99.75</ele><time>2026-03-28T17:20:06.878Z</time></trkpt><trkpt lat="45.61065" lon="10.5360717"><ele>102.0</ele><time>2026-03-28T17:20:07.877Z</time></trkpt><trkpt lat="45.61056" lon="10.5359367"><ele>101.0</ele><time>2026-03-28T17:20:08.877Z</time></trkpt><trkpt lat="45.6104783" lon="10.53578"><ele>100.0</ele><time>2026-03-28T17:20:09.877Z</time></trkpt><trkpt lat="45.6103967" lon="10.5356283"><ele>99.0</ele><time>2026-03-28T17:20:10.877Z</time></trkpt><trkpt lat="45.6103233" lon="10.5354533"><ele>98.0</ele><time>2026-03-28T17:20:11.877Z</time></trkpt><trkpt lat="45.6102617" lon="10.5352717"><ele>98.0</ele><time>2026-03-28T17:20:12.877Z</time></trkpt><trkpt lat="45.610205" lon="10.535095"><ele>98.0</ele><time>2026-03-28T17:20:13.878Z</time></trkpt><trkpt lat="45.61015" lon="10.534915"><ele>98.0</ele><time>2026-03-28T17:20:14.877Z</time></trkpt><trkpt lat="45.6100783" lon="10.5347283"><ele>98.0</ele><time>2026-03-28T17:20:15.877Z</time></trkpt><trkpt lat="45.609985" lon="10.5345933"><ele>102.5</ele><time>2026-03-28T17:20:16.877Z</time></trkpt><trkpt lat="45.6098917" lon="10.5344767"><ele>107.0</ele><time>2026-03-28T17:20:17.877Z</time></trkpt><trkpt lat="45.609805" lon="10.534355"><ele>111.5</ele><time>2026-03-28T17:20:18.877Z</time></trkpt><trkpt lat="45.6097267" lon="10.5342283"><ele>116.0</ele><time>2026-03-28T17:20:19.877Z</time></trkpt><trkpt lat="45.60966" lon="10.53408"><ele>116.0</ele><time>2026-03-28T17:20:20.877Z</time></trkpt><trkpt lat="45.609605" lon="10.53391"><ele>116.0</ele><time>2026-03-28T17:20:21.877Z</time></trkpt><trkpt lat="45.6095683" lon="10.53372"><ele>116.0</ele><time>2026-03-28T17:20:22.877Z</time></trkpt><trkpt lat="45.6095517" lon="10.5335317"><ele>116.0</ele><time>2026-03-28T17:20:23.877Z</time></trkpt><trkpt lat="45.6095417" lon="10.5333467"><ele>117.5</ele><time>2026-03-28T17:20:24.877Z</time></trkpt><trkpt lat="45.60953" lon="10.5331817"><ele>119.0</ele><time>2026-03-28T17:20:25.877Z</time></trkpt><trkpt lat="45.6095483" lon="10.5330067"><ele>120.5</ele><time>2026-03-28T17:20:26.877Z</time></trkpt><trkpt lat="45.6095733" lon="10.5328217"><ele>122.0</ele><time>2026-03-28T17:20:27.877Z</time></trkpt><trkpt lat="45.6096133" lon="10.5326467"><ele>122.0</ele><time>2026-03-28T17:20:28.877Z</time></trkpt><trkpt lat="45.609675" lon="10.5324783"><ele>122.0</ele><time>2026-03-28T17:20:29.877Z</time></trkpt><trkpt lat="45.6097467" lon="10.53232"><ele>122.0</ele><time>2026-03-28T17:20:30.877Z</time></trkpt><trkpt lat="45.6098033" lon="10.5321567"><ele>122.0</ele><time>2026-03-28T17:20:31.877Z</time></trkpt><trkpt lat="45.6098433" lon="10.5320017"><ele>121.25</ele><time>2026-03-28T17:20:32.877Z</time></trkpt><trkpt lat="45.6098583" lon="10.5318333"><ele>120.5</ele><time>2026-03-28T17:20:33.877Z</time></trkpt><trkpt lat="45.6098317" lon="10.531655"><ele>119.75</ele><time>2026-03-28T17:20:34.877Z</time></trkpt><trkpt lat="45.609785" lon="10.5314617"><ele>119.0</ele><time>2026-03-28T17:20:35.877Z</time></trkpt><trkpt lat="45.6097167" lon="10.5312817"><ele>122.0</ele><time>2026-03-28T17:20:36.877Z</time></trkpt><trkpt lat="45.6096317" lon="10.531115"><ele>125.0</ele><time>2026-03-28T17:20:37.877Z</time></trkpt><trkpt lat="45.6095433" lon="10.5309383"><ele>128.0</ele><time>2026-03-28T17:20:38.877Z</time></trkpt><trkpt lat="45.6094633" lon="10.5307717"><ele>131.0</ele><time>2026-03-28T17:20:39.877Z</time></trkpt><trkpt lat="45.60938" lon="10.5305917"><ele>127.0</ele><time>2026-03-28T17:20:40.878Z</time></trkpt><trkpt lat="45.6093" lon="10.5304017"><ele>123.0</ele><time>2026-03-28T17:20:41.877Z</time></trkpt><trkpt lat="45.6092283" lon="10.5302317"><ele>119.0</ele><time>2026-03-28T17:20:42.877Z</time></trkpt><trkpt lat="45.609165" lon="10.5300433"><ele>115.0</ele><time>2026-03-28T17:20:43.877Z</time></trkpt><trkpt lat="45.6090917" lon="10.52988"><ele>115.0</ele><time>2026-03-28T17:20:44.877Z</time></trkpt><trkpt lat="45.60903" lon="10.5297017"><ele>115.0</ele><time>2026-03-28T17:20:45.877Z</time></trkpt><trkpt lat="45.6089833" lon="10.5295183"><ele>115.0</ele><time>2026-03-28T17:20:46.877Z</time></trkpt><trkpt lat="45.6089383" lon="10.5293367"><ele>115.0</ele><time>2026-03-28T17:20:47.878Z</time></trkpt><trkpt lat="45.608905" lon="10.529155"><ele>117.75</ele><time>2026-03-28T17:20:48.877Z</time></trkpt><trkpt lat="45.608875" lon="10.5289583"><ele>120.5</ele><time>2026-03-28T17:20:49.877Z</time></trkpt><trkpt lat="45.608845" lon="10.5287617"><ele>123.25</ele><time>2026-03-28T17:20:50.877Z</time></trkpt><trkpt lat="45.6088233" lon="10.5285633"><ele>126.0</ele><time>2026-03-28T17:20:51.877Z</time></trkpt><trkpt lat="45.608815" lon="10.5283583"><ele>127.25</ele><time>2026-03-28T17:20:52.877Z</time></trkpt><trkpt lat="45.6088017" lon="10.5281733"><ele>128.5</ele><time>2026-03-28T17:20:53.878Z</time></trkpt><trkpt lat="45.608785" lon="10.5279867"><ele>129.75</ele><time>2026-03-28T17:20:54.876Z</time></trkpt><trkpt lat="45.608765" lon="10.527785"><ele>131.0</ele><time>2026-03-28T17:20:55.877Z</time></trkpt><trkpt lat="45.608745" lon="10.52759"><ele>131.5</ele><time>2026-03-28T17:20:56.877Z</time></trkpt><trkpt lat="45.60872" lon="10.5273983"><ele>132.0</ele><time>2026-03-28T17:20:57.877Z</time></trkpt><trkpt lat="45.6087117" lon="10.52719"><ele>132.5</ele><time>2026-03-28T17:20:58.877Z</time></trkpt><trkpt lat="45.6086983" lon="10.5269917"><ele>133.0</ele><time>2026-03-28T17:20:59.877Z</time></trkpt><trkpt lat="45.6086867" lon="10.5267867"><ele>133.5</ele><time>2026-03-28T17:21:00.877Z</time></trkpt><trkpt lat="45.6086783" lon="10.526585"><ele>134.0</ele><time>2026-03-28T17:21:01.877Z</time></trkpt><trkpt lat="45.6086767" lon="10.52638"><ele>134.5</ele><time>2026-03-28T17:21:02.877Z</time></trkpt><trkpt lat="45.6086717" lon="10.5261683"><ele>135.0</ele><time>2026-03-28T17:21:03.877Z</time></trkpt><trkpt lat="45.6086767" lon="10.5259517"><ele>135.0</ele><time>2026-03-28T17:21:04.878Z</time></trkpt><trkpt lat="45.608685" lon="10.5257433"><ele>135.0</ele><time>2026-03-28T17:21:05.877Z</time></trkpt><trkpt lat="45.6086833" lon="10.525545"><ele>135.0</ele><time>2026-03-28T17:21:06.877Z</time></trkpt><trkpt lat="45.6086783" lon="10.5253583"><ele>135.0</ele><time>2026-03-28T17:21:07.877Z</time></trkpt><trkpt lat="45.6086933" lon="10.525165"><ele>135.0</ele><time>2026-03-28T17:21:08.877Z</time></trkpt><trkpt lat="45.6087183" lon="10.5249733"><ele>135.0</ele><time>2026-03-28T17:21:09.877Z</time></trkpt><trkpt lat="45.6087367" lon="10.5247733"><ele>135.0</ele><time>2026-03-28T17:21:10.877Z</time></trkpt><trkpt lat="45.6087467" lon="10.524565"><ele>135.0</ele><time>2026-03-28T17:21:11.877Z</time></trkpt><trkpt lat="45.6087583" lon="10.524365"><ele>134.5</ele><time>2026-03-28T17:21:12.877Z</time></trkpt><trkpt lat="45.6087767" lon="10.524165"><ele>134.0</ele><time>2026-03-28T17:21:13.877Z</time></trkpt><trkpt lat="45.60879" lon="10.5239633"><ele>133.5</ele><time>2026-03-28T17:21:14.877Z</time></trkpt><trkpt lat="45.6088033" lon="10.5237667"><ele>133.0</ele><time>2026-03-28T17:21:15.877Z</time></trkpt><trkpt lat="45.6088" lon="10.5235533"><ele>132.25</ele><time>2026-03-28T17:21:16.877Z</time></trkpt><trkpt lat="45.6087867" lon="10.52335"><ele>131.5</ele><time>2026-03-28T17:21:17.877Z</time></trkpt><trkpt lat="45.60876" lon="10.5231533"><ele>130.75</ele><time>2026-03-28T17:21:18.877Z</time></trkpt><trkpt lat="45.608745" lon="10.5229733"><ele>130.0</ele><time>2026-03-28T17:21:19.877Z</time></trkpt><trkpt lat="45.6086833" lon="10.52281"><ele>123.25</ele><time>2026-03-28T17:21:20.877Z</time></trkpt><trkpt lat="45.6086233" lon="10.5226417"><ele>116.5</ele><time>2026-03-28T17:21:21.877Z</time></trkpt><trkpt lat="45.6085867" lon="10.5224567"><ele>109.75</ele><time>2026-03-28T17:21:22.878Z</time></trkpt><trkpt lat="45.6085617" lon="10.5222833"><ele>103.0</ele><time>2026-03-28T17:21:23.877Z</time></trkpt><trkpt lat="45.608555" lon="10.5221083"><ele>101.5</ele><time>2026-03-28T17:21:24.877Z</time></trkpt><trkpt lat="45.6085783" lon="10.5219283"><ele>100.0</ele><time>2026-03-28T17:21:25.878Z</time></trkpt><trkpt lat="45.6086317" lon="10.5217683"><ele>98.5</ele><time>2026-03-28T17:21:26.877Z</time></trkpt><trkpt lat="45.608705" lon="10.5216117"><ele>97.0</ele><time>2026-03-28T17:21:27.877Z</time></trkpt><trkpt lat="45.6088" lon="10.5214617"><ele>99.25</ele><time>2026-03-28T17:21:28.877Z</time></trkpt><trkpt lat="45.6089067" lon="10.5213317"><ele>101.5</ele><time>2026-03-28T17:21:29.877Z</time></trkpt><trkpt lat="45.6090067" lon="10.5212017"><ele>103.75</ele><time>2026-03-28T17:21:30.877Z</time></trkpt><trkpt lat="45.6090967" lon="10.5210733"><ele>106.0</ele><time>2026-03-28T17:21:31.877Z</time></trkpt><trkpt lat="45.6091817" lon="10.520925"><ele>106.0</ele><time>2026-03-28T17:21:32.877Z</time></trkpt><trkpt lat="45.6092817" lon="10.5207883"><ele>106.0</ele><time>2026-03-28T17:21:33.877Z</time></trkpt><trkpt lat="45.6093817" lon="10.5206517"><ele>106.0</ele><time>2026-03-28T17:21:34.877Z</time></trkpt><trkpt lat="45.6094733" lon="10.5205083"><ele>106.0</ele><time>2026-03-28T17:21:35.877Z</time></trkpt><trkpt lat="45.6095733" lon="10.5203733"><ele>107.25</ele><time>2026-03-28T17:21:36.877Z</time></trkpt><trkpt lat="45.6096567" lon="10.5202417"><ele>108.5</ele><time>2026-03-28T17:21:37.877Z</time></trkpt><trkpt lat="45.6097367" lon="10.520105"><ele>109.75</ele><time>2026-03-28T17:21:38.877Z</time></trkpt><trkpt lat="45.609815" lon="10.5199517"><ele>111.0</ele><time>2026-03-28T17:21:39.877Z</time></trkpt><trkpt lat="45.6098933" lon="10.5197983"><ele>111.0</ele><time>2026-03-28T17:21:40.877Z</time></trkpt><trkpt lat="45.6099567" lon="10.51965"><ele>111.0</ele><time>2026-03-28T17:21:41.878Z</time></trkpt><trkpt lat="45.6100183" lon="10.5194933"><ele>111.0</ele><time>2026-03-28T17:21:42.877Z</time></trkpt><trkpt lat="45.61008" lon="10.51933"><ele>111.0</ele><time>2026-03-28T17:21:43.877Z</time></trkpt><trkpt lat="45.6101517" lon="10.5191517"><ele>110.25</ele><time>2026-03-28T17:21:44.877Z</time></trkpt><trkpt lat="45.6102083" lon="10.5189717"><ele>109.5</ele><time>2026-03-28T17:21:45.877Z</time></trkpt><trkpt lat="45.610255" lon="10.5187933"><ele>108.75</ele><time>2026-03-28T17:21:46.877Z</time></trkpt><trkpt lat="45.610295" lon="10.5186"><ele>108.0</ele><time>2026-03-28T17:21:47.878Z</time></trkpt><trkpt lat="45.6103483" lon="10.51841"><ele>110.5</ele><time>2026-03-28T17:21:48.877Z</time></trkpt><trkpt lat="45.610395" lon="10.5182117"><ele>113.0</ele><time>2026-03-28T17:21:49.877Z</time></trkpt><trkpt lat="45.6104317" lon="10.51801"><ele>115.5</ele><time>2026-03-28T17:21:50.877Z</time></trkpt><trkpt lat="45.6104767" lon="10.5177967"><ele>118.0</ele><time>2026-03-28T17:21:51.877Z</time></trkpt><trkpt lat="45.6105217" lon="10.5175933"><ele>118.5</ele><time>2026-03-28T17:21:52.877Z</time></trkpt><trkpt lat="45.6105633" lon="10.517395"><ele>119.0</ele><time>2026-03-28T17:21:53.877Z</time></trkpt><trkpt lat="45.6105983" lon="10.517195"><ele>119.5</ele><time>2026-03-28T17:21:54.877Z</time></trkpt><trkpt lat="45.6106383" lon="10.5170067"><ele>120.0</ele><time>2026-03-28T17:21:55.877Z</time></trkpt><trkpt lat="45.6106867" lon="10.5168233"><ele>119.0</ele><time>2026-03-28T17:21:56.877Z</time></trkpt><trkpt lat="45.61073" lon="10.5166333"><ele>118.0</ele><time>2026-03-28T17:21:57.877Z</time></trkpt><trkpt lat="45.6107717" lon="10.5164433"><ele>117.0</ele><time>2026-03-28T17:21:58.877Z</time></trkpt><trkpt lat="45.61081" lon="10.5162417"><ele>116.0</ele><time>2026-03-28T17:21:59.877Z</time></trkpt><trkpt lat="45.61085" lon="10.5160433"><ele>115.0</ele><time>2026-03-28T17:22:00.877Z</time></trkpt><trkpt lat="45.6108917" lon="10.515855"><ele>114.0</ele><time>2026-03-28T17:22:01.877Z</time></trkpt><trkpt lat="45.61093" lon="10.51567"><ele>113.0</ele><time>2026-03-28T17:22:02.877Z</time></trkpt><trkpt lat="45.6109717" lon="10.5154883"><ele>112.0</ele><time>2026-03-28T17:22:03.878Z</time></trkpt><trkpt lat="45.61101" lon="10.5153"><ele>111.25</ele><time>2026-03-28T17:22:04.878Z</time></trkpt><trkpt lat="45.6110467" lon="10.5151067"><ele>110.5</ele><time>2026-03-28T17:22:05.877Z</time></trkpt><trkpt lat="45.6111" lon="10.514925"><ele>109.75</ele><time>2026-03-28T17:22:06.877Z</time></trkpt><trkpt lat="45.611145" lon="10.5147517"><ele>109.0</ele><time>2026-03-28T17:22:07.877Z</time></trkpt><trkpt lat="45.611185" lon="10.5145733"><ele>111.5</ele><time>2026-03-28T17:22:08.877Z</time></trkpt><trkpt lat="45.6112267" lon="10.51439"><ele>114.0</ele><time>2026-03-28T17:22:09.877Z</time></trkpt><trkpt lat="45.61126" lon="10.51421"><ele>116.5</ele><time>2026-03-28T17:22:10.877Z</time></trkpt><trkpt lat="45.6112967" lon="10.5140333"><ele>119.0</ele><time>2026-03-28T17:22:11.877Z</time></trkpt><trkpt lat="45.6113417" lon="10.5138517"><ele>118.25</ele><time>2026-03-28T17:22:12.877Z</time></trkpt><trkpt lat="45.6113867" lon="10.5136717"><ele>117.5</ele><time>2026-03-28T17:22:13.877Z</time></trkpt><trkpt lat="45.6114233" lon="10.5134883"><ele>116.75</ele><time>2026-03-28T17:22:14.877Z</time></trkpt><trkpt lat="45.6114617" lon="10.513295"><ele>116.0</ele><time>2026-03-28T17:22:15.877Z</time></trkpt><trkpt lat="45.6115017" lon="10.513115"><ele>116.0</ele><time>2026-03-28T17:22:16.877Z</time></trkpt><trkpt lat="45.6115317" lon="10.5129533"><ele>116.0</ele><time>2026-03-28T17:22:17.877Z</time></trkpt><trkpt lat="45.611565" lon="10.512795"><ele>116.0</ele><time>2026-03-28T17:22:18.877Z</time></trkpt><trkpt lat="45.6116017" lon="10.5126433"><ele>116.0</ele><time>2026-03-28T17:22:19.877Z</time></trkpt><trkpt lat="45.6116333" lon="10.51249"><ele>115.8</ele><time>2026-03-28T17:22:20.877Z</time></trkpt><trkpt lat="45.6116617" lon="10.512345"><ele>115.6</ele><time>2026-03-28T17:22:21.878Z</time></trkpt><trkpt lat="45.61169" lon="10.512185"><ele>115.4</ele><time>2026-03-28T17:22:22.877Z</time></trkpt><trkpt lat="45.6117083" lon="10.51204"><ele>115.2</ele><time>2026-03-28T17:22:23.878Z</time></trkpt><trkpt lat="45.6117367" lon="10.5119067"><ele>115.0</ele><time>2026-03-28T17:22:24.878Z</time></trkpt><trkpt lat="45.6117667" lon="10.51179"><ele>114.50000000000001</ele><time>2026-03-28T17:22:25.877Z</time></trkpt><trkpt lat="45.6117983" lon="10.51168"><ele>114.0</ele><time>2026-03-28T17:22:26.877Z</time></trkpt><trkpt lat="45.6118233" lon="10.51158"><ele>113.5</ele><time>2026-03-28T17:22:27.877Z</time></trkpt><trkpt lat="45.6118417" lon="10.511475"><ele>113.0</ele><time>2026-03-28T17:22:28.877Z</time></trkpt><trkpt lat="45.611855" lon="10.5113583"><ele>112.50000000000001</ele><time>2026-03-28T17:22:29.877Z</time></trkpt><trkpt lat="45.6118633" lon="10.5112483"><ele>112.0</ele><time>2026-03-28T17:22:30.877Z</time></trkpt><trkpt lat="45.61188" lon="10.5111433"><ele>111.50000000000001</ele><time>2026-03-28T17:22:31.877Z</time></trkpt><trkpt lat="45.6118933" lon="10.511045"><ele>111.0</ele><time>2026-03-28T17:22:32.877Z</time></trkpt><trkpt lat="45.6119067" lon="10.5109433"><ele>110.5</ele><time>2026-03-28T17:22:33.877Z</time></trkpt><trkpt lat="45.6119183" lon="10.5108433"><ele>110.0</ele><time>2026-03-28T17:22:34.877Z</time></trkpt><trkpt lat="45.611935" lon="10.51074"><ele>109.50000000000001</ele><time>2026-03-28T17:22:35.877Z</time></trkpt><trkpt lat="45.6119683" lon="10.5105967"><ele>109.0</ele><time>2026-03-28T17:22:37.877Z</time></trkpt><trkpt lat="45.61199" lon="10.51049"><ele>109.6</ele><time>2026-03-28T17:22:40.877Z</time></trkpt><trkpt lat="45.612025" lon="10.5103367"><ele>110.2</ele><time>2026-03-28T17:22:42.877Z</time></trkpt><trkpt lat="45.6120317" lon="10.5102433"><ele>110.79999999999998</ele><time>2026-03-28T17:22:43.877Z</time></trkpt><trkpt lat="45.61199" lon="10.5100533"><ele>111.39999999999999</ele><time>2026-03-28T17:22:45.877Z</time></trkpt><trkpt lat="45.6119383" lon="10.5099533"><ele>112.0</ele><time>2026-03-28T17:22:46.877Z</time></trkpt><trkpt lat="45.6118917" lon="10.5098567"><ele>112.00000000000001</ele><time>2026-03-28T17:22:47.877Z</time></trkpt><trkpt lat="45.6118467" lon="10.5097533"><ele>112.0</ele><time>2026-03-28T17:22:48.877Z</time></trkpt><trkpt lat="45.6118067" lon="10.509645"><ele>112.0</ele><time>2026-03-28T17:22:49.877Z</time></trkpt><trkpt lat="45.61176" lon="10.5095283"><ele>112.0</ele><time>2026-03-28T17:22:50.877Z</time></trkpt><trkpt lat="45.611715" lon="10.5094083"><ele>112.00000000000001</ele><time>2026-03-28T17:22:51.877Z</time></trkpt><trkpt lat="45.6116767" lon="10.5092933"><ele>112.0</ele><time>2026-03-28T17:22:52.877Z</time></trkpt><trkpt lat="45.6116383" lon="10.5091733"><ele>113.0</ele><time>2026-03-28T17:22:53.877Z</time></trkpt><trkpt lat="45.6115983" lon="10.5090567"><ele>113.99999999999999</ele><time>2026-03-28T17:22:54.877Z</time></trkpt><trkpt lat="45.61155" lon="10.5089333"><ele>114.99999999999999</ele><time>2026-03-28T17:22:55.877Z</time></trkpt><trkpt lat="45.6115" lon="10.5088017"><ele>116.0</ele><time>2026-03-28T17:22:56.877Z</time></trkpt><trkpt lat="45.6114517" lon="10.5086917"><ele>117.0</ele><time>2026-03-28T17:22:57.877Z</time></trkpt><trkpt lat="45.61141" lon="10.5085717"><ele>118.19999999999999</ele><time>2026-03-28T17:22:58.877Z</time></trkpt><trkpt lat="45.6113667" lon="10.508465"><ele>119.39999999999999</ele><time>2026-03-28T17:22:59.877Z</time></trkpt><trkpt lat="45.6113183" lon="10.5083533"><ele>120.60000000000001</ele><time>2026-03-28T17:23:00.877Z</time></trkpt><trkpt lat="45.6112733" lon="10.508245"><ele>121.80000000000001</ele><time>2026-03-28T17:23:01.877Z</time></trkpt><trkpt lat="45.61123" lon="10.5081333"><ele>123.0</ele><time>2026-03-28T17:23:02.878Z</time></trkpt><trkpt lat="45.6111733" lon="10.5080083"><ele>120.5</ele><time>2026-03-28T17:23:03.877Z</time></trkpt><trkpt lat="45.611115" lon="10.507885"><ele>118.0</ele><time>2026-03-28T17:23:04.878Z</time></trkpt><trkpt lat="45.61105" lon="10.5077533"><ele>115.5</ele><time>2026-03-28T17:23:05.877Z</time></trkpt><trkpt lat="45.6109733" lon="10.507585"><ele>113.0</ele><time>2026-03-28T17:23:06.877Z</time></trkpt><trkpt lat="45.6108917" lon="10.5074017"><ele>113.0</ele><time>2026-03-28T17:23:07.877Z</time></trkpt><trkpt lat="45.610805" lon="10.5072183"><ele>113.0</ele><time>2026-03-28T17:23:08.877Z</time></trkpt><trkpt lat="45.6107283" lon="10.507015"><ele>113.0</ele><time>2026-03-28T17:23:09.877Z</time></trkpt><trkpt lat="45.6106583" lon="10.5067883"><ele>117.66666666666666</ele><time>2026-03-28T17:23:10.877Z</time></trkpt><trkpt lat="45.6105967" lon="10.5065767"><ele>122.33333333333334</ele><time>2026-03-28T17:23:11.877Z</time></trkpt><trkpt lat="45.610545" lon="10.5063733"><ele>127.0</ele><time>2026-03-28T17:23:12.878Z</time></trkpt><trkpt lat="45.6105017" lon="10.506175"><ele>130.0</ele><time>2026-03-28T17:23:13.877Z</time></trkpt><trkpt lat="45.6104833" lon="10.5059783"><ele>133.0</ele><time>2026-03-28T17:23:14.877Z</time></trkpt><trkpt lat="45.6104633" lon="10.5058017"><ele>136.0</ele><time>2026-03-28T17:23:15.877Z</time></trkpt><trkpt lat="45.610445" lon="10.5055917"><ele>139.0</ele><time>2026-03-28T17:23:16.877Z</time></trkpt><trkpt lat="45.6104517" lon="10.5053817"><ele>139.5</ele><time>2026-03-28T17:23:17.877Z</time></trkpt><trkpt lat="45.6104633" lon="10.5051883"><ele>140.0</ele><time>2026-03-28T17:23:18.877Z</time></trkpt><trkpt lat="45.610475" lon="10.50499"><ele>140.5</ele><time>2026-03-28T17:23:19.877Z</time></trkpt><trkpt lat="45.6105017" lon="10.5047917"><ele>141.0</ele><time>2026-03-28T17:23:20.877Z</time></trkpt><trkpt lat="45.610525" lon="10.504595"><ele>137.75</ele><time>2026-03-28T17:23:21.877Z</time></trkpt><trkpt lat="45.61055" lon="10.5044083"><ele>134.5</ele><time>2026-03-28T17:23:22.877Z</time></trkpt><trkpt lat="45.6105683" lon="10.5042233"><ele>131.25</ele><time>2026-03-28T17:23:23.877Z</time></trkpt><trkpt lat="45.6106" lon="10.504045"><ele>128.0</ele><time>2026-03-28T17:23:24.877Z</time></trkpt><trkpt lat="45.610625" lon="10.5038567"><ele>125.25</ele><time>2026-03-28T17:23:25.877Z</time></trkpt><trkpt lat="45.61065" lon="10.5036667"><ele>122.5</ele><time>2026-03-28T17:23:26.877Z</time></trkpt><trkpt lat="45.61067" lon="10.5034817"><ele>119.75</ele><time>2026-03-28T17:23:27.877Z</time></trkpt><trkpt lat="45.6106933" lon="10.5032933"><ele>117.0</ele><time>2026-03-28T17:23:28.877Z</time></trkpt><trkpt lat="45.610715" lon="10.503105"><ele>117.0</ele><time>2026-03-28T17:23:29.877Z</time></trkpt><trkpt lat="45.6107367" lon="10.5029217"><ele>117.0</ele><time>2026-03-28T17:23:30.877Z</time></trkpt><trkpt lat="45.61077" lon="10.502745"><ele>117.0</ele><time>2026-03-28T17:23:31.877Z</time></trkpt><trkpt lat="45.6108033" lon="10.5025567"><ele>117.0</ele><time>2026-03-28T17:23:32.877Z</time></trkpt><trkpt lat="45.6108267" lon="10.50236"><ele>119.0</ele><time>2026-03-28T17:23:33.877Z</time></trkpt><trkpt lat="45.610835" lon="10.5021683"><ele>121.0</ele><time>2026-03-28T17:23:34.877Z</time></trkpt><trkpt lat="45.61082" lon="10.50199"><ele>123.0</ele><time>2026-03-28T17:23:35.877Z</time></trkpt><trkpt lat="45.6108033" lon="10.5018217"><ele>125.0</ele><time>2026-03-28T17:23:36.877Z</time></trkpt><trkpt lat="45.6107867" lon="10.5016733"><ele>127.2</ele><time>2026-03-28T17:23:37.877Z</time></trkpt><trkpt lat="45.6107683" lon="10.5015233"><ele>129.4</ele><time>2026-03-28T17:23:38.877Z</time></trkpt><trkpt lat="45.6107533" lon="10.501375"><ele>131.6</ele><time>2026-03-28T17:23:39.878Z</time></trkpt><trkpt lat="45.61075" lon="10.5012517"><ele>133.8</ele><time>2026-03-28T17:23:40.878Z</time></trkpt><trkpt lat="45.6107533" lon="10.501135"><ele>136.0</ele><time>2026-03-28T17:23:41.877Z</time></trkpt><trkpt lat="45.61076" lon="10.50101"><ele>136.66666666666669</ele><time>2026-03-28T17:23:42.877Z</time></trkpt><trkpt lat="45.610765" lon="10.5008917"><ele>137.33333333333334</ele><time>2026-03-28T17:23:43.877Z</time></trkpt><trkpt lat="45.6107567" lon="10.50078"><ele>138.0</ele><time>2026-03-28T17:23:44.877Z</time></trkpt><trkpt lat="45.61074" lon="10.5006717"><ele>138.66666666666666</ele><time>2026-03-28T17:23:45.877Z</time></trkpt><trkpt lat="45.6107033" lon="10.50058"><ele>139.33333333333331</ele><time>2026-03-28T17:23:46.877Z</time></trkpt><trkpt lat="45.6106483" lon="10.5005117"><ele>140.0</ele><time>2026-03-28T17:23:47.877Z</time></trkpt><trkpt lat="45.6105317" lon="10.5004817"><ele>140.0</ele><time>2026-03-28T17:23:49.877Z</time></trkpt><trkpt lat="45.6104667" lon="10.5005483"><ele>140.0</ele><time>2026-03-28T17:23:50.878Z</time></trkpt><trkpt lat="45.610405" lon="10.5006283"><ele>140.0</ele><time>2026-03-28T17:23:51.877Z</time></trkpt><trkpt lat="45.6103383" lon="10.5007267"><ele>140.0</ele><time>2026-03-28T17:23:52.877Z</time></trkpt><trkpt lat="45.6102617" lon="10.50081"><ele>140.0</ele><time>2026-03-28T17:23:53.877Z</time></trkpt><trkpt lat="45.6101833" lon="10.5008533"><ele>140.0</ele><time>2026-03-28T17:23:54.877Z</time></trkpt><trkpt lat="45.6100917" lon="10.5008733"><ele>138.25</ele><time>2026-03-28T17:23:55.877Z</time></trkpt><trkpt lat="45.6099783" lon="10.5008617"><ele>136.5</ele><time>2026-03-28T17:23:56.877Z</time></trkpt><trkpt lat="45.6098683" lon="10.500825"><ele>134.75</ele><time>2026-03-28T17:23:57.877Z</time></trkpt><trkpt lat="45.6097417" lon="10.5007833"><ele>133.0</ele><time>2026-03-28T17:23:58.877Z</time></trkpt><trkpt lat="45.609615" lon="10.50073"><ele>128.75</ele><time>2026-03-28T17:23:59.878Z</time></trkpt><trkpt lat="45.60949" lon="10.50068"><ele>124.5</ele><time>2026-03-28T17:24:00.877Z</time></trkpt><trkpt lat="45.6093567" lon="10.50062"><ele>120.25</ele><time>2026-03-28T17:24:01.877Z</time></trkpt><trkpt lat="45.6092217" lon="10.5005683"><ele>116.0</ele><time>2026-03-28T17:24:02.877Z</time></trkpt><trkpt lat="45.6090817" lon="10.5005167"><ele>116.0</ele><time>2026-03-28T17:24:03.877Z</time></trkpt><trkpt lat="45.608945" lon="10.50047"><ele>116.0</ele><time>2026-03-28T17:24:04.877Z</time></trkpt><trkpt lat="45.6088033" lon="10.500445"><ele>116.0</ele><time>2026-03-28T17:24:05.877Z</time></trkpt><trkpt lat="45.60865" lon="10.5004383"><ele>116.0</ele><time>2026-03-28T17:24:06.877Z</time></trkpt><trkpt lat="45.60849" lon="10.5004417"><ele>118.5</ele><time>2026-03-28T17:24:07.877Z</time></trkpt><trkpt lat="45.6083383" lon="10.50046"><ele>121.0</ele><time>2026-03-28T17:24:08.877Z</time></trkpt><trkpt lat="45.6081967" lon="10.5005033"><ele>123.5</ele><time>2026-03-28T17:24:09.877Z</time></trkpt><trkpt lat="45.6080617" lon="10.5005467"><ele>126.0</ele><time>2026-03-28T17:24:10.877Z</time></trkpt><trkpt lat="45.6079317" lon="10.50059"><ele>128.5</ele><time>2026-03-28T17:24:11.877Z</time></trkpt><trkpt lat="45.6078017" lon="10.5006283"><ele>131.0</ele><time>2026-03-28T17:24:12.877Z</time></trkpt><trkpt lat="45.6076667" lon="10.5006567"><ele>133.5</ele><time>2026-03-28T17:24:13.877Z</time></trkpt><trkpt lat="45.6075317" lon="10.5006867"><ele>136.0</ele><time>2026-03-28T17:24:14.878Z</time></trkpt><trkpt lat="45.60742" lon="10.5006733"><ele>136.0</ele><time>2026-03-28T17:24:15.878Z</time></trkpt><trkpt lat="45.6073017" lon="10.5006867"><ele>136.0</ele><time>2026-03-28T17:24:16.877Z</time></trkpt><trkpt lat="45.6071917" lon="10.5006967"><ele>136.0</ele><time>2026-03-28T17:24:17.877Z</time></trkpt><trkpt lat="45.607075" lon="10.5007067"><ele>136.0</ele><time>2026-03-28T17:24:18.877Z</time></trkpt><trkpt lat="45.60696" lon="10.5007167"><ele>137.0</ele><time>2026-03-28T17:24:19.877Z</time></trkpt><trkpt lat="45.6068467" lon="10.50072"><ele>138.0</ele><time>2026-03-28T17:24:20.877Z</time></trkpt><trkpt lat="45.6063467" lon="10.5031067"><ele>131.5</ele><time>2026-03-28T17:24:29.884Z</time></trkpt><trkpt lat="45.6063517" lon="10.5032883"><ele>125.0</ele><time>2026-03-28T17:24:30.884Z</time></trkpt><trkpt lat="45.6063767" lon="10.5034567"><ele>118.5</ele><time>2026-03-28T17:24:31.884Z</time></trkpt><trkpt lat="45.6064033" lon="10.503615"><ele>112.0</ele><time>2026-03-28T17:24:32.884Z</time></trkpt><trkpt lat="45.6064433" lon="10.5037533"><ele>111.00000000000001</ele><time>2026-03-28T17:24:33.884Z</time></trkpt><trkpt lat="45.60648" lon="10.503865"><ele>110.0</ele><time>2026-03-28T17:24:34.884Z</time></trkpt><trkpt lat="45.606505" lon="10.503965"><ele>109.0</ele><time>2026-03-28T17:24:35.884Z</time></trkpt><trkpt lat="45.60653" lon="10.50405"><ele>108.0</ele><time>2026-03-28T17:24:36.884Z</time></trkpt><trkpt lat="45.60654" lon="10.5041467"><ele>107.00000000000001</ele><time>2026-03-28T17:24:37.884Z</time></trkpt><trkpt lat="45.6065267" lon="10.50426"><ele>106.0</ele><time>2026-03-28T17:24:38.885Z</time></trkpt><trkpt lat="45.6065017" lon="10.504385"><ele>106.0</ele><time>2026-03-28T17:24:39.884Z</time></trkpt><trkpt lat="45.6064583" lon="10.5045167"><ele>106.0</ele><time>2026-03-28T17:24:40.884Z</time></trkpt><trkpt lat="45.606405" lon="10.5046233"><ele>106.0</ele><time>2026-03-28T17:24:41.884Z</time></trkpt><trkpt lat="45.6063367" lon="10.5047183"><ele>106.0</ele><time>2026-03-28T17:24:42.884Z</time></trkpt><trkpt lat="45.6062633" lon="10.5047967"><ele>106.0</ele><time>2026-03-28T17:24:43.884Z</time></trkpt><trkpt lat="45.6061983" lon="10.5048517"><ele>105.71428571428572</ele><time>2026-03-28T17:24:44.884Z</time></trkpt><trkpt lat="45.6061317" lon="10.5048983"><ele>105.42857142857142</ele><time>2026-03-28T17:24:45.884Z</time></trkpt><trkpt lat="45.60607" lon="10.5049517"><ele>105.14285714285714</ele><time>2026-03-28T17:24:46.884Z</time></trkpt><trkpt lat="45.6060033" lon="10.505"><ele>104.85714285714286</ele><time>2026-03-28T17:24:47.885Z</time></trkpt><trkpt lat="45.605935" lon="10.5050433"><ele>104.57142857142858</ele><time>2026-03-28T17:24:48.884Z</time></trkpt><trkpt lat="45.605865" lon="10.5050883"><ele>104.28571428571428</ele><time>2026-03-28T17:24:49.884Z</time></trkpt><trkpt lat="45.6058017" lon="10.5051183"><ele>104.0</ele><time>2026-03-28T17:24:50.884Z</time></trkpt><trkpt lat="45.6057417" lon="10.5051483"><ele>103.99999999999999</ele><time>2026-03-28T17:24:51.884Z</time></trkpt><trkpt lat="45.6056267" lon="10.5052117"><ele>104.0</ele><time>2026-03-28T17:24:53.884Z</time></trkpt><trkpt lat="45.6055167" lon="10.5052817"><ele>104.0</ele><time>2026-03-28T17:24:55.884Z</time></trkpt><trkpt lat="45.6054583" lon="10.505325"><ele>104.0</ele><time>2026-03-28T17:24:56.884Z</time></trkpt><trkpt lat="45.6053917" lon="10.5053583"><ele>103.99999999999999</ele><time>2026-03-28T17:24:57.884Z</time></trkpt><trkpt lat="45.6053267" lon="10.5053933"><ele>104.0</ele><time>2026-03-28T17:24:58.884Z</time></trkpt><trkpt lat="45.605265" lon="10.5054283"><ele>104.71428571428571</ele><time>2026-03-28T17:24:59.884Z</time></trkpt><trkpt lat="45.605205" lon="10.5054717"><ele>105.42857142857143</ele><time>2026-03-28T17:25:00.885Z</time></trkpt><trkpt lat="45.6051433" lon="10.50551"><ele>106.14285714285714</ele><time>2026-03-28T17:25:01.884Z</time></trkpt><trkpt lat="45.6050783" lon="10.5055533"><ele>106.85714285714286</ele><time>2026-03-28T17:25:02.884Z</time></trkpt><trkpt lat="45.6050083" lon="10.5055967"><ele>107.57142857142858</ele><time>2026-03-28T17:25:03.884Z</time></trkpt><trkpt lat="45.6049367" lon="10.505635"><ele>108.28571428571429</ele><time>2026-03-28T17:25:04.884Z</time></trkpt><trkpt lat="45.60487" lon="10.50567"><ele>109.0</ele><time>2026-03-28T17:25:05.884Z</time></trkpt><trkpt lat="45.604805" lon="10.50571"><ele>109.00000000000001</ele><time>2026-03-28T17:25:06.884Z</time></trkpt><trkpt lat="45.604735" lon="10.5057417"><ele>109.0</ele><time>2026-03-28T17:25:07.884Z</time></trkpt><trkpt lat="45.6046683" lon="10.5057817"><ele>109.0</ele><time>2026-03-28T17:25:08.884Z</time></trkpt><trkpt lat="45.604595" lon="10.505825"><ele>109.0</ele><time>2026-03-28T17:25:09.884Z</time></trkpt><trkpt lat="45.604525" lon="10.50587"><ele>109.00000000000001</ele><time>2026-03-28T17:25:10.884Z</time></trkpt><trkpt lat="45.60445" lon="10.5059167"><ele>109.0</ele><time>2026-03-28T17:25:11.884Z</time></trkpt><trkpt lat="45.6043667" lon="10.5059517"><ele>110.2</ele><time>2026-03-28T17:25:12.884Z</time></trkpt><trkpt lat="45.604285" lon="10.5060083"><ele>111.4</ele><time>2026-03-28T17:25:13.884Z</time></trkpt><trkpt lat="45.604195" lon="10.5060583"><ele>112.6</ele><time>2026-03-28T17:25:14.884Z</time></trkpt><trkpt lat="45.6041067" lon="10.5061083"><ele>113.8</ele><time>2026-03-28T17:25:15.884Z</time></trkpt><trkpt lat="45.604015" lon="10.50616"><ele>115.0</ele><time>2026-03-28T17:25:16.884Z</time></trkpt><trkpt lat="45.6039217" lon="10.5062233"><ele>114.0</ele><time>2026-03-28T17:25:17.884Z</time></trkpt><trkpt lat="45.6038317" lon="10.506285"><ele>113.0</ele><time>2026-03-28T17:25:18.885Z</time></trkpt><trkpt lat="45.6037367" lon="10.506335"><ele>112.0</ele><time>2026-03-28T17:25:19.884Z</time></trkpt><trkpt lat="45.60364" lon="10.506385"><ele>111.0</ele><time>2026-03-28T17:25:20.884Z</time></trkpt><trkpt lat="45.6035483" lon="10.50645"><ele>110.0</ele><time>2026-03-28T17:25:21.884Z</time></trkpt><trkpt lat="45.6034567" lon="10.506505"><ele>110.0</ele><time>2026-03-28T17:25:22.884Z</time></trkpt><trkpt lat="45.603365" lon="10.50656"><ele>110.0</ele><time>2026-03-28T17:25:23.884Z</time></trkpt><trkpt lat="45.60328" lon="10.5066083"><ele>110.0</ele><time>2026-03-28T17:25:24.884Z</time></trkpt><trkpt lat="45.6031917" lon="10.5066483"><ele>110.0</ele><time>2026-03-28T17:25:25.884Z</time></trkpt><trkpt lat="45.6031017" lon="10.5067033"><ele>110.0</ele><time>2026-03-28T17:25:26.884Z</time></trkpt><trkpt lat="45.6030033" lon="10.50676"><ele>110.0</ele><time>2026-03-28T17:25:27.884Z</time></trkpt><trkpt lat="45.6028917" lon="10.5068283"><ele>110.0</ele><time>2026-03-28T17:25:28.884Z</time></trkpt><trkpt lat="45.6027617" lon="10.50691"><ele>110.0</ele><time>2026-03-28T17:25:29.884Z</time></trkpt><trkpt lat="45.60263" lon="10.5070033"><ele>110.0</ele><time>2026-03-28T17:25:30.884Z</time></trkpt><trkpt lat="45.602505" lon="10.5071"><ele>111.0</ele><time>2026-03-28T17:25:31.884Z</time></trkpt><trkpt lat="45.602375" lon="10.5071983"><ele>112.0</ele><time>2026-03-28T17:25:32.884Z</time></trkpt><trkpt lat="45.6022483" lon="10.507305"><ele>113.0</ele><time>2026-03-28T17:25:33.884Z</time></trkpt><trkpt lat="45.6021283" lon="10.5074033"><ele>114.0</ele><time>2026-03-28T17:25:34.884Z</time></trkpt><trkpt lat="45.6020017" lon="10.5074933"><ele>115.5</ele><time>2026-03-28T17:25:35.884Z</time></trkpt><trkpt lat="45.6018783" lon="10.5075783"><ele>117.0</ele><time>2026-03-28T17:25:36.884Z</time></trkpt><trkpt lat="45.6017617" lon="10.5076683"><ele>118.5</ele><time>2026-03-28T17:25:37.884Z</time></trkpt><trkpt lat="45.60165" lon="10.5077533"><ele>120.0</ele><time>2026-03-28T17:25:38.884Z</time></trkpt><trkpt lat="45.6015483" lon="10.5078217"><ele>120.0</ele><time>2026-03-28T17:25:39.884Z</time></trkpt><trkpt lat="45.6014433" lon="10.507895"><ele>120.0</ele><time>2026-03-28T17:25:40.884Z</time></trkpt><trkpt lat="45.601335" lon="10.5079567"><ele>120.0</ele><time>2026-03-28T17:25:41.884Z</time></trkpt><trkpt lat="45.6012217" lon="10.5080033"><ele>120.0</ele><time>2026-03-28T17:25:42.884Z</time></trkpt><trkpt lat="45.60111" lon="10.50804"><ele>118.25</ele><time>2026-03-28T17:25:43.884Z</time></trkpt><trkpt lat="45.601005" lon="10.508055"><ele>116.5</ele><time>2026-03-28T17:25:44.884Z</time></trkpt><trkpt lat="45.6008967" lon="10.5080617"><ele>114.75</ele><time>2026-03-28T17:25:45.885Z</time></trkpt><trkpt lat="45.6007783" lon="10.5080517"><ele>113.0</ele><time>2026-03-28T17:25:46.884Z</time></trkpt><trkpt lat="45.6006583" lon="10.50802"><ele>113.0</ele><time>2026-03-28T17:25:47.884Z</time></trkpt><trkpt lat="45.6005317" lon="10.507975"><ele>113.0</ele><time>2026-03-28T17:25:48.885Z</time></trkpt><trkpt lat="45.600405" lon="10.507915"><ele>113.0</ele><time>2026-03-28T17:25:49.884Z</time></trkpt><trkpt lat="45.60028" lon="10.5078433"><ele>113.0</ele><time>2026-03-28T17:25:50.885Z</time></trkpt><trkpt lat="45.6001633" lon="10.5077667"><ele>115.5</ele><time>2026-03-28T17:25:51.885Z</time></trkpt><trkpt lat="45.6000533" lon="10.507695"><ele>118.0</ele><time>2026-03-28T17:25:52.884Z</time></trkpt><trkpt lat="45.59995" lon="10.507625"><ele>120.5</ele><time>2026-03-28T17:25:53.884Z</time></trkpt><trkpt lat="45.5998417" lon="10.507575"><ele>123.0</ele><time>2026-03-28T17:25:54.885Z</time></trkpt><trkpt lat="45.599725" lon="10.5075283"><ele>123.0</ele><time>2026-03-28T17:25:55.884Z</time></trkpt><trkpt lat="45.5995967" lon="10.507505"><ele>123.0</ele><time>2026-03-28T17:25:56.884Z</time></trkpt><trkpt lat="45.5994667" lon="10.5075033"><ele>123.0</ele><time>2026-03-28T17:25:57.884Z</time></trkpt><trkpt lat="45.5993333" lon="10.50752"><ele>123.0</ele><time>2026-03-28T17:25:58.884Z</time></trkpt><trkpt lat="45.5992033" lon="10.5075583"><ele>124.25</ele><time>2026-03-28T17:25:59.884Z</time></trkpt><trkpt lat="45.5990717" lon="10.5075983"><ele>125.5</ele><time>2026-03-28T17:26:00.884Z</time></trkpt><trkpt lat="45.59895" lon="10.5076383"><ele>126.75</ele><time>2026-03-28T17:26:01.885Z</time></trkpt><trkpt lat="45.5988367" lon="10.507675"><ele>128.0</ele><time>2026-03-28T17:26:02.884Z</time></trkpt><trkpt lat="45.5987233" lon="10.5077117"><ele>128.75</ele><time>2026-03-28T17:26:03.884Z</time></trkpt><trkpt lat="45.5986083" lon="10.507755"><ele>129.5</ele><time>2026-03-28T17:26:04.884Z</time></trkpt><trkpt lat="45.5984933" lon="10.5077983"><ele>130.25</ele><time>2026-03-28T17:26:05.884Z</time></trkpt><trkpt lat="45.5983817" lon="10.5078483"><ele>131.0</ele><time>2026-03-28T17:26:06.884Z</time></trkpt><trkpt lat="45.598275" lon="10.5078833"><ele>129.6</ele><time>2026-03-28T17:26:07.884Z</time></trkpt><trkpt lat="45.5981633" lon="10.50792"><ele>128.2</ele><time>2026-03-28T17:26:08.884Z</time></trkpt><trkpt lat="45.598055" lon="10.507945"><ele>126.80000000000001</ele><time>2026-03-28T17:26:09.884Z</time></trkpt><trkpt lat="45.5979483" lon="10.5079733"><ele>125.4</ele><time>2026-03-28T17:26:10.884Z</time></trkpt><trkpt lat="45.5978417" lon="10.5080233"><ele>124.0</ele><time>2026-03-28T17:26:11.884Z</time></trkpt><trkpt lat="45.59773" lon="10.508065"><ele>124.0</ele><time>2026-03-28T17:26:12.884Z</time></trkpt><trkpt lat="45.5976183" lon="10.5081"><ele>124.0</ele><time>2026-03-28T17:26:13.884Z</time></trkpt><trkpt lat="45.5975067" lon="10.5081433"><ele>124.0</ele><time>2026-03-28T17:26:14.884Z</time></trkpt><trkpt lat="45.5973933" lon="10.508175"><ele>124.0</ele><time>2026-03-28T17:26:15.884Z</time></trkpt><trkpt lat="45.5972733" lon="10.5082067"><ele>124.0</ele><time>2026-03-28T17:26:16.884Z</time></trkpt><trkpt lat="45.5971517" lon="10.5082383"><ele>124.0</ele><time>2026-03-28T17:26:17.884Z</time></trkpt><trkpt lat="45.5970283" lon="10.5082767"><ele>124.0</ele><time>2026-03-28T17:26:18.884Z</time></trkpt><trkpt lat="45.596905" lon="10.5083167"><ele>124.0</ele><time>2026-03-28T17:26:19.884Z</time></trkpt><trkpt lat="45.5967833" lon="10.5083633"><ele>124.25</ele><time>2026-03-28T17:26:20.884Z</time></trkpt><trkpt lat="45.5966717" lon="10.5084033"><ele>124.5</ele><time>2026-03-28T17:26:21.884Z</time></trkpt><trkpt lat="45.5965617" lon="10.508445"><ele>124.75</ele><time>2026-03-28T17:26:22.885Z</time></trkpt><trkpt lat="45.59645" lon="10.5084833"><ele>125.0</ele><time>2026-03-28T17:26:23.884Z</time></trkpt><trkpt lat="45.5963333" lon="10.50852"><ele>125.0</ele><time>2026-03-28T17:26:24.884Z</time></trkpt><trkpt lat="45.59622" lon="10.5085767"><ele>125.0</ele><time>2026-03-28T17:26:25.884Z</time></trkpt><trkpt lat="45.59611" lon="10.5086583"><ele>125.0</ele><time>2026-03-28T17:26:26.884Z</time></trkpt><trkpt lat="45.596005" lon="10.508755"><ele>125.0</ele><time>2026-03-28T17:26:27.884Z</time></trkpt><trkpt lat="45.5959083" lon="10.5088767"><ele>126.5</ele><time>2026-03-28T17:26:28.884Z</time></trkpt><trkpt lat="45.59582" lon="10.5090083"><ele>128.0</ele><time>2026-03-28T17:26:29.884Z</time></trkpt><trkpt lat="45.595755" lon="10.50915"><ele>129.5</ele><time>2026-03-28T17:26:30.884Z</time></trkpt><trkpt lat="45.5956867" lon="10.5092933"><ele>131.0</ele><time>2026-03-28T17:26:31.884Z</time></trkpt><trkpt lat="45.5956267" lon="10.5094333"><ele>131.0</ele><time>2026-03-28T17:26:32.885Z</time></trkpt><trkpt lat="45.59557" lon="10.509565"><ele>131.0</ele><time>2026-03-28T17:26:33.884Z</time></trkpt><trkpt lat="45.59551" lon="10.5097067"><ele>131.0</ele><time>2026-03-28T17:26:34.885Z</time></trkpt><trkpt lat="45.5954517" lon="10.50985"><ele>131.0</ele><time>2026-03-28T17:26:35.884Z</time></trkpt><trkpt lat="45.595395" lon="10.5099817"><ele>131.0</ele><time>2026-03-28T17:26:36.885Z</time></trkpt><trkpt lat="45.5953367" lon="10.5101267"><ele>131.5</ele><time>2026-03-28T17:26:37.885Z</time></trkpt><trkpt lat="45.5952767" lon="10.5102717"><ele>132.0</ele><time>2026-03-28T17:26:38.884Z</time></trkpt><trkpt lat="45.59521" lon="10.51042"><ele>132.5</ele><time>2026-03-28T17:26:39.884Z</time></trkpt><trkpt lat="45.5951317" lon="10.5105683"><ele>133.0</ele><time>2026-03-28T17:26:40.884Z</time></trkpt><trkpt lat="45.59506" lon="10.510715"><ele>133.0</ele><time>2026-03-28T17:26:41.884Z</time></trkpt><trkpt lat="45.59497" lon="10.51083"><ele>133.0</ele><time>2026-03-28T17:26:42.885Z</time></trkpt><trkpt lat="45.59487" lon="10.5109333"><ele>133.0</ele><time>2026-03-28T17:26:43.884Z</time></trkpt><trkpt lat="45.5947667" lon="10.5110233"><ele>133.0</ele><time>2026-03-28T17:26:44.884Z</time></trkpt><trkpt lat="45.5946567" lon="10.5111033"><ele>133.0</ele><time>2026-03-28T17:26:45.884Z</time></trkpt><trkpt lat="45.5945433" lon="10.5111783"><ele>133.0</ele><time>2026-03-28T17:26:46.884Z</time></trkpt><trkpt lat="45.594425" lon="10.51125"><ele>133.0</ele><time>2026-03-28T17:26:47.884Z</time></trkpt><trkpt lat="45.594315" lon="10.5113117"><ele>133.0</ele><time>2026-03-28T17:26:48.885Z</time></trkpt><trkpt lat="45.5942133" lon="10.511375"><ele>133.20000000000002</ele><time>2026-03-28T17:26:49.884Z</time></trkpt><trkpt lat="45.5941183" lon="10.5114433"><ele>133.4</ele><time>2026-03-28T17:26:50.884Z</time></trkpt><trkpt lat="45.5940233" lon="10.5115067"><ele>133.60000000000002</ele><time>2026-03-28T17:26:51.884Z</time></trkpt><trkpt lat="45.5939283" lon="10.5115533"><ele>133.8</ele><time>2026-03-28T17:26:52.884Z</time></trkpt><trkpt lat="45.593825" lon="10.511595"><ele>134.0</ele><time>2026-03-28T17:26:53.884Z</time></trkpt><trkpt lat="45.5937183" lon="10.511645"><ele>134.75</ele><time>2026-03-28T17:26:54.884Z</time></trkpt><trkpt lat="45.593615" lon="10.5117133"><ele>135.5</ele><time>2026-03-28T17:26:55.885Z</time></trkpt><trkpt lat="45.59351" lon="10.5117983"><ele>136.25</ele><time>2026-03-28T17:26:56.884Z</time></trkpt><trkpt lat="45.5934083" lon="10.5119017"><ele>137.0</ele><time>2026-03-28T17:26:57.884Z</time></trkpt><trkpt lat="45.593315" lon="10.5120317"><ele>136.5</ele><time>2026-03-28T17:26:58.884Z</time></trkpt><trkpt lat="45.59324" lon="10.5121867"><ele>136.0</ele><time>2026-03-28T17:26:59.884Z</time></trkpt><trkpt lat="45.593175" lon="10.5123533"><ele>135.5</ele><time>2026-03-28T17:27:00.884Z</time></trkpt><trkpt lat="45.5931333" lon="10.51252"><ele>135.0</ele><time>2026-03-28T17:27:01.884Z</time></trkpt><trkpt lat="45.593105" lon="10.5126833"><ele>135.0</ele><time>2026-03-28T17:27:02.884Z</time></trkpt><trkpt lat="45.5930967" lon="10.5128267"><ele>135.0</ele><time>2026-03-28T17:27:03.884Z</time></trkpt><trkpt lat="45.5931017" lon="10.5129567"><ele>135.0</ele><time>2026-03-28T17:27:04.884Z</time></trkpt><trkpt lat="45.5931083" lon="10.513065"><ele>135.0</ele><time>2026-03-28T17:27:05.884Z</time></trkpt><trkpt lat="45.5931233" lon="10.5131917"><ele>135.0</ele><time>2026-03-28T17:27:07.884Z</time></trkpt><trkpt lat="45.5931467" lon="10.5133217"><ele>135.33333333333334</ele><time>2026-03-28T17:27:10.884Z</time></trkpt><trkpt lat="45.5931583" lon="10.5134533"><ele>135.66666666666666</ele><time>2026-03-28T17:27:13.884Z</time></trkpt><trkpt lat="45.5931817" lon="10.5135767"><ele>136.0</ele><time>2026-03-28T17:27:15.884Z</time></trkpt><trkpt lat="45.593225" lon="10.5137367"><ele>136.33333333333331</ele><time>2026-03-28T17:27:17.884Z</time></trkpt><trkpt lat="45.593245" lon="10.513825"><ele>136.66666666666666</ele><time>2026-03-28T17:27:18.884Z</time></trkpt><trkpt lat="45.5932683" lon="10.5139117"><ele>137.0</ele><time>2026-03-28T17:27:19.884Z</time></trkpt><trkpt lat="45.59329" lon="10.5140067"><ele>138.16666666666666</ele><time>2026-03-28T17:27:20.884Z</time></trkpt><trkpt lat="45.59331" lon="10.5141067"><ele>139.33333333333331</ele><time>2026-03-28T17:27:21.884Z</time></trkpt><trkpt lat="45.5933367" lon="10.5142267"><ele>140.5</ele><time>2026-03-28T17:27:22.884Z</time></trkpt><trkpt lat="45.5933633" lon="10.5143467"><ele>141.66666666666666</ele><time>2026-03-28T17:27:23.884Z</time></trkpt><trkpt lat="45.5933867" lon="10.5144817"><ele>142.83333333333334</ele><time>2026-03-28T17:27:24.885Z</time></trkpt><trkpt lat="45.5934117" lon="10.5146067"><ele>144.0</ele><time>2026-03-28T17:27:25.884Z</time></trkpt><trkpt lat="45.5934383" lon="10.514735"><ele>145.2</ele><time>2026-03-28T17:27:26.884Z</time></trkpt><trkpt lat="45.5934717" lon="10.514875"><ele>146.4</ele><time>2026-03-28T17:27:27.885Z</time></trkpt><trkpt lat="45.5934967" lon="10.5150133"><ele>147.6</ele><time>2026-03-28T17:27:28.884Z</time></trkpt><trkpt lat="45.59353" lon="10.515155"><ele>148.8</ele><time>2026-03-28T17:27:29.884Z</time></trkpt><trkpt lat="45.5935533" lon="10.5153083"><ele>150.0</ele><time>2026-03-28T17:27:30.884Z</time></trkpt><trkpt lat="45.5935733" lon="10.51546"><ele>150.8</ele><time>2026-03-28T17:27:31.885Z</time></trkpt><trkpt lat="45.5935833" lon="10.5156117"><ele>151.6</ele><time>2026-03-28T17:27:32.884Z</time></trkpt><trkpt lat="45.5935967" lon="10.5157633"><ele>152.4</ele><time>2026-03-28T17:27:33.885Z</time></trkpt><trkpt lat="45.5935917" lon="10.5159083"><ele>153.2</ele><time>2026-03-28T17:27:34.884Z</time></trkpt><trkpt lat="45.5935883" lon="10.5160683"><ele>154.0</ele><time>2026-03-28T17:27:35.884Z</time></trkpt><trkpt lat="45.59358" lon="10.5162217"><ele>153.0</ele><time>2026-03-28T17:27:36.884Z</time></trkpt><trkpt lat="45.593565" lon="10.5163783"><ele>152.0</ele><time>2026-03-28T17:27:37.884Z</time></trkpt><trkpt lat="45.5935483" lon="10.516545"><ele>151.0</ele><time>2026-03-28T17:27:38.884Z</time></trkpt><trkpt lat="45.5935233" lon="10.5167083"><ele>150.0</ele><time>2026-03-28T17:27:39.884Z</time></trkpt><trkpt lat="45.593485" lon="10.5168783"><ele>150.0</ele><time>2026-03-28T17:27:40.884Z</time></trkpt><trkpt lat="45.5934533" lon="10.5170533"><ele>150.0</ele><time>2026-03-28T17:27:41.884Z</time></trkpt><trkpt lat="45.5934217" lon="10.5172317"><ele>150.0</ele><time>2026-03-28T17:27:42.884Z</time></trkpt><trkpt lat="45.59338" lon="10.5174183"><ele>150.0</ele><time>2026-03-28T17:27:43.884Z</time></trkpt><trkpt lat="45.5933367" lon="10.5175967"><ele>148.75</ele><time>2026-03-28T17:27:44.884Z</time></trkpt><trkpt lat="45.5933" lon="10.51778"><ele>147.5</ele><time>2026-03-28T17:27:45.884Z</time></trkpt><trkpt lat="45.59326" lon="10.517975"><ele>146.25</ele><time>2026-03-28T17:27:46.884Z</time></trkpt><trkpt lat="45.59322" lon="10.5181683"><ele>145.0</ele><time>2026-03-28T17:27:47.884Z</time></trkpt><trkpt lat="45.5931817" lon="10.5183533"><ele>144.75</ele><time>2026-03-28T17:27:48.884Z</time></trkpt><trkpt lat="45.5931517" lon="10.5185367"><ele>144.5</ele><time>2026-03-28T17:27:49.884Z</time></trkpt><trkpt lat="45.5931183" lon="10.5187167"><ele>144.25</ele><time>2026-03-28T17:27:50.884Z</time></trkpt><trkpt lat="45.593085" lon="10.518895"><ele>144.0</ele><time>2026-03-28T17:27:51.884Z</time></trkpt><trkpt lat="45.5930533" lon="10.5190783"><ele>144.5</ele><time>2026-03-28T17:27:52.885Z</time></trkpt><trkpt lat="45.593025" lon="10.5192683"><ele>145.0</ele><time>2026-03-28T17:27:53.884Z</time></trkpt><trkpt lat="45.59299" lon="10.519445"><ele>145.5</ele><time>2026-03-28T17:27:54.885Z</time></trkpt><trkpt lat="45.5929567" lon="10.5196083"><ele>146.0</ele><time>2026-03-28T17:27:55.884Z</time></trkpt><trkpt lat="45.5929233" lon="10.5197633"><ele>146.75</ele><time>2026-03-28T17:27:56.884Z</time></trkpt><trkpt lat="45.5928833" lon="10.5199167"><ele>147.5</ele><time>2026-03-28T17:27:57.884Z</time></trkpt><trkpt lat="45.5928367" lon="10.52007"><ele>148.25</ele><time>2026-03-28T17:27:58.884Z</time></trkpt><trkpt lat="45.5927783" lon="10.5202267"><ele>149.0</ele><time>2026-03-28T17:27:59.884Z</time></trkpt><trkpt lat="45.592715" lon="10.5203933"><ele>151.5</ele><time>2026-03-28T17:28:00.884Z</time></trkpt><trkpt lat="45.5926467" lon="10.52056"><ele>154.0</ele><time>2026-03-28T17:28:01.884Z</time></trkpt><trkpt lat="45.5925717" lon="10.520715"><ele>156.5</ele><time>2026-03-28T17:28:02.884Z</time></trkpt><trkpt lat="45.5924883" lon="10.5208517"><ele>159.0</ele><time>2026-03-28T17:28:03.884Z</time></trkpt><trkpt lat="45.5924067" lon="10.520995"><ele>159.0</ele><time>2026-03-28T17:28:04.884Z</time></trkpt><trkpt lat="45.59233" lon="10.5211367"><ele>159.0</ele><time>2026-03-28T17:28:05.884Z</time></trkpt><trkpt lat="45.592255" lon="10.5212833"><ele>159.0</ele><time>2026-03-28T17:28:06.884Z</time></trkpt><trkpt lat="45.5921883" lon="10.5214267"><ele>159.0</ele><time>2026-03-28T17:28:07.884Z</time></trkpt><trkpt lat="45.5921117" lon="10.5215683"><ele>158.8</ele><time>2026-03-28T17:28:08.884Z</time></trkpt><trkpt lat="45.5920367" lon="10.521705"><ele>158.60000000000002</ele><time>2026-03-28T17:28:09.884Z</time></trkpt><trkpt lat="45.5919733" lon="10.5218283"><ele>158.4</ele><time>2026-03-28T17:28:10.884Z</time></trkpt><trkpt lat="45.5919117" lon="10.5219433"><ele>158.20000000000002</ele><time>2026-03-28T17:28:11.884Z</time></trkpt><trkpt lat="45.591855" lon="10.522055"><ele>158.0</ele><time>2026-03-28T17:28:12.884Z</time></trkpt><trkpt lat="45.591795" lon="10.522165"><ele>158.0</ele><time>2026-03-28T17:28:13.884Z</time></trkpt><trkpt lat="45.5917333" lon="10.522275"><ele>158.0</ele><time>2026-03-28T17:28:14.884Z</time></trkpt><trkpt lat="45.5916667" lon="10.5223717"><ele>158.0</ele><time>2026-03-28T17:28:15.884Z</time></trkpt><trkpt lat="45.59161" lon="10.522455"><ele>158.0</ele><time>2026-03-28T17:28:16.884Z</time></trkpt><trkpt lat="45.5915617" lon="10.5225167"><ele>158.0</ele><time>2026-03-28T17:28:17.884Z</time></trkpt><trkpt lat="45.5914867" lon="10.5225917"><ele>158.0</ele><time>2026-03-28T17:28:19.884Z</time></trkpt><trkpt lat="45.5913883" lon="10.5226433"><ele>158.0</ele><time>2026-03-28T17:28:21.884Z</time></trkpt><trkpt lat="45.5912817" lon="10.5226633"><ele>158.0</ele><time>2026-03-28T17:28:23.884Z</time></trkpt><trkpt lat="45.5912083" lon="10.52267"><ele>158.0</ele><time>2026-03-28T17:28:24.884Z</time></trkpt><trkpt lat="45.5911283" lon="10.52271"><ele>158.0</ele><time>2026-03-28T17:28:25.884Z</time></trkpt><trkpt lat="45.591055" lon="10.5227833"><ele>158.0</ele><time>2026-03-28T17:28:26.884Z</time></trkpt><trkpt lat="45.59099" lon="10.5228567"><ele>158.0</ele><time>2026-03-28T17:28:27.884Z</time></trkpt><trkpt lat="45.590915" lon="10.5229267"><ele>157.8</ele><time>2026-03-28T17:28:28.884Z</time></trkpt><trkpt lat="45.5908467" lon="10.5229683"><ele>157.60000000000002</ele><time>2026-03-28T17:28:29.884Z</time></trkpt><trkpt lat="45.59077" lon="10.5229933"><ele>157.39999999999998</ele><time>2026-03-28T17:28:30.884Z</time></trkpt><trkpt lat="45.5906717" lon="10.52298"><ele>157.2</ele><time>2026-03-28T17:28:31.884Z</time></trkpt><trkpt lat="45.5905667" lon="10.522915"><ele>157.0</ele><time>2026-03-28T17:28:32.884Z</time></trkpt><trkpt lat="45.59046" lon="10.52283"><ele>157.0</ele><time>2026-03-28T17:28:33.884Z</time></trkpt><trkpt lat="45.5903467" lon="10.5227433"><ele>157.0</ele><time>2026-03-28T17:28:34.884Z</time></trkpt><trkpt lat="45.5902283" lon="10.5226517"><ele>157.0</ele><time>2026-03-28T17:28:35.884Z</time></trkpt><trkpt lat="45.59011" lon="10.5225533"><ele>157.0</ele><time>2026-03-28T17:28:36.884Z</time></trkpt><trkpt lat="45.5899883" lon="10.522455"><ele>157.25</ele><time>2026-03-28T17:28:37.885Z</time></trkpt><trkpt lat="45.58987" lon="10.52236"><ele>157.5</ele><time>2026-03-28T17:28:38.884Z</time></trkpt><trkpt lat="45.5897433" lon="10.5222633"><ele>157.75</ele><time>2026-03-28T17:28:39.884Z</time></trkpt><trkpt lat="45.5896283" lon="10.522175"><ele>158.0</ele><time>2026-03-28T17:28:40.884Z</time></trkpt><trkpt lat="45.5895117" lon="10.5220983"><ele>156.75</ele><time>2026-03-28T17:28:41.884Z</time></trkpt><trkpt lat="45.5894083" lon="10.5220167"><ele>155.5</ele><time>2026-03-28T17:28:42.884Z</time></trkpt><trkpt lat="45.5893133" lon="10.52194"><ele>154.25</ele><time>2026-03-28T17:28:43.884Z</time></trkpt><trkpt lat="45.5892167" lon="10.521865"><ele>153.0</ele><time>2026-03-28T17:28:44.884Z</time></trkpt><trkpt lat="45.589115" lon="10.521785"><ele>153.0</ele><time>2026-03-28T17:28:45.884Z</time></trkpt><trkpt lat="45.5890167" lon="10.521705"><ele>153.0</ele><time>2026-03-28T17:28:46.884Z</time></trkpt><trkpt lat="45.5889183" lon="10.5216233"><ele>153.0</ele><time>2026-03-28T17:28:47.884Z</time></trkpt><trkpt lat="45.588815" lon="10.5215417"><ele>153.0</ele><time>2026-03-28T17:28:48.884Z</time></trkpt><trkpt lat="45.5887067" lon="10.52146"><ele>153.0</ele><time>2026-03-28T17:28:49.884Z</time></trkpt><trkpt lat="45.5885983" lon="10.5213833"><ele>153.0</ele><time>2026-03-28T17:28:50.884Z</time></trkpt><trkpt lat="45.588485" lon="10.521295"><ele>153.0</ele><time>2026-03-28T17:28:51.884Z</time></trkpt><trkpt lat="45.588375" lon="10.521195"><ele>153.0</ele><time>2026-03-28T17:28:52.884Z</time></trkpt><trkpt lat="45.58826" lon="10.5211"><ele>153.0</ele><time>2026-03-28T17:28:53.885Z</time></trkpt><trkpt lat="45.5881417" lon="10.5210083"><ele>153.0</ele><time>2026-03-28T17:28:54.884Z</time></trkpt><trkpt lat="45.5880267" lon="10.5209067"><ele>153.0</ele><time>2026-03-28T17:28:55.884Z</time></trkpt><trkpt lat="45.5879217" lon="10.520785"><ele>153.0</ele><time>2026-03-28T17:28:56.884Z</time></trkpt><trkpt lat="45.5878133" lon="10.5206583"><ele>152.75</ele><time>2026-03-28T17:28:57.884Z</time></trkpt><trkpt lat="45.5877267" lon="10.52051"><ele>152.5</ele><time>2026-03-28T17:28:58.884Z</time></trkpt><trkpt lat="45.5876483" lon="10.5203517"><ele>152.25</ele><time>2026-03-28T17:28:59.884Z</time></trkpt><trkpt lat="45.5875783" lon="10.520185"><ele>152.0</ele><time>2026-03-28T17:29:00.884Z</time></trkpt><trkpt lat="45.5875217" lon="10.5200283"><ele>151.79999999999998</ele><time>2026-03-28T17:29:01.884Z</time></trkpt><trkpt lat="45.5874733" lon="10.5198833"><ele>151.6</ele><time>2026-03-28T17:29:02.884Z</time></trkpt><trkpt lat="45.58743" lon="10.5197367"><ele>151.39999999999998</ele><time>2026-03-28T17:29:03.884Z</time></trkpt><trkpt lat="45.5873867" lon="10.51959"><ele>151.2</ele><time>2026-03-28T17:29:04.884Z</time></trkpt><trkpt lat="45.5873433" lon="10.5194517"><ele>151.0</ele><time>2026-03-28T17:29:05.884Z</time></trkpt><trkpt lat="45.5873017" lon="10.5193217"><ele>151.0</ele><time>2026-03-28T17:29:06.884Z</time></trkpt><trkpt lat="45.58726" lon="10.5192033"><ele>151.0</ele><time>2026-03-28T17:29:07.884Z</time></trkpt><trkpt lat="45.5872283" lon="10.51908"><ele>151.0</ele><time>2026-03-28T17:29:08.884Z</time></trkpt><trkpt lat="45.587195" lon="10.5189667"><ele>151.0</ele><time>2026-03-28T17:29:09.885Z</time></trkpt><trkpt lat="45.5871667" lon="10.5188683"><ele>151.0</ele><time>2026-03-28T17:29:10.884Z</time></trkpt><trkpt lat="45.5871417" lon="10.5187783"><ele>151.0</ele><time>2026-03-28T17:29:11.884Z</time></trkpt><trkpt lat="45.587115" lon="10.5186967"><ele>151.33333333333334</ele><time>2026-03-28T17:29:12.885Z</time></trkpt><trkpt lat="45.587085" lon="10.5186067"><ele>151.66666666666669</ele><time>2026-03-28T17:29:13.884Z</time></trkpt><trkpt lat="45.58705" lon="10.518505"><ele>152.0</ele><time>2026-03-28T17:29:14.884Z</time></trkpt><trkpt lat="45.5870283" lon="10.5184033"><ele>152.33333333333334</ele><time>2026-03-28T17:29:15.885Z</time></trkpt><trkpt lat="45.5870067" lon="10.51831"><ele>152.66666666666666</ele><time>2026-03-28T17:29:16.884Z</time></trkpt><trkpt lat="45.5869833" lon="10.518225"><ele>153.0</ele><time>2026-03-28T17:29:17.885Z</time></trkpt><trkpt lat="45.586945" lon="10.518095"><ele>153.0</ele><time>2026-03-28T17:29:19.885Z</time></trkpt><trkpt lat="45.5869167" lon="10.517995"><ele>153.0</ele><time>2026-03-28T17:29:22.885Z</time></trkpt><trkpt lat="45.5868917" lon="10.517895"><ele>153.0</ele><time>2026-03-28T17:29:29.885Z</time></trkpt><trkpt lat="45.5869083" lon="10.517765"><ele>153.0</ele><time>2026-03-28T17:29:32.886Z</time></trkpt><trkpt lat="45.5869433" lon="10.5176117"><ele>153.0</ele><time>2026-03-28T17:29:34.886Z</time></trkpt><trkpt lat="45.5869617" lon="10.5175217"><ele>153.0</ele><time>2026-03-28T17:29:35.885Z</time></trkpt><trkpt lat="45.5869467" lon="10.51734"><ele>153.66666666666666</ele><time>2026-03-28T17:29:37.885Z</time></trkpt><trkpt lat="45.586905" lon="10.5172667"><ele>154.33333333333334</ele><time>2026-03-28T17:29:38.885Z</time></trkpt><trkpt lat="45.5868367" lon="10.5172267"><ele>155.0</ele><time>2026-03-28T17:29:39.885Z</time></trkpt><trkpt lat="45.586755" lon="10.5171917"><ele>155.66666666666669</ele><time>2026-03-28T17:29:40.885Z</time></trkpt><trkpt lat="45.5866767" lon="10.5171283"><ele>156.33333333333334</ele><time>2026-03-28T17:29:41.885Z</time></trkpt><trkpt lat="45.58661" lon="10.5170483"><ele>157.0</ele><time>2026-03-28T17:29:42.885Z</time></trkpt><trkpt lat="45.5865583" lon="10.51693"><ele>157.25</ele><time>2026-03-28T17:29:43.885Z</time></trkpt><trkpt lat="45.5865117" lon="10.5167683"><ele>157.5</ele><time>2026-03-28T17:29:44.885Z</time></trkpt><trkpt lat="45.58647" lon="10.5166133"><ele>157.75</ele><time>2026-03-28T17:29:45.885Z</time></trkpt><trkpt lat="45.5864233" lon="10.5164583"><ele>158.0</ele><time>2026-03-28T17:29:46.885Z</time></trkpt><trkpt lat="45.5863667" lon="10.5163183"><ele>158.0</ele><time>2026-03-28T17:29:47.885Z</time></trkpt><trkpt lat="45.5863083" lon="10.5161967"><ele>158.0</ele><time>2026-03-28T17:29:48.885Z</time></trkpt><trkpt lat="45.5862383" lon="10.5160983"><ele>158.0</ele><time>2026-03-28T17:29:49.885Z</time></trkpt><trkpt lat="45.5861667" lon="10.5160167"><ele>158.0</ele><time>2026-03-28T17:29:50.885Z</time></trkpt><trkpt lat="45.5860933" lon="10.5159467"><ele>158.0</ele><time>2026-03-28T17:29:51.885Z</time></trkpt><trkpt lat="45.5860117" lon="10.515875"><ele>158.8</ele><time>2026-03-28T17:29:52.886Z</time></trkpt><trkpt lat="45.5859283" lon="10.51581"><ele>159.60000000000002</ele><time>2026-03-28T17:29:53.885Z</time></trkpt><trkpt lat="45.5858333" lon="10.5157483"><ele>160.39999999999998</ele><time>2026-03-28T17:29:54.885Z</time></trkpt><trkpt lat="45.5857367" lon="10.5156833"><ele>161.2</ele><time>2026-03-28T17:29:55.885Z</time></trkpt><trkpt lat="45.585645" lon="10.5156183"><ele>162.0</ele><time>2026-03-28T17:29:56.885Z</time></trkpt><trkpt lat="45.5855717" lon="10.5155517"><ele>162.0</ele><time>2026-03-28T17:29:57.885Z</time></trkpt><trkpt lat="45.585505" lon="10.5154683"><ele>162.0</ele><time>2026-03-28T17:29:58.885Z</time></trkpt><trkpt lat="45.5854383" lon="10.5153817"><ele>162.0</ele><time>2026-03-28T17:29:59.885Z</time></trkpt><trkpt lat="45.5853783" lon="10.5153283"><ele>162.0</ele><time>2026-03-28T17:30:00.885Z</time></trkpt><trkpt lat="45.585305" lon="10.5153133"><ele>162.0</ele><time>2026-03-28T17:30:01.885Z</time></trkpt><trkpt lat="45.5852283" lon="10.515345"><ele>162.0</ele><time>2026-03-28T17:30:02.885Z</time></trkpt><trkpt lat="45.5851433" lon="10.5153983"><ele>163.2</ele><time>2026-03-28T17:30:03.885Z</time></trkpt><trkpt lat="45.5850483" lon="10.5154517"><ele>164.39999999999998</ele><time>2026-03-28T17:30:04.886Z</time></trkpt><trkpt lat="45.5849567" lon="10.515485"><ele>165.60000000000002</ele><time>2026-03-28T17:30:05.885Z</time></trkpt><trkpt lat="45.5848567" lon="10.51551"><ele>166.8</ele><time>2026-03-28T17:30:06.885Z</time></trkpt><trkpt lat="45.584755" lon="10.515525"><ele>168.0</ele><time>2026-03-28T17:30:07.885Z</time></trkpt><trkpt lat="45.58465" lon="10.51554"><ele>168.0</ele><time>2026-03-28T17:30:08.885Z</time></trkpt><trkpt lat="45.584545" lon="10.5155583"><ele>168.0</ele><time>2026-03-28T17:30:09.885Z</time></trkpt><trkpt lat="45.5844367" lon="10.5155717"><ele>168.0</ele><time>2026-03-28T17:30:10.885Z</time></trkpt><trkpt lat="45.5843333" lon="10.5155833"><ele>168.0</ele><time>2026-03-28T17:30:11.885Z</time></trkpt><trkpt lat="45.5842217" lon="10.5156017"><ele>168.0</ele><time>2026-03-28T17:30:12.885Z</time></trkpt><trkpt lat="45.5841033" lon="10.5156017"><ele>170.5</ele><time>2026-03-28T17:30:13.885Z</time></trkpt><trkpt lat="45.5839867" lon="10.5155933"><ele>173.0</ele><time>2026-03-28T17:30:14.885Z</time></trkpt><trkpt lat="45.5838617" lon="10.5155833"><ele>175.5</ele><time>2026-03-28T17:30:15.885Z</time></trkpt><trkpt lat="45.5837383" lon="10.5155783"><ele>178.0</ele><time>2026-03-28T17:30:16.885Z</time></trkpt><trkpt lat="45.5836" lon="10.5155717"><ele>178.25</ele><time>2026-03-28T17:30:17.885Z</time></trkpt><trkpt lat="45.58347" lon="10.5155617"><ele>178.5</ele><time>2026-03-28T17:30:18.885Z</time></trkpt><trkpt lat="45.5833417" lon="10.5155567"><ele>178.75</ele><time>2026-03-28T17:30:19.885Z</time></trkpt><trkpt lat="45.5832067" lon="10.5155567"><ele>179.0</ele><time>2026-03-28T17:30:20.885Z</time></trkpt><trkpt lat="45.5830783" lon="10.5155517"><ele>179.0</ele><time>2026-03-28T17:30:21.885Z</time></trkpt><trkpt lat="45.5829433" lon="10.5155583"><ele>179.0</ele><time>2026-03-28T17:30:22.885Z</time></trkpt><trkpt lat="45.58281" lon="10.5155533"><ele>179.0</ele><time>2026-03-28T17:30:23.885Z</time></trkpt><trkpt lat="45.5826817" lon="10.5155583"><ele>179.0</ele><time>2026-03-28T17:30:24.885Z</time></trkpt><trkpt lat="45.58255" lon="10.5155683"><ele>178.75</ele><time>2026-03-28T17:30:25.885Z</time></trkpt><trkpt lat="45.582425" lon="10.515575"><ele>178.5</ele><time>2026-03-28T17:30:26.885Z</time></trkpt><trkpt lat="45.5822933" lon="10.5155733"><ele>178.25</ele><time>2026-03-28T17:30:27.885Z</time></trkpt><trkpt lat="45.58216" lon="10.5155717"><ele>178.0</ele><time>2026-03-28T17:30:28.885Z</time></trkpt><trkpt lat="45.5820317" lon="10.5155733"><ele>178.25</ele><time>2026-03-28T17:30:29.886Z</time></trkpt><trkpt lat="45.5819067" lon="10.51559"><ele>178.5</ele><time>2026-03-28T17:30:30.885Z</time></trkpt><trkpt lat="45.5817817" lon="10.5156083"><ele>178.75</ele><time>2026-03-28T17:30:31.885Z</time></trkpt><trkpt lat="45.58166" lon="10.5156217"><ele>179.0</ele><time>2026-03-28T17:30:32.885Z</time></trkpt><trkpt lat="45.5815383" lon="10.515635"><ele>179.0</ele><time>2026-03-28T17:30:33.886Z</time></trkpt><trkpt lat="45.5814117" lon="10.5156533"><ele>179.0</ele><time>2026-03-28T17:30:34.885Z</time></trkpt><trkpt lat="45.5812933" lon="10.5156667"><ele>179.0</ele><time>2026-03-28T17:30:35.885Z</time></trkpt><trkpt lat="45.5811667" lon="10.51568"><ele>179.0</ele><time>2026-03-28T17:30:36.885Z</time></trkpt><trkpt lat="45.5810417" lon="10.5156783"><ele>178.75</ele><time>2026-03-28T17:30:37.885Z</time></trkpt><trkpt lat="45.5809117" lon="10.5156583"><ele>178.5</ele><time>2026-03-28T17:30:38.886Z</time></trkpt><trkpt lat="45.5807817" lon="10.51562"><ele>178.25</ele><time>2026-03-28T17:30:39.885Z</time></trkpt><trkpt lat="45.5806583" lon="10.5155733"><ele>178.0</ele><time>2026-03-28T17:30:40.885Z</time></trkpt><trkpt lat="45.58054" lon="10.5155267"><ele>178.0</ele><time>2026-03-28T17:30:41.885Z</time></trkpt><trkpt lat="45.5804183" lon="10.51549"><ele>178.0</ele><time>2026-03-28T17:30:42.885Z</time></trkpt><trkpt lat="45.5802967" lon="10.5154583"><ele>178.0</ele><time>2026-03-28T17:30:43.886Z</time></trkpt><trkpt lat="45.5801717" lon="10.5154367"><ele>178.0</ele><time>2026-03-28T17:30:44.885Z</time></trkpt><trkpt lat="45.580045" lon="10.5154167"><ele>182.25</ele><time>2026-03-28T17:30:45.885Z</time></trkpt><trkpt lat="45.579925" lon="10.5153867"><ele>186.5</ele><time>2026-03-28T17:30:46.885Z</time></trkpt><trkpt lat="45.579805" lon="10.5153567"><ele>190.75</ele><time>2026-03-28T17:30:47.885Z</time></trkpt><trkpt lat="45.5796783" lon="10.5153367"><ele>195.0</ele><time>2026-03-28T17:30:48.885Z</time></trkpt><trkpt lat="45.5795517" lon="10.5153183"><ele>193.25</ele><time>2026-03-28T17:30:49.886Z</time></trkpt><trkpt lat="45.5794283" lon="10.515305"><ele>191.5</ele><time>2026-03-28T17:30:50.885Z</time></trkpt><trkpt lat="45.5793083" lon="10.5152917"><ele>189.75</ele><time>2026-03-28T17:30:51.885Z</time></trkpt><trkpt lat="45.57919" lon="10.5152767"><ele>188.0</ele><time>2026-03-28T17:30:52.886Z</time></trkpt><trkpt lat="45.5790717" lon="10.5152717"><ele>188.0</ele><time>2026-03-28T17:30:53.886Z</time></trkpt><trkpt lat="45.5789517" lon="10.5152667"><ele>188.0</ele><time>2026-03-28T17:30:54.885Z</time></trkpt><trkpt lat="45.5788233" lon="10.515255"><ele>188.0</ele><time>2026-03-28T17:30:55.885Z</time></trkpt><trkpt lat="45.5786983" lon="10.51524"><ele>188.0</ele><time>2026-03-28T17:30:56.885Z</time></trkpt><trkpt lat="45.578575" lon="10.5152317"><ele>187.5</ele><time>2026-03-28T17:30:57.885Z</time></trkpt><trkpt lat="45.5784483" lon="10.51523"><ele>187.0</ele><time>2026-03-28T17:30:58.885Z</time></trkpt><trkpt lat="45.5783267" lon="10.5152167"><ele>186.5</ele><time>2026-03-28T17:30:59.885Z</time></trkpt><trkpt lat="45.5782083" lon="10.5151983"><ele>186.0</ele><time>2026-03-28T17:31:00.885Z</time></trkpt><trkpt lat="45.5780883" lon="10.5151883"><ele>186.0</ele><time>2026-03-28T17:31:01.885Z</time></trkpt><trkpt lat="45.5779617" lon="10.5151833"><ele>186.0</ele><time>2026-03-28T17:31:02.885Z</time></trkpt><trkpt lat="45.5778333" lon="10.515175"><ele>186.0</ele><time>2026-03-28T17:31:03.886Z</time></trkpt><trkpt lat="45.5777" lon="10.5151617"><ele>186.0</ele><time>2026-03-28T17:31:04.885Z</time></trkpt><trkpt lat="45.57757" lon="10.5151417"><ele>186.25</ele><time>2026-03-28T17:31:05.885Z</time></trkpt><trkpt lat="45.577435" lon="10.515125"><ele>186.5</ele><time>2026-03-28T17:31:06.885Z</time></trkpt><trkpt lat="45.5772933" lon="10.5151033"><ele>186.75</ele><time>2026-03-28T17:31:07.885Z</time></trkpt><trkpt lat="45.5771483" lon="10.5150733"><ele>187.0</ele><time>2026-03-28T17:31:08.885Z</time></trkpt><trkpt lat="45.5769967" lon="10.51504"><ele>187.0</ele><time>2026-03-28T17:31:09.885Z</time></trkpt><trkpt lat="45.5768517" lon="10.515"><ele>187.0</ele><time>2026-03-28T17:31:10.885Z</time></trkpt><trkpt lat="45.5767067" lon="10.514965"><ele>187.0</ele><time>2026-03-28T17:31:11.885Z</time></trkpt><trkpt lat="45.5765567" lon="10.5149317"><ele>187.0</ele><time>2026-03-28T17:31:12.885Z</time></trkpt><trkpt lat="45.5764083" lon="10.514895"><ele>187.0</ele><time>2026-03-28T17:31:13.885Z</time></trkpt><trkpt lat="45.5762617" lon="10.5148667"><ele>187.0</ele><time>2026-03-28T17:31:14.885Z</time></trkpt><trkpt lat="45.5761133" lon="10.5148283"><ele>187.0</ele><time>2026-03-28T17:31:15.885Z</time></trkpt><trkpt lat="45.5759683" lon="10.5147917"><ele>187.0</ele><time>2026-03-28T17:31:16.885Z</time></trkpt><trkpt lat="45.5758267" lon="10.5147667"><ele>187.0</ele><time>2026-03-28T17:31:17.885Z</time></trkpt><trkpt lat="45.5756867" lon="10.514735"><ele>187.0</ele><time>2026-03-28T17:31:18.885Z</time></trkpt><trkpt lat="45.57554" lon="10.5146967"><ele>187.0</ele><time>2026-03-28T17:31:19.885Z</time></trkpt><trkpt lat="45.57539" lon="10.5146633"><ele>187.0</ele><time>2026-03-28T17:31:20.885Z</time></trkpt><trkpt lat="45.5752433" lon="10.5146267"><ele>187.0</ele><time>2026-03-28T17:31:21.885Z</time></trkpt><trkpt lat="45.5750967" lon="10.5145917"><ele>187.0</ele><time>2026-03-28T17:31:22.885Z</time></trkpt><trkpt lat="45.574955" lon="10.51456"><ele>187.0</ele><time>2026-03-28T17:31:23.885Z</time></trkpt><trkpt lat="45.574815" lon="10.51452"><ele>187.0</ele><time>2026-03-28T17:31:24.886Z</time></trkpt><trkpt lat="45.57467" lon="10.514495"><ele>187.75</ele><time>2026-03-28T17:31:25.885Z</time></trkpt><trkpt lat="45.5745317" lon="10.5144617"><ele>188.5</ele><time>2026-03-28T17:31:26.885Z</time></trkpt><trkpt lat="45.5743917" lon="10.5144283"><ele>189.25</ele><time>2026-03-28T17:31:27.885Z</time></trkpt><trkpt lat="45.574255" lon="10.5143933"><ele>190.0</ele><time>2026-03-28T17:31:28.885Z</time></trkpt><trkpt lat="45.5741233" lon="10.5143517"><ele>190.75</ele><time>2026-03-28T17:31:29.885Z</time></trkpt><trkpt lat="45.573995" lon="10.51434"><ele>191.5</ele><time>2026-03-28T17:31:30.885Z</time></trkpt><trkpt lat="45.5738717" lon="10.514365"><ele>192.25</ele><time>2026-03-28T17:31:31.886Z</time></trkpt><trkpt lat="45.5737617" lon="10.5144233"><ele>193.0</ele><time>2026-03-28T17:31:32.886Z</time></trkpt><trkpt lat="45.573665" lon="10.51452"><ele>196.25</ele><time>2026-03-28T17:31:33.885Z</time></trkpt><trkpt lat="45.5735833" lon="10.51465"><ele>199.5</ele><time>2026-03-28T17:31:34.885Z</time></trkpt><trkpt lat="45.5735217" lon="10.5148067"><ele>202.75</ele><time>2026-03-28T17:31:35.886Z</time></trkpt><trkpt lat="45.5734783" lon="10.51497"><ele>206.0</ele><time>2026-03-28T17:31:36.886Z</time></trkpt><trkpt lat="45.5734533" lon="10.51513"><ele>206.0</ele><time>2026-03-28T17:31:37.885Z</time></trkpt><trkpt lat="45.573435" lon="10.515295"><ele>206.0</ele><time>2026-03-28T17:31:38.885Z</time></trkpt><trkpt lat="45.5734067" lon="10.5154667"><ele>206.0</ele><time>2026-03-28T17:31:39.885Z</time></trkpt><trkpt lat="45.573385" lon="10.5156367"><ele>206.0</ele><time>2026-03-28T17:31:40.885Z</time></trkpt><trkpt lat="45.5733267" lon="10.515795"><ele>204.75</ele><time>2026-03-28T17:31:41.886Z</time></trkpt><trkpt lat="45.5732517" lon="10.51592"><ele>203.5</ele><time>2026-03-28T17:31:42.885Z</time></trkpt><trkpt lat="45.5731633" lon="10.516035"><ele>202.25</ele><time>2026-03-28T17:31:43.885Z</time></trkpt><trkpt lat="45.5730617" lon="10.516145"><ele>201.0</ele><time>2026-03-28T17:31:44.885Z</time></trkpt><trkpt lat="45.572955" lon="10.5162433"><ele>200.25</ele><time>2026-03-28T17:31:45.885Z</time></trkpt><trkpt lat="45.57285" lon="10.5163333"><ele>199.5</ele><time>2026-03-28T17:31:46.885Z</time></trkpt><trkpt lat="45.5727333" lon="10.51639"><ele>198.75</ele><time>2026-03-28T17:31:47.885Z</time></trkpt><trkpt lat="45.5726133" lon="10.5164583"><ele>198.0</ele><time>2026-03-28T17:31:48.885Z</time></trkpt><trkpt lat="45.5724867" lon="10.5165067"><ele>198.0</ele><time>2026-03-28T17:31:49.885Z</time></trkpt><trkpt lat="45.5723633" lon="10.516545"><ele>198.0</ele><time>2026-03-28T17:31:50.885Z</time></trkpt><trkpt lat="45.5722467" lon="10.516565"><ele>198.0</ele><time>2026-03-28T17:31:51.885Z</time></trkpt><trkpt lat="45.5721317" lon="10.5165667"><ele>198.0</ele><time>2026-03-28T17:31:52.885Z</time></trkpt><trkpt lat="45.5720133" lon="10.5165467"><ele>197.0</ele><time>2026-03-28T17:31:53.885Z</time></trkpt><trkpt lat="45.5719067" lon="10.5165"><ele>196.0</ele><time>2026-03-28T17:31:54.885Z</time></trkpt><trkpt lat="45.571805" lon="10.5164167"><ele>195.0</ele><time>2026-03-28T17:31:55.885Z</time></trkpt><trkpt lat="45.5717067" lon="10.5163067"><ele>194.0</ele><time>2026-03-28T17:31:56.885Z</time></trkpt><trkpt lat="45.5716" lon="10.5161933"><ele>200.33333333333334</ele><time>2026-03-28T17:31:57.885Z</time></trkpt><trkpt lat="45.5714883" lon="10.5160533"><ele>206.66666666666669</ele><time>2026-03-28T17:31:58.885Z</time></trkpt><trkpt lat="45.5713667" lon="10.5159133"><ele>213.0</ele><time>2026-03-28T17:31:59.886Z</time></trkpt><trkpt lat="45.5712483" lon="10.5157667"><ele>211.75</ele><time>2026-03-28T17:32:00.885Z</time></trkpt><trkpt lat="45.5711383" lon="10.5156233"><ele>210.5</ele><time>2026-03-28T17:32:01.885Z</time></trkpt><trkpt lat="45.571035" lon="10.5154917"><ele>209.25</ele><time>2026-03-28T17:32:02.885Z</time></trkpt><trkpt lat="45.5709367" lon="10.5153667"><ele>208.0</ele><time>2026-03-28T17:32:03.885Z</time></trkpt><trkpt lat="45.5708433" lon="10.5152517"><ele>208.0</ele><time>2026-03-28T17:32:04.885Z</time></trkpt><trkpt lat="45.5707583" lon="10.5151383"><ele>208.0</ele><time>2026-03-28T17:32:05.885Z</time></trkpt><trkpt lat="45.5706883" lon="10.5150117"><ele>208.0</ele><time>2026-03-28T17:32:06.886Z</time></trkpt><trkpt lat="45.5706267" lon="10.5148683"><ele>208.0</ele><time>2026-03-28T17:32:07.885Z</time></trkpt><trkpt lat="45.57059" lon="10.5146817"><ele>209.25</ele><time>2026-03-28T17:32:08.886Z</time></trkpt><trkpt lat="45.5705667" lon="10.5144783"><ele>210.5</ele><time>2026-03-28T17:32:09.885Z</time></trkpt><trkpt lat="45.570565" lon="10.5142717"><ele>211.75</ele><time>2026-03-28T17:32:10.885Z</time></trkpt><trkpt lat="45.570555" lon="10.5140733"><ele>213.0</ele><time>2026-03-28T17:32:11.885Z</time></trkpt><trkpt lat="45.5705283" lon="10.513875"><ele>213.25</ele><time>2026-03-28T17:32:12.885Z</time></trkpt><trkpt lat="45.570485" lon="10.513695"><ele>213.5</ele><time>2026-03-28T17:32:13.885Z</time></trkpt><trkpt lat="45.5703933" lon="10.5135517"><ele>213.75</ele><time>2026-03-28T17:32:14.885Z</time></trkpt><trkpt lat="45.57028" lon="10.5134183"><ele>214.0</ele><time>2026-03-28T17:32:15.885Z</time></trkpt><trkpt lat="45.570155" lon="10.513285"><ele>212.75</ele><time>2026-03-28T17:32:16.885Z</time></trkpt><trkpt lat="45.5700283" lon="10.51317"><ele>211.5</ele><time>2026-03-28T17:32:17.885Z</time></trkpt><trkpt lat="45.5699233" lon="10.5130533"><ele>210.25</ele><time>2026-03-28T17:32:18.885Z</time></trkpt><trkpt lat="45.56984" lon="10.5129267"><ele>209.0</ele><time>2026-03-28T17:32:19.885Z</time></trkpt><trkpt lat="45.5697783" lon="10.5127833"><ele>209.0</ele><time>2026-03-28T17:32:20.885Z</time></trkpt><trkpt lat="45.569745" lon="10.51262"><ele>209.0</ele><time>2026-03-28T17:32:21.885Z</time></trkpt><trkpt lat="45.5697367" lon="10.512455"><ele>209.0</ele><time>2026-03-28T17:32:22.885Z</time></trkpt><trkpt lat="45.5697517" lon="10.5123017"><ele>209.0</ele><time>2026-03-28T17:32:23.885Z</time></trkpt><trkpt lat="45.5697917" lon="10.5121317"><ele>209.25</ele><time>2026-03-28T17:32:24.885Z</time></trkpt><trkpt lat="45.5698617" lon="10.5119483"><ele>209.5</ele><time>2026-03-28T17:32:25.885Z</time></trkpt><trkpt lat="45.56995" lon="10.5118017"><ele>209.75</ele><time>2026-03-28T17:32:26.885Z</time></trkpt><trkpt lat="45.57002" lon="10.5116517"><ele>210.0</ele><time>2026-03-28T17:32:27.885Z</time></trkpt><trkpt lat="45.5701" lon="10.5115017"><ele>210.0</ele><time>2026-03-28T17:32:28.885Z</time></trkpt><trkpt lat="45.570145" lon="10.5113533"><ele>210.0</ele><time>2026-03-28T17:32:29.885Z</time></trkpt><trkpt lat="45.5701867" lon="10.511225"><ele>210.0</ele><time>2026-03-28T17:32:30.885Z</time></trkpt><trkpt lat="45.5702217" lon="10.5110783"><ele>210.0</ele><time>2026-03-28T17:32:31.885Z</time></trkpt><trkpt lat="45.57026" lon="10.5109233"><ele>210.0</ele><time>2026-03-28T17:32:32.885Z</time></trkpt><trkpt lat="45.570295" lon="10.510755"><ele>210.0</ele><time>2026-03-28T17:32:33.885Z</time></trkpt><trkpt lat="45.57033" lon="10.51059"><ele>210.0</ele><time>2026-03-28T17:32:34.886Z</time></trkpt><trkpt lat="45.570365" lon="10.5104133"><ele>210.0</ele><time>2026-03-28T17:32:35.885Z</time></trkpt><trkpt lat="45.5704033" lon="10.51023"><ele>210.0</ele><time>2026-03-28T17:32:36.885Z</time></trkpt><trkpt lat="45.57044" lon="10.5100517"><ele>210.0</ele><time>2026-03-28T17:32:37.885Z</time></trkpt><trkpt lat="45.5704717" lon="10.509875"><ele>210.0</ele><time>2026-03-28T17:32:38.885Z</time></trkpt><trkpt lat="45.570505" lon="10.5097067"><ele>210.0</ele><time>2026-03-28T17:32:39.885Z</time></trkpt><trkpt lat="45.5705283" lon="10.5095533"><ele>210.0</ele><time>2026-03-28T17:32:40.885Z</time></trkpt><trkpt lat="45.5705517" lon="10.509415"><ele>210.0</ele><time>2026-03-28T17:32:41.885Z</time></trkpt><trkpt lat="45.5705683" lon="10.509295"><ele>210.0</ele><time>2026-03-28T17:32:42.885Z</time></trkpt><trkpt lat="45.5705667" lon="10.5091717"><ele>210.0</ele><time>2026-03-28T17:32:43.885Z</time></trkpt><trkpt lat="45.5705417" lon="10.5090633"><ele>210.0</ele><time>2026-03-28T17:32:44.885Z</time></trkpt><trkpt lat="45.5704933" lon="10.50896"><ele>210.0</ele><time>2026-03-28T17:32:45.886Z</time></trkpt><trkpt lat="45.570425" lon="10.5088817"><ele>210.0</ele><time>2026-03-28T17:32:46.885Z</time></trkpt><trkpt lat="45.5703467" lon="10.5088267"><ele>210.5</ele><time>2026-03-28T17:32:47.886Z</time></trkpt><trkpt lat="45.5702383" lon="10.508855"><ele>211.0</ele><time>2026-03-28T17:32:48.885Z</time></trkpt><trkpt lat="45.5701317" lon="10.5089117"><ele>211.5</ele><time>2026-03-28T17:32:49.885Z</time></trkpt><trkpt lat="45.5700167" lon="10.5090033"><ele>212.0</ele><time>2026-03-28T17:32:50.886Z</time></trkpt><trkpt lat="45.5699033" lon="10.509085"><ele>212.0</ele><time>2026-03-28T17:32:51.885Z</time></trkpt><trkpt lat="45.5697817" lon="10.5091483"><ele>212.0</ele><time>2026-03-28T17:32:52.885Z</time></trkpt><trkpt lat="45.56965" lon="10.50919"><ele>212.0</ele><time>2026-03-28T17:32:53.885Z</time></trkpt><trkpt lat="45.5695133" lon="10.5092433"><ele>212.0</ele><time>2026-03-28T17:32:54.885Z</time></trkpt><trkpt lat="45.5693667" lon="10.50928"><ele>211.5</ele><time>2026-03-28T17:32:55.885Z</time></trkpt><trkpt lat="45.56924" lon="10.5093183"><ele>211.0</ele><time>2026-03-28T17:32:56.885Z</time></trkpt><trkpt lat="45.5691367" lon="10.5093867"><ele>210.5</ele><time>2026-03-28T17:32:57.885Z</time></trkpt><trkpt lat="45.56905" lon="10.5094767"><ele>210.0</ele><time>2026-03-28T17:32:58.885Z</time></trkpt><trkpt lat="45.56898" lon="10.5095867"><ele>210.0</ele><time>2026-03-28T17:32:59.885Z</time></trkpt><trkpt lat="45.5689217" lon="10.5097117"><ele>210.0</ele><time>2026-03-28T17:33:00.885Z</time></trkpt><trkpt lat="45.5688683" lon="10.5098583"><ele>210.0</ele><time>2026-03-28T17:33:01.885Z</time></trkpt><trkpt lat="45.5688183" lon="10.5099967"><ele>210.0</ele><time>2026-03-28T17:33:02.885Z</time></trkpt><trkpt lat="45.5687617" lon="10.5101233"><ele>210.0</ele><time>2026-03-28T17:33:03.885Z</time></trkpt><trkpt lat="45.5686933" lon="10.510235"><ele>211.2</ele><time>2026-03-28T17:33:04.886Z</time></trkpt><trkpt lat="45.5686317" lon="10.5103183"><ele>212.4</ele><time>2026-03-28T17:33:05.885Z</time></trkpt><trkpt lat="45.5685583" lon="10.51037"><ele>213.60000000000002</ele><time>2026-03-28T17:33:06.885Z</time></trkpt><trkpt lat="45.5684567" lon="10.510355"><ele>214.8</ele><time>2026-03-28T17:33:07.885Z</time></trkpt><trkpt lat="45.5683483" lon="10.5102983"><ele>216.0</ele><time>2026-03-28T17:33:08.885Z</time></trkpt><trkpt lat="45.56823" lon="10.510225"><ele>216.0</ele><time>2026-03-28T17:33:09.885Z</time></trkpt><trkpt lat="45.5681" lon="10.51016"><ele>216.0</ele><time>2026-03-28T17:33:10.886Z</time></trkpt><trkpt lat="45.567965" lon="10.5101117"><ele>216.0</ele><time>2026-03-28T17:33:11.885Z</time></trkpt><trkpt lat="45.5678183" lon="10.5100817"><ele>216.0</ele><time>2026-03-28T17:33:12.885Z</time></trkpt><trkpt lat="45.5676817" lon="10.5100567"><ele>216.0</ele><time>2026-03-28T17:33:13.885Z</time></trkpt><trkpt lat="45.567555" lon="10.5100317"><ele>216.0</ele><time>2026-03-28T17:33:14.885Z</time></trkpt><trkpt lat="45.5674283" lon="10.5100083"><ele>216.0</ele><time>2026-03-28T17:33:15.885Z</time></trkpt><trkpt lat="45.5673" lon="10.5099867"><ele>216.0</ele><time>2026-03-28T17:33:16.886Z</time></trkpt><trkpt lat="45.5671667" lon="10.5099833"><ele>216.0</ele><time>2026-03-28T17:33:17.886Z</time></trkpt><trkpt lat="45.5670333" lon="10.5099767"><ele>216.00000000000003</ele><time>2026-03-28T17:33:18.885Z</time></trkpt><trkpt lat="45.5669217" lon="10.5099833"><ele>216.00000000000003</ele><time>2026-03-28T17:33:19.885Z</time></trkpt><trkpt lat="45.5668217" lon="10.5100183"><ele>216.0</ele><time>2026-03-28T17:33:20.885Z</time></trkpt><trkpt lat="45.566725" lon="10.5100417"><ele>216.0</ele><time>2026-03-28T17:33:21.885Z</time></trkpt><trkpt lat="45.5666233" lon="10.51008"><ele>216.25</ele><time>2026-03-28T17:33:22.885Z</time></trkpt><trkpt lat="45.5665283" lon="10.5100983"><ele>216.5</ele><time>2026-03-28T17:33:23.886Z</time></trkpt><trkpt lat="45.5664233" lon="10.5100983"><ele>216.75</ele><time>2026-03-28T17:33:24.885Z</time></trkpt><trkpt lat="45.5663033" lon="10.5100833"><ele>217.0</ele><time>2026-03-28T17:33:25.885Z</time></trkpt><trkpt lat="45.566175" lon="10.5100467"><ele>216.0</ele><time>2026-03-28T17:33:26.886Z</time></trkpt><trkpt lat="45.56605" lon="10.510015"><ele>215.0</ele><time>2026-03-28T17:33:27.885Z</time></trkpt><trkpt lat="45.565925" lon="10.5099767"><ele>214.0</ele><time>2026-03-28T17:33:28.885Z</time></trkpt><trkpt lat="45.565805" lon="10.5099367"><ele>213.0</ele><time>2026-03-28T17:33:29.885Z</time></trkpt><trkpt lat="45.5656917" lon="10.5098883"><ele>213.0</ele><time>2026-03-28T17:33:30.885Z</time></trkpt><trkpt lat="45.5655783" lon="10.5098317"><ele>213.0</ele><time>2026-03-28T17:33:31.885Z</time></trkpt><trkpt lat="45.56546" lon="10.509775"><ele>213.0</ele><time>2026-03-28T17:33:32.885Z</time></trkpt><trkpt lat="45.5653483" lon="10.5097217"><ele>213.0</ele><time>2026-03-28T17:33:33.885Z</time></trkpt><trkpt lat="45.5652467" lon="10.5096483"><ele>214.60000000000002</ele><time>2026-03-28T17:33:34.885Z</time></trkpt><trkpt lat="45.5651383" lon="10.5095733"><ele>216.20000000000002</ele><time>2026-03-28T17:33:35.886Z</time></trkpt><trkpt lat="45.5650433" lon="10.5094967"><ele>217.8</ele><time>2026-03-28T17:33:36.885Z</time></trkpt><trkpt lat="45.5649483" lon="10.5094133"><ele>219.4</ele><time>2026-03-28T17:33:37.885Z</time></trkpt><trkpt lat="45.5648717" lon="10.5093533"><ele>221.0</ele><time>2026-03-28T17:33:38.885Z</time></trkpt><trkpt lat="45.564815" lon="10.50928"><ele>221.00000000000003</ele><time>2026-03-28T17:33:39.885Z</time></trkpt><trkpt lat="45.56478" lon="10.50919"><ele>221.0</ele><time>2026-03-28T17:33:40.885Z</time></trkpt><trkpt lat="45.5648183" lon="10.509015"><ele>221.0</ele><time>2026-03-28T17:33:42.885Z</time></trkpt><trkpt lat="45.564885" lon="10.508965"><ele>221.0</ele><time>2026-03-28T17:33:43.885Z</time></trkpt><trkpt lat="45.5649617" lon="10.50896"><ele>221.00000000000003</ele><time>2026-03-28T17:33:44.885Z</time></trkpt><trkpt lat="45.5650467" lon="10.5090117"><ele>221.0</ele><time>2026-03-28T17:33:45.885Z</time></trkpt><trkpt lat="45.565135" lon="10.5091"><ele>221.0</ele><time>2026-03-28T17:33:46.885Z</time></trkpt><trkpt lat="45.56524" lon="10.5092033"><ele>221.0</ele><time>2026-03-28T17:33:47.885Z</time></trkpt><trkpt lat="45.5653533" lon="10.50931"><ele>221.0</ele><time>2026-03-28T17:33:48.885Z</time></trkpt><trkpt lat="45.5654617" lon="10.5094067"><ele>221.0</ele><time>2026-03-28T17:33:49.885Z</time></trkpt><trkpt lat="45.565555" lon="10.5094967"><ele>219.66666666666669</ele><time>2026-03-28T17:33:50.885Z</time></trkpt><trkpt lat="45.5656367" lon="10.50956"><ele>218.33333333333334</ele><time>2026-03-28T17:33:51.885Z</time></trkpt><trkpt lat="45.565715" lon="10.509595"><ele>217.0</ele><time>2026-03-28T17:33:52.885Z</time></trkpt><trkpt lat="45.5657933" lon="10.509585"><ele>215.66666666666669</ele><time>2026-03-28T17:33:53.885Z</time></trkpt><trkpt lat="45.5658517" lon="10.5095433"><ele>214.33333333333334</ele><time>2026-03-28T17:33:54.885Z</time></trkpt><trkpt lat="45.5658883" lon="10.5094433"><ele>213.0</ele><time>2026-03-28T17:33:55.885Z</time></trkpt><trkpt lat="45.5658867" lon="10.5093367"><ele>216.60000000000002</ele><time>2026-03-28T17:33:56.885Z</time></trkpt><trkpt lat="45.5658417" lon="10.5092367"><ele>220.20000000000002</ele><time>2026-03-28T17:33:57.885Z</time></trkpt><trkpt lat="45.5657817" lon="10.5091367"><ele>223.8</ele><time>2026-03-28T17:33:58.885Z</time></trkpt><trkpt lat="45.56568" lon="10.50904"><ele>227.4</ele><time>2026-03-28T17:33:59.885Z</time></trkpt><trkpt lat="45.5655517" lon="10.5089383"><ele>231.0</ele><time>2026-03-28T17:34:00.885Z</time></trkpt><trkpt lat="45.5654433" lon="10.5088267"><ele>231.75</ele><time>2026-03-28T17:34:01.885Z</time></trkpt><trkpt lat="45.5653567" lon="10.5086833"><ele>232.5</ele><time>2026-03-28T17:34:02.885Z</time></trkpt><trkpt lat="45.5652933" lon="10.5085167"><ele>233.25</ele><time>2026-03-28T17:34:03.885Z</time></trkpt><trkpt lat="45.5652383" lon="10.5083383"><ele>234.0</ele><time>2026-03-28T17:34:04.885Z</time></trkpt><trkpt lat="45.565195" lon="10.50816"><ele>234.0</ele><time>2026-03-28T17:34:05.885Z</time></trkpt><trkpt lat="45.56515" lon="10.5079967"><ele>234.0</ele><time>2026-03-28T17:34:06.885Z</time></trkpt><trkpt lat="45.56511" lon="10.50784"><ele>234.0</ele><time>2026-03-28T17:34:07.885Z</time></trkpt><trkpt lat="45.5650717" lon="10.50768"><ele>234.0</ele><time>2026-03-28T17:34:08.885Z</time></trkpt><trkpt lat="45.565035" lon="10.50752"><ele>234.0</ele><time>2026-03-28T17:34:09.885Z</time></trkpt><trkpt lat="45.564995" lon="10.5073667"><ele>234.0</ele><time>2026-03-28T17:34:10.885Z</time></trkpt><trkpt lat="45.5649567" lon="10.5072"><ele>234.0</ele><time>2026-03-28T17:34:11.885Z</time></trkpt><trkpt lat="45.5649133" lon="10.50704"><ele>234.0</ele><time>2026-03-28T17:34:12.885Z</time></trkpt><trkpt lat="45.5648733" lon="10.50689"><ele>234.0</ele><time>2026-03-28T17:34:13.885Z</time></trkpt><trkpt lat="45.564835" lon="10.5067383"><ele>234.0</ele><time>2026-03-28T17:34:14.885Z</time></trkpt><trkpt lat="45.5648" lon="10.5065817"><ele>234.0</ele><time>2026-03-28T17:34:15.885Z</time></trkpt><trkpt lat="45.5647617" lon="10.5064333"><ele>234.0</ele><time>2026-03-28T17:34:16.885Z</time></trkpt><trkpt lat="45.5647333" lon="10.50627"><ele>234.0</ele><time>2026-03-28T17:34:17.886Z</time></trkpt><trkpt lat="45.5646967" lon="10.50612"><ele>234.0</ele><time>2026-03-28T17:34:18.885Z</time></trkpt><trkpt lat="45.564655" lon="10.5059583"><ele>234.0</ele><time>2026-03-28T17:34:19.885Z</time></trkpt><trkpt lat="45.5646033" lon="10.5058017"><ele>234.0</ele><time>2026-03-28T17:34:20.885Z</time></trkpt><trkpt lat="45.5645367" lon="10.5056533"><ele>234.0</ele><time>2026-03-28T17:34:21.885Z</time></trkpt><trkpt lat="45.5644617" lon="10.5055267"><ele>234.0</ele><time>2026-03-28T17:34:22.885Z</time></trkpt><trkpt lat="45.5643617" lon="10.5054167"><ele>234.0</ele><time>2026-03-28T17:34:23.885Z</time></trkpt><trkpt lat="45.5642583" lon="10.5053083"><ele>234.0</ele><time>2026-03-28T17:34:24.885Z</time></trkpt><trkpt lat="45.5641533" lon="10.5051967"><ele>234.0</ele><time>2026-03-28T17:34:25.886Z</time></trkpt><trkpt lat="45.56404" lon="10.5050867"><ele>234.0</ele><time>2026-03-28T17:34:26.885Z</time></trkpt><trkpt lat="45.56393" lon="10.5049667"><ele>234.0</ele><time>2026-03-28T17:34:27.885Z</time></trkpt><trkpt lat="45.5638167" lon="10.5048383"><ele>234.0</ele><time>2026-03-28T17:34:28.885Z</time></trkpt><trkpt lat="45.5637117" lon="10.5046933"><ele>235.66666666666669</ele><time>2026-03-28T17:34:29.885Z</time></trkpt><trkpt lat="45.5636" lon="10.5045417"><ele>237.33333333333334</ele><time>2026-03-28T17:34:30.885Z</time></trkpt><trkpt lat="45.56349" lon="10.5043817"><ele>239.0</ele><time>2026-03-28T17:34:31.885Z</time></trkpt><trkpt lat="45.5633817" lon="10.5042317"><ele>239.0</ele><time>2026-03-28T17:34:32.885Z</time></trkpt><trkpt lat="45.56327" lon="10.5040733"><ele>239.0</ele><time>2026-03-28T17:34:33.885Z</time></trkpt><trkpt lat="45.563145" lon="10.5039283"><ele>239.0</ele><time>2026-03-28T17:34:34.885Z</time></trkpt><trkpt lat="45.5630267" lon="10.5037967"><ele>239.25</ele><time>2026-03-28T17:34:35.885Z</time></trkpt><trkpt lat="45.562905" lon="10.5036733"><ele>239.5</ele><time>2026-03-28T17:34:36.885Z</time></trkpt><trkpt lat="45.5627883" lon="10.50354"><ele>239.75</ele><time>2026-03-28T17:34:37.885Z</time></trkpt><trkpt lat="45.5626783" lon="10.5034133"><ele>240.0</ele><time>2026-03-28T17:34:38.885Z</time></trkpt><trkpt lat="45.5625733" lon="10.5032983"><ele>240.0</ele><time>2026-03-28T17:34:39.885Z</time></trkpt><trkpt lat="45.5624683" lon="10.5031883"><ele>240.0</ele><time>2026-03-28T17:34:40.885Z</time></trkpt><trkpt lat="45.5623717" lon="10.5030933"><ele>240.0</ele><time>2026-03-28T17:34:41.885Z</time></trkpt><trkpt lat="45.562275" lon="10.5029983"><ele>240.0</ele><time>2026-03-28T17:34:42.885Z</time></trkpt><trkpt lat="45.5621883" lon="10.50292"><ele>239.75</ele><time>2026-03-28T17:34:43.885Z</time></trkpt><trkpt lat="45.562095" lon="10.50285"><ele>239.5</ele><time>2026-03-28T17:34:44.885Z</time></trkpt><trkpt lat="45.561995" lon="10.5027783"><ele>239.25</ele><time>2026-03-28T17:34:45.885Z</time></trkpt><trkpt lat="45.561875" lon="10.5027167"><ele>239.0</ele><time>2026-03-28T17:34:46.885Z</time></trkpt><trkpt lat="45.5617483" lon="10.5026433"><ele>239.0</ele><time>2026-03-28T17:34:47.885Z</time></trkpt><trkpt lat="45.5616267" lon="10.5025883"><ele>239.0</ele><time>2026-03-28T17:34:48.885Z</time></trkpt><trkpt lat="45.5615017" lon="10.502555"><ele>239.0</ele><time>2026-03-28T17:34:49.885Z</time></trkpt><trkpt lat="45.5613783" lon="10.5025567"><ele>239.0</ele><time>2026-03-28T17:34:50.885Z</time></trkpt><trkpt lat="45.561255" lon="10.5025867"><ele>237.75</ele><time>2026-03-28T17:34:51.885Z</time></trkpt><trkpt lat="45.5611333" lon="10.50265"><ele>236.5</ele><time>2026-03-28T17:34:52.885Z</time></trkpt><trkpt lat="45.5610317" lon="10.5027483"><ele>235.25</ele><time>2026-03-28T17:34:53.885Z</time></trkpt><trkpt lat="45.5609383" lon="10.5028683"><ele>234.0</ele><time>2026-03-28T17:34:54.885Z</time></trkpt><trkpt lat="45.5608433" lon="10.50299"><ele>234.0</ele><time>2026-03-28T17:34:55.885Z</time></trkpt><trkpt lat="45.5607517" lon="10.5031333"><ele>234.0</ele><time>2026-03-28T17:34:56.885Z</time></trkpt><trkpt lat="45.5606517" lon="10.503235"><ele>234.0</ele><time>2026-03-28T17:34:57.885Z</time></trkpt><trkpt lat="45.5605383" lon="10.5033167"><ele>234.0</ele><time>2026-03-28T17:34:58.885Z</time></trkpt><trkpt lat="45.560415" lon="10.5033617"><ele>234.0</ele><time>2026-03-28T17:34:59.885Z</time></trkpt><trkpt lat="45.5602717" lon="10.5033667"><ele>234.0</ele><time>2026-03-28T17:35:00.885Z</time></trkpt><trkpt lat="45.5601233" lon="10.5033567"><ele>234.0</ele><time>2026-03-28T17:35:01.885Z</time></trkpt><trkpt lat="45.5599833" lon="10.5033233"><ele>234.0</ele><time>2026-03-28T17:35:02.885Z</time></trkpt><trkpt lat="45.5598333" lon="10.5032833"><ele>234.0</ele><time>2026-03-28T17:35:03.885Z</time></trkpt><trkpt lat="45.55971" lon="10.50322"><ele>234.0</ele><time>2026-03-28T17:35:04.885Z</time></trkpt><trkpt lat="45.5595933" lon="10.50314"><ele>234.0</ele><time>2026-03-28T17:35:05.885Z</time></trkpt><trkpt lat="45.5594767" lon="10.50304"><ele>234.0</ele><time>2026-03-28T17:35:06.885Z</time></trkpt><trkpt lat="45.5593667" lon="10.5029067"><ele>233.75</ele><time>2026-03-28T17:35:07.885Z</time></trkpt><trkpt lat="45.5592733" lon="10.50277"><ele>233.5</ele><time>2026-03-28T17:35:08.886Z</time></trkpt><trkpt lat="45.5591867" lon="10.5026217"><ele>233.25</ele><time>2026-03-28T17:35:09.885Z</time></trkpt><trkpt lat="45.5591033" lon="10.50249"><ele>233.0</ele><time>2026-03-28T17:35:10.885Z</time></trkpt><trkpt lat="45.5590233" lon="10.5023617"><ele>233.0</ele><time>2026-03-28T17:35:11.885Z</time></trkpt><trkpt lat="45.5589583" lon="10.5022433"><ele>233.0</ele><time>2026-03-28T17:35:12.885Z</time></trkpt><trkpt lat="45.5589" lon="10.50213"><ele>233.0</ele><time>2026-03-28T17:35:13.885Z</time></trkpt><trkpt lat="45.5588383" lon="10.5020333"><ele>233.0</ele><time>2026-03-28T17:35:14.885Z</time></trkpt><trkpt lat="45.5587833" lon="10.5019433"><ele>233.0</ele><time>2026-03-28T17:35:15.886Z</time></trkpt><trkpt lat="45.5587333" lon="10.5018533"><ele>232.83333333333334</ele><time>2026-03-28T17:35:16.885Z</time></trkpt><trkpt lat="45.558685" lon="10.501775"><ele>232.66666666666669</ele><time>2026-03-28T17:35:17.885Z</time></trkpt><trkpt lat="45.5586367" lon="10.5017083"><ele>232.5</ele><time>2026-03-28T17:35:18.885Z</time></trkpt><trkpt lat="45.55856" lon="10.5015967"><ele>232.33333333333331</ele><time>2026-03-28T17:35:20.885Z</time></trkpt><trkpt lat="45.5585183" lon="10.5015117"><ele>232.16666666666666</ele><time>2026-03-28T17:35:22.885Z</time></trkpt><trkpt lat="45.5585217" lon="10.50142"><ele>232.0</ele><time>2026-03-28T17:35:24.885Z</time></trkpt><trkpt lat="45.55856" lon="10.501305"><ele>233.66666666666666</ele><time>2026-03-28T17:35:26.885Z</time></trkpt><trkpt lat="45.5586133" lon="10.501215"><ele>235.33333333333331</ele><time>2026-03-28T17:35:28.885Z</time></trkpt><trkpt lat="45.5586833" lon="10.5011233"><ele>237.0</ele><time>2026-03-28T17:35:30.885Z</time></trkpt><trkpt lat="45.558775" lon="10.501015"><ele>238.66666666666669</ele><time>2026-03-28T17:35:32.885Z</time></trkpt><trkpt lat="45.558825" lon="10.50095"><ele>240.33333333333334</ele><time>2026-03-28T17:35:33.885Z</time></trkpt><trkpt lat="45.55888" lon="10.50088"><ele>242.0</ele><time>2026-03-28T17:35:34.885Z</time></trkpt><trkpt lat="45.5589333" lon="10.5008117"><ele>242.25</ele><time>2026-03-28T17:35:35.885Z</time></trkpt><trkpt lat="45.5590167" lon="10.5006933"><ele>242.5</ele><time>2026-03-28T17:35:37.885Z</time></trkpt><trkpt lat="45.5590733" lon="10.5005917"><ele>242.75</ele><time>2026-03-28T17:35:39.885Z</time></trkpt><trkpt lat="45.5591433" lon="10.5004733"><ele>243.0</ele><time>2026-03-28T17:35:41.886Z</time></trkpt><trkpt lat="45.5592333" lon="10.5003333"><ele>242.16666666666666</ele><time>2026-03-28T17:35:43.885Z</time></trkpt><trkpt lat="45.5592733" lon="10.5002467"><ele>241.33333333333331</ele><time>2026-03-28T17:35:44.885Z</time></trkpt><trkpt lat="45.55931" lon="10.50016"><ele>240.5</ele><time>2026-03-28T17:35:45.885Z</time></trkpt><trkpt lat="45.559345" lon="10.50005"><ele>239.66666666666666</ele><time>2026-03-28T17:35:46.885Z</time></trkpt><trkpt lat="45.5593617" lon="10.49993"><ele>238.83333333333331</ele><time>2026-03-28T17:35:47.885Z</time></trkpt><trkpt lat="45.559385" lon="10.499815"><ele>238.0</ele><time>2026-03-28T17:35:48.885Z</time></trkpt><trkpt lat="45.5594" lon="10.499695"><ele>238.33333333333331</ele><time>2026-03-28T17:35:49.885Z</time></trkpt><trkpt lat="45.559415" lon="10.499575"><ele>238.66666666666666</ele><time>2026-03-28T17:35:50.885Z</time></trkpt><trkpt lat="45.5594233" lon="10.4994783"><ele>239.0</ele><time>2026-03-28T17:35:51.885Z</time></trkpt><trkpt lat="45.5593933" lon="10.49931"><ele>239.33333333333331</ele><time>2026-03-28T17:35:53.886Z</time></trkpt><trkpt lat="45.5593533" lon="10.4992317"><ele>239.66666666666666</ele><time>2026-03-28T17:35:54.885Z</time></trkpt><trkpt lat="45.5593017" lon="10.4991583"><ele>240.0</ele><time>2026-03-28T17:35:55.886Z</time></trkpt><trkpt lat="45.5592483" lon="10.49909"><ele>240.0</ele><time>2026-03-28T17:35:56.885Z</time></trkpt><trkpt lat="45.559205" lon="10.4990017"><ele>240.0</ele><time>2026-03-28T17:35:57.885Z</time></trkpt><trkpt lat="45.5591583" lon="10.4989017"><ele>240.0</ele><time>2026-03-28T17:35:58.885Z</time></trkpt><trkpt lat="45.5591133" lon="10.4988017"><ele>240.0</ele><time>2026-03-28T17:35:59.885Z</time></trkpt><trkpt lat="45.55906" lon="10.4986933"><ele>240.0</ele><time>2026-03-28T17:36:00.885Z</time></trkpt><trkpt lat="45.5590133" lon="10.498595"><ele>240.0</ele><time>2026-03-28T17:36:01.885Z</time></trkpt><trkpt lat="45.5589583" lon="10.4984933"><ele>241.16666666666666</ele><time>2026-03-28T17:36:02.886Z</time></trkpt><trkpt lat="45.5589" lon="10.4984133"><ele>242.33333333333331</ele><time>2026-03-28T17:36:03.886Z</time></trkpt><trkpt lat="45.5588383" lon="10.4983183"><ele>243.5</ele><time>2026-03-28T17:36:04.885Z</time></trkpt><trkpt lat="45.558795" lon="10.4982233"><ele>244.66666666666666</ele><time>2026-03-28T17:36:05.885Z</time></trkpt><trkpt lat="45.55875" lon="10.498115"><ele>245.83333333333331</ele><time>2026-03-28T17:36:06.885Z</time></trkpt><trkpt lat="45.5587183" lon="10.49801"><ele>247.0</ele><time>2026-03-28T17:36:07.885Z</time></trkpt><trkpt lat="45.5587017" lon="10.4979"><ele>246.83333333333331</ele><time>2026-03-28T17:36:08.885Z</time></trkpt><trkpt lat="45.558695" lon="10.497795"><ele>246.66666666666666</ele><time>2026-03-28T17:36:09.885Z</time></trkpt><trkpt lat="45.5586967" lon="10.49769"><ele>246.5</ele><time>2026-03-28T17:36:10.885Z</time></trkpt><trkpt lat="45.5586967" lon="10.4975733"><ele>246.33333333333331</ele><time>2026-03-28T17:36:11.885Z</time></trkpt><trkpt lat="45.5586883" lon="10.49744"><ele>246.16666666666666</ele><time>2026-03-28T17:36:12.885Z</time></trkpt><trkpt lat="45.5586733" lon="10.4973067"><ele>246.0</ele><time>2026-03-28T17:36:13.885Z</time></trkpt><trkpt lat="45.5586517" lon="10.49718"><ele>247.16666666666666</ele><time>2026-03-28T17:36:14.885Z</time></trkpt><trkpt lat="45.5586317" lon="10.4970517"><ele>248.33333333333331</ele><time>2026-03-28T17:36:15.885Z</time></trkpt><trkpt lat="45.5586133" lon="10.4969333"><ele>249.5</ele><time>2026-03-28T17:36:16.885Z</time></trkpt><trkpt lat="45.5585933" lon="10.4968117"><ele>250.66666666666666</ele><time>2026-03-28T17:36:17.885Z</time></trkpt><trkpt lat="45.5585767" lon="10.4967017"><ele>251.83333333333331</ele><time>2026-03-28T17:36:18.886Z</time></trkpt><trkpt lat="45.55855" lon="10.4965967"><ele>253.0</ele><time>2026-03-28T17:36:19.886Z</time></trkpt><trkpt lat="45.5585067" lon="10.496505"><ele>252.99999999999997</ele><time>2026-03-28T17:36:20.885Z</time></trkpt><trkpt lat="45.5584567" lon="10.4964217"><ele>253.0</ele><time>2026-03-28T17:36:21.885Z</time></trkpt><trkpt lat="45.5584033" lon="10.496345"><ele>253.0</ele><time>2026-03-28T17:36:22.885Z</time></trkpt><trkpt lat="45.5583533" lon="10.49629"><ele>253.0</ele><time>2026-03-28T17:36:23.885Z</time></trkpt><trkpt lat="45.558275" lon="10.4962017"><ele>252.99999999999997</ele><time>2026-03-28T17:36:25.885Z</time></trkpt><trkpt lat="45.55821" lon="10.496155"><ele>253.0</ele><time>2026-03-28T17:36:27.885Z</time></trkpt><trkpt lat="45.5581417" lon="10.4961367"><ele>253.99999999999997</ele><time>2026-03-28T17:36:32.885Z</time></trkpt><trkpt lat="45.55807" lon="10.496145"><ele>255.0</ele><time>2026-03-28T17:36:36.885Z</time></trkpt><trkpt lat="45.5580067" lon="10.49613"><ele>256.0</ele><time>2026-03-28T17:36:38.885Z</time></trkpt><trkpt lat="45.5579383" lon="10.4960833"><ele>257.0</ele><time>2026-03-28T17:36:40.885Z</time></trkpt><trkpt lat="45.55785" lon="10.49603"><ele>258.0</ele><time>2026-03-28T17:36:42.885Z</time></trkpt><trkpt lat="45.5577633" lon="10.4959767"><ele>259.0</ele><time>2026-03-28T17:36:44.885Z</time></trkpt><trkpt lat="45.5577017" lon="10.4959317"><ele>259.0</ele><time>2026-03-28T17:36:46.885Z</time></trkpt><trkpt lat="45.5576433" lon="10.495855"><ele>259.0</ele><time>2026-03-28T17:36:48.885Z</time></trkpt><trkpt lat="45.5577017" lon="10.4959283"><ele>259.0</ele><time>2026-03-28T17:36:57.886Z</time></trkpt><trkpt lat="45.5578583" lon="10.4960083"><ele>259.0</ele><time>2026-03-28T17:37:00.885Z</time></trkpt><trkpt lat="45.5579567" lon="10.4960583"><ele>259.0</ele><time>2026-03-28T17:37:02.885Z</time></trkpt><trkpt lat="45.5580333" lon="10.49609"><ele>260.2</ele><time>2026-03-28T17:37:04.885Z</time></trkpt><trkpt lat="45.5580983" lon="10.496085"><ele>261.4</ele><time>2026-03-28T17:37:07.886Z</time></trkpt><trkpt lat="45.5580567" lon="10.4959783"><ele>262.6</ele><time>2026-03-28T17:37:12.885Z</time></trkpt><trkpt lat="45.55797" lon="10.4958767"><ele>263.8</ele><time>2026-03-28T17:37:14.885Z</time></trkpt><trkpt lat="45.557915" lon="10.49574"><ele>265.0</ele><time>2026-03-28T17:37:16.885Z</time></trkpt><trkpt lat="45.5578717" lon="10.4955983"><ele>264.2</ele><time>2026-03-28T17:37:18.886Z</time></trkpt><trkpt lat="45.5578133" lon="10.4954617"><ele>263.4</ele><time>2026-03-28T17:37:20.885Z</time></trkpt><trkpt lat="45.5577767" lon="10.4953883"><ele>262.6</ele><time>2026-03-28T17:37:21.885Z</time></trkpt><trkpt lat="45.55771" lon="10.4952383"><ele>261.8</ele><time>2026-03-28T17:37:23.885Z</time></trkpt><trkpt lat="45.55764" lon="10.495115"><ele>261.0</ele><time>2026-03-28T17:37:25.885Z</time></trkpt><trkpt lat="45.55756" lon="10.4949917"><ele>261.0</ele><time>2026-03-28T17:37:27.885Z</time></trkpt><trkpt lat="45.5575017" lon="10.4948583"><ele>261.0</ele><time>2026-03-28T17:37:29.885Z</time></trkpt><trkpt lat="45.5574483" lon="10.4947183"><ele>261.0</ele><time>2026-03-28T17:37:31.885Z</time></trkpt><trkpt lat="45.5574233" lon="10.4946283"><ele>261.0</ele><time>2026-03-28T17:37:32.885Z</time></trkpt><trkpt lat="45.5573817" lon="10.494465"><ele>261.0</ele><time>2026-03-28T17:37:34.885Z</time></trkpt><trkpt lat="45.557355" lon="10.4943783"><ele>262.1666666666667</ele><time>2026-03-28T17:37:35.885Z</time></trkpt><trkpt lat="45.5572917" lon="10.4942017"><ele>263.3333333333333</ele><time>2026-03-28T17:37:37.885Z</time></trkpt><trkpt lat="45.5572667" lon="10.4940883"><ele>264.5</ele><time>2026-03-28T17:37:38.885Z</time></trkpt><trkpt lat="45.5572333" lon="10.493995"><ele>265.66666666666663</ele><time>2026-03-28T17:37:39.885Z</time></trkpt><trkpt lat="45.5572" lon="10.493915"><ele>266.8333333333333</ele><time>2026-03-28T17:37:40.885Z</time></trkpt><trkpt lat="45.5571667" lon="10.49383"><ele>268.0</ele><time>2026-03-28T17:37:41.885Z</time></trkpt><trkpt lat="45.5571283" lon="10.493745"><ele>268.5</ele><time>2026-03-28T17:37:42.885Z</time></trkpt><trkpt lat="45.5570917" lon="10.4936617"><ele>269.0</ele><time>2026-03-28T17:37:43.885Z</time></trkpt><trkpt lat="45.5570583" lon="10.4935817"><ele>269.5</ele><time>2026-03-28T17:37:44.885Z</time></trkpt><trkpt lat="45.5570167" lon="10.493465"><ele>270.0</ele><time>2026-03-28T17:37:46.885Z</time></trkpt><trkpt lat="45.55703" lon="10.49334"><ele>270.5</ele><time>2026-03-28T17:37:49.885Z</time></trkpt><trkpt lat="45.55703" lon="10.493225"><ele>271.0</ele><time>2026-03-28T17:37:51.885Z</time></trkpt><trkpt lat="45.5570017" lon="10.4931167"><ele>269.8333333333333</ele><time>2026-03-28T17:37:53.885Z</time></trkpt><trkpt lat="45.5569383" lon="10.4929983"><ele>268.66666666666663</ele><time>2026-03-28T17:37:55.885Z</time></trkpt><trkpt lat="45.5568667" lon="10.492875"><ele>267.5</ele><time>2026-03-28T17:37:57.885Z</time></trkpt><trkpt lat="45.5568367" lon="10.492785"><ele>266.3333333333333</ele><time>2026-03-28T17:37:59.885Z</time></trkpt><trkpt lat="45.556905" lon="10.492735"><ele>265.1666666666667</ele><time>2026-03-28T17:38:02.885Z</time></trkpt><trkpt lat="45.5569583" lon="10.4928083"><ele>264.0</ele><time>2026-03-28T17:38:04.886Z</time></trkpt><trkpt lat="45.5570167" lon="10.49286"><ele>265.4</ele><time>2026-03-28T17:38:06.885Z</time></trkpt><trkpt lat="45.55709" lon="10.4928517"><ele>266.79999999999995</ele><time>2026-03-28T17:38:39.885Z</time></trkpt><trkpt lat="45.557175" lon="10.4928767"><ele>268.20000000000005</ele><time>2026-03-28T17:38:41.885Z</time></trkpt><trkpt lat="45.5572783" lon="10.4929167"><ele>269.6</ele><time>2026-03-28T17:38:43.885Z</time></trkpt><trkpt lat="45.5573767" lon="10.492955"><ele>271.0</ele><time>2026-03-28T17:38:45.885Z</time></trkpt><trkpt lat="45.55747" lon="10.493035"><ele>271.0</ele><time>2026-03-28T17:38:47.885Z</time></trkpt><trkpt lat="45.5575067" lon="10.4931917"><ele>271.0</ele><time>2026-03-28T17:38:49.885Z</time></trkpt><trkpt lat="45.5575117" lon="10.4933033"><ele>271.0</ele><time>2026-03-28T17:38:50.885Z</time></trkpt><trkpt lat="45.557525" lon="10.4934217"><ele>271.0</ele><time>2026-03-28T17:38:51.885Z</time></trkpt><trkpt lat="45.55755" lon="10.4935383"><ele>271.0</ele><time>2026-03-28T17:38:52.885Z</time></trkpt><trkpt lat="45.557575" lon="10.49365"><ele>271.0</ele><time>2026-03-28T17:38:53.885Z</time></trkpt><trkpt lat="45.5575917" lon="10.493765"><ele>270.5</ele><time>2026-03-28T17:38:54.885Z</time></trkpt><trkpt lat="45.557605" lon="10.4938667"><ele>270.0</ele><time>2026-03-28T17:38:55.885Z</time></trkpt><trkpt lat="45.5576217" lon="10.4939867"><ele>269.5</ele><time>2026-03-28T17:38:56.885Z</time></trkpt><trkpt lat="45.5576417" lon="10.4940867"><ele>269.0</ele><time>2026-03-28T17:38:57.885Z</time></trkpt><trkpt lat="45.557675" lon="10.4941833"><ele>268.5</ele><time>2026-03-28T17:38:58.886Z</time></trkpt><trkpt lat="45.557705" lon="10.4942783"><ele>268.0</ele><time>2026-03-28T17:38:59.885Z</time></trkpt><trkpt lat="45.55775" lon="10.4943767"><ele>268.0</ele><time>2026-03-28T17:39:00.885Z</time></trkpt><trkpt lat="45.5578017" lon="10.49446"><ele>268.0</ele><time>2026-03-28T17:39:01.885Z</time></trkpt><trkpt lat="45.5578567" lon="10.494545"><ele>268.0</ele><time>2026-03-28T17:39:02.886Z</time></trkpt><trkpt lat="45.5579033" lon="10.4946167"><ele>268.0</ele><time>2026-03-28T17:39:03.885Z</time></trkpt><trkpt lat="45.5579517" lon="10.4946767"><ele>268.0</ele><time>2026-03-28T17:39:04.885Z</time></trkpt><trkpt lat="45.5580517" lon="10.494765"><ele>268.0</ele><time>2026-03-28T17:39:06.885Z</time></trkpt><trkpt lat="45.55817" lon="10.4947867"><ele>269.6</ele><time>2026-03-28T17:39:08.885Z</time></trkpt><trkpt lat="45.558255" lon="10.4947683"><ele>271.20000000000005</ele><time>2026-03-28T17:39:09.886Z</time></trkpt><trkpt lat="45.5583633" lon="10.4947383"><ele>272.8</ele><time>2026-03-28T17:39:10.886Z</time></trkpt><trkpt lat="45.5584717" lon="10.494715"><ele>274.40000000000003</ele><time>2026-03-28T17:39:11.885Z</time></trkpt><trkpt lat="45.55858" lon="10.49469"><ele>276.0</ele><time>2026-03-28T17:39:12.885Z</time></trkpt><trkpt lat="45.5586917" lon="10.49467"><ele>277.8</ele><time>2026-03-28T17:39:13.885Z</time></trkpt><trkpt lat="45.5587967" lon="10.494655"><ele>279.6</ele><time>2026-03-28T17:39:14.885Z</time></trkpt><trkpt lat="45.5589117" lon="10.49464"><ele>281.4</ele><time>2026-03-28T17:39:15.885Z</time></trkpt><trkpt lat="45.5590183" lon="10.494625"><ele>283.2</ele><time>2026-03-28T17:39:16.885Z</time></trkpt><trkpt lat="45.55911" lon="10.4946233"><ele>285.0</ele><time>2026-03-28T17:39:17.885Z</time></trkpt><trkpt lat="45.5591883" lon="10.4946133"><ele>285.0</ele><time>2026-03-28T17:39:18.885Z</time></trkpt><trkpt lat="45.5592583" lon="10.4946133"><ele>285.0</ele><time>2026-03-28T17:39:19.885Z</time></trkpt><trkpt lat="45.559325" lon="10.4946017"><ele>285.0</ele><time>2026-03-28T17:39:20.885Z</time></trkpt><trkpt lat="45.5593917" lon="10.4945833"><ele>285.0</ele><time>2026-03-28T17:39:21.885Z</time></trkpt><trkpt lat="45.5594617" lon="10.494545"><ele>285.0</ele><time>2026-03-28T17:39:22.885Z</time></trkpt><trkpt lat="45.5595383" lon="10.49451"><ele>285.0</ele><time>2026-03-28T17:39:23.885Z</time></trkpt><trkpt lat="45.55962" lon="10.4944817"><ele>285.0</ele><time>2026-03-28T17:39:24.885Z</time></trkpt><trkpt lat="45.5597017" lon="10.49447"><ele>284.57142857142856</ele><time>2026-03-28T17:39:25.885Z</time></trkpt><trkpt lat="45.55978" lon="10.4944717"><ele>284.14285714285717</ele><time>2026-03-28T17:39:26.885Z</time></trkpt><trkpt lat="45.5598433" lon="10.494475"><ele>283.7142857142857</ele><time>2026-03-28T17:39:27.885Z</time></trkpt><trkpt lat="45.5599283" lon="10.494485"><ele>283.2857142857143</ele><time>2026-03-28T17:39:29.885Z</time></trkpt><trkpt lat="45.5599917" lon="10.49443"><ele>282.85714285714283</ele><time>2026-03-28T17:39:32.885Z</time></trkpt><trkpt lat="45.5600267" lon="10.4943317"><ele>282.42857142857144</ele><time>2026-03-28T17:39:34.885Z</time></trkpt><trkpt lat="45.5600483" lon="10.4942367"><ele>282.0</ele><time>2026-03-28T17:39:36.885Z</time></trkpt><trkpt lat="45.5600483" lon="10.4940683"><ele>282.0</ele><time>2026-03-28T17:39:38.886Z</time></trkpt><trkpt lat="45.56004" lon="10.493965"><ele>282.0</ele><time>2026-03-28T17:39:39.885Z</time></trkpt><trkpt lat="45.56004" lon="10.4938583"><ele>282.0</ele><time>2026-03-28T17:39:40.885Z</time></trkpt><trkpt lat="45.560055" lon="10.4937533"><ele>282.0</ele><time>2026-03-28T17:39:41.885Z</time></trkpt><trkpt lat="45.5600717" lon="10.4936533"><ele>282.0</ele><time>2026-03-28T17:39:42.885Z</time></trkpt><trkpt lat="45.56009" lon="10.4935567"><ele>282.0</ele><time>2026-03-28T17:39:43.885Z</time></trkpt><trkpt lat="45.5601183" lon="10.4934583"><ele>282.0</ele><time>2026-03-28T17:39:44.886Z</time></trkpt><trkpt lat="45.5601517" lon="10.49337"><ele>281.8571428571429</ele><time>2026-03-28T17:39:45.885Z</time></trkpt><trkpt lat="45.5601933" lon="10.4932933"><ele>281.7142857142857</ele><time>2026-03-28T17:39:46.885Z</time></trkpt><trkpt lat="45.5602433" lon="10.493225"><ele>281.57142857142856</ele><time>2026-03-28T17:39:47.885Z</time></trkpt><trkpt lat="45.5602967" lon="10.493155"><ele>281.42857142857144</ele><time>2026-03-28T17:39:48.885Z</time></trkpt><trkpt lat="45.5603383" lon="10.4930767"><ele>281.2857142857143</ele><time>2026-03-28T17:39:49.885Z</time></trkpt><trkpt lat="45.5603767" lon="10.4929967"><ele>281.14285714285717</ele><time>2026-03-28T17:39:50.885Z</time></trkpt><trkpt lat="45.5604167" lon="10.4929017"><ele>281.0</ele><time>2026-03-28T17:39:51.885Z</time></trkpt><trkpt lat="45.56046" lon="10.492815"><ele>280.0</ele><time>2026-03-28T17:39:52.885Z</time></trkpt><trkpt lat="45.5605067" lon="10.49273"><ele>279.0</ele><time>2026-03-28T17:39:53.885Z</time></trkpt><trkpt lat="45.5605633" lon="10.492645"><ele>278.0</ele><time>2026-03-28T17:39:54.885Z</time></trkpt><trkpt lat="45.5606233" lon="10.4925617"><ele>277.0</ele><time>2026-03-28T17:39:55.885Z</time></trkpt><trkpt lat="45.56069" lon="10.49247"><ele>276.0</ele><time>2026-03-28T17:39:56.885Z</time></trkpt><trkpt lat="45.5607583" lon="10.4923767"><ele>275.0</ele><time>2026-03-28T17:39:57.885Z</time></trkpt><trkpt lat="45.5608267" lon="10.492295"><ele>275.0</ele><time>2026-03-28T17:39:58.885Z</time></trkpt><trkpt lat="45.5608933" lon="10.4922167"><ele>275.0</ele><time>2026-03-28T17:39:59.885Z</time></trkpt><trkpt lat="45.5609533" lon="10.49214"><ele>275.0</ele><time>2026-03-28T17:40:00.885Z</time></trkpt><trkpt lat="45.561005" lon="10.49206"><ele>275.0</ele><time>2026-03-28T17:40:01.885Z</time></trkpt><trkpt lat="45.5610467" lon="10.4919717"><ele>275.0</ele><time>2026-03-28T17:40:02.885Z</time></trkpt><trkpt lat="45.5611217" lon="10.4918333"><ele>275.0</ele><time>2026-03-28T17:40:04.885Z</time></trkpt><trkpt lat="45.5611767" lon="10.49177"><ele>276.6666666666667</ele><time>2026-03-28T17:40:05.885Z</time></trkpt><trkpt lat="45.5612467" lon="10.491715"><ele>278.33333333333337</ele><time>2026-03-28T17:40:06.885Z</time></trkpt><trkpt lat="45.56132" lon="10.4916617"><ele>280.0</ele><time>2026-03-28T17:40:07.885Z</time></trkpt><trkpt lat="45.5614" lon="10.4916217"><ele>281.6666666666667</ele><time>2026-03-28T17:40:08.885Z</time></trkpt><trkpt lat="45.5614833" lon="10.4915817"><ele>283.3333333333333</ele><time>2026-03-28T17:40:09.885Z</time></trkpt><trkpt lat="45.56157" lon="10.4915533"><ele>285.0</ele><time>2026-03-28T17:40:10.885Z</time></trkpt><trkpt lat="45.5616567" lon="10.491535"><ele>285.0</ele><time>2026-03-28T17:40:11.885Z</time></trkpt><trkpt lat="45.5617433" lon="10.4915183"><ele>285.0</ele><time>2026-03-28T17:40:12.885Z</time></trkpt><trkpt lat="45.5618333" lon="10.4914967"><ele>285.0</ele><time>2026-03-28T17:40:13.885Z</time></trkpt><trkpt lat="45.5619183" lon="10.4914683"><ele>285.0</ele><time>2026-03-28T17:40:14.885Z</time></trkpt><trkpt lat="45.5620083" lon="10.4914383"><ele>285.0</ele><time>2026-03-28T17:40:15.886Z</time></trkpt><trkpt lat="45.5620933" lon="10.491405"><ele>285.0</ele><time>2026-03-28T17:40:16.885Z</time></trkpt><trkpt lat="45.5621767" lon="10.4913783"><ele>285.8333333333333</ele><time>2026-03-28T17:40:17.885Z</time></trkpt><trkpt lat="45.5622633" lon="10.4913517"><ele>286.6666666666667</ele><time>2026-03-28T17:40:18.885Z</time></trkpt><trkpt lat="45.5623467" lon="10.4913183"><ele>287.5</ele><time>2026-03-28T17:40:19.885Z</time></trkpt><trkpt lat="45.5624367" lon="10.4912833"><ele>288.33333333333337</ele><time>2026-03-28T17:40:20.885Z</time></trkpt><trkpt lat="45.5625167" lon="10.4912433"><ele>289.1666666666667</ele><time>2026-03-28T17:40:21.885Z</time></trkpt><trkpt lat="45.56258" lon="10.4912217"><ele>290.0</ele><time>2026-03-28T17:40:22.885Z</time></trkpt><trkpt lat="45.56269" lon="10.491175"><ele>290.0</ele><time>2026-03-28T17:40:24.886Z</time></trkpt><trkpt lat="45.5627817" lon="10.4911617"><ele>290.0</ele><time>2026-03-28T17:40:26.885Z</time></trkpt><trkpt lat="45.5628833" lon="10.4911283"><ele>290.0</ele><time>2026-03-28T17:40:28.885Z</time></trkpt><trkpt lat="45.562995" lon="10.491055"><ele>290.0</ele><time>2026-03-28T17:40:30.886Z</time></trkpt><trkpt lat="45.5631083" lon="10.4909767"><ele>290.0</ele><time>2026-03-28T17:40:32.885Z</time></trkpt><trkpt lat="45.5631733" lon="10.49093"><ele>290.33333333333337</ele><time>2026-03-28T17:40:33.885Z</time></trkpt><trkpt lat="45.563235" lon="10.4908967"><ele>290.6666666666667</ele><time>2026-03-28T17:40:34.885Z</time></trkpt><trkpt lat="45.56333" lon="10.490835"><ele>291.0</ele><time>2026-03-28T17:40:36.885Z</time></trkpt><trkpt lat="45.5634083" lon="10.49079"><ele>291.3333333333333</ele><time>2026-03-28T17:40:38.885Z</time></trkpt><trkpt lat="45.5634933" lon="10.4907917"><ele>291.66666666666663</ele><time>2026-03-28T17:40:40.885Z</time></trkpt><trkpt lat="45.5635617" lon="10.490805"><ele>292.0</ele><time>2026-03-28T17:40:41.885Z</time></trkpt><trkpt lat="45.5636433" lon="10.49082"><ele>292.5</ele><time>2026-03-28T17:40:42.885Z</time></trkpt><trkpt lat="45.56372" lon="10.4908367"><ele>293.0</ele><time>2026-03-28T17:40:43.886Z</time></trkpt><trkpt lat="45.56381" lon="10.4908433"><ele>293.5</ele><time>2026-03-28T17:40:44.885Z</time></trkpt><trkpt lat="45.563885" lon="10.49086"><ele>294.0</ele><time>2026-03-28T17:40:45.885Z</time></trkpt><trkpt lat="45.5639517" lon="10.49087"><ele>294.5</ele><time>2026-03-28T17:40:46.885Z</time></trkpt><trkpt lat="45.5640633" lon="10.4909017"><ele>295.0</ele><time>2026-03-28T17:40:48.885Z</time></trkpt><trkpt lat="45.5641417" lon="10.4909383"><ele>295.0</ele><time>2026-03-28T17:40:50.885Z</time></trkpt><trkpt lat="45.5642033" lon="10.4908867"><ele>295.0</ele><time>2026-03-28T17:40:55.885Z</time></trkpt><trkpt lat="45.564225" lon="10.4907833"><ele>295.0</ele><time>2026-03-28T17:40:57.885Z</time></trkpt><trkpt lat="45.5642683" lon="10.49064"><ele>295.0</ele><time>2026-03-28T17:41:05.885Z</time></trkpt><trkpt lat="45.5643283" lon="10.490485"><ele>295.0</ele><time>2026-03-28T17:41:07.885Z</time></trkpt><trkpt lat="45.5643667" lon="10.4904017"><ele>294.3333333333333</ele><time>2026-03-28T17:41:08.885Z</time></trkpt><trkpt lat="45.5644067" lon="10.4903167"><ele>293.66666666666663</ele><time>2026-03-28T17:41:09.885Z</time></trkpt><trkpt lat="45.5644417" lon="10.490225"><ele>293.0</ele><time>2026-03-28T17:41:10.885Z</time></trkpt><trkpt lat="45.5644733" lon="10.490135"><ele>292.3333333333333</ele><time>2026-03-28T17:41:11.885Z</time></trkpt><trkpt lat="45.56451" lon="10.49006"><ele>291.6666666666667</ele><time>2026-03-28T17:41:12.885Z</time></trkpt><trkpt lat="45.564595" lon="10.48992"><ele>291.0</ele><time>2026-03-28T17:41:14.885Z</time></trkpt><trkpt lat="45.5646483" lon="10.4898383"><ele>291.0</ele><time>2026-03-28T17:41:15.885Z</time></trkpt><trkpt lat="45.5646983" lon="10.48977"><ele>291.0</ele><time>2026-03-28T17:41:16.885Z</time></trkpt><trkpt lat="45.5647533" lon="10.4897067"><ele>291.0</ele><time>2026-03-28T17:41:17.885Z</time></trkpt><trkpt lat="45.5648067" lon="10.489645"><ele>291.0</ele><time>2026-03-28T17:41:18.885Z</time></trkpt><trkpt lat="45.5648667" lon="10.48958"><ele>291.0</ele><time>2026-03-28T17:41:19.885Z</time></trkpt><trkpt lat="45.5649267" lon="10.4895167"><ele>291.0</ele><time>2026-03-28T17:41:20.885Z</time></trkpt><trkpt lat="45.56502" lon="10.4894067"><ele>290.8333333333333</ele><time>2026-03-28T17:41:22.886Z</time></trkpt><trkpt lat="45.5650783" lon="10.4893517"><ele>290.6666666666667</ele><time>2026-03-28T17:41:23.885Z</time></trkpt><trkpt lat="45.5651383" lon="10.489295"><ele>290.5</ele><time>2026-03-28T17:41:24.885Z</time></trkpt><trkpt lat="45.5652" lon="10.4892367"><ele>290.33333333333337</ele><time>2026-03-28T17:41:25.886Z</time></trkpt><trkpt lat="45.5652567" lon="10.4891917"><ele>290.1666666666667</ele><time>2026-03-28T17:41:26.886Z</time></trkpt><trkpt lat="45.5653633" lon="10.4891217"><ele>290.0</ele><time>2026-03-28T17:41:28.885Z</time></trkpt><trkpt lat="45.56546" lon="10.48906"><ele>290.0</ele><time>2026-03-28T17:41:30.885Z</time></trkpt><trkpt lat="45.56553" lon="10.4890483"><ele>290.0</ele><time>2026-03-28T17:41:32.885Z</time></trkpt><trkpt lat="45.5655967" lon="10.48914"><ele>290.0</ele><time>2026-03-28T17:41:34.885Z</time></trkpt><trkpt lat="45.565635" lon="10.4892217"><ele>290.0</ele><time>2026-03-28T17:41:35.885Z</time></trkpt><trkpt lat="45.5656733" lon="10.489315"><ele>290.0</ele><time>2026-03-28T17:41:36.885Z</time></trkpt><trkpt lat="45.565715" lon="10.4893967"><ele>290.0</ele><time>2026-03-28T17:41:37.885Z</time></trkpt><trkpt lat="45.5657583" lon="10.4894717"><ele>290.0</ele><time>2026-03-28T17:41:38.885Z</time></trkpt><trkpt lat="45.565795" lon="10.4895533"><ele>290.42857142857144</ele><time>2026-03-28T17:41:39.885Z</time></trkpt><trkpt lat="45.565835" lon="10.4896333"><ele>290.8571428571429</ele><time>2026-03-28T17:41:40.885Z</time></trkpt><trkpt lat="45.5658717" lon="10.4897283"><ele>291.2857142857143</ele><time>2026-03-28T17:41:41.885Z</time></trkpt><trkpt lat="45.5659133" lon="10.4898183"><ele>291.7142857142857</ele><time>2026-03-28T17:41:42.885Z</time></trkpt><trkpt lat="45.56595" lon="10.489905"><ele>292.1428571428571</ele><time>2026-03-28T17:41:43.885Z</time></trkpt><trkpt lat="45.565985" lon="10.489985"><ele>292.57142857142856</ele><time>2026-03-28T17:41:44.885Z</time></trkpt><trkpt lat="45.5660167" lon="10.4900717"><ele>293.0</ele><time>2026-03-28T17:41:45.885Z</time></trkpt><trkpt lat="45.5660733" lon="10.4902417"><ele>293.0</ele><time>2026-03-28T17:41:47.885Z</time></trkpt><trkpt lat="45.5661083" lon="10.4903283"><ele>293.0</ele><time>2026-03-28T17:41:48.885Z</time></trkpt><trkpt lat="45.56613" lon="10.49042"><ele>293.0</ele><time>2026-03-28T17:41:49.885Z</time></trkpt><trkpt lat="45.5661583" lon="10.490515"><ele>293.0</ele><time>2026-03-28T17:41:50.885Z</time></trkpt><trkpt lat="45.5661933" lon="10.4906133"><ele>293.0</ele><time>2026-03-28T17:41:51.885Z</time></trkpt><trkpt lat="45.5662383" lon="10.49071"><ele>293.0</ele><time>2026-03-28T17:41:52.885Z</time></trkpt><trkpt lat="45.5662933" lon="10.490795"><ele>293.1428571428571</ele><time>2026-03-28T17:41:53.885Z</time></trkpt><trkpt lat="45.56634" lon="10.490875"><ele>293.2857142857143</ele><time>2026-03-28T17:41:54.885Z</time></trkpt><trkpt lat="45.5663833" lon="10.4909633"><ele>293.42857142857144</ele><time>2026-03-28T17:41:55.885Z</time></trkpt><trkpt lat="45.5664317" lon="10.4910217"><ele>293.57142857142856</ele><time>2026-03-28T17:41:56.885Z</time></trkpt><trkpt lat="45.5664933" lon="10.491075"><ele>293.7142857142857</ele><time>2026-03-28T17:41:57.885Z</time></trkpt><trkpt lat="45.5665533" lon="10.4911333"><ele>293.85714285714283</ele><time>2026-03-28T17:41:58.885Z</time></trkpt><trkpt lat="45.5666217" lon="10.49118"><ele>294.0</ele><time>2026-03-28T17:41:59.885Z</time></trkpt><trkpt lat="45.5666967" lon="10.49121"><ele>294.0</ele><time>2026-03-28T17:42:00.885Z</time></trkpt><trkpt lat="45.5667583" lon="10.4912367"><ele>294.0</ele><time>2026-03-28T17:42:01.885Z</time></trkpt><trkpt lat="45.5668317" lon="10.4912467"><ele>294.0</ele><time>2026-03-28T17:42:02.885Z</time></trkpt><trkpt lat="45.566905" lon="10.49127"><ele>294.0</ele><time>2026-03-28T17:42:03.885Z</time></trkpt><trkpt lat="45.566975" lon="10.4912917"><ele>294.0</ele><time>2026-03-28T17:42:04.885Z</time></trkpt><trkpt lat="45.5670483" lon="10.4913017"><ele>294.0</ele><time>2026-03-28T17:42:05.885Z</time></trkpt><trkpt lat="45.5671167" lon="10.4912917"><ele>294.0</ele><time>2026-03-28T17:42:06.885Z</time></trkpt><trkpt lat="45.5672433" lon="10.491265"><ele>294.5</ele><time>2026-03-28T17:42:08.886Z</time></trkpt><trkpt lat="45.5673083" lon="10.4912633"><ele>295.0</ele><time>2026-03-28T17:42:09.886Z</time></trkpt><trkpt lat="45.567395" lon="10.491295"><ele>295.5</ele><time>2026-03-28T17:42:11.885Z</time></trkpt><trkpt lat="45.56746" lon="10.4913517"><ele>296.0</ele><time>2026-03-28T17:42:14.885Z</time></trkpt><trkpt lat="45.5674967" lon="10.491455"><ele>296.5</ele><time>2026-03-28T17:42:18.886Z</time></trkpt><trkpt lat="45.5675283" lon="10.491555"><ele>297.0</ele><time>2026-03-28T17:42:21.885Z</time></trkpt><trkpt lat="45.5675633" lon="10.491655"><ele>297.0</ele><time>2026-03-28T17:42:23.885Z</time></trkpt><trkpt lat="45.5676117" lon="10.4917983"><ele>297.0</ele><time>2026-03-28T17:42:25.885Z</time></trkpt><trkpt lat="45.5676867" lon="10.491935"><ele>297.0</ele><time>2026-03-28T17:42:27.885Z</time></trkpt><trkpt lat="45.56773" lon="10.4920017"><ele>297.0</ele><time>2026-03-28T17:42:28.885Z</time></trkpt><trkpt lat="45.567775" lon="10.4920667"><ele>297.0</ele><time>2026-03-28T17:42:29.885Z</time></trkpt><trkpt lat="45.5678617" lon="10.4921767"><ele>295.8</ele><time>2026-03-28T17:42:31.885Z</time></trkpt><trkpt lat="45.5679117" lon="10.4922917"><ele>294.6</ele><time>2026-03-28T17:42:33.885Z</time></trkpt><trkpt lat="45.5679117" lon="10.4924583"><ele>293.40000000000003</ele><time>2026-03-28T17:42:35.885Z</time></trkpt><trkpt lat="45.5679083" lon="10.4925617"><ele>292.2</ele><time>2026-03-28T17:42:36.886Z</time></trkpt><trkpt lat="45.567905" lon="10.4926783"><ele>291.0</ele><time>2026-03-28T17:42:37.885Z</time></trkpt><trkpt lat="45.5679" lon="10.4928"><ele>291.8333333333333</ele><time>2026-03-28T17:42:38.885Z</time></trkpt><trkpt lat="45.56789" lon="10.492935"><ele>292.6666666666667</ele><time>2026-03-28T17:42:39.885Z</time></trkpt><trkpt lat="45.56788" lon="10.4930667"><ele>293.5</ele><time>2026-03-28T17:42:40.885Z</time></trkpt><trkpt lat="45.5678717" lon="10.4931967"><ele>294.33333333333337</ele><time>2026-03-28T17:42:41.885Z</time></trkpt><trkpt lat="45.5678617" lon="10.4933117"><ele>295.1666666666667</ele><time>2026-03-28T17:42:42.885Z</time></trkpt><trkpt lat="45.5678583" lon="10.4934133"><ele>296.0</ele><time>2026-03-28T17:42:43.885Z</time></trkpt><trkpt lat="45.5678417" lon="10.4935017"><ele>296.0</ele><time>2026-03-28T17:42:44.885Z</time></trkpt><trkpt lat="45.56781" lon="10.4935817"><ele>296.0</ele><time>2026-03-28T17:42:45.885Z</time></trkpt><trkpt lat="45.5677517" lon="10.493735"><ele>296.0</ele><time>2026-03-28T17:42:47.885Z</time></trkpt><trkpt lat="45.5677283" lon="10.4938783"><ele>296.0</ele><time>2026-03-28T17:42:49.886Z</time></trkpt><trkpt lat="45.5677417" lon="10.4940367"><ele>296.0</ele><time>2026-03-28T17:42:51.885Z</time></trkpt><trkpt lat="45.56777" lon="10.49419"><ele>295.8</ele><time>2026-03-28T17:42:53.885Z</time></trkpt><trkpt lat="45.5677883" lon="10.4943483"><ele>295.6</ele><time>2026-03-28T17:42:55.885Z</time></trkpt><trkpt lat="45.5678133" lon="10.4945133"><ele>295.4</ele><time>2026-03-28T17:42:57.885Z</time></trkpt><trkpt lat="45.5677883" lon="10.4946767"><ele>295.2</ele><time>2026-03-28T17:42:59.885Z</time></trkpt><trkpt lat="45.567765" lon="10.4947767"><ele>295.0</ele><time>2026-03-28T17:43:00.885Z</time></trkpt><trkpt lat="45.5677367" lon="10.4948867"><ele>293.66666666666663</ele><time>2026-03-28T17:43:01.886Z</time></trkpt><trkpt lat="45.56771" lon="10.4949933"><ele>292.3333333333333</ele><time>2026-03-28T17:43:02.885Z</time></trkpt><trkpt lat="45.5676817" lon="10.4951117"><ele>291.0</ele><time>2026-03-28T17:43:03.885Z</time></trkpt><trkpt lat="45.56765" lon="10.4952217"><ele>289.6666666666667</ele><time>2026-03-28T17:43:04.885Z</time></trkpt><trkpt lat="45.56762" lon="10.4953317"><ele>288.33333333333337</ele><time>2026-03-28T17:43:05.885Z</time></trkpt><trkpt lat="45.5675967" lon="10.4954267"><ele>287.0</ele><time>2026-03-28T17:43:06.885Z</time></trkpt><trkpt lat="45.5675817" lon="10.495525"><ele>285.7142857142857</ele><time>2026-03-28T17:43:07.885Z</time></trkpt><trkpt lat="45.56758" lon="10.4956217"><ele>284.42857142857144</ele><time>2026-03-28T17:43:08.885Z</time></trkpt><trkpt lat="45.5675767" lon="10.495715"><ele>283.1428571428571</ele><time>2026-03-28T17:43:09.885Z</time></trkpt><trkpt lat="45.5675783" lon="10.4958117"><ele>281.8571428571429</ele><time>2026-03-28T17:43:10.886Z</time></trkpt><trkpt lat="45.567585" lon="10.4959067"><ele>280.57142857142856</ele><time>2026-03-28T17:43:11.885Z</time></trkpt><trkpt lat="45.5675933" lon="10.4960533"><ele>279.2857142857143</ele><time>2026-03-28T17:43:13.885Z</time></trkpt><trkpt lat="45.5675933" lon="10.4961567"><ele>278.0</ele><time>2026-03-28T17:43:15.885Z</time></trkpt><trkpt lat="45.5676567" lon="10.4961833"><ele>278.0</ele><time>2026-03-28T17:43:18.885Z</time></trkpt><trkpt lat="45.5677567" lon="10.49614"><ele>278.0</ele><time>2026-03-28T17:43:20.885Z</time></trkpt><trkpt lat="45.56787" lon="10.4960817"><ele>278.0</ele><time>2026-03-28T17:43:22.885Z</time></trkpt><trkpt lat="45.567975" lon="10.4960133"><ele>278.0</ele><time>2026-03-28T17:43:24.885Z</time></trkpt><trkpt lat="45.5680317" lon="10.49597"><ele>278.0</ele><time>2026-03-28T17:43:25.885Z</time></trkpt><trkpt lat="45.56813" lon="10.4958717"><ele>278.6666666666667</ele><time>2026-03-28T17:43:27.885Z</time></trkpt><trkpt lat="45.568165" lon="10.49579"><ele>279.33333333333337</ele><time>2026-03-28T17:43:28.885Z</time></trkpt><trkpt lat="45.5682017" lon="10.49568"><ele>280.0</ele><time>2026-03-28T17:43:29.886Z</time></trkpt><trkpt lat="45.5682333" lon="10.4955617"><ele>280.6666666666667</ele><time>2026-03-28T17:43:30.885Z</time></trkpt><trkpt lat="45.56827" lon="10.4954317"><ele>281.3333333333333</ele><time>2026-03-28T17:43:31.885Z</time></trkpt><trkpt lat="45.5683083" lon="10.4953033"><ele>282.0</ele><time>2026-03-28T17:43:32.885Z</time></trkpt><trkpt lat="45.568345" lon="10.4951817"><ele>282.0</ele><time>2026-03-28T17:43:33.885Z</time></trkpt><trkpt lat="45.568375" lon="10.4950767"><ele>282.0</ele><time>2026-03-28T17:43:34.885Z</time></trkpt><trkpt lat="45.56841" lon="10.4949933"><ele>282.0</ele><time>2026-03-28T17:43:35.885Z</time></trkpt><trkpt lat="45.5684517" lon="10.4949183"><ele>282.0</ele><time>2026-03-28T17:43:36.885Z</time></trkpt><trkpt lat="45.56851" lon="10.4948617"><ele>282.0</ele><time>2026-03-28T17:43:37.885Z</time></trkpt><trkpt lat="45.5685867" lon="10.4948067"><ele>282.0</ele><time>2026-03-28T17:43:38.885Z</time></trkpt><trkpt lat="45.5686867" lon="10.4947567"><ele>283.2</ele><time>2026-03-28T17:43:39.885Z</time></trkpt><trkpt lat="45.5687883" lon="10.49471"><ele>284.4</ele><time>2026-03-28T17:43:40.885Z</time></trkpt><trkpt lat="45.56889" lon="10.49466"><ele>285.6</ele><time>2026-03-28T17:43:41.885Z</time></trkpt><trkpt lat="45.56899" lon="10.4946167"><ele>286.8</ele><time>2026-03-28T17:43:42.885Z</time></trkpt><trkpt lat="45.569075" lon="10.4945783"><ele>288.0</ele><time>2026-03-28T17:43:43.885Z</time></trkpt><trkpt lat="45.56915" lon="10.4945233"><ele>288.0</ele><time>2026-03-28T17:43:44.885Z</time></trkpt><trkpt lat="45.5692083" lon="10.4944517"><ele>288.0</ele><time>2026-03-28T17:43:45.885Z</time></trkpt><trkpt lat="45.5692567" lon="10.494385"><ele>288.0</ele><time>2026-03-28T17:43:46.886Z</time></trkpt><trkpt lat="45.5693067" lon="10.4943167"><ele>288.0</ele><time>2026-03-28T17:43:47.885Z</time></trkpt><trkpt lat="45.5694" lon="10.4942117"><ele>288.0</ele><time>2026-03-28T17:43:49.885Z</time></trkpt><trkpt lat="45.5694683" lon="10.4941867"><ele>288.0</ele><time>2026-03-28T17:43:50.886Z</time></trkpt><trkpt lat="45.5695567" lon="10.4941833"><ele>288.3333333333333</ele><time>2026-03-28T17:43:51.885Z</time></trkpt><trkpt lat="45.5696433" lon="10.4941783"><ele>288.6666666666667</ele><time>2026-03-28T17:43:52.885Z</time></trkpt><trkpt lat="45.5697283" lon="10.4941717"><ele>289.0</ele><time>2026-03-28T17:43:53.885Z</time></trkpt><trkpt lat="45.5697933" lon="10.4941683"><ele>289.33333333333337</ele><time>2026-03-28T17:43:54.885Z</time></trkpt><trkpt lat="45.5698967" lon="10.4941217"><ele>289.6666666666667</ele><time>2026-03-28T17:43:56.885Z</time></trkpt><trkpt lat="45.5699683" lon="10.494085"><ele>290.0</ele><time>2026-03-28T17:43:58.886Z</time></trkpt><trkpt lat="45.570055" lon="10.494155"><ele>290.0</ele><time>2026-03-28T17:44:01.885Z</time></trkpt><trkpt lat="45.57009" lon="10.494245"><ele>290.0</ele><time>2026-03-28T17:44:02.885Z</time></trkpt><trkpt lat="45.5701233" lon="10.4943467"><ele>290.0</ele><time>2026-03-28T17:44:03.885Z</time></trkpt><trkpt lat="45.57015" lon="10.49446"><ele>290.0</ele><time>2026-03-28T17:44:04.885Z</time></trkpt><trkpt lat="45.57017" lon="10.4945633"><ele>290.0</ele><time>2026-03-28T17:44:05.886Z</time></trkpt><trkpt lat="45.5702" lon="10.4946633"><ele>290.0</ele><time>2026-03-28T17:44:06.885Z</time></trkpt><trkpt lat="45.57031" lon="10.4947833"><ele>290.5</ele><time>2026-03-28T17:44:08.885Z</time></trkpt><trkpt lat="45.5703867" lon="10.4948217"><ele>291.0</ele><time>2026-03-28T17:44:09.885Z</time></trkpt><trkpt lat="45.5704683" lon="10.49486"><ele>291.5</ele><time>2026-03-28T17:44:10.885Z</time></trkpt><trkpt lat="45.5705433" lon="10.4949067"><ele>292.0</ele><time>2026-03-28T17:44:11.885Z</time></trkpt><trkpt lat="45.5706167" lon="10.4949517"><ele>292.5</ele><time>2026-03-28T17:44:12.885Z</time></trkpt><trkpt lat="45.5707033" lon="10.4949967"><ele>293.0</ele><time>2026-03-28T17:44:13.885Z</time></trkpt><trkpt lat="45.5707883" lon="10.4950333"><ele>293.0</ele><time>2026-03-28T17:44:14.885Z</time></trkpt><trkpt lat="45.5708817" lon="10.4950667"><ele>293.0</ele><time>2026-03-28T17:44:15.885Z</time></trkpt><trkpt lat="45.570975" lon="10.4950967"><ele>293.0</ele><time>2026-03-28T17:44:16.886Z</time></trkpt><trkpt lat="45.57106" lon="10.4951183"><ele>293.0</ele><time>2026-03-28T17:44:17.885Z</time></trkpt><trkpt lat="45.5711517" lon="10.4951733"><ele>293.0</ele><time>2026-03-28T17:44:18.885Z</time></trkpt><trkpt lat="45.5712367" lon="10.49522"><ele>293.57142857142856</ele><time>2026-03-28T17:44:19.885Z</time></trkpt><trkpt lat="45.5713217" lon="10.49527"><ele>294.1428571428571</ele><time>2026-03-28T17:44:20.885Z</time></trkpt><trkpt lat="45.5713967" lon="10.495315"><ele>294.7142857142857</ele><time>2026-03-28T17:44:21.885Z</time></trkpt><trkpt lat="45.5714633" lon="10.4953683"><ele>295.2857142857143</ele><time>2026-03-28T17:44:22.885Z</time></trkpt><trkpt lat="45.5715133" lon="10.4954333"><ele>295.8571428571429</ele><time>2026-03-28T17:44:23.885Z</time></trkpt><trkpt lat="45.5715583" lon="10.495505"><ele>296.42857142857144</ele><time>2026-03-28T17:44:24.885Z</time></trkpt><trkpt lat="45.5715983" lon="10.495575"><ele>297.0</ele><time>2026-03-28T17:44:25.885Z</time></trkpt><trkpt lat="45.5716417" lon="10.4956517"><ele>297.0</ele><time>2026-03-28T17:44:26.885Z</time></trkpt><trkpt lat="45.5716667" lon="10.4957483"><ele>297.0</ele><time>2026-03-28T17:44:27.885Z</time></trkpt><trkpt lat="45.5716817" lon="10.4958633"><ele>297.0</ele><time>2026-03-28T17:44:28.885Z</time></trkpt><trkpt lat="45.571695" lon="10.496005"><ele>297.0</ele><time>2026-03-28T17:44:29.886Z</time></trkpt><trkpt lat="45.5717117" lon="10.496155"><ele>297.0</ele><time>2026-03-28T17:44:30.885Z</time></trkpt><trkpt lat="45.5717433" lon="10.4963017"><ele>297.8</ele><time>2026-03-28T17:44:31.885Z</time></trkpt><trkpt lat="45.571785" lon="10.49646"><ele>298.6</ele><time>2026-03-28T17:44:32.885Z</time></trkpt><trkpt lat="45.5718233" lon="10.49661"><ele>299.40000000000003</ele><time>2026-03-28T17:44:33.885Z</time></trkpt><trkpt lat="45.5718667" lon="10.496745"><ele>300.2</ele><time>2026-03-28T17:44:34.885Z</time></trkpt><trkpt lat="45.5719117" lon="10.4968717"><ele>301.0</ele><time>2026-03-28T17:44:35.885Z</time></trkpt><trkpt lat="45.5719533" lon="10.4969917"><ele>301.16666666666663</ele><time>2026-03-28T17:44:36.886Z</time></trkpt><trkpt lat="45.57198" lon="10.4971"><ele>301.3333333333333</ele><time>2026-03-28T17:44:37.885Z</time></trkpt><trkpt lat="45.572005" lon="10.4971917"><ele>301.5</ele><time>2026-03-28T17:44:38.885Z</time></trkpt><trkpt lat="45.572025" lon="10.4972817"><ele>301.6666666666667</ele><time>2026-03-28T17:44:39.885Z</time></trkpt><trkpt lat="45.57205" lon="10.4974233"><ele>301.83333333333337</ele><time>2026-03-28T17:44:41.885Z</time></trkpt><trkpt lat="45.5720517" lon="10.4975783"><ele>302.0</ele><time>2026-03-28T17:44:43.885Z</time></trkpt><trkpt lat="45.57205" lon="10.497675"><ele>300.0</ele><time>2026-03-28T17:44:44.885Z</time></trkpt><trkpt lat="45.5720433" lon="10.4977817"><ele>298.0</ele><time>2026-03-28T17:44:45.885Z</time></trkpt><trkpt lat="45.5720333" lon="10.4978833"><ele>296.0</ele><time>2026-03-28T17:44:46.886Z</time></trkpt><trkpt lat="45.5720167" lon="10.4979933"><ele>294.0</ele><time>2026-03-28T17:44:47.885Z</time></trkpt><trkpt lat="45.572005" lon="10.4981117"><ele>292.0</ele><time>2026-03-28T17:44:48.886Z</time></trkpt><trkpt lat="45.572" lon="10.4982217"><ele>290.0</ele><time>2026-03-28T17:44:49.885Z</time></trkpt><trkpt lat="45.572005" lon="10.498325"><ele>289.0</ele><time>2026-03-28T17:44:50.885Z</time></trkpt><trkpt lat="45.57203" lon="10.4984433"><ele>288.0</ele><time>2026-03-28T17:44:51.885Z</time></trkpt><trkpt lat="45.5720567" lon="10.4985333"><ele>287.0</ele><time>2026-03-28T17:44:52.885Z</time></trkpt><trkpt lat="45.5720817" lon="10.4986267"><ele>286.0</ele><time>2026-03-28T17:44:53.885Z</time></trkpt><trkpt lat="45.5721133" lon="10.498725"><ele>285.0</ele><time>2026-03-28T17:44:54.885Z</time></trkpt><trkpt lat="45.5721417" lon="10.4988233"><ele>284.0</ele><time>2026-03-28T17:44:55.885Z</time></trkpt><trkpt lat="45.5721617" lon="10.4989183"><ele>283.0</ele><time>2026-03-28T17:44:56.885Z</time></trkpt><trkpt lat="45.5721783" lon="10.4990133"><ele>282.3333333333333</ele><time>2026-03-28T17:44:57.885Z</time></trkpt><trkpt lat="45.5722133" lon="10.4991883"><ele>281.66666666666663</ele><time>2026-03-28T17:44:59.885Z</time></trkpt><trkpt lat="45.57222" lon="10.4992817"><ele>281.0</ele><time>2026-03-28T17:45:00.885Z</time></trkpt><trkpt lat="45.5722133" lon="10.4994167"><ele>280.3333333333333</ele><time>2026-03-28T17:45:02.885Z</time></trkpt><trkpt lat="45.5722067" lon="10.4995117"><ele>279.6666666666667</ele><time>2026-03-28T17:45:05.885Z</time></trkpt><trkpt lat="45.5722583" lon="10.4994"><ele>279.0</ele><time>2026-03-28T17:45:10.885Z</time></trkpt><trkpt lat="45.5722783" lon="10.4991417"><ele>279.0</ele><time>2026-03-28T17:45:13.885Z</time></trkpt><trkpt lat="45.572275" lon="10.4990283"><ele>279.0</ele><time>2026-03-28T17:45:14.885Z</time></trkpt><trkpt lat="45.57228" lon="10.4989083"><ele>279.0</ele><time>2026-03-28T17:45:15.885Z</time></trkpt><trkpt lat="45.5722917" lon="10.4987967"><ele>279.0</ele><time>2026-03-28T17:45:16.885Z</time></trkpt><trkpt lat="45.5723083" lon="10.4986933"><ele>279.0</ele><time>2026-03-28T17:45:17.885Z</time></trkpt><trkpt lat="45.572325" lon="10.4985933"><ele>279.0</ele><time>2026-03-28T17:45:18.885Z</time></trkpt><trkpt lat="45.5723383" lon="10.4984883"><ele>279.6666666666667</ele><time>2026-03-28T17:45:19.885Z</time></trkpt><trkpt lat="45.57236" lon="10.4983833"><ele>280.3333333333333</ele><time>2026-03-28T17:45:20.885Z</time></trkpt><trkpt lat="45.572395" lon="10.49827"><ele>281.0</ele><time>2026-03-28T17:45:21.885Z</time></trkpt><trkpt lat="45.5724317" lon="10.498165"><ele>281.66666666666663</ele><time>2026-03-28T17:45:22.886Z</time></trkpt><trkpt lat="45.57248" lon="10.49806"><ele>282.3333333333333</ele><time>2026-03-28T17:45:23.885Z</time></trkpt><trkpt lat="45.5725267" lon="10.4979617"><ele>283.0</ele><time>2026-03-28T17:45:24.885Z</time></trkpt><trkpt lat="45.5725733" lon="10.4978633"><ele>284.0</ele><time>2026-03-28T17:45:25.885Z</time></trkpt><trkpt lat="45.5726133" lon="10.4977633"><ele>285.0</ele><time>2026-03-28T17:45:26.885Z</time></trkpt><trkpt lat="45.5726533" lon="10.4976683"><ele>286.0</ele><time>2026-03-28T17:45:27.885Z</time></trkpt><trkpt lat="45.5726917" lon="10.4975717"><ele>287.0</ele><time>2026-03-28T17:45:28.885Z</time></trkpt><trkpt lat="45.5727117" lon="10.4974733"><ele>288.0</ele><time>2026-03-28T17:45:29.885Z</time></trkpt><trkpt lat="45.5727333" lon="10.4973733"><ele>289.0</ele><time>2026-03-28T17:45:30.885Z</time></trkpt><trkpt lat="45.5727567" lon="10.4972683"><ele>289.0</ele><time>2026-03-28T17:45:31.885Z</time></trkpt><trkpt lat="45.5727733" lon="10.4971483"><ele>289.0</ele><time>2026-03-28T17:45:32.885Z</time></trkpt><trkpt lat="45.5727867" lon="10.4970333"><ele>289.0</ele><time>2026-03-28T17:45:33.885Z</time></trkpt><trkpt lat="45.572795" lon="10.4969017"><ele>289.0</ele><time>2026-03-28T17:45:34.885Z</time></trkpt><trkpt lat="45.5727983" lon="10.4967767"><ele>289.0</ele><time>2026-03-28T17:45:35.885Z</time></trkpt><trkpt lat="45.5727933" lon="10.4966583"><ele>289.0</ele><time>2026-03-28T17:45:36.885Z</time></trkpt><trkpt lat="45.5727917" lon="10.4965467"><ele>289.14285714285717</ele><time>2026-03-28T17:45:37.885Z</time></trkpt><trkpt lat="45.5727867" lon="10.496435"><ele>289.2857142857143</ele><time>2026-03-28T17:45:38.885Z</time></trkpt><trkpt lat="45.5727767" lon="10.49633"><ele>289.42857142857144</ele><time>2026-03-28T17:45:39.885Z</time></trkpt><trkpt lat="45.572765" lon="10.4962383"><ele>289.57142857142856</ele><time>2026-03-28T17:45:40.886Z</time></trkpt><trkpt lat="45.5727467" lon="10.4961433"><ele>289.7142857142857</ele><time>2026-03-28T17:45:41.885Z</time></trkpt><trkpt lat="45.5727267" lon="10.49604"><ele>289.8571428571429</ele><time>2026-03-28T17:45:42.885Z</time></trkpt><trkpt lat="45.5727067" lon="10.495925"><ele>290.0</ele><time>2026-03-28T17:45:43.885Z</time></trkpt><trkpt lat="45.5726817" lon="10.495805"><ele>290.6</ele><time>2026-03-28T17:45:44.885Z</time></trkpt><trkpt lat="45.5726717" lon="10.49568"><ele>291.2</ele><time>2026-03-28T17:45:45.885Z</time></trkpt><trkpt lat="45.5726733" lon="10.4955567"><ele>291.8</ele><time>2026-03-28T17:45:46.885Z</time></trkpt><trkpt lat="45.5726933" lon="10.495435"><ele>292.4</ele><time>2026-03-28T17:45:47.885Z</time></trkpt><trkpt lat="45.57273" lon="10.495295"><ele>293.0</ele><time>2026-03-28T17:45:48.885Z</time></trkpt><trkpt lat="45.57278" lon="10.495155"><ele>292.5</ele><time>2026-03-28T17:45:49.885Z</time></trkpt><trkpt lat="45.5728433" lon="10.495035"><ele>292.0</ele><time>2026-03-28T17:45:50.885Z</time></trkpt><trkpt lat="45.5729217" lon="10.4949133"><ele>291.5</ele><time>2026-03-28T17:45:51.885Z</time></trkpt><trkpt lat="45.5730017" lon="10.494795"><ele>291.0</ele><time>2026-03-28T17:45:52.885Z</time></trkpt><trkpt lat="45.5730933" lon="10.4946733"><ele>294.40000000000003</ele><time>2026-03-28T17:45:53.885Z</time></trkpt><trkpt lat="45.5731833" lon="10.494555"><ele>297.8</ele><time>2026-03-28T17:45:54.885Z</time></trkpt><trkpt lat="45.5732717" lon="10.4944517"><ele>301.20000000000005</ele><time>2026-03-28T17:45:55.885Z</time></trkpt><trkpt lat="45.57335" lon="10.49435"><ele>304.6</ele><time>2026-03-28T17:45:56.885Z</time></trkpt><trkpt lat="45.5734183" lon="10.494235"><ele>308.0</ele><time>2026-03-28T17:45:57.885Z</time></trkpt><trkpt lat="45.5734767" lon="10.4941033"><ele>308.0</ele><time>2026-03-28T17:45:58.885Z</time></trkpt><trkpt lat="45.5735267" lon="10.4939767"><ele>308.0</ele><time>2026-03-28T17:45:59.885Z</time></trkpt><trkpt lat="45.5735783" lon="10.4938517"><ele>308.0</ele><time>2026-03-28T17:46:00.885Z</time></trkpt><trkpt lat="45.5736383" lon="10.493715"><ele>308.0</ele><time>2026-03-28T17:46:01.885Z</time></trkpt><trkpt lat="45.5736783" lon="10.4935933"><ele>308.0</ele><time>2026-03-28T17:46:02.885Z</time></trkpt><trkpt lat="45.5737033" lon="10.4934683"><ele>308.2</ele><time>2026-03-28T17:46:03.885Z</time></trkpt><trkpt lat="45.5737233" lon="10.493335"><ele>308.4</ele><time>2026-03-28T17:46:04.885Z</time></trkpt><trkpt lat="45.5737283" lon="10.4931817"><ele>308.59999999999997</ele><time>2026-03-28T17:46:05.885Z</time></trkpt><trkpt lat="45.5737317" lon="10.493045"><ele>308.8</ele><time>2026-03-28T17:46:06.885Z</time></trkpt><trkpt lat="45.5737383" lon="10.4929167"><ele>309.0</ele><time>2026-03-28T17:46:07.885Z</time></trkpt><trkpt lat="45.57375" lon="10.4927933"><ele>309.0</ele><time>2026-03-28T17:46:08.885Z</time></trkpt><trkpt lat="45.5737767" lon="10.492675"><ele>309.0</ele><time>2026-03-28T17:46:09.885Z</time></trkpt><trkpt lat="45.5738183" lon="10.492575"><ele>309.0</ele><time>2026-03-28T17:46:10.885Z</time></trkpt><trkpt lat="45.5738783" lon="10.4925"><ele>309.0</ele><time>2026-03-28T17:46:11.886Z</time></trkpt><trkpt lat="45.5739567" lon="10.49243"><ele>309.0</ele><time>2026-03-28T17:46:12.886Z</time></trkpt><trkpt lat="45.57404" lon="10.4923833"><ele>309.0</ele><time>2026-03-28T17:46:13.885Z</time></trkpt><trkpt lat="45.5741267" lon="10.4923533"><ele>309.0</ele><time>2026-03-28T17:46:14.885Z</time></trkpt><trkpt lat="45.5742133" lon="10.4923267"><ele>309.0</ele><time>2026-03-28T17:46:15.885Z</time></trkpt><trkpt lat="45.5742917" lon="10.492315"><ele>309.0</ele><time>2026-03-28T17:46:16.885Z</time></trkpt><trkpt lat="45.5744033" lon="10.49225"><ele>309.0</ele><time>2026-03-28T17:46:18.885Z</time></trkpt><trkpt lat="45.5744517" lon="10.4920933"><ele>309.0</ele><time>2026-03-28T17:46:20.885Z</time></trkpt><trkpt lat="45.574435" lon="10.4919667"><ele>309.4</ele><time>2026-03-28T17:46:21.885Z</time></trkpt><trkpt lat="45.574415" lon="10.4918167"><ele>309.79999999999995</ele><time>2026-03-28T17:46:22.885Z</time></trkpt><trkpt lat="45.5743967" lon="10.4916533"><ele>310.20000000000005</ele><time>2026-03-28T17:46:23.885Z</time></trkpt><trkpt lat="45.57438" lon="10.4915017"><ele>310.6</ele><time>2026-03-28T17:46:24.885Z</time></trkpt><trkpt lat="45.5743733" lon="10.4913517"><ele>311.0</ele><time>2026-03-28T17:46:25.885Z</time></trkpt><trkpt lat="45.5743833" lon="10.4911983"><ele>311.0</ele><time>2026-03-28T17:46:26.885Z</time></trkpt><trkpt lat="45.574405" lon="10.4910567"><ele>311.0</ele><time>2026-03-28T17:46:27.885Z</time></trkpt><trkpt lat="45.5744317" lon="10.49093"><ele>311.0</ele><time>2026-03-28T17:46:28.885Z</time></trkpt><trkpt lat="45.5744583" lon="10.4907933"><ele>311.0</ele><time>2026-03-28T17:46:29.885Z</time></trkpt><trkpt lat="45.5744683" lon="10.4906167"><ele>311.0</ele><time>2026-03-28T17:46:30.885Z</time></trkpt><trkpt lat="45.57447" lon="10.4904333"><ele>311.6</ele><time>2026-03-28T17:46:31.885Z</time></trkpt><trkpt lat="45.574465" lon="10.4902567"><ele>312.20000000000005</ele><time>2026-03-28T17:46:32.885Z</time></trkpt><trkpt lat="45.5744683" lon="10.4900883"><ele>312.79999999999995</ele><time>2026-03-28T17:46:33.885Z</time></trkpt><trkpt lat="45.5744733" lon="10.4899317"><ele>313.4</ele><time>2026-03-28T17:46:34.885Z</time></trkpt><trkpt lat="45.574485" lon="10.4898067"><ele>314.0</ele><time>2026-03-28T17:46:35.885Z</time></trkpt><trkpt lat="45.5745133" lon="10.4896867"><ele>314.8</ele><time>2026-03-28T17:46:36.885Z</time></trkpt><trkpt lat="45.5745517" lon="10.4895917"><ele>315.59999999999997</ele><time>2026-03-28T17:46:37.885Z</time></trkpt><trkpt lat="45.574605" lon="10.4894983"><ele>316.4</ele><time>2026-03-28T17:46:38.885Z</time></trkpt><trkpt lat="45.5746833" lon="10.4893967"><ele>317.2</ele><time>2026-03-28T17:46:39.885Z</time></trkpt><trkpt lat="45.5747633" lon="10.48927"><ele>318.0</ele><time>2026-03-28T17:46:40.885Z</time></trkpt><trkpt lat="45.5748567" lon="10.48914"><ele>318.0</ele><time>2026-03-28T17:46:41.885Z</time></trkpt><trkpt lat="45.5749567" lon="10.4890117"><ele>318.0</ele><time>2026-03-28T17:46:42.885Z</time></trkpt><trkpt lat="45.575085" lon="10.488885"><ele>318.0</ele><time>2026-03-28T17:46:43.885Z</time></trkpt><trkpt lat="45.5752117" lon="10.4887933"><ele>318.0</ele><time>2026-03-28T17:46:44.885Z</time></trkpt><trkpt lat="45.57533" lon="10.48873"><ele>318.4</ele><time>2026-03-28T17:46:45.886Z</time></trkpt><trkpt lat="45.5754283" lon="10.4886633"><ele>318.8</ele><time>2026-03-28T17:46:46.885Z</time></trkpt><trkpt lat="45.575505" lon="10.4886"><ele>319.2</ele><time>2026-03-28T17:46:47.885Z</time></trkpt><trkpt lat="45.5755833" lon="10.4884933"><ele>319.6</ele><time>2026-03-28T17:46:49.885Z</time></trkpt><trkpt lat="45.575595" lon="10.4883567"><ele>320.0</ele><time>2026-03-28T17:46:51.885Z</time></trkpt><trkpt lat="45.5755583" lon="10.4882133"><ele>320.0</ele><time>2026-03-28T17:46:53.885Z</time></trkpt><trkpt lat="45.57552" lon="10.4881233"><ele>320.0</ele><time>2026-03-28T17:46:55.885Z</time></trkpt><trkpt lat="45.5755333" lon="10.48802"><ele>320.0</ele><time>2026-03-28T17:47:27.885Z</time></trkpt><trkpt lat="45.5755383" lon="10.4879233"><ele>320.0</ele><time>2026-03-28T17:47:29.886Z</time></trkpt><trkpt lat="45.575545" lon="10.4878183"><ele>320.0</ele><time>2026-03-28T17:47:31.885Z</time></trkpt><trkpt lat="45.5755483" lon="10.487715"><ele>320.0</ele><time>2026-03-28T17:47:41.885Z</time></trkpt><trkpt lat="45.5755517" lon="10.4876117"><ele>320.0</ele><time>2026-03-28T17:47:43.885Z</time></trkpt><trkpt lat="45.575545" lon="10.4874683"><ele>319.6666666666667</ele><time>2026-03-28T17:47:45.886Z</time></trkpt><trkpt lat="45.57555" lon="10.48737"><ele>319.33333333333337</ele><time>2026-03-28T17:47:46.886Z</time></trkpt><trkpt lat="45.5755533" lon="10.4872533"><ele>319.0</ele><time>2026-03-28T17:47:47.886Z</time></trkpt><trkpt lat="45.575565" lon="10.4871183"><ele>318.6666666666667</ele><time>2026-03-28T17:47:48.886Z</time></trkpt><trkpt lat="45.575575" lon="10.4869867"><ele>318.3333333333333</ele><time>2026-03-28T17:47:49.886Z</time></trkpt><trkpt lat="45.57558" lon="10.4868517"><ele>318.0</ele><time>2026-03-28T17:47:50.886Z</time></trkpt><trkpt lat="45.5755883" lon="10.48672"><ele>317.1666666666667</ele><time>2026-03-28T17:47:51.886Z</time></trkpt><trkpt lat="45.5755933" lon="10.4865767"><ele>316.3333333333333</ele><time>2026-03-28T17:47:52.886Z</time></trkpt><trkpt lat="45.5755883" lon="10.4864467"><ele>315.5</ele><time>2026-03-28T17:47:53.886Z</time></trkpt><trkpt lat="45.5755683" lon="10.4863333"><ele>314.66666666666663</ele><time>2026-03-28T17:47:54.886Z</time></trkpt><trkpt lat="45.57554" lon="10.4862217"><ele>313.8333333333333</ele><time>2026-03-28T17:47:55.886Z</time></trkpt><trkpt lat="45.5755133" lon="10.4861"><ele>313.0</ele><time>2026-03-28T17:47:56.886Z</time></trkpt><trkpt lat="45.5754833" lon="10.4859917"><ele>312.3333333333333</ele><time>2026-03-28T17:47:57.886Z</time></trkpt><trkpt lat="45.5754517" lon="10.4858767"><ele>311.66666666666663</ele><time>2026-03-28T17:47:58.886Z</time></trkpt><trkpt lat="45.5754133" lon="10.4857733"><ele>311.0</ele><time>2026-03-28T17:47:59.886Z</time></trkpt><trkpt lat="45.5753883" lon="10.4856617"><ele>310.3333333333333</ele><time>2026-03-28T17:48:00.886Z</time></trkpt><trkpt lat="45.5753783" lon="10.4855617"><ele>309.6666666666667</ele><time>2026-03-28T17:48:01.886Z</time></trkpt><trkpt lat="45.5753983" lon="10.4854533"><ele>309.0</ele><time>2026-03-28T17:48:02.887Z</time></trkpt><trkpt lat="45.575425" lon="10.4853317"><ele>307.5</ele><time>2026-03-28T17:48:03.886Z</time></trkpt><trkpt lat="45.5754667" lon="10.4851817"><ele>306.0</ele><time>2026-03-28T17:48:04.886Z</time></trkpt><trkpt lat="45.5755017" lon="10.4850267"><ele>304.5</ele><time>2026-03-28T17:48:05.886Z</time></trkpt><trkpt lat="45.5755283" lon="10.4848567"><ele>303.0</ele><time>2026-03-28T17:48:06.886Z</time></trkpt><trkpt lat="45.5755483" lon="10.4846783"><ele>301.0</ele><time>2026-03-28T17:48:07.886Z</time></trkpt><trkpt lat="45.575585" lon="10.4845033"><ele>299.0</ele><time>2026-03-28T17:48:08.886Z</time></trkpt><trkpt lat="45.5756133" lon="10.4843367"><ele>297.0</ele><time>2026-03-28T17:48:09.887Z</time></trkpt><trkpt lat="45.5756483" lon="10.48417"><ele>295.0</ele><time>2026-03-28T17:48:10.886Z</time></trkpt><trkpt lat="45.5756883" lon="10.484005"><ele>295.0</ele><time>2026-03-28T17:48:11.886Z</time></trkpt><trkpt lat="45.5757267" lon="10.4838383"><ele>295.0</ele><time>2026-03-28T17:48:12.886Z</time></trkpt><trkpt lat="45.57575" lon="10.4836617"><ele>295.0</ele><time>2026-03-28T17:48:13.886Z</time></trkpt><trkpt lat="45.5757733" lon="10.4834883"><ele>295.0</ele><time>2026-03-28T17:48:14.886Z</time></trkpt><trkpt lat="45.575795" lon="10.48333"><ele>293.8</ele><time>2026-03-28T17:48:15.886Z</time></trkpt><trkpt lat="45.5758067" lon="10.4831683"><ele>292.6</ele><time>2026-03-28T17:48:16.886Z</time></trkpt><trkpt lat="45.575815" lon="10.483025"><ele>291.4</ele><time>2026-03-28T17:48:17.886Z</time></trkpt><trkpt lat="45.5758167" lon="10.4828983"><ele>290.2</ele><time>2026-03-28T17:48:18.886Z</time></trkpt><trkpt lat="45.5758183" lon="10.4827767"><ele>289.0</ele><time>2026-03-28T17:48:19.886Z</time></trkpt><trkpt lat="45.5758233" lon="10.4826833"><ele>288.5</ele><time>2026-03-28T17:48:20.886Z</time></trkpt><trkpt lat="45.5758233" lon="10.4825733"><ele>288.0</ele><time>2026-03-28T17:48:22.886Z</time></trkpt><trkpt lat="45.5757517" lon="10.4825017"><ele>287.5</ele><time>2026-03-28T17:48:25.887Z</time></trkpt><trkpt lat="45.5756867" lon="10.4825083"><ele>287.0</ele><time>2026-03-28T17:48:26.886Z</time></trkpt><trkpt lat="45.57562" lon="10.4825267"><ele>286.5</ele><time>2026-03-28T17:48:27.886Z</time></trkpt><trkpt lat="45.5755383" lon="10.48255"><ele>286.0</ele><time>2026-03-28T17:48:28.886Z</time></trkpt><trkpt lat="45.5754433" lon="10.4825767"><ele>286.8</ele><time>2026-03-28T17:48:29.887Z</time></trkpt><trkpt lat="45.57534" lon="10.4826067"><ele>287.6</ele><time>2026-03-28T17:48:30.886Z</time></trkpt><trkpt lat="45.5752383" lon="10.482635"><ele>288.4</ele><time>2026-03-28T17:48:31.886Z</time></trkpt><trkpt lat="45.5751283" lon="10.4826483"><ele>289.2</ele><time>2026-03-28T17:48:32.886Z</time></trkpt><trkpt lat="45.5750033" lon="10.482665"><ele>290.0</ele><time>2026-03-28T17:48:33.886Z</time></trkpt><trkpt lat="45.5748767" lon="10.4826733"><ele>290.0</ele><time>2026-03-28T17:48:34.886Z</time></trkpt><trkpt lat="45.5747467" lon="10.48268"><ele>290.0</ele><time>2026-03-28T17:48:35.886Z</time></trkpt><trkpt lat="45.5746033" lon="10.482685"><ele>290.0</ele><time>2026-03-28T17:48:36.886Z</time></trkpt><trkpt lat="45.57446" lon="10.4826817"><ele>290.0</ele><time>2026-03-28T17:48:37.886Z</time></trkpt><trkpt lat="45.5743167" lon="10.482665"><ele>289.5</ele><time>2026-03-28T17:48:38.886Z</time></trkpt><trkpt lat="45.5741833" lon="10.4826517"><ele>289.0</ele><time>2026-03-28T17:48:39.886Z</time></trkpt><trkpt lat="45.5740517" lon="10.4826433"><ele>288.5</ele><time>2026-03-28T17:48:40.886Z</time></trkpt><trkpt lat="45.573925" lon="10.4826367"><ele>288.0</ele><time>2026-03-28T17:48:41.886Z</time></trkpt><trkpt lat="45.5738" lon="10.4826333"><ele>289.0</ele><time>2026-03-28T17:48:42.886Z</time></trkpt><trkpt lat="45.57367" lon="10.4826367"><ele>290.0</ele><time>2026-03-28T17:48:43.886Z</time></trkpt><trkpt lat="45.573545" lon="10.4826233"><ele>291.0</ele><time>2026-03-28T17:48:44.887Z</time></trkpt><trkpt lat="45.573415" lon="10.482615"><ele>292.0</ele><time>2026-03-28T17:48:45.886Z</time></trkpt><trkpt lat="45.5732817" lon="10.4826133"><ele>292.0</ele><time>2026-03-28T17:48:46.886Z</time></trkpt><trkpt lat="45.5731467" lon="10.4826083"><ele>292.0</ele><time>2026-03-28T17:48:47.886Z</time></trkpt><trkpt lat="45.5730183" lon="10.482605"><ele>292.0</ele><time>2026-03-28T17:48:48.886Z</time></trkpt><trkpt lat="45.5729017" lon="10.4826"><ele>292.0</ele><time>2026-03-28T17:48:49.886Z</time></trkpt><trkpt lat="45.5728" lon="10.4826017"><ele>293.5</ele><time>2026-03-28T17:48:50.886Z</time></trkpt><trkpt lat="45.57269" lon="10.4826033"><ele>295.0</ele><time>2026-03-28T17:48:51.886Z</time></trkpt><trkpt lat="45.57257" lon="10.48259"><ele>296.5</ele><time>2026-03-28T17:48:52.886Z</time></trkpt><trkpt lat="45.5724533" lon="10.4825767"><ele>298.0</ele><time>2026-03-28T17:48:53.886Z</time></trkpt><trkpt lat="45.57234" lon="10.4825733"><ele>298.0</ele><time>2026-03-28T17:48:54.886Z</time></trkpt><trkpt lat="45.5722317" lon="10.4825583"><ele>298.0</ele><time>2026-03-28T17:48:55.886Z</time></trkpt><trkpt lat="45.5721283" lon="10.4825617"><ele>298.0</ele><time>2026-03-28T17:48:56.886Z</time></trkpt><trkpt lat="45.5720133" lon="10.4825517"><ele>298.0</ele><time>2026-03-28T17:48:57.886Z</time></trkpt><trkpt lat="45.5719117" lon="10.4825517"><ele>298.0</ele><time>2026-03-28T17:48:58.886Z</time></trkpt><trkpt lat="45.5718" lon="10.4825667"><ele>298.5</ele><time>2026-03-28T17:48:59.886Z</time></trkpt><trkpt lat="45.57169" lon="10.48257"><ele>299.0</ele><time>2026-03-28T17:49:00.886Z</time></trkpt><trkpt lat="45.5715683" lon="10.482565"><ele>299.5</ele><time>2026-03-28T17:49:01.886Z</time></trkpt><trkpt lat="45.5714267" lon="10.48255"><ele>300.0</ele><time>2026-03-28T17:49:02.886Z</time></trkpt><trkpt lat="45.5712733" lon="10.4825317"><ele>301.6666666666667</ele><time>2026-03-28T17:49:03.886Z</time></trkpt><trkpt lat="45.5711117" lon="10.48251"><ele>303.33333333333337</ele><time>2026-03-28T17:49:04.886Z</time></trkpt><trkpt lat="45.5709483" lon="10.4824933"><ele>305.0</ele><time>2026-03-28T17:49:05.886Z</time></trkpt><trkpt lat="45.5707967" lon="10.48247"><ele>305.0</ele><time>2026-03-28T17:49:06.886Z</time></trkpt><trkpt lat="45.5706483" lon="10.4824567"><ele>305.0</ele><time>2026-03-28T17:49:07.886Z</time></trkpt><trkpt lat="45.570515" lon="10.4824433"><ele>305.0</ele><time>2026-03-28T17:49:08.886Z</time></trkpt><trkpt lat="45.5703933" lon="10.48242"><ele>305.0</ele><time>2026-03-28T17:49:09.886Z</time></trkpt><trkpt lat="45.570265" lon="10.4823833"><ele>306.5</ele><time>2026-03-28T17:49:10.886Z</time></trkpt><trkpt lat="45.5701417" lon="10.48236"><ele>308.0</ele><time>2026-03-28T17:49:11.886Z</time></trkpt><trkpt lat="45.5700117" lon="10.4823217"><ele>309.5</ele><time>2026-03-28T17:49:12.886Z</time></trkpt><trkpt lat="45.56988" lon="10.4822833"><ele>311.0</ele><time>2026-03-28T17:49:13.886Z</time></trkpt><trkpt lat="45.5697417" lon="10.4822467"><ele>311.0</ele><time>2026-03-28T17:49:14.887Z</time></trkpt><trkpt lat="45.5696033" lon="10.4822"><ele>311.0</ele><time>2026-03-28T17:49:15.886Z</time></trkpt><trkpt lat="45.569465" lon="10.4821467"><ele>311.0</ele><time>2026-03-28T17:49:16.886Z</time></trkpt><trkpt lat="45.5693233" lon="10.482105"><ele>311.0</ele><time>2026-03-28T17:49:17.886Z</time></trkpt><trkpt lat="45.56918" lon="10.4820617"><ele>312.0</ele><time>2026-03-28T17:49:18.886Z</time></trkpt><trkpt lat="45.5690383" lon="10.482025"><ele>313.0</ele><time>2026-03-28T17:49:19.886Z</time></trkpt><trkpt lat="45.568895" lon="10.4819867"><ele>314.0</ele><time>2026-03-28T17:49:20.886Z</time></trkpt><trkpt lat="45.5687467" lon="10.4819483"><ele>315.0</ele><time>2026-03-28T17:49:21.886Z</time></trkpt><trkpt lat="45.5685967" lon="10.4819083"><ele>316.0</ele><time>2026-03-28T17:49:22.886Z</time></trkpt><trkpt lat="45.568445" lon="10.481865"><ele>317.0</ele><time>2026-03-28T17:49:23.886Z</time></trkpt><trkpt lat="45.5682933" lon="10.4818283"><ele>318.0</ele><time>2026-03-28T17:49:24.886Z</time></trkpt><trkpt lat="45.5681533" lon="10.48179"><ele>318.0</ele><time>2026-03-28T17:49:25.886Z</time></trkpt><trkpt lat="45.568015" lon="10.481755"><ele>318.0</ele><time>2026-03-28T17:49:26.886Z</time></trkpt><trkpt lat="45.5678717" lon="10.4817183"><ele>318.0</ele><time>2026-03-28T17:49:27.886Z</time></trkpt><trkpt lat="45.5677333" lon="10.4816717"><ele>318.0</ele><time>2026-03-28T17:49:28.886Z</time></trkpt><trkpt lat="45.5675883" lon="10.481625"><ele>318.75</ele><time>2026-03-28T17:49:29.887Z</time></trkpt><trkpt lat="45.5674467" lon="10.48159"><ele>319.5</ele><time>2026-03-28T17:49:30.886Z</time></trkpt><trkpt lat="45.567305" lon="10.4815567"><ele>320.25</ele><time>2026-03-28T17:49:31.886Z</time></trkpt><trkpt lat="45.567165" lon="10.481535"><ele>321.0</ele><time>2026-03-28T17:49:32.886Z</time></trkpt><trkpt lat="45.567025" lon="10.4815183"><ele>321.0</ele><time>2026-03-28T17:49:33.886Z</time></trkpt><trkpt lat="45.5668817" lon="10.48151"><ele>321.0</ele><time>2026-03-28T17:49:34.887Z</time></trkpt><trkpt lat="45.5667367" lon="10.4815067"><ele>321.0</ele><time>2026-03-28T17:49:35.886Z</time></trkpt><trkpt lat="45.5665833" lon="10.4815117"><ele>321.0</ele><time>2026-03-28T17:49:36.886Z</time></trkpt><trkpt lat="45.56643" lon="10.48152"><ele>321.0</ele><time>2026-03-28T17:49:37.886Z</time></trkpt><trkpt lat="45.5662817" lon="10.48154"><ele>321.0</ele><time>2026-03-28T17:49:38.886Z</time></trkpt><trkpt lat="45.566135" lon="10.48157"><ele>321.0</ele><time>2026-03-28T17:49:39.886Z</time></trkpt><trkpt lat="45.5659883" lon="10.4816033"><ele>321.0</ele><time>2026-03-28T17:49:40.886Z</time></trkpt><trkpt lat="45.5658467" lon="10.48165"><ele>321.25</ele><time>2026-03-28T17:49:41.886Z</time></trkpt><trkpt lat="45.5657083" lon="10.4816933"><ele>321.5</ele><time>2026-03-28T17:49:42.886Z</time></trkpt><trkpt lat="45.5655617" lon="10.48174"><ele>321.75</ele><time>2026-03-28T17:49:43.886Z</time></trkpt><trkpt lat="45.5654133" lon="10.4817883"><ele>322.0</ele><time>2026-03-28T17:49:44.886Z</time></trkpt><trkpt lat="45.5652633" lon="10.4818483"><ele>321.5</ele><time>2026-03-28T17:49:45.886Z</time></trkpt><trkpt lat="45.5651217" lon="10.4819017"><ele>321.0</ele><time>2026-03-28T17:49:46.886Z</time></trkpt><trkpt lat="45.5649733" lon="10.48196"><ele>320.5</ele><time>2026-03-28T17:49:47.886Z</time></trkpt><trkpt lat="45.5648317" lon="10.482015"><ele>320.0</ele><time>2026-03-28T17:49:48.886Z</time></trkpt><trkpt lat="45.564695" lon="10.4820683"><ele>321.0</ele><time>2026-03-28T17:49:49.886Z</time></trkpt><trkpt lat="45.56455" lon="10.4821167"><ele>322.0</ele><time>2026-03-28T17:49:50.886Z</time></trkpt><trkpt lat="45.5644067" lon="10.4821667"><ele>323.0</ele><time>2026-03-28T17:49:51.886Z</time></trkpt><trkpt lat="45.564265" lon="10.4822133"><ele>324.0</ele><time>2026-03-28T17:49:52.886Z</time></trkpt><trkpt lat="45.5641217" lon="10.4822483"><ele>324.0</ele><time>2026-03-28T17:49:53.886Z</time></trkpt><trkpt lat="45.56397" lon="10.4822833"><ele>324.0</ele><time>2026-03-28T17:49:54.887Z</time></trkpt><trkpt lat="45.563825" lon="10.4823233"><ele>324.0</ele><time>2026-03-28T17:49:55.886Z</time></trkpt><trkpt lat="45.563675" lon="10.482355"><ele>324.0</ele><time>2026-03-28T17:49:56.886Z</time></trkpt><trkpt lat="45.563525" lon="10.48239"><ele>324.0</ele><time>2026-03-28T17:49:57.886Z</time></trkpt><trkpt lat="45.56338" lon="10.482425"><ele>324.0</ele><time>2026-03-28T17:49:58.886Z</time></trkpt><trkpt lat="45.563235" lon="10.4824567"><ele>324.0</ele><time>2026-03-28T17:49:59.887Z</time></trkpt><trkpt lat="45.5630867" lon="10.48249"><ele>324.0</ele><time>2026-03-28T17:50:00.886Z</time></trkpt><trkpt lat="45.5629383" lon="10.4825267"><ele>324.0</ele><time>2026-03-28T17:50:01.886Z</time></trkpt><trkpt lat="45.56279" lon="10.482565"><ele>324.0</ele><time>2026-03-28T17:50:02.886Z</time></trkpt><trkpt lat="45.562645" lon="10.4825967"><ele>324.0</ele><time>2026-03-28T17:50:03.886Z</time></trkpt><trkpt lat="45.5624967" lon="10.482625"><ele>324.0</ele><time>2026-03-28T17:50:04.887Z</time></trkpt><trkpt lat="45.5623533" lon="10.4826583"><ele>324.0</ele><time>2026-03-28T17:50:05.887Z</time></trkpt><trkpt lat="45.5622133" lon="10.48269"><ele>324.0</ele><time>2026-03-28T17:50:06.886Z</time></trkpt><trkpt lat="45.5620683" lon="10.4827283"><ele>324.0</ele><time>2026-03-28T17:50:07.886Z</time></trkpt><trkpt lat="45.56193" lon="10.4827583"><ele>324.0</ele><time>2026-03-28T17:50:08.886Z</time></trkpt><trkpt lat="45.561805" lon="10.4827917"><ele>324.0</ele><time>2026-03-28T17:50:09.886Z</time></trkpt><trkpt lat="45.5616817" lon="10.48282"><ele>324.0</ele><time>2026-03-28T17:50:10.886Z</time></trkpt><trkpt lat="45.5615733" lon="10.4828367"><ele>324.0</ele><time>2026-03-28T17:50:11.886Z</time></trkpt><trkpt lat="45.56148" lon="10.48284"><ele>324.0</ele><time>2026-03-28T17:50:12.886Z</time></trkpt><trkpt lat="45.5613967" lon="10.4828167"><ele>324.0</ele><time>2026-03-28T17:50:13.887Z</time></trkpt><trkpt lat="45.5613217" lon="10.482735"><ele>324.0</ele><time>2026-03-28T17:50:14.886Z</time></trkpt><trkpt lat="45.56125" lon="10.4826167"><ele>324.0</ele><time>2026-03-28T17:50:15.886Z</time></trkpt><trkpt lat="45.5611817" lon="10.482485"><ele>324.0</ele><time>2026-03-28T17:50:16.886Z</time></trkpt><trkpt lat="45.5611217" lon="10.482345"><ele>323.75</ele><time>2026-03-28T17:50:17.886Z</time></trkpt><trkpt lat="45.56107" lon="10.4821733"><ele>323.5</ele><time>2026-03-28T17:50:18.886Z</time></trkpt><trkpt lat="45.5610083" lon="10.481995"><ele>323.25</ele><time>2026-03-28T17:50:19.886Z</time></trkpt><trkpt lat="45.5609383" lon="10.481825"><ele>323.0</ele><time>2026-03-28T17:50:20.886Z</time></trkpt><trkpt lat="45.5608667" lon="10.4816717"><ele>323.0</ele><time>2026-03-28T17:50:21.886Z</time></trkpt><trkpt lat="45.56078" lon="10.4815267"><ele>323.0</ele><time>2026-03-28T17:50:22.886Z</time></trkpt><trkpt lat="45.5606817" lon="10.481405"><ele>323.0</ele><time>2026-03-28T17:50:23.886Z</time></trkpt><trkpt lat="45.560565" lon="10.4812967"><ele>323.0</ele><time>2026-03-28T17:50:24.886Z</time></trkpt><trkpt lat="45.5604467" lon="10.48123"><ele>326.5</ele><time>2026-03-28T17:50:25.886Z</time></trkpt><trkpt lat="45.5603333" lon="10.481165"><ele>330.0</ele><time>2026-03-28T17:50:26.886Z</time></trkpt><trkpt lat="45.5602217" lon="10.4811133"><ele>333.5</ele><time>2026-03-28T17:50:27.886Z</time></trkpt><trkpt lat="45.560115" lon="10.48106"><ele>337.0</ele><time>2026-03-28T17:50:28.886Z</time></trkpt><trkpt lat="45.560015" lon="10.48101"><ele>337.0</ele><time>2026-03-28T17:50:29.886Z</time></trkpt><trkpt lat="45.55993" lon="10.4809433"><ele>337.0</ele><time>2026-03-28T17:50:30.886Z</time></trkpt><trkpt lat="45.5598483" lon="10.480855"><ele>337.0</ele><time>2026-03-28T17:50:31.886Z</time></trkpt><trkpt lat="45.55978" lon="10.4807483"><ele>337.0</ele><time>2026-03-28T17:50:32.886Z</time></trkpt><trkpt lat="45.559725" lon="10.48062"><ele>337.0</ele><time>2026-03-28T17:50:33.886Z</time></trkpt><trkpt lat="45.5596967" lon="10.4804683"><ele>338.8</ele><time>2026-03-28T17:50:34.886Z</time></trkpt><trkpt lat="45.5596817" lon="10.480315"><ele>340.6</ele><time>2026-03-28T17:50:35.886Z</time></trkpt><trkpt lat="45.5596883" lon="10.4801367"><ele>342.40000000000003</ele><time>2026-03-28T17:50:36.886Z</time></trkpt><trkpt lat="45.559685" lon="10.4799917"><ele>344.20000000000005</ele><time>2026-03-28T17:50:37.886Z</time></trkpt><trkpt lat="45.55968" lon="10.4798483"><ele>346.0</ele><time>2026-03-28T17:50:38.886Z</time></trkpt><trkpt lat="45.5596783" lon="10.4797033"><ele>345.20000000000005</ele><time>2026-03-28T17:50:39.887Z</time></trkpt><trkpt lat="45.5596867" lon="10.4795733"><ele>344.40000000000003</ele><time>2026-03-28T17:50:40.886Z</time></trkpt><trkpt lat="45.5597017" lon="10.47944"><ele>343.6</ele><time>2026-03-28T17:50:41.886Z</time></trkpt><trkpt lat="45.55973" lon="10.47931"><ele>342.8</ele><time>2026-03-28T17:50:42.886Z</time></trkpt><trkpt lat="45.5597733" lon="10.479165"><ele>342.0</ele><time>2026-03-28T17:50:43.887Z</time></trkpt><trkpt lat="45.5598267" lon="10.4790117"><ele>342.0</ele><time>2026-03-28T17:50:44.886Z</time></trkpt><trkpt lat="45.55987" lon="10.4788633"><ele>342.0</ele><time>2026-03-28T17:50:45.887Z</time></trkpt><trkpt lat="45.5599117" lon="10.4787233"><ele>342.0</ele><time>2026-03-28T17:50:46.886Z</time></trkpt><trkpt lat="45.55995" lon="10.4785917"><ele>342.0</ele><time>2026-03-28T17:50:47.886Z</time></trkpt><trkpt lat="45.5599783" lon="10.47846"><ele>342.0</ele><time>2026-03-28T17:50:48.886Z</time></trkpt><trkpt lat="45.5600067" lon="10.4783017"><ele>341.0</ele><time>2026-03-28T17:50:49.887Z</time></trkpt><trkpt lat="45.5600233" lon="10.4781333"><ele>340.0</ele><time>2026-03-28T17:50:50.886Z</time></trkpt><trkpt lat="45.5600333" lon="10.4779583"><ele>339.0</ele><time>2026-03-28T17:50:51.886Z</time></trkpt><trkpt lat="45.56003" lon="10.477775"><ele>338.0</ele><time>2026-03-28T17:50:52.886Z</time></trkpt><trkpt lat="45.5600283" lon="10.4776033"><ele>337.5</ele><time>2026-03-28T17:50:53.886Z</time></trkpt><trkpt lat="45.5600267" lon="10.4774317"><ele>337.0</ele><time>2026-03-28T17:50:54.886Z</time></trkpt><trkpt lat="45.56002" lon="10.477265"><ele>336.5</ele><time>2026-03-28T17:50:55.886Z</time></trkpt><trkpt lat="45.560015" lon="10.4771033"><ele>336.0</ele><time>2026-03-28T17:50:56.886Z</time></trkpt><trkpt lat="45.5600167" lon="10.47694"><ele>334.6</ele><time>2026-03-28T17:50:57.886Z</time></trkpt><trkpt lat="45.560025" lon="10.476805"><ele>333.20000000000005</ele><time>2026-03-28T17:50:58.886Z</time></trkpt><trkpt lat="45.5600433" lon="10.476675"><ele>331.79999999999995</ele><time>2026-03-28T17:50:59.886Z</time></trkpt><trkpt lat="45.56009" lon="10.4765367"><ele>330.4</ele><time>2026-03-28T17:51:00.886Z</time></trkpt><trkpt lat="45.5601483" lon="10.476395"><ele>329.0</ele><time>2026-03-28T17:51:01.887Z</time></trkpt><trkpt lat="45.5602133" lon="10.4762467"><ele>326.75</ele><time>2026-03-28T17:51:02.886Z</time></trkpt><trkpt lat="45.5602867" lon="10.4761083"><ele>324.5</ele><time>2026-03-28T17:51:03.886Z</time></trkpt><trkpt lat="45.560365" lon="10.4759583"><ele>322.25</ele><time>2026-03-28T17:51:04.886Z</time></trkpt><trkpt lat="45.56044" lon="10.4758217"><ele>320.0</ele><time>2026-03-28T17:51:05.886Z</time></trkpt><trkpt lat="45.5605133" lon="10.4756817"><ele>320.0</ele><time>2026-03-28T17:51:06.886Z</time></trkpt><trkpt lat="45.5605783" lon="10.4755433"><ele>320.0</ele><time>2026-03-28T17:51:07.886Z</time></trkpt><trkpt lat="45.560645" lon="10.4754067"><ele>320.0</ele><time>2026-03-28T17:51:08.886Z</time></trkpt><trkpt lat="45.5606983" lon="10.475265"><ele>320.0</ele><time>2026-03-28T17:51:09.886Z</time></trkpt><trkpt lat="45.5607483" lon="10.4751383"><ele>320.0</ele><time>2026-03-28T17:51:10.886Z</time></trkpt><trkpt lat="45.56078" lon="10.4750317"><ele>318.1666666666667</ele><time>2026-03-28T17:51:11.886Z</time></trkpt><trkpt lat="45.5608033" lon="10.474925"><ele>316.33333333333337</ele><time>2026-03-28T17:51:12.886Z</time></trkpt><trkpt lat="45.5608067" lon="10.4748233"><ele>314.5</ele><time>2026-03-28T17:51:13.886Z</time></trkpt><trkpt lat="45.5607817" lon="10.4747317"><ele>312.6666666666667</ele><time>2026-03-28T17:51:14.886Z</time></trkpt><trkpt lat="45.5607283" lon="10.474645"><ele>310.8333333333333</ele><time>2026-03-28T17:51:15.887Z</time></trkpt><trkpt lat="45.5606417" lon="10.4745733"><ele>309.0</ele><time>2026-03-28T17:51:16.887Z</time></trkpt><trkpt lat="45.5605383" lon="10.4745383"><ele>307.4</ele><time>2026-03-28T17:51:17.886Z</time></trkpt><trkpt lat="45.5604317" lon="10.47452"><ele>305.79999999999995</ele><time>2026-03-28T17:51:18.886Z</time></trkpt><trkpt lat="45.5603333" lon="10.4745"><ele>304.20000000000005</ele><time>2026-03-28T17:51:19.886Z</time></trkpt><trkpt lat="45.5602467" lon="10.4744717"><ele>302.6</ele><time>2026-03-28T17:51:20.886Z</time></trkpt><trkpt lat="45.5601717" lon="10.4744133"><ele>301.0</ele><time>2026-03-28T17:51:21.887Z</time></trkpt><trkpt lat="45.560115" lon="10.4743317"><ele>300.25</ele><time>2026-03-28T17:51:22.886Z</time></trkpt><trkpt lat="45.5600733" lon="10.4742167"><ele>299.5</ele><time>2026-03-28T17:51:23.886Z</time></trkpt><trkpt lat="45.5600317" lon="10.47407"><ele>298.75</ele><time>2026-03-28T17:51:24.886Z</time></trkpt><trkpt lat="45.55999" lon="10.47391"><ele>298.0</ele><time>2026-03-28T17:51:25.886Z</time></trkpt><trkpt lat="45.559945" lon="10.4737333"><ele>297.0</ele><time>2026-03-28T17:51:26.886Z</time></trkpt><trkpt lat="45.5599" lon="10.4735667"><ele>296.0</ele><time>2026-03-28T17:51:27.886Z</time></trkpt><trkpt lat="45.5598583" lon="10.4734067"><ele>295.0</ele><time>2026-03-28T17:51:28.886Z</time></trkpt><trkpt lat="45.5598117" lon="10.4732467"><ele>294.0</ele><time>2026-03-28T17:51:29.886Z</time></trkpt><trkpt lat="45.559765" lon="10.473085"><ele>293.59999999999997</ele><time>2026-03-28T17:51:30.886Z</time></trkpt><trkpt lat="45.559715" lon="10.472935"><ele>293.2</ele><time>2026-03-28T17:51:31.886Z</time></trkpt><trkpt lat="45.55967" lon="10.4727867"><ele>292.79999999999995</ele><time>2026-03-28T17:51:32.886Z</time></trkpt><trkpt lat="45.5596233" lon="10.4726467"><ele>292.4</ele><time>2026-03-28T17:51:33.886Z</time></trkpt><trkpt lat="45.5595867" lon="10.472505"><ele>292.0</ele><time>2026-03-28T17:51:34.886Z</time></trkpt><trkpt lat="45.5595517" lon="10.4723767"><ele>291.8333333333333</ele><time>2026-03-28T17:51:35.886Z</time></trkpt><trkpt lat="45.55953" lon="10.47225"><ele>291.66666666666663</ele><time>2026-03-28T17:51:36.886Z</time></trkpt><trkpt lat="45.5595183" lon="10.47212"><ele>291.5</ele><time>2026-03-28T17:51:37.886Z</time></trkpt><trkpt lat="45.5595083" lon="10.472"><ele>291.3333333333333</ele><time>2026-03-28T17:51:38.886Z</time></trkpt><trkpt lat="45.5594967" lon="10.4718883"><ele>291.1666666666667</ele><time>2026-03-28T17:51:39.886Z</time></trkpt><trkpt lat="45.5594817" lon="10.4717933"><ele>291.0</ele><time>2026-03-28T17:51:40.886Z</time></trkpt><trkpt lat="45.5594483" lon="10.4717067"><ele>290.8</ele><time>2026-03-28T17:51:41.886Z</time></trkpt><trkpt lat="45.559325" lon="10.4716383"><ele>290.6</ele><time>2026-03-28T17:51:43.886Z</time></trkpt><trkpt lat="45.5592467" lon="10.47163"><ele>290.4</ele><time>2026-03-28T17:51:44.887Z</time></trkpt><trkpt lat="45.5591633" lon="10.4715933"><ele>290.2</ele><time>2026-03-28T17:51:45.887Z</time></trkpt><trkpt lat="45.5590767" lon="10.47153"><ele>290.0</ele><time>2026-03-28T17:51:46.886Z</time></trkpt><trkpt lat="45.5589867" lon="10.471435"><ele>290.0</ele><time>2026-03-28T17:51:47.886Z</time></trkpt><trkpt lat="45.5588983" lon="10.4713333"><ele>290.0</ele><time>2026-03-28T17:51:48.886Z</time></trkpt><trkpt lat="45.55881" lon="10.47123"><ele>290.0</ele><time>2026-03-28T17:51:49.886Z</time></trkpt><trkpt lat="45.5587233" lon="10.4711217"><ele>290.0</ele><time>2026-03-28T17:51:50.886Z</time></trkpt><trkpt lat="45.558645" lon="10.47103"><ele>290.0</ele><time>2026-03-28T17:51:51.886Z</time></trkpt><trkpt lat="45.55858" lon="10.4709483"><ele>289.1666666666667</ele><time>2026-03-28T17:51:52.886Z</time></trkpt><trkpt lat="45.5585317" lon="10.4708617"><ele>288.33333333333337</ele><time>2026-03-28T17:51:53.887Z</time></trkpt><trkpt lat="45.5584967" lon="10.4707733"><ele>287.5</ele><time>2026-03-28T17:51:54.886Z</time></trkpt><trkpt lat="45.55848" lon="10.470675"><ele>286.6666666666667</ele><time>2026-03-28T17:51:55.886Z</time></trkpt><trkpt lat="45.55845" lon="10.4705717"><ele>285.8333333333333</ele><time>2026-03-28T17:51:56.886Z</time></trkpt><trkpt lat="45.5583967" lon="10.4704883"><ele>285.0</ele><time>2026-03-28T17:51:57.886Z</time></trkpt><trkpt lat="45.5583117" lon="10.4704317"><ele>285.0</ele><time>2026-03-28T17:51:58.886Z</time></trkpt><trkpt lat="45.5582033" lon="10.4703817"><ele>285.0</ele><time>2026-03-28T17:51:59.886Z</time></trkpt><trkpt lat="45.5580717" lon="10.470345"><ele>285.0</ele><time>2026-03-28T17:52:00.886Z</time></trkpt><trkpt lat="45.5579317" lon="10.4703133"><ele>285.0</ele><time>2026-03-28T17:52:01.886Z</time></trkpt><trkpt lat="45.5577883" lon="10.4702767"><ele>284.25</ele><time>2026-03-28T17:52:02.886Z</time></trkpt><trkpt lat="45.5576467" lon="10.4702617"><ele>283.5</ele><time>2026-03-28T17:52:03.886Z</time></trkpt><trkpt lat="45.55752" lon="10.4702433"><ele>282.75</ele><time>2026-03-28T17:52:04.886Z</time></trkpt><trkpt lat="45.5573917" lon="10.470225"><ele>282.0</ele><time>2026-03-28T17:52:05.886Z</time></trkpt><trkpt lat="45.5572717" lon="10.470195"><ele>282.0</ele><time>2026-03-28T17:52:06.886Z</time></trkpt><trkpt lat="45.55716" lon="10.4701767"><ele>282.0</ele><time>2026-03-28T17:52:07.886Z</time></trkpt><trkpt lat="45.5570433" lon="10.47014"><ele>282.0</ele><time>2026-03-28T17:52:08.886Z</time></trkpt><trkpt lat="45.5569283" lon="10.4700933"><ele>282.0</ele><time>2026-03-28T17:52:09.886Z</time></trkpt><trkpt lat="45.5568133" lon="10.47003"><ele>281.75</ele><time>2026-03-28T17:52:10.886Z</time></trkpt><trkpt lat="45.5566983" lon="10.4699567"><ele>281.5</ele><time>2026-03-28T17:52:11.886Z</time></trkpt><trkpt lat="45.55659" lon="10.4698633"><ele>281.25</ele><time>2026-03-28T17:52:12.886Z</time></trkpt><trkpt lat="45.556475" lon="10.4697567"><ele>281.0</ele><time>2026-03-28T17:52:13.887Z</time></trkpt><trkpt lat="45.5563617" lon="10.4696583"><ele>280.25</ele><time>2026-03-28T17:52:14.886Z</time></trkpt><trkpt lat="45.556255" lon="10.469565"><ele>279.5</ele><time>2026-03-28T17:52:15.887Z</time></trkpt><trkpt lat="45.55615" lon="10.46946"><ele>278.75</ele><time>2026-03-28T17:52:16.886Z</time></trkpt><trkpt lat="45.55605" lon="10.4693383"><ele>278.0</ele><time>2026-03-28T17:52:17.886Z</time></trkpt><trkpt lat="45.555955" lon="10.4692133"><ele>277.25</ele><time>2026-03-28T17:52:18.886Z</time></trkpt><trkpt lat="45.555865" lon="10.4690783"><ele>276.5</ele><time>2026-03-28T17:52:19.886Z</time></trkpt><trkpt lat="45.5557667" lon="10.46895"><ele>275.75</ele><time>2026-03-28T17:52:20.886Z</time></trkpt><trkpt lat="45.5556683" lon="10.46885"><ele>275.0</ele><time>2026-03-28T17:52:21.886Z</time></trkpt><trkpt lat="45.555565" lon="10.4687733"><ele>274.75</ele><time>2026-03-28T17:52:22.886Z</time></trkpt><trkpt lat="45.555455" lon="10.4686983"><ele>274.5</ele><time>2026-03-28T17:52:23.886Z</time></trkpt><trkpt lat="45.555335" lon="10.4686283"><ele>274.25</ele><time>2026-03-28T17:52:24.886Z</time></trkpt><trkpt lat="45.55521" lon="10.4685567"><ele>274.0</ele><time>2026-03-28T17:52:25.886Z</time></trkpt><trkpt lat="45.555085" lon="10.46849"><ele>273.0</ele><time>2026-03-28T17:52:26.886Z</time></trkpt><trkpt lat="45.5549517" lon="10.4684283"><ele>272.0</ele><time>2026-03-28T17:52:27.886Z</time></trkpt><trkpt lat="45.5548083" lon="10.4683667"><ele>271.0</ele><time>2026-03-28T17:52:28.886Z</time></trkpt><trkpt lat="45.55467" lon="10.4682967"><ele>270.0</ele><time>2026-03-28T17:52:29.886Z</time></trkpt><trkpt lat="45.554535" lon="10.46823"><ele>268.5</ele><time>2026-03-28T17:52:30.886Z</time></trkpt><trkpt lat="45.5544083" lon="10.4681667"><ele>267.0</ele><time>2026-03-28T17:52:31.886Z</time></trkpt><trkpt lat="45.5542733" lon="10.4681067"><ele>265.5</ele><time>2026-03-28T17:52:32.886Z</time></trkpt><trkpt lat="45.5541433" lon="10.46806"><ele>264.0</ele><time>2026-03-28T17:52:33.886Z</time></trkpt><trkpt lat="45.5540133" lon="10.468"><ele>264.0</ele><time>2026-03-28T17:52:34.886Z</time></trkpt><trkpt lat="45.5538767" lon="10.4679583"><ele>264.0</ele><time>2026-03-28T17:52:35.886Z</time></trkpt><trkpt lat="45.553735" lon="10.46793"><ele>264.0</ele><time>2026-03-28T17:52:36.886Z</time></trkpt><trkpt lat="45.5535933" lon="10.4679167"><ele>264.0</ele><time>2026-03-28T17:52:37.886Z</time></trkpt><trkpt lat="45.5534533" lon="10.46791"><ele>262.25</ele><time>2026-03-28T17:52:38.886Z</time></trkpt><trkpt lat="45.55331" lon="10.4679117"><ele>260.5</ele><time>2026-03-28T17:52:39.886Z</time></trkpt><trkpt lat="45.5531683" lon="10.467915"><ele>258.75</ele><time>2026-03-28T17:52:40.886Z</time></trkpt><trkpt lat="45.5530267" lon="10.4679217"><ele>257.0</ele><time>2026-03-28T17:52:41.886Z</time></trkpt><trkpt lat="45.5528817" lon="10.4679283"><ele>256.75</ele><time>2026-03-28T17:52:42.886Z</time></trkpt><trkpt lat="45.5527433" lon="10.4679433"><ele>256.5</ele><time>2026-03-28T17:52:43.886Z</time></trkpt><trkpt lat="45.5526033" lon="10.4679483"><ele>256.25</ele><time>2026-03-28T17:52:44.887Z</time></trkpt><trkpt lat="45.5524617" lon="10.467955"><ele>256.0</ele><time>2026-03-28T17:52:45.886Z</time></trkpt><trkpt lat="45.5523167" lon="10.4679567"><ele>257.0</ele><time>2026-03-28T17:52:46.886Z</time></trkpt><trkpt lat="45.5521733" lon="10.467965"><ele>258.0</ele><time>2026-03-28T17:52:47.886Z</time></trkpt><trkpt lat="45.5520333" lon="10.4679717"><ele>259.0</ele><time>2026-03-28T17:52:48.886Z</time></trkpt><trkpt lat="45.5518917" lon="10.4679733"><ele>260.0</ele><time>2026-03-28T17:52:49.886Z</time></trkpt><trkpt lat="45.5517533" lon="10.4679717"><ele>259.25</ele><time>2026-03-28T17:52:50.887Z</time></trkpt><trkpt lat="45.551615" lon="10.46793"><ele>258.5</ele><time>2026-03-28T17:52:51.886Z</time></trkpt><trkpt lat="45.55148" lon="10.4678783"><ele>257.75</ele><time>2026-03-28T17:52:52.886Z</time></trkpt><trkpt lat="45.5513533" lon="10.4678083"><ele>257.0</ele><time>2026-03-28T17:52:53.886Z</time></trkpt><trkpt lat="45.5512283" lon="10.4677183"><ele>258.5</ele><time>2026-03-28T17:52:54.886Z</time></trkpt><trkpt lat="45.5511167" lon="10.467605"><ele>260.0</ele><time>2026-03-28T17:52:55.886Z</time></trkpt><trkpt lat="45.55101" lon="10.46749"><ele>261.5</ele><time>2026-03-28T17:52:56.886Z</time></trkpt><trkpt lat="45.5509083" lon="10.4673717"><ele>263.0</ele><time>2026-03-28T17:52:57.886Z</time></trkpt><trkpt lat="45.5508" lon="10.4672517"><ele>263.0</ele><time>2026-03-28T17:52:58.886Z</time></trkpt><trkpt lat="45.550695" lon="10.4671383"><ele>263.0</ele><time>2026-03-28T17:52:59.886Z</time></trkpt><trkpt lat="45.5505883" lon="10.4670267"><ele>263.0</ele><time>2026-03-28T17:53:00.886Z</time></trkpt><trkpt lat="45.550495" lon="10.4669383"><ele>263.0</ele><time>2026-03-28T17:53:01.886Z</time></trkpt><trkpt lat="45.5504083" lon="10.4668867"><ele>263.6</ele><time>2026-03-28T17:53:02.886Z</time></trkpt><trkpt lat="45.5503183" lon="10.4668717"><ele>264.20000000000005</ele><time>2026-03-28T17:53:03.886Z</time></trkpt><trkpt lat="45.5502383" lon="10.4669067"><ele>264.8</ele><time>2026-03-28T17:53:04.886Z</time></trkpt><trkpt lat="45.5501717" lon="10.4669833"><ele>265.40000000000003</ele><time>2026-03-28T17:53:05.886Z</time></trkpt><trkpt lat="45.550125" lon="10.4670967"><ele>266.0</ele><time>2026-03-28T17:53:06.886Z</time></trkpt><trkpt lat="45.550075" lon="10.4672267"><ele>266.2</ele><time>2026-03-28T17:53:07.886Z</time></trkpt><trkpt lat="45.5500083" lon="10.46735"><ele>266.40000000000003</ele><time>2026-03-28T17:53:08.886Z</time></trkpt><trkpt lat="45.5499283" lon="10.4674683"><ele>266.6</ele><time>2026-03-28T17:53:09.886Z</time></trkpt><trkpt lat="45.5498483" lon="10.4675767"><ele>266.8</ele><time>2026-03-28T17:53:10.886Z</time></trkpt><trkpt lat="45.549775" lon="10.4676733"><ele>267.0</ele><time>2026-03-28T17:53:11.887Z</time></trkpt><trkpt lat="45.5496933" lon="10.4677417"><ele>267.0</ele><time>2026-03-28T17:53:12.887Z</time></trkpt><trkpt lat="45.5496067" lon="10.4678"><ele>267.0</ele><time>2026-03-28T17:53:13.886Z</time></trkpt><trkpt lat="45.5495233" lon="10.4678467"><ele>267.0</ele><time>2026-03-28T17:53:14.886Z</time></trkpt><trkpt lat="45.5494483" lon="10.4678833"><ele>267.0</ele><time>2026-03-28T17:53:15.886Z</time></trkpt><trkpt lat="45.5493633" lon="10.4678883"><ele>267.0</ele><time>2026-03-28T17:53:16.886Z</time></trkpt><trkpt lat="45.549275" lon="10.46786"><ele>267.0</ele><time>2026-03-28T17:53:17.886Z</time></trkpt><trkpt lat="45.5491783" lon="10.4678033"><ele>267.0</ele><time>2026-03-28T17:53:18.887Z</time></trkpt><trkpt lat="45.54908" lon="10.4677333"><ele>267.0</ele><time>2026-03-28T17:53:19.886Z</time></trkpt><trkpt lat="45.5489867" lon="10.46768"><ele>267.0</ele><time>2026-03-28T17:53:20.886Z</time></trkpt><trkpt lat="45.54889" lon="10.4676133"><ele>267.0</ele><time>2026-03-28T17:53:21.886Z</time></trkpt><trkpt lat="45.5487917" lon="10.4675467"><ele>267.0</ele><time>2026-03-28T17:53:22.887Z</time></trkpt><trkpt lat="45.5486933" lon="10.467475"><ele>266.6</ele><time>2026-03-28T17:53:23.886Z</time></trkpt><trkpt lat="45.5486" lon="10.4674117"><ele>266.2</ele><time>2026-03-28T17:53:24.886Z</time></trkpt><trkpt lat="45.548505" lon="10.4673517"><ele>265.8</ele><time>2026-03-28T17:53:25.886Z</time></trkpt><trkpt lat="45.5484167" lon="10.46729"><ele>265.4</ele><time>2026-03-28T17:53:26.886Z</time></trkpt><trkpt lat="45.5483267" lon="10.4672317"><ele>265.0</ele><time>2026-03-28T17:53:27.886Z</time></trkpt><trkpt lat="45.5482317" lon="10.4671767"><ele>264.6</ele><time>2026-03-28T17:53:28.887Z</time></trkpt><trkpt lat="45.5481267" lon="10.4671067"><ele>264.2</ele><time>2026-03-28T17:53:29.886Z</time></trkpt><trkpt lat="45.5480217" lon="10.4670333"><ele>263.8</ele><time>2026-03-28T17:53:30.886Z</time></trkpt><trkpt lat="45.5479183" lon="10.46696"><ele>263.4</ele><time>2026-03-28T17:53:31.886Z</time></trkpt><trkpt lat="45.5478333" lon="10.4668833"><ele>263.0</ele><time>2026-03-28T17:53:32.886Z</time></trkpt><trkpt lat="45.5477583" lon="10.4668083"><ele>262.2857142857143</ele><time>2026-03-28T17:53:33.887Z</time></trkpt><trkpt lat="45.5476917" lon="10.4667533"><ele>261.57142857142856</ele><time>2026-03-28T17:53:34.886Z</time></trkpt><trkpt lat="45.5476383" lon="10.46669"><ele>260.85714285714283</ele><time>2026-03-28T17:53:35.886Z</time></trkpt><trkpt lat="45.5475867" lon="10.46662"><ele>260.1428571428571</ele><time>2026-03-28T17:53:36.887Z</time></trkpt><trkpt lat="45.5475417" lon="10.4665467"><ele>259.42857142857144</ele><time>2026-03-28T17:53:37.886Z</time></trkpt><trkpt lat="45.5475" lon="10.466475"><ele>258.71428571428567</ele><time>2026-03-28T17:53:38.886Z</time></trkpt><trkpt lat="45.54745" lon="10.46636"><ele>258.0</ele><time>2026-03-28T17:53:40.886Z</time></trkpt><trkpt lat="45.5474283" lon="10.4662633"><ele>257.8333333333333</ele><time>2026-03-28T17:53:42.886Z</time></trkpt><trkpt lat="45.5474067" lon="10.4661667"><ele>257.6666666666667</ele><time>2026-03-28T17:53:44.886Z</time></trkpt><trkpt lat="45.5473933" lon="10.46605"><ele>257.5</ele><time>2026-03-28T17:53:46.886Z</time></trkpt><trkpt lat="45.54737" lon="10.4659183"><ele>257.33333333333337</ele><time>2026-03-28T17:53:48.886Z</time></trkpt><trkpt lat="45.5473583" lon="10.4657633"><ele>257.1666666666667</ele><time>2026-03-28T17:53:50.886Z</time></trkpt><trkpt lat="45.5473617" lon="10.4656683"><ele>257.0</ele><time>2026-03-28T17:53:51.886Z</time></trkpt><trkpt lat="45.5473717" lon="10.4655567"><ele>256.83333333333337</ele><time>2026-03-28T17:53:52.886Z</time></trkpt><trkpt lat="45.5473833" lon="10.4654417"><ele>256.6666666666667</ele><time>2026-03-28T17:53:53.886Z</time></trkpt><trkpt lat="45.5473967" lon="10.4653183"><ele>256.5</ele><time>2026-03-28T17:53:54.887Z</time></trkpt><trkpt lat="45.5474067" lon="10.4651967"><ele>256.3333333333333</ele><time>2026-03-28T17:53:55.886Z</time></trkpt><trkpt lat="45.5474183" lon="10.465075"><ele>256.16666666666663</ele><time>2026-03-28T17:53:56.886Z</time></trkpt><trkpt lat="45.5474333" lon="10.464945"><ele>256.0</ele><time>2026-03-28T17:53:57.886Z</time></trkpt><trkpt lat="45.5474467" lon="10.464815"><ele>256.0</ele><time>2026-03-28T17:53:58.887Z</time></trkpt><trkpt lat="45.5474633" lon="10.4646667"><ele>256.0</ele><time>2026-03-28T17:53:59.886Z</time></trkpt><trkpt lat="45.5474833" lon="10.4645117"><ele>256.0</ele><time>2026-03-28T17:54:00.886Z</time></trkpt><trkpt lat="45.5475" lon="10.46435"><ele>256.0</ele><time>2026-03-28T17:54:01.886Z</time></trkpt><trkpt lat="45.54752" lon="10.4641933"><ele>256.0</ele><time>2026-03-28T17:54:02.887Z</time></trkpt><trkpt lat="45.54754" lon="10.4640283"><ele>256.25</ele><time>2026-03-28T17:54:03.886Z</time></trkpt><trkpt lat="45.5475633" lon="10.4638667"><ele>256.5</ele><time>2026-03-28T17:54:04.886Z</time></trkpt><trkpt lat="45.5475833" lon="10.46369"><ele>256.75</ele><time>2026-03-28T17:54:05.886Z</time></trkpt><trkpt lat="45.5476017" lon="10.4634967"><ele>257.0</ele><time>2026-03-28T17:54:06.886Z</time></trkpt><trkpt lat="45.5476067" lon="10.463305"><ele>256.25</ele><time>2026-03-28T17:54:07.886Z</time></trkpt><trkpt lat="45.547635" lon="10.463105"><ele>255.5</ele><time>2026-03-28T17:54:08.886Z</time></trkpt><trkpt lat="45.5476533" lon="10.4629083"><ele>254.75</ele><time>2026-03-28T17:54:09.886Z</time></trkpt><trkpt lat="45.5476783" lon="10.4627167"><ele>254.0</ele><time>2026-03-28T17:54:10.886Z</time></trkpt><trkpt lat="45.5476917" lon="10.4625317"><ele>253.0</ele><time>2026-03-28T17:54:11.886Z</time></trkpt><trkpt lat="45.5477067" lon="10.4623483"><ele>252.0</ele><time>2026-03-28T17:54:12.886Z</time></trkpt><trkpt lat="45.54772" lon="10.46216"><ele>251.0</ele><time>2026-03-28T17:54:13.886Z</time></trkpt><trkpt lat="45.547735" lon="10.4619617"><ele>250.0</ele><time>2026-03-28T17:54:14.886Z</time></trkpt><trkpt lat="45.5477533" lon="10.4617667"><ele>249.25</ele><time>2026-03-28T17:54:15.886Z</time></trkpt><trkpt lat="45.5477767" lon="10.4615667"><ele>248.5</ele><time>2026-03-28T17:54:16.886Z</time></trkpt><trkpt lat="45.547815" lon="10.4613633"><ele>247.75</ele><time>2026-03-28T17:54:17.886Z</time></trkpt><trkpt lat="45.5478533" lon="10.4611633"><ele>247.0</ele><time>2026-03-28T17:54:18.886Z</time></trkpt><trkpt lat="45.5479017" lon="10.460975"><ele>246.5</ele><time>2026-03-28T17:54:19.886Z</time></trkpt><trkpt lat="45.5479617" lon="10.4607933"><ele>246.0</ele><time>2026-03-28T17:54:20.886Z</time></trkpt><trkpt lat="45.54802" lon="10.460615"><ele>245.5</ele><time>2026-03-28T17:54:21.886Z</time></trkpt><trkpt lat="45.5480733" lon="10.4604467"><ele>245.0</ele><time>2026-03-28T17:54:22.886Z</time></trkpt><trkpt lat="45.5481267" lon="10.4602933"><ele>245.0</ele><time>2026-03-28T17:54:23.886Z</time></trkpt><trkpt lat="45.5481817" lon="10.4601433"><ele>245.0</ele><time>2026-03-28T17:54:24.886Z</time></trkpt><trkpt lat="45.548235" lon="10.4600133"><ele>245.0</ele><time>2026-03-28T17:54:25.886Z</time></trkpt><trkpt lat="45.5482833" lon="10.45989"><ele>245.0</ele><time>2026-03-28T17:54:26.886Z</time></trkpt><trkpt lat="45.5483367" lon="10.4597717"><ele>245.0</ele><time>2026-03-28T17:54:27.887Z</time></trkpt><trkpt lat="45.5484" lon="10.4596617"><ele>245.00000000000003</ele><time>2026-03-28T17:54:28.886Z</time></trkpt><trkpt lat="45.5484467" lon="10.459555"><ele>245.0</ele><time>2026-03-28T17:54:29.886Z</time></trkpt><trkpt lat="45.548475" lon="10.45944"><ele>245.0</ele><time>2026-03-28T17:54:30.886Z</time></trkpt><trkpt lat="45.54848" lon="10.4593267"><ele>245.0</ele><time>2026-03-28T17:54:31.886Z</time></trkpt><trkpt lat="45.5484617" lon="10.4592217"><ele>245.00000000000003</ele><time>2026-03-28T17:54:32.886Z</time></trkpt><trkpt lat="45.5484117" lon="10.45912"><ele>245.0</ele><time>2026-03-28T17:54:33.887Z</time></trkpt><trkpt lat="45.5483517" lon="10.459005"><ele>245.0</ele><time>2026-03-28T17:54:34.886Z</time></trkpt><trkpt lat="45.548285" lon="10.4588617"><ele>245.0</ele><time>2026-03-28T17:54:35.886Z</time></trkpt><trkpt lat="45.5482317" lon="10.458705"><ele>245.0</ele><time>2026-03-28T17:54:36.887Z</time></trkpt><trkpt lat="45.548175" lon="10.458555"><ele>245.0</ele><time>2026-03-28T17:54:37.886Z</time></trkpt><trkpt lat="45.54809" lon="10.45842"><ele>244.5</ele><time>2026-03-28T17:54:38.886Z</time></trkpt><trkpt lat="45.5479883" lon="10.4582917"><ele>244.0</ele><time>2026-03-28T17:54:39.886Z</time></trkpt><trkpt lat="45.5478783" lon="10.458165"><ele>243.5</ele><time>2026-03-28T17:54:40.886Z</time></trkpt><trkpt lat="45.54777" lon="10.4580283"><ele>243.0</ele><time>2026-03-28T17:54:41.886Z</time></trkpt><trkpt lat="45.5476633" lon="10.457895"><ele>242.25</ele><time>2026-03-28T17:54:42.886Z</time></trkpt><trkpt lat="45.5475533" lon="10.45776"><ele>241.5</ele><time>2026-03-28T17:54:43.886Z</time></trkpt><trkpt lat="45.5474533" lon="10.4576233"><ele>240.75</ele><time>2026-03-28T17:54:44.886Z</time></trkpt><trkpt lat="45.547345" lon="10.4574783"><ele>240.0</ele><time>2026-03-28T17:54:45.886Z</time></trkpt><trkpt lat="45.54724" lon="10.4573467"><ele>240.0</ele><time>2026-03-28T17:54:46.886Z</time></trkpt><trkpt lat="45.5471417" lon="10.4572167"><ele>240.0</ele><time>2026-03-28T17:54:47.886Z</time></trkpt><trkpt lat="45.5470517" lon="10.457075"><ele>240.0</ele><time>2026-03-28T17:54:48.886Z</time></trkpt><trkpt lat="45.54697" lon="10.4569083"><ele>240.0</ele><time>2026-03-28T17:54:49.886Z</time></trkpt><trkpt lat="45.5469017" lon="10.4567267"><ele>240.0</ele><time>2026-03-28T17:54:50.886Z</time></trkpt><trkpt lat="45.5468417" lon="10.4565317"><ele>240.0</ele><time>2026-03-28T17:54:51.887Z</time></trkpt><trkpt lat="45.5468067" lon="10.4563333"><ele>240.0</ele><time>2026-03-28T17:54:52.886Z</time></trkpt><trkpt lat="45.54679" lon="10.4561167"><ele>240.0</ele><time>2026-03-28T17:54:53.886Z</time></trkpt><trkpt lat="45.54678" lon="10.4558933"><ele>240.0</ele><time>2026-03-28T17:54:54.886Z</time></trkpt><trkpt lat="45.5467617" lon="10.4556817"><ele>240.0</ele><time>2026-03-28T17:54:55.886Z</time></trkpt><trkpt lat="45.5467467" lon="10.4554717"><ele>240.0</ele><time>2026-03-28T17:54:56.886Z</time></trkpt><trkpt lat="45.5467317" lon="10.455265"><ele>240.0</ele><time>2026-03-28T17:54:57.886Z</time></trkpt><trkpt lat="45.5467067" lon="10.455055"><ele>240.0</ele><time>2026-03-28T17:54:58.886Z</time></trkpt><trkpt lat="45.546685" lon="10.4548367"><ele>240.0</ele><time>2026-03-28T17:54:59.886Z</time></trkpt><trkpt lat="45.5466717" lon="10.45462"><ele>240.0</ele><time>2026-03-28T17:55:00.886Z</time></trkpt><trkpt lat="45.5466583" lon="10.4544017"><ele>239.5</ele><time>2026-03-28T17:55:01.886Z</time></trkpt><trkpt lat="45.54665" lon="10.45419"><ele>239.0</ele><time>2026-03-28T17:55:02.886Z</time></trkpt><trkpt lat="45.5466283" lon="10.4539917"><ele>238.5</ele><time>2026-03-28T17:55:03.886Z</time></trkpt><trkpt lat="45.5466067" lon="10.4537967"><ele>238.0</ele><time>2026-03-28T17:55:04.886Z</time></trkpt><trkpt lat="45.54658" lon="10.4536017"><ele>237.75</ele><time>2026-03-28T17:55:05.886Z</time></trkpt><trkpt lat="45.54655" lon="10.453405"><ele>237.5</ele><time>2026-03-28T17:55:06.886Z</time></trkpt><trkpt lat="45.5465167" lon="10.4532117"><ele>237.25</ele><time>2026-03-28T17:55:07.886Z</time></trkpt><trkpt lat="45.5464717" lon="10.4530217"><ele>237.0</ele><time>2026-03-28T17:55:08.887Z</time></trkpt><trkpt lat="45.5464117" lon="10.4528317"><ele>237.33333333333331</ele><time>2026-03-28T17:55:09.886Z</time></trkpt><trkpt lat="45.5463417" lon="10.45265"><ele>237.66666666666666</ele><time>2026-03-28T17:55:10.886Z</time></trkpt><trkpt lat="45.546265" lon="10.45246"><ele>238.0</ele><time>2026-03-28T17:55:11.886Z</time></trkpt><trkpt lat="45.54619" lon="10.4522717"><ele>237.25</ele><time>2026-03-28T17:55:12.886Z</time></trkpt><trkpt lat="45.5461133" lon="10.4520933"><ele>236.5</ele><time>2026-03-28T17:55:13.887Z</time></trkpt><trkpt lat="45.546045" lon="10.4519083"><ele>235.75</ele><time>2026-03-28T17:55:14.886Z</time></trkpt><trkpt lat="45.5459683" lon="10.45173"><ele>235.0</ele><time>2026-03-28T17:55:15.886Z</time></trkpt><trkpt lat="45.5458883" lon="10.4515617"><ele>235.0</ele><time>2026-03-28T17:55:16.886Z</time></trkpt><trkpt lat="45.5458117" lon="10.451385"><ele>235.0</ele><time>2026-03-28T17:55:17.886Z</time></trkpt><trkpt lat="45.5457333" lon="10.4512017"><ele>235.0</ele><time>2026-03-28T17:55:18.886Z</time></trkpt><trkpt lat="45.545655" lon="10.4510183"><ele>235.0</ele><time>2026-03-28T17:55:19.886Z</time></trkpt><trkpt lat="45.54558" lon="10.45084"><ele>235.0</ele><time>2026-03-28T17:55:20.886Z</time></trkpt><trkpt lat="45.5454983" lon="10.4506667"><ele>235.0</ele><time>2026-03-28T17:55:21.886Z</time></trkpt><trkpt lat="45.5454233" lon="10.4504883"><ele>235.0</ele><time>2026-03-28T17:55:22.886Z</time></trkpt><trkpt lat="45.5453467" lon="10.4503083"><ele>235.0</ele><time>2026-03-28T17:55:23.886Z</time></trkpt><trkpt lat="45.5452683" lon="10.4501167"><ele>234.33333333333331</ele><time>2026-03-28T17:55:24.886Z</time></trkpt><trkpt lat="45.5451883" lon="10.4499183"><ele>233.66666666666669</ele><time>2026-03-28T17:55:25.886Z</time></trkpt><trkpt lat="45.545105" lon="10.4497333"><ele>233.0</ele><time>2026-03-28T17:55:26.886Z</time></trkpt><trkpt lat="45.54502" lon="10.4495333"><ele>232.66666666666669</ele><time>2026-03-28T17:55:27.886Z</time></trkpt><trkpt lat="45.5449167" lon="10.4493"><ele>232.33333333333331</ele><time>2026-03-28T17:55:28.886Z</time></trkpt><trkpt lat="45.5448083" lon="10.4490583"><ele>232.0</ele><time>2026-03-28T17:55:29.886Z</time></trkpt><trkpt lat="45.5447167" lon="10.4488317"><ele>231.33333333333331</ele><time>2026-03-28T17:55:30.887Z</time></trkpt><trkpt lat="45.544625" lon="10.4486267"><ele>230.66666666666669</ele><time>2026-03-28T17:55:31.886Z</time></trkpt><trkpt lat="45.5445433" lon="10.44843"><ele>230.0</ele><time>2026-03-28T17:55:32.886Z</time></trkpt><trkpt lat="45.544465" lon="10.4482383"><ele>229.75</ele><time>2026-03-28T17:55:33.886Z</time></trkpt><trkpt lat="45.54439" lon="10.4480517"><ele>229.5</ele><time>2026-03-28T17:55:34.886Z</time></trkpt><trkpt lat="45.5443117" lon="10.4478683"><ele>229.25</ele><time>2026-03-28T17:55:35.886Z</time></trkpt><trkpt lat="45.5442317" lon="10.4476917"><ele>229.0</ele><time>2026-03-28T17:55:36.886Z</time></trkpt><trkpt lat="45.5441467" lon="10.4475167"><ele>229.0</ele><time>2026-03-28T17:55:37.886Z</time></trkpt><trkpt lat="45.5440617" lon="10.4473333"><ele>229.0</ele><time>2026-03-28T17:55:38.886Z</time></trkpt><trkpt lat="45.543985" lon="10.4471317"><ele>229.0</ele><time>2026-03-28T17:55:39.886Z</time></trkpt><trkpt lat="45.5439083" lon="10.44693"><ele>229.0</ele><time>2026-03-28T17:55:40.886Z</time></trkpt><trkpt lat="45.54383" lon="10.4467467"><ele>229.0</ele><time>2026-03-28T17:55:41.887Z</time></trkpt><trkpt lat="45.5437483" lon="10.446565"><ele>229.0</ele><time>2026-03-28T17:55:42.886Z</time></trkpt><trkpt lat="45.5436633" lon="10.4463833"><ele>229.0</ele><time>2026-03-28T17:55:43.886Z</time></trkpt><trkpt lat="45.54358" lon="10.4462"><ele>229.0</ele><time>2026-03-28T17:55:44.886Z</time></trkpt><trkpt lat="45.5434983" lon="10.4460167"><ele>229.0</ele><time>2026-03-28T17:55:45.886Z</time></trkpt><trkpt lat="45.54342" lon="10.4458333"><ele>229.0</ele><time>2026-03-28T17:55:46.886Z</time></trkpt><trkpt lat="45.5433417" lon="10.445655"><ele>229.0</ele><time>2026-03-28T17:55:47.886Z</time></trkpt><trkpt lat="45.5432667" lon="10.4454667"><ele>229.0</ele><time>2026-03-28T17:55:48.886Z</time></trkpt><trkpt lat="45.5431933" lon="10.4452783"><ele>229.5</ele><time>2026-03-28T17:55:49.886Z</time></trkpt><trkpt lat="45.543115" lon="10.44509"><ele>230.0</ele><time>2026-03-28T17:55:50.886Z</time></trkpt><trkpt lat="45.543035" lon="10.44491"><ele>230.5</ele><time>2026-03-28T17:55:51.886Z</time></trkpt><trkpt lat="45.54296" lon="10.44473"><ele>231.0</ele><time>2026-03-28T17:55:52.887Z</time></trkpt><trkpt lat="45.542885" lon="10.4445567"><ele>229.75</ele><time>2026-03-28T17:55:53.886Z</time></trkpt><trkpt lat="45.54281" lon="10.44439"><ele>228.5</ele><time>2026-03-28T17:55:54.887Z</time></trkpt><trkpt lat="45.5427333" lon="10.444235"><ele>227.25</ele><time>2026-03-28T17:55:55.886Z</time></trkpt><trkpt lat="45.5426617" lon="10.4440733"><ele>226.0</ele><time>2026-03-28T17:55:56.886Z</time></trkpt><trkpt lat="45.5425733" lon="10.4439367"><ele>226.0</ele><time>2026-03-28T17:55:57.886Z</time></trkpt><trkpt lat="45.5424717" lon="10.4438267"><ele>226.0</ele><time>2026-03-28T17:55:58.886Z</time></trkpt><trkpt lat="45.54237" lon="10.4437267"><ele>226.0</ele><time>2026-03-28T17:55:59.886Z</time></trkpt><trkpt lat="45.5422667" lon="10.4436733"><ele>226.0</ele><time>2026-03-28T17:56:00.886Z</time></trkpt><trkpt lat="45.5421667" lon="10.44364"><ele>224.0</ele><time>2026-03-28T17:56:01.886Z</time></trkpt><trkpt lat="45.54207" lon="10.4436017"><ele>222.00000000000003</ele><time>2026-03-28T17:56:02.886Z</time></trkpt><trkpt lat="45.5419833" lon="10.4435717"><ele>220.00000000000003</ele><time>2026-03-28T17:56:03.886Z</time></trkpt><trkpt lat="45.5419067" lon="10.4435533"><ele>218.0</ele><time>2026-03-28T17:56:04.886Z</time></trkpt><trkpt lat="45.5417967" lon="10.4435717"><ele>216.0</ele><time>2026-03-28T17:56:06.886Z</time></trkpt><trkpt lat="45.54173" lon="10.4437317"><ele>217.4</ele><time>2026-03-28T17:56:08.886Z</time></trkpt><trkpt lat="45.5416967" lon="10.4438467"><ele>218.8</ele><time>2026-03-28T17:56:09.886Z</time></trkpt><trkpt lat="45.54166" lon="10.443995"><ele>220.20000000000002</ele><time>2026-03-28T17:56:10.886Z</time></trkpt><trkpt lat="45.54162" lon="10.4441567"><ele>221.60000000000002</ele><time>2026-03-28T17:56:11.886Z</time></trkpt><trkpt lat="45.54157" lon="10.44432"><ele>223.0</ele><time>2026-03-28T17:56:12.886Z</time></trkpt><trkpt lat="45.5415233" lon="10.4444917"><ele>223.5</ele><time>2026-03-28T17:56:13.886Z</time></trkpt><trkpt lat="45.5414783" lon="10.4446517"><ele>224.0</ele><time>2026-03-28T17:56:14.886Z</time></trkpt><trkpt lat="45.5414317" lon="10.44481"><ele>224.5</ele><time>2026-03-28T17:56:15.887Z</time></trkpt><trkpt lat="45.5413883" lon="10.4449717"><ele>225.0</ele><time>2026-03-28T17:56:16.886Z</time></trkpt><trkpt lat="45.5413517" lon="10.4451183"><ele>225.0</ele><time>2026-03-28T17:56:17.886Z</time></trkpt><trkpt lat="45.5413233" lon="10.4452533"><ele>225.0</ele><time>2026-03-28T17:56:18.886Z</time></trkpt><trkpt lat="45.541295" lon="10.4453767"><ele>225.0</ele><time>2026-03-28T17:56:19.886Z</time></trkpt><trkpt lat="45.5412683" lon="10.4454767"><ele>225.0</ele><time>2026-03-28T17:56:20.886Z</time></trkpt><trkpt lat="45.5412317" lon="10.4455683"><ele>225.0</ele><time>2026-03-28T17:56:21.887Z</time></trkpt><trkpt lat="45.5411983" lon="10.4456567"><ele>225.0</ele><time>2026-03-28T17:56:22.886Z</time></trkpt><trkpt lat="45.5411483" lon="10.4457317"><ele>224.8</ele><time>2026-03-28T17:56:23.886Z</time></trkpt><trkpt lat="45.541095" lon="10.4457917"><ele>224.6</ele><time>2026-03-28T17:56:24.886Z</time></trkpt><trkpt lat="45.54102" lon="10.4457983"><ele>224.39999999999998</ele><time>2026-03-28T17:56:25.886Z</time></trkpt><trkpt lat="45.5408883" lon="10.445785"><ele>224.2</ele><time>2026-03-28T17:56:27.886Z</time></trkpt><trkpt lat="45.5408017" lon="10.4457667"><ele>224.0</ele><time>2026-03-28T17:56:28.887Z</time></trkpt><trkpt lat="45.5407017" lon="10.4457233"><ele>224.0</ele><time>2026-03-28T17:56:29.886Z</time></trkpt><trkpt lat="45.5405967" lon="10.4456717"><ele>224.0</ele><time>2026-03-28T17:56:30.886Z</time></trkpt><trkpt lat="45.5404917" lon="10.445645"><ele>224.0</ele><time>2026-03-28T17:56:31.886Z</time></trkpt><trkpt lat="45.5403783" lon="10.4455983"><ele>224.0</ele><time>2026-03-28T17:56:32.886Z</time></trkpt><trkpt lat="45.5402617" lon="10.4455517"><ele>223.5</ele><time>2026-03-28T17:56:33.886Z</time></trkpt><trkpt lat="45.540145" lon="10.4455117"><ele>223.0</ele><time>2026-03-28T17:56:34.886Z</time></trkpt><trkpt lat="45.5400317" lon="10.4454833"><ele>222.5</ele><time>2026-03-28T17:56:35.887Z</time></trkpt><trkpt lat="45.5399217" lon="10.4454483"><ele>222.0</ele><time>2026-03-28T17:56:36.887Z</time></trkpt><trkpt lat="45.53982" lon="10.445415"><ele>221.8</ele><time>2026-03-28T17:56:37.886Z</time></trkpt><trkpt lat="45.5397233" lon="10.4453817"><ele>221.6</ele><time>2026-03-28T17:56:38.886Z</time></trkpt><trkpt lat="45.5396183" lon="10.4453383"><ele>221.40000000000003</ele><time>2026-03-28T17:56:39.886Z</time></trkpt><trkpt lat="45.53952" lon="10.4452967"><ele>221.20000000000002</ele><time>2026-03-28T17:56:40.886Z</time></trkpt><trkpt lat="45.5394217" lon="10.4452633"><ele>221.0</ele><time>2026-03-28T17:56:41.886Z</time></trkpt><trkpt lat="45.5393267" lon="10.4452267"><ele>220.60000000000002</ele><time>2026-03-28T17:56:42.886Z</time></trkpt><trkpt lat="45.53922" lon="10.4451767"><ele>220.20000000000002</ele><time>2026-03-28T17:56:43.886Z</time></trkpt><trkpt lat="45.53913" lon="10.445135"><ele>219.79999999999998</ele><time>2026-03-28T17:56:44.886Z</time></trkpt><trkpt lat="45.5390567" lon="10.4451033"><ele>219.39999999999998</ele><time>2026-03-28T17:56:45.886Z</time></trkpt><trkpt lat="45.5389717" lon="10.4450583"><ele>219.0</ele><time>2026-03-28T17:56:46.887Z</time></trkpt><trkpt lat="45.538895" lon="10.4450183"><ele>219.0</ele><time>2026-03-28T17:56:47.887Z</time></trkpt><trkpt lat="45.5388167" lon="10.44499"><ele>218.99999999999997</ele><time>2026-03-28T17:56:48.886Z</time></trkpt><trkpt lat="45.5387267" lon="10.4449767"><ele>218.99999999999997</ele><time>2026-03-28T17:56:49.886Z</time></trkpt><trkpt lat="45.53862" lon="10.4449733"><ele>219.0</ele><time>2026-03-28T17:56:50.886Z</time></trkpt><trkpt lat="45.5384983" lon="10.4449467"><ele>219.0</ele><time>2026-03-28T17:56:51.886Z</time></trkpt><trkpt lat="45.53838" lon="10.4449083"><ele>219.5</ele><time>2026-03-28T17:56:52.886Z</time></trkpt><trkpt lat="45.5382617" lon="10.4448667"><ele>220.0</ele><time>2026-03-28T17:56:53.886Z</time></trkpt><trkpt lat="45.5381333" lon="10.4448217"><ele>220.5</ele><time>2026-03-28T17:56:54.886Z</time></trkpt><trkpt lat="45.5380033" lon="10.4447767"><ele>221.0</ele><time>2026-03-28T17:56:55.887Z</time></trkpt><trkpt lat="45.53786" lon="10.4447233"><ele>221.25</ele><time>2026-03-28T17:56:56.887Z</time></trkpt><trkpt lat="45.5377183" lon="10.4446717"><ele>221.5</ele><time>2026-03-28T17:56:57.886Z</time></trkpt><trkpt lat="45.5375817" lon="10.4446217"><ele>221.75</ele><time>2026-03-28T17:56:58.886Z</time></trkpt><trkpt lat="45.5374417" lon="10.4445717"><ele>222.0</ele><time>2026-03-28T17:56:59.886Z</time></trkpt><trkpt lat="45.5373" lon="10.4445167"><ele>221.0</ele><time>2026-03-28T17:57:00.886Z</time></trkpt><trkpt lat="45.5371567" lon="10.44447"><ele>220.0</ele><time>2026-03-28T17:57:01.886Z</time></trkpt><trkpt lat="45.5370217" lon="10.4444283"><ele>219.0</ele><time>2026-03-28T17:57:02.886Z</time></trkpt><trkpt lat="45.5368883" lon="10.444395"><ele>218.0</ele><time>2026-03-28T17:57:03.886Z</time></trkpt><trkpt lat="45.5367533" lon="10.4443817"><ele>217.5</ele><time>2026-03-28T17:57:04.886Z</time></trkpt><trkpt lat="45.53662" lon="10.4443733"><ele>217.0</ele><time>2026-03-28T17:57:05.886Z</time></trkpt><trkpt lat="45.5364783" lon="10.4443633"><ele>216.5</ele><time>2026-03-28T17:57:06.886Z</time></trkpt><trkpt lat="45.53634" lon="10.444375"><ele>216.0</ele><time>2026-03-28T17:57:07.886Z</time></trkpt><trkpt lat="45.5361967" lon="10.44439"><ele>215.0</ele><time>2026-03-28T17:57:08.886Z</time></trkpt><trkpt lat="45.5360617" lon="10.444395"><ele>214.0</ele><time>2026-03-28T17:57:09.886Z</time></trkpt><trkpt lat="45.53593" lon="10.4444033"><ele>213.0</ele><time>2026-03-28T17:57:10.887Z</time></trkpt><trkpt lat="45.5357833" lon="10.4444117"><ele>212.0</ele><time>2026-03-28T17:57:11.887Z</time></trkpt><trkpt lat="45.535645" lon="10.4444167"><ele>212.0</ele><time>2026-03-28T17:57:12.886Z</time></trkpt><trkpt lat="45.535505" lon="10.44442"><ele>212.0</ele><time>2026-03-28T17:57:13.886Z</time></trkpt><trkpt lat="45.53536" lon="10.4444233"><ele>212.0</ele><time>2026-03-28T17:57:14.886Z</time></trkpt><trkpt lat="45.535225" lon="10.44441"><ele>212.0</ele><time>2026-03-28T17:57:15.886Z</time></trkpt><trkpt lat="45.5350867" lon="10.44437"><ele>211.75</ele><time>2026-03-28T17:57:16.886Z</time></trkpt><trkpt lat="45.534955" lon="10.4443183"><ele>211.5</ele><time>2026-03-28T17:57:17.886Z</time></trkpt><trkpt lat="45.5348233" lon="10.444245"><ele>211.25</ele><time>2026-03-28T17:57:18.886Z</time></trkpt><trkpt lat="45.5346933" lon="10.4441667"><ele>211.0</ele><time>2026-03-28T17:57:19.886Z</time></trkpt><trkpt lat="45.5345667" lon="10.4440967"><ele>211.0</ele><time>2026-03-28T17:57:20.886Z</time></trkpt><trkpt lat="45.534445" lon="10.44403"><ele>211.0</ele><time>2026-03-28T17:57:21.886Z</time></trkpt><trkpt lat="45.5343183" lon="10.443985"><ele>211.0</ele><time>2026-03-28T17:57:22.886Z</time></trkpt><trkpt lat="45.534185" lon="10.4439517"><ele>211.0</ele><time>2026-03-28T17:57:23.886Z</time></trkpt><trkpt lat="45.534055" lon="10.44394"><ele>211.0</ele><time>2026-03-28T17:57:24.886Z</time></trkpt><trkpt lat="45.5339167" lon="10.443925"><ele>211.0</ele><time>2026-03-28T17:57:25.886Z</time></trkpt><trkpt lat="45.5337733" lon="10.4439183"><ele>211.0</ele><time>2026-03-28T17:57:26.886Z</time></trkpt><trkpt lat="45.533635" lon="10.4439183"><ele>211.0</ele><time>2026-03-28T17:57:27.886Z</time></trkpt><trkpt lat="45.5334883" lon="10.4439183"><ele>210.75</ele><time>2026-03-28T17:57:28.886Z</time></trkpt><trkpt lat="45.5333383" lon="10.4439033"><ele>210.5</ele><time>2026-03-28T17:57:29.886Z</time></trkpt><trkpt lat="45.53319" lon="10.4438917"><ele>210.25</ele><time>2026-03-28T17:57:30.886Z</time></trkpt><trkpt lat="45.5330517" lon="10.4438833"><ele>210.0</ele><time>2026-03-28T17:57:31.886Z</time></trkpt><trkpt lat="45.53293" lon="10.443865"><ele>210.25</ele><time>2026-03-28T17:57:32.886Z</time></trkpt><trkpt lat="45.532815" lon="10.4438667"><ele>210.5</ele><time>2026-03-28T17:57:33.886Z</time></trkpt><trkpt lat="45.53269" lon="10.4438683"><ele>210.75</ele><time>2026-03-28T17:57:34.886Z</time></trkpt><trkpt lat="45.532565" lon="10.44387"><ele>211.0</ele><time>2026-03-28T17:57:35.886Z</time></trkpt><trkpt lat="45.5324333" lon="10.4438517"><ele>211.0</ele><time>2026-03-28T17:57:36.886Z</time></trkpt><trkpt lat="45.532295" lon="10.4438283"><ele>211.0</ele><time>2026-03-28T17:57:37.886Z</time></trkpt><trkpt lat="45.5321583" lon="10.4437933"><ele>211.0</ele><time>2026-03-28T17:57:38.886Z</time></trkpt><trkpt lat="45.53201" lon="10.4437617"><ele>211.0</ele><time>2026-03-28T17:57:39.886Z</time></trkpt><trkpt lat="45.5318633" lon="10.4437367"><ele>210.5</ele><time>2026-03-28T17:57:40.887Z</time></trkpt><trkpt lat="45.531715" lon="10.4437083"><ele>210.0</ele><time>2026-03-28T17:57:41.886Z</time></trkpt><trkpt lat="45.5315783" lon="10.4436833"><ele>209.5</ele><time>2026-03-28T17:57:42.886Z</time></trkpt><trkpt lat="45.5314383" lon="10.443655"><ele>209.0</ele><time>2026-03-28T17:57:43.886Z</time></trkpt><trkpt lat="45.5313033" lon="10.4436267"><ele>209.0</ele><time>2026-03-28T17:57:44.886Z</time></trkpt><trkpt lat="45.53117" lon="10.4435917"><ele>209.0</ele><time>2026-03-28T17:57:45.886Z</time></trkpt><trkpt lat="45.5310583" lon="10.44356"><ele>209.0</ele><time>2026-03-28T17:57:46.886Z</time></trkpt><trkpt lat="45.5309583" lon="10.44351"><ele>209.0</ele><time>2026-03-28T17:57:47.886Z</time></trkpt><trkpt lat="45.5308667" lon="10.4434417"><ele>209.00000000000003</ele><time>2026-03-28T17:57:48.886Z</time></trkpt><trkpt lat="45.530795" lon="10.44336"><ele>209.0</ele><time>2026-03-28T17:57:49.886Z</time></trkpt><trkpt lat="45.53073" lon="10.4432767"><ele>209.0</ele><time>2026-03-28T17:57:50.886Z</time></trkpt><trkpt lat="45.5306633" lon="10.4432033"><ele>209.0</ele><time>2026-03-28T17:57:51.886Z</time></trkpt><trkpt lat="45.5306017" lon="10.4431533"><ele>209.00000000000003</ele><time>2026-03-28T17:57:52.886Z</time></trkpt><trkpt lat="45.5305383" lon="10.4431467"><ele>209.0</ele><time>2026-03-28T17:57:53.886Z</time></trkpt><trkpt lat="45.5304767" lon="10.44318"><ele>209.00000000000003</ele><time>2026-03-28T17:57:54.886Z</time></trkpt><trkpt lat="45.53043" lon="10.443245"><ele>209.0</ele><time>2026-03-28T17:57:55.886Z</time></trkpt><trkpt lat="45.5304083" lon="10.443345"><ele>209.0</ele><time>2026-03-28T17:57:56.886Z</time></trkpt><trkpt lat="45.5304067" lon="10.4434617"><ele>209.0</ele><time>2026-03-28T17:57:57.886Z</time></trkpt><trkpt lat="45.530435" lon="10.44358"><ele>209.00000000000003</ele><time>2026-03-28T17:57:58.886Z</time></trkpt><trkpt lat="45.5304833" lon="10.4437083"><ele>209.0</ele><time>2026-03-28T17:57:59.886Z</time></trkpt><trkpt lat="45.5305233" lon="10.4438483"><ele>209.25</ele><time>2026-03-28T17:58:00.887Z</time></trkpt><trkpt lat="45.5305367" lon="10.4440067"><ele>209.5</ele><time>2026-03-28T17:58:01.886Z</time></trkpt><trkpt lat="45.5305317" lon="10.44418"><ele>209.75</ele><time>2026-03-28T17:58:02.886Z</time></trkpt><trkpt lat="45.5305" lon="10.4443717"><ele>210.0</ele><time>2026-03-28T17:58:03.887Z</time></trkpt><trkpt lat="45.5304567" lon="10.4445733"><ele>209.75</ele><time>2026-03-28T17:58:04.886Z</time></trkpt><trkpt lat="45.5304167" lon="10.444775"><ele>209.5</ele><time>2026-03-28T17:58:05.886Z</time></trkpt><trkpt lat="45.5303733" lon="10.4449783"><ele>209.25</ele><time>2026-03-28T17:58:06.886Z</time></trkpt><trkpt lat="45.5303317" lon="10.4451867"><ele>209.0</ele><time>2026-03-28T17:58:07.886Z</time></trkpt><trkpt lat="45.5302933" lon="10.4453933"><ele>210.0</ele><time>2026-03-28T17:58:08.886Z</time></trkpt><trkpt lat="45.530255" lon="10.44559"><ele>211.0</ele><time>2026-03-28T17:58:09.886Z</time></trkpt><trkpt lat="45.530215" lon="10.4457867"><ele>212.0</ele><time>2026-03-28T17:58:10.886Z</time></trkpt><trkpt lat="45.5301767" lon="10.445975"><ele>213.0</ele><time>2026-03-28T17:58:11.886Z</time></trkpt><trkpt lat="45.53014" lon="10.446165"><ele>212.75</ele><time>2026-03-28T17:58:12.886Z</time></trkpt><trkpt lat="45.5300983" lon="10.4463517"><ele>212.5</ele><time>2026-03-28T17:58:13.886Z</time></trkpt><trkpt lat="45.5300517" lon="10.4465333"><ele>212.25</ele><time>2026-03-28T17:58:14.886Z</time></trkpt><trkpt lat="45.5300067" lon="10.4466917"><ele>212.0</ele><time>2026-03-28T17:58:15.886Z</time></trkpt><trkpt lat="45.5299667" lon="10.4468533"><ele>212.0</ele><time>2026-03-28T17:58:16.887Z</time></trkpt><trkpt lat="45.5299117" lon="10.4469883"><ele>212.0</ele><time>2026-03-28T17:58:17.886Z</time></trkpt><trkpt lat="45.529845" lon="10.447125"><ele>212.0</ele><time>2026-03-28T17:58:18.886Z</time></trkpt><trkpt lat="45.52974" lon="10.4472383"><ele>212.0</ele><time>2026-03-28T17:58:19.886Z</time></trkpt><trkpt lat="45.5296233" lon="10.447345"><ele>212.5</ele><time>2026-03-28T17:58:20.886Z</time></trkpt><trkpt lat="45.529495" lon="10.447435"><ele>213.0</ele><time>2026-03-28T17:58:21.886Z</time></trkpt><trkpt lat="45.5293767" lon="10.4475233"><ele>213.5</ele><time>2026-03-28T17:58:22.886Z</time></trkpt><trkpt lat="45.5292617" lon="10.4476183"><ele>214.0</ele><time>2026-03-28T17:58:23.886Z</time></trkpt><trkpt lat="45.5291517" lon="10.4476967"><ele>214.0</ele><time>2026-03-28T17:58:24.886Z</time></trkpt><trkpt lat="45.52904" lon="10.4478017"><ele>214.0</ele><time>2026-03-28T17:58:25.886Z</time></trkpt><trkpt lat="45.52893" lon="10.44791"><ele>214.0</ele><time>2026-03-28T17:58:26.886Z</time></trkpt><trkpt lat="45.528825" lon="10.448025"><ele>214.0</ele><time>2026-03-28T17:58:27.886Z</time></trkpt><trkpt lat="45.5287417" lon="10.4481817"><ele>212.5</ele><time>2026-03-28T17:58:28.886Z</time></trkpt><trkpt lat="45.5286683" lon="10.44835"><ele>211.0</ele><time>2026-03-28T17:58:29.886Z</time></trkpt><trkpt lat="45.5286067" lon="10.4485267"><ele>209.5</ele><time>2026-03-28T17:58:30.886Z</time></trkpt><trkpt lat="45.5285617" lon="10.448715"><ele>208.0</ele><time>2026-03-28T17:58:31.886Z</time></trkpt><trkpt lat="45.5285383" lon="10.4489117"><ele>208.0</ele><time>2026-03-28T17:58:32.886Z</time></trkpt><trkpt lat="45.5285283" lon="10.4491133"><ele>208.0</ele><time>2026-03-28T17:58:33.887Z</time></trkpt><trkpt lat="45.5285333" lon="10.4493133"><ele>208.0</ele><time>2026-03-28T17:58:34.886Z</time></trkpt><trkpt lat="45.5285467" lon="10.4495117"><ele>208.0</ele><time>2026-03-28T17:58:35.886Z</time></trkpt><trkpt lat="45.5285517" lon="10.449705"><ele>208.0</ele><time>2026-03-28T17:58:36.886Z</time></trkpt><trkpt lat="45.5285467" lon="10.4499"><ele>208.0</ele><time>2026-03-28T17:58:37.886Z</time></trkpt><trkpt lat="45.5285317" lon="10.45009"><ele>208.0</ele><time>2026-03-28T17:58:38.886Z</time></trkpt><trkpt lat="45.528505" lon="10.450285"><ele>208.0</ele><time>2026-03-28T17:58:39.886Z</time></trkpt><trkpt lat="45.5284683" lon="10.4504683"><ele>208.0</ele><time>2026-03-28T17:58:40.886Z</time></trkpt><trkpt lat="45.5284183" lon="10.450645"><ele>208.0</ele><time>2026-03-28T17:58:41.886Z</time></trkpt><trkpt lat="45.52835" lon="10.4508217"><ele>208.0</ele><time>2026-03-28T17:58:42.887Z</time></trkpt><trkpt lat="45.5282767" lon="10.45098"><ele>208.0</ele><time>2026-03-28T17:58:43.886Z</time></trkpt><trkpt lat="45.52818" lon="10.45113"><ele>208.0</ele><time>2026-03-28T17:58:44.887Z</time></trkpt><trkpt lat="45.528075" lon="10.4512783"><ele>208.0</ele><time>2026-03-28T17:58:45.886Z</time></trkpt><trkpt lat="45.5279667" lon="10.4514117"><ele>208.0</ele><time>2026-03-28T17:58:46.886Z</time></trkpt><trkpt lat="45.5278583" lon="10.4515517"><ele>208.0</ele><time>2026-03-28T17:58:47.886Z</time></trkpt><trkpt lat="45.5277467" lon="10.4516867"><ele>208.0</ele><time>2026-03-28T17:58:48.886Z</time></trkpt><trkpt lat="45.52764" lon="10.451835"><ele>208.0</ele><time>2026-03-28T17:58:49.886Z</time></trkpt><trkpt lat="45.5275467" lon="10.4519767"><ele>208.0</ele><time>2026-03-28T17:58:50.886Z</time></trkpt><trkpt lat="45.52745" lon="10.4521283"><ele>208.0</ele><time>2026-03-28T17:58:51.886Z</time></trkpt><trkpt lat="45.52737" lon="10.4523"><ele>208.25</ele><time>2026-03-28T17:58:52.886Z</time></trkpt><trkpt lat="45.5273" lon="10.4524833"><ele>208.5</ele><time>2026-03-28T17:58:53.886Z</time></trkpt><trkpt lat="45.52724" lon="10.4526517"><ele>208.75</ele><time>2026-03-28T17:58:54.886Z</time></trkpt><trkpt lat="45.5271667" lon="10.4528183"><ele>209.0</ele><time>2026-03-28T17:58:55.886Z</time></trkpt><trkpt lat="45.52709" lon="10.4529583"><ele>208.25</ele><time>2026-03-28T17:58:56.886Z</time></trkpt><trkpt lat="45.527015" lon="10.4530917"><ele>207.5</ele><time>2026-03-28T17:58:57.886Z</time></trkpt><trkpt lat="45.52692" lon="10.453235"><ele>206.75</ele><time>2026-03-28T17:58:58.886Z</time></trkpt><trkpt lat="45.5268383" lon="10.4533917"><ele>206.0</ele><time>2026-03-28T17:58:59.886Z</time></trkpt><trkpt lat="45.526765" lon="10.4535633"><ele>206.0</ele><time>2026-03-28T17:59:00.886Z</time></trkpt><trkpt lat="45.5266767" lon="10.4537233"><ele>206.0</ele><time>2026-03-28T17:59:01.887Z</time></trkpt><trkpt lat="45.526585" lon="10.4538717"><ele>206.0</ele><time>2026-03-28T17:59:02.886Z</time></trkpt><trkpt lat="45.5265117" lon="10.4540233"><ele>206.0</ele><time>2026-03-28T17:59:03.886Z</time></trkpt><trkpt lat="45.5264383" lon="10.4541767"><ele>205.75</ele><time>2026-03-28T17:59:04.886Z</time></trkpt><trkpt lat="45.526375" lon="10.4543517"><ele>205.5</ele><time>2026-03-28T17:59:05.886Z</time></trkpt><trkpt lat="45.5263117" lon="10.45453"><ele>205.25</ele><time>2026-03-28T17:59:06.887Z</time></trkpt><trkpt lat="45.5262367" lon="10.4547"><ele>205.0</ele><time>2026-03-28T17:59:07.886Z</time></trkpt><trkpt lat="45.5261533" lon="10.4548833"><ele>205.0</ele><time>2026-03-28T17:59:08.886Z</time></trkpt><trkpt lat="45.526095" lon="10.4550617"><ele>205.0</ele><time>2026-03-28T17:59:09.886Z</time></trkpt><trkpt lat="45.5260233" lon="10.4552383"><ele>205.0</ele><time>2026-03-28T17:59:10.887Z</time></trkpt><trkpt lat="45.52595" lon="10.4554033"><ele>205.0</ele><time>2026-03-28T17:59:11.886Z</time></trkpt><trkpt lat="45.5258817" lon="10.4555767"><ele>205.0</ele><time>2026-03-28T17:59:12.886Z</time></trkpt><trkpt lat="45.5258283" lon="10.4557383"><ele>205.0</ele><time>2026-03-28T17:59:13.886Z</time></trkpt><trkpt lat="45.5257733" lon="10.4559033"><ele>205.0</ele><time>2026-03-28T17:59:14.886Z</time></trkpt><trkpt lat="45.5257233" lon="10.456065"><ele>205.0</ele><time>2026-03-28T17:59:15.886Z</time></trkpt><trkpt lat="45.52567" lon="10.4562133"><ele>205.0</ele><time>2026-03-28T17:59:16.886Z</time></trkpt><trkpt lat="45.5256083" lon="10.4563533"><ele>205.0</ele><time>2026-03-28T17:59:17.886Z</time></trkpt><trkpt lat="45.5255283" lon="10.4565067"><ele>205.0</ele><time>2026-03-28T17:59:18.886Z</time></trkpt><trkpt lat="45.525455" lon="10.4566667"><ele>205.0</ele><time>2026-03-28T17:59:19.886Z</time></trkpt><trkpt lat="45.5253933" lon="10.4568017"><ele>204.6</ele><time>2026-03-28T17:59:20.886Z</time></trkpt><trkpt lat="45.525325" lon="10.4569317"><ele>204.2</ele><time>2026-03-28T17:59:21.886Z</time></trkpt><trkpt lat="45.525265" lon="10.45705"><ele>203.8</ele><time>2026-03-28T17:59:22.887Z</time></trkpt><trkpt lat="45.5252183" lon="10.4571633"><ele>203.4</ele><time>2026-03-28T17:59:23.886Z</time></trkpt><trkpt lat="45.5251817" lon="10.457265"><ele>203.0</ele><time>2026-03-28T17:59:24.887Z</time></trkpt><trkpt lat="45.5251233" lon="10.4573783"><ele>203.0</ele><time>2026-03-28T17:59:25.886Z</time></trkpt><trkpt lat="45.525075" lon="10.4574917"><ele>203.0</ele><time>2026-03-28T17:59:26.886Z</time></trkpt><trkpt lat="45.5250167" lon="10.4576167"><ele>203.0</ele><time>2026-03-28T17:59:27.886Z</time></trkpt><trkpt lat="45.5249417" lon="10.4577583"><ele>203.0</ele><time>2026-03-28T17:59:28.886Z</time></trkpt><trkpt lat="45.5248683" lon="10.4579117"><ele>203.0</ele><time>2026-03-28T17:59:29.886Z</time></trkpt><trkpt lat="45.524795" lon="10.4580617"><ele>203.0</ele><time>2026-03-28T17:59:30.886Z</time></trkpt><trkpt lat="45.5247317" lon="10.4582233"><ele>203.0</ele><time>2026-03-28T17:59:31.886Z</time></trkpt><trkpt lat="45.5246717" lon="10.458395"><ele>203.0</ele><time>2026-03-28T17:59:32.886Z</time></trkpt><trkpt lat="45.5245983" lon="10.4585567"><ele>202.5</ele><time>2026-03-28T17:59:33.886Z</time></trkpt><trkpt lat="45.5245267" lon="10.4587183"><ele>202.0</ele><time>2026-03-28T17:59:34.886Z</time></trkpt><trkpt lat="45.5244583" lon="10.45888"><ele>201.5</ele><time>2026-03-28T17:59:35.886Z</time></trkpt><trkpt lat="45.5243867" lon="10.4590333"><ele>201.0</ele><time>2026-03-28T17:59:36.886Z</time></trkpt><trkpt lat="45.5243167" lon="10.4591733"><ele>201.0</ele><time>2026-03-28T17:59:37.886Z</time></trkpt><trkpt lat="45.524255" lon="10.459305"><ele>201.0</ele><time>2026-03-28T17:59:38.886Z</time></trkpt><trkpt lat="45.524185" lon="10.45943"><ele>201.0</ele><time>2026-03-28T17:59:39.886Z</time></trkpt><trkpt lat="45.5240983" lon="10.4595333"><ele>201.0</ele><time>2026-03-28T17:59:40.886Z</time></trkpt><trkpt lat="45.524005" lon="10.4596333"><ele>201.0</ele><time>2026-03-28T17:59:41.886Z</time></trkpt><trkpt lat="45.5239017" lon="10.459715"><ele>201.0</ele><time>2026-03-28T17:59:42.886Z</time></trkpt><trkpt lat="45.523795" lon="10.4597717"><ele>201.0</ele><time>2026-03-28T17:59:43.886Z</time></trkpt><trkpt lat="45.52369" lon="10.4598017"><ele>201.0</ele><time>2026-03-28T17:59:44.886Z</time></trkpt><trkpt lat="45.52359" lon="10.45982"><ele>201.0</ele><time>2026-03-28T17:59:45.886Z</time></trkpt><trkpt lat="45.5234933" lon="10.45984"><ele>200.8</ele><time>2026-03-28T17:59:46.887Z</time></trkpt><trkpt lat="45.5234083" lon="10.4598583"><ele>200.60000000000002</ele><time>2026-03-28T17:59:47.886Z</time></trkpt><trkpt lat="45.5233217" lon="10.4598817"><ele>200.4</ele><time>2026-03-28T17:59:48.886Z</time></trkpt><trkpt lat="45.5232333" lon="10.4599"><ele>200.2</ele><time>2026-03-28T17:59:49.886Z</time></trkpt><trkpt lat="45.5231367" lon="10.4599267"><ele>200.0</ele><time>2026-03-28T17:59:50.886Z</time></trkpt><trkpt lat="45.52303" lon="10.4599567"><ele>200.0</ele><time>2026-03-28T17:59:51.886Z</time></trkpt><trkpt lat="45.5229367" lon="10.459975"><ele>200.0</ele><time>2026-03-28T17:59:52.887Z</time></trkpt><trkpt lat="45.5228317" lon="10.45997"><ele>200.0</ele><time>2026-03-28T17:59:53.886Z</time></trkpt><trkpt lat="45.522725" lon="10.4599867"><ele>200.0</ele><time>2026-03-28T17:59:54.887Z</time></trkpt><trkpt lat="45.5226283" lon="10.4599983"><ele>200.0</ele><time>2026-03-28T17:59:55.886Z</time></trkpt><trkpt lat="45.522545" lon="10.4600183"><ele>200.14285714285717</ele><time>2026-03-28T17:59:56.886Z</time></trkpt><trkpt lat="45.5224717" lon="10.4600317"><ele>200.28571428571428</ele><time>2026-03-28T17:59:57.886Z</time></trkpt><trkpt lat="45.5223933" lon="10.4600417"><ele>200.42857142857144</ele><time>2026-03-28T17:59:58.886Z</time></trkpt><trkpt lat="45.522315" lon="10.46004"><ele>200.57142857142858</ele><time>2026-03-28T17:59:59.886Z</time></trkpt><trkpt lat="45.5222467" lon="10.4600517"><ele>200.71428571428572</ele><time>2026-03-28T18:00:00.886Z</time></trkpt><trkpt lat="45.5221817" lon="10.4600683"><ele>200.85714285714286</ele><time>2026-03-28T18:00:01.886Z</time></trkpt><trkpt lat="45.52211" lon="10.4600733"><ele>201.0</ele><time>2026-03-28T18:00:02.886Z</time></trkpt><trkpt lat="45.5220383" lon="10.460085"><ele>201.0</ele><time>2026-03-28T18:00:03.887Z</time></trkpt><trkpt lat="45.5219183" lon="10.460075"><ele>201.0</ele><time>2026-03-28T18:00:06.887Z</time></trkpt><trkpt lat="45.5218817" lon="10.45997"><ele>201.0</ele><time>2026-03-28T18:00:32.887Z</time></trkpt><trkpt lat="45.5218533" lon="10.4598633"><ele>201.0</ele><time>2026-03-28T18:00:34.887Z</time></trkpt><trkpt lat="45.521775" lon="10.4597833"><ele>201.0</ele><time>2026-03-28T18:00:36.887Z</time></trkpt><trkpt lat="45.5216783" lon="10.4597217"><ele>201.0</ele><time>2026-03-28T18:00:38.887Z</time></trkpt><trkpt lat="45.5215733" lon="10.4596483"><ele>201.0</ele><time>2026-03-28T18:00:40.887Z</time></trkpt><trkpt lat="45.5215133" lon="10.4596083"><ele>201.0</ele><time>2026-03-28T18:00:41.887Z</time></trkpt><trkpt lat="45.5214467" lon="10.45956"><ele>201.0</ele><time>2026-03-28T18:00:42.887Z</time></trkpt><trkpt lat="45.52137" lon="10.4595083"><ele>201.0</ele><time>2026-03-28T18:00:43.887Z</time></trkpt><trkpt lat="45.5212933" lon="10.4594583"><ele>201.0</ele><time>2026-03-28T18:00:44.888Z</time></trkpt><trkpt lat="45.5212217" lon="10.4594267"><ele>200.60000000000002</ele><time>2026-03-28T18:00:45.887Z</time></trkpt><trkpt lat="45.5211583" lon="10.45939"><ele>200.2</ele><time>2026-03-28T18:00:46.888Z</time></trkpt><trkpt lat="45.5211017" lon="10.4593483"><ele>199.8</ele><time>2026-03-28T18:00:47.887Z</time></trkpt><trkpt lat="45.5209967" lon="10.4592767"><ele>199.39999999999998</ele><time>2026-03-28T18:00:49.887Z</time></trkpt><trkpt lat="45.5208967" lon="10.45923"><ele>199.0</ele><time>2026-03-28T18:00:51.887Z</time></trkpt><trkpt lat="45.520785" lon="10.459165"><ele>199.0</ele><time>2026-03-28T18:00:53.888Z</time></trkpt><trkpt lat="45.5207033" lon="10.4591117"><ele>199.0</ele><time>2026-03-28T18:00:54.887Z</time></trkpt><trkpt lat="45.52061" lon="10.4590483"><ele>199.0</ele><time>2026-03-28T18:00:55.887Z</time></trkpt><trkpt lat="45.5205083" lon="10.4589733"><ele>199.0</ele><time>2026-03-28T18:00:56.887Z</time></trkpt><trkpt lat="45.5204017" lon="10.45889"><ele>199.0</ele><time>2026-03-28T18:00:57.887Z</time></trkpt><trkpt lat="45.5203" lon="10.4588033"><ele>198.39999999999998</ele><time>2026-03-28T18:00:58.887Z</time></trkpt><trkpt lat="45.52021" lon="10.4587017"><ele>197.8</ele><time>2026-03-28T18:00:59.887Z</time></trkpt><trkpt lat="45.5201267" lon="10.45862"><ele>197.2</ele><time>2026-03-28T18:01:00.888Z</time></trkpt><trkpt lat="45.5200417" lon="10.4585533"><ele>196.60000000000002</ele><time>2026-03-28T18:01:01.887Z</time></trkpt><trkpt lat="45.519955" lon="10.4584967"><ele>196.0</ele><time>2026-03-28T18:01:02.887Z</time></trkpt><trkpt lat="45.5198683" lon="10.4584567"><ele>195.99999999999997</ele><time>2026-03-28T18:01:03.887Z</time></trkpt><trkpt lat="45.5197917" lon="10.4584283"><ele>196.0</ele><time>2026-03-28T18:01:04.887Z</time></trkpt><trkpt lat="45.5197067" lon="10.45839"><ele>196.0</ele><time>2026-03-28T18:01:05.887Z</time></trkpt><trkpt lat="45.5196167" lon="10.4583483"><ele>196.0</ele><time>2026-03-28T18:01:06.887Z</time></trkpt><trkpt lat="45.5195317" lon="10.4583167"><ele>195.99999999999997</ele><time>2026-03-28T18:01:07.887Z</time></trkpt><trkpt lat="45.5194433" lon="10.4582967"><ele>196.0</ele><time>2026-03-28T18:01:08.887Z</time></trkpt><trkpt lat="45.5193583" lon="10.4582833"><ele>195.66666666666666</ele><time>2026-03-28T18:01:09.887Z</time></trkpt><trkpt lat="45.5192817" lon="10.4582767"><ele>195.33333333333331</ele><time>2026-03-28T18:01:10.887Z</time></trkpt><trkpt lat="45.5192067" lon="10.4582667"><ele>195.0</ele><time>2026-03-28T18:01:11.887Z</time></trkpt><trkpt lat="45.5191367" lon="10.4582517"><ele>194.66666666666669</ele><time>2026-03-28T18:01:12.888Z</time></trkpt><trkpt lat="45.5190617" lon="10.45822"><ele>194.33333333333334</ele><time>2026-03-28T18:01:13.887Z</time></trkpt><trkpt lat="45.5189883" lon="10.4581917"><ele>194.0</ele><time>2026-03-28T18:01:14.887Z</time></trkpt><trkpt lat="45.518915" lon="10.4581617"><ele>194.00000000000003</ele><time>2026-03-28T18:01:15.887Z</time></trkpt><trkpt lat="45.5188367" lon="10.4581283"><ele>194.0</ele><time>2026-03-28T18:01:16.887Z</time></trkpt><trkpt lat="45.5187567" lon="10.4581067"><ele>194.0</ele><time>2026-03-28T18:01:17.887Z</time></trkpt><trkpt lat="45.5186833" lon="10.458075"><ele>194.0</ele><time>2026-03-28T18:01:18.887Z</time></trkpt><trkpt lat="45.518615" lon="10.4580383"><ele>194.00000000000003</ele><time>2026-03-28T18:01:19.887Z</time></trkpt><trkpt lat="45.5185483" lon="10.458005"><ele>194.0</ele><time>2026-03-28T18:01:20.887Z</time></trkpt><trkpt lat="45.5184717" lon="10.4579717"><ele>193.79999999999998</ele><time>2026-03-28T18:01:21.888Z</time></trkpt><trkpt lat="45.5183883" lon="10.4579333"><ele>193.6</ele><time>2026-03-28T18:01:22.887Z</time></trkpt><trkpt lat="45.5182933" lon="10.45789"><ele>193.4</ele><time>2026-03-28T18:01:23.887Z</time></trkpt><trkpt lat="45.5181967" lon="10.4578583"><ele>193.2</ele><time>2026-03-28T18:01:24.887Z</time></trkpt><trkpt lat="45.518095" lon="10.4578367"><ele>193.0</ele><time>2026-03-28T18:01:25.887Z</time></trkpt><trkpt lat="45.517995" lon="10.45781"><ele>192.60000000000002</ele><time>2026-03-28T18:01:26.887Z</time></trkpt><trkpt lat="45.5179017" lon="10.4577783"><ele>192.20000000000002</ele><time>2026-03-28T18:01:27.887Z</time></trkpt><trkpt lat="45.5178033" lon="10.4577483"><ele>191.8</ele><time>2026-03-28T18:01:28.888Z</time></trkpt><trkpt lat="45.517715" lon="10.4577183"><ele>191.4</ele><time>2026-03-28T18:01:29.887Z</time></trkpt><trkpt lat="45.51762" lon="10.4576967"><ele>191.0</ele><time>2026-03-28T18:01:30.887Z</time></trkpt><trkpt lat="45.517525" lon="10.45767"><ele>191.0</ele><time>2026-03-28T18:01:31.887Z</time></trkpt><trkpt lat="45.517435" lon="10.4576383"><ele>191.0</ele><time>2026-03-28T18:01:32.887Z</time></trkpt><trkpt lat="45.51734" lon="10.4576017"><ele>191.0</ele><time>2026-03-28T18:01:33.887Z</time></trkpt><trkpt lat="45.5172483" lon="10.45756"><ele>191.0</ele><time>2026-03-28T18:01:34.887Z</time></trkpt><trkpt lat="45.51716" lon="10.457505"><ele>191.0</ele><time>2026-03-28T18:01:35.887Z</time></trkpt><trkpt lat="45.5170733" lon="10.4574583"><ele>191.0</ele><time>2026-03-28T18:01:36.887Z</time></trkpt><trkpt lat="45.5169983" lon="10.4574133"><ele>191.0</ele><time>2026-03-28T18:01:37.887Z</time></trkpt><trkpt lat="45.5169233" lon="10.4573717"><ele>191.0</ele><time>2026-03-28T18:01:38.887Z</time></trkpt><trkpt lat="45.5168583" lon="10.4573233"><ele>191.0</ele><time>2026-03-28T18:01:39.887Z</time></trkpt><trkpt lat="45.5167967" lon="10.4572917"><ele>191.0</ele><time>2026-03-28T18:01:40.887Z</time></trkpt><trkpt lat="45.5167033" lon="10.4572433"><ele>191.0</ele><time>2026-03-28T18:01:42.887Z</time></trkpt><trkpt lat="45.51661" lon="10.45721"><ele>191.0</ele><time>2026-03-28T18:01:44.887Z</time></trkpt><trkpt lat="45.516495" lon="10.45716"><ele>191.0</ele><time>2026-03-28T18:01:46.887Z</time></trkpt><trkpt lat="45.5163767" lon="10.45712"><ele>191.0</ele><time>2026-03-28T18:01:48.887Z</time></trkpt><trkpt lat="45.5163083" lon="10.457085"><ele>191.0</ele><time>2026-03-28T18:01:49.887Z</time></trkpt><trkpt lat="45.5162483" lon="10.4570517"><ele>191.0</ele><time>2026-03-28T18:01:50.887Z</time></trkpt><trkpt lat="45.5161833" lon="10.4570133"><ele>191.0</ele><time>2026-03-28T18:01:51.887Z</time></trkpt><trkpt lat="45.516125" lon="10.45697"><ele>190.66666666666666</ele><time>2026-03-28T18:01:52.887Z</time></trkpt><trkpt lat="45.51605" lon="10.45693"><ele>190.33333333333331</ele><time>2026-03-28T18:01:53.887Z</time></trkpt><trkpt lat="45.51598" lon="10.456885"><ele>190.0</ele><time>2026-03-28T18:01:54.887Z</time></trkpt><trkpt lat="45.515915" lon="10.4568433"><ele>189.66666666666666</ele><time>2026-03-28T18:01:55.888Z</time></trkpt><trkpt lat="45.5158467" lon="10.4567967"><ele>189.33333333333334</ele><time>2026-03-28T18:01:56.887Z</time></trkpt><trkpt lat="45.5157833" lon="10.4567483"><ele>189.0</ele><time>2026-03-28T18:01:57.887Z</time></trkpt><trkpt lat="45.5157117" lon="10.456685"><ele>189.0</ele><time>2026-03-28T18:01:58.887Z</time></trkpt><trkpt lat="45.5156483" lon="10.4566317"><ele>189.0</ele><time>2026-03-28T18:01:59.887Z</time></trkpt><trkpt lat="45.5155967" lon="10.4565783"><ele>189.0</ele><time>2026-03-28T18:02:00.887Z</time></trkpt><trkpt lat="45.5154983" lon="10.4564817"><ele>189.0</ele><time>2026-03-28T18:02:02.887Z</time></trkpt><trkpt lat="45.5154433" lon="10.4564367"><ele>189.0</ele><time>2026-03-28T18:02:03.887Z</time></trkpt><trkpt lat="45.515385" lon="10.4563933"><ele>189.0</ele><time>2026-03-28T18:02:04.887Z</time></trkpt><trkpt lat="45.5153167" lon="10.4563533"><ele>188.83333333333334</ele><time>2026-03-28T18:02:05.887Z</time></trkpt><trkpt lat="45.5152" lon="10.456295"><ele>188.66666666666666</ele><time>2026-03-28T18:02:07.887Z</time></trkpt><trkpt lat="45.5151383" lon="10.4562717"><ele>188.5</ele><time>2026-03-28T18:02:08.888Z</time></trkpt><trkpt lat="45.5150683" lon="10.4562517"><ele>188.33333333333331</ele><time>2026-03-28T18:02:09.887Z</time></trkpt><trkpt lat="45.515" lon="10.4562417"><ele>188.16666666666666</ele><time>2026-03-28T18:02:10.887Z</time></trkpt><trkpt lat="45.5149383" lon="10.456215"><ele>188.0</ele><time>2026-03-28T18:02:11.887Z</time></trkpt><trkpt lat="45.5148717" lon="10.4561917"><ele>188.0</ele><time>2026-03-28T18:02:12.887Z</time></trkpt><trkpt lat="45.514805" lon="10.456175"><ele>188.0</ele><time>2026-03-28T18:02:13.887Z</time></trkpt><trkpt lat="45.5147333" lon="10.4561483"><ele>188.0</ele><time>2026-03-28T18:02:14.887Z</time></trkpt><trkpt lat="45.5146683" lon="10.4561233"><ele>188.0</ele><time>2026-03-28T18:02:15.887Z</time></trkpt><trkpt lat="45.5146033" lon="10.45609"><ele>188.0</ele><time>2026-03-28T18:02:16.887Z</time></trkpt><trkpt lat="45.5145333" lon="10.4560567"><ele>188.0</ele><time>2026-03-28T18:02:17.887Z</time></trkpt><trkpt lat="45.5144667" lon="10.4560267"><ele>188.0</ele><time>2026-03-28T18:02:18.887Z</time></trkpt><trkpt lat="45.5144017" lon="10.4559983"><ele>187.71428571428572</ele><time>2026-03-28T18:02:19.887Z</time></trkpt><trkpt lat="45.5143283" lon="10.4559733"><ele>187.42857142857142</ele><time>2026-03-28T18:02:20.887Z</time></trkpt><trkpt lat="45.51426" lon="10.4559367"><ele>187.14285714285717</ele><time>2026-03-28T18:02:21.887Z</time></trkpt><trkpt lat="45.5141983" lon="10.4559033"><ele>186.85714285714286</ele><time>2026-03-28T18:02:22.887Z</time></trkpt><trkpt lat="45.5141367" lon="10.455875"><ele>186.57142857142858</ele><time>2026-03-28T18:02:23.887Z</time></trkpt><trkpt lat="45.5140733" lon="10.4558467"><ele>186.2857142857143</ele><time>2026-03-28T18:02:24.887Z</time></trkpt><trkpt lat="45.513995" lon="10.4558167"><ele>186.0</ele><time>2026-03-28T18:02:25.887Z</time></trkpt><trkpt lat="45.513925" lon="10.4557767"><ele>186.0</ele><time>2026-03-28T18:02:26.887Z</time></trkpt><trkpt lat="45.5138567" lon="10.4557367"><ele>186.0</ele><time>2026-03-28T18:02:27.887Z</time></trkpt><trkpt lat="45.5137817" lon="10.4556917"><ele>186.0</ele><time>2026-03-28T18:02:28.887Z</time></trkpt><trkpt lat="45.5136917" lon="10.4556383"><ele>186.0</ele><time>2026-03-28T18:02:29.887Z</time></trkpt><trkpt lat="45.5135883" lon="10.4555733"><ele>186.0</ele><time>2026-03-28T18:02:30.887Z</time></trkpt><trkpt lat="45.5134933" lon="10.4555033"><ele>185.8</ele><time>2026-03-28T18:02:31.887Z</time></trkpt><trkpt lat="45.5134033" lon="10.45544"><ele>185.60000000000002</ele><time>2026-03-28T18:02:32.888Z</time></trkpt><trkpt lat="45.513315" lon="10.45537"><ele>185.4</ele><time>2026-03-28T18:02:33.887Z</time></trkpt><trkpt lat="45.51322" lon="10.45531"><ele>185.2</ele><time>2026-03-28T18:02:34.887Z</time></trkpt><trkpt lat="45.5131367" lon="10.4552567"><ele>185.0</ele><time>2026-03-28T18:02:35.887Z</time></trkpt><trkpt lat="45.5130533" lon="10.4552117"><ele>185.0</ele><time>2026-03-28T18:02:36.887Z</time></trkpt><trkpt lat="45.5129733" lon="10.45518"><ele>185.0</ele><time>2026-03-28T18:02:37.887Z</time></trkpt><trkpt lat="45.512895" lon="10.45516"><ele>185.0</ele><time>2026-03-28T18:02:38.887Z</time></trkpt><trkpt lat="45.51281" lon="10.45515"><ele>185.0</ele><time>2026-03-28T18:02:39.887Z</time></trkpt><trkpt lat="45.5127267" lon="10.455155"><ele>185.0</ele><time>2026-03-28T18:02:40.887Z</time></trkpt><trkpt lat="45.5126417" lon="10.4551783"><ele>185.0</ele><time>2026-03-28T18:02:41.887Z</time></trkpt><trkpt lat="45.5125633" lon="10.4552033"><ele>185.0</ele><time>2026-03-28T18:02:42.888Z</time></trkpt><trkpt lat="45.5124867" lon="10.455235"><ele>185.0</ele><time>2026-03-28T18:02:43.887Z</time></trkpt><trkpt lat="45.51242" lon="10.4552783"><ele>185.0</ele><time>2026-03-28T18:02:44.887Z</time></trkpt><trkpt lat="45.51236" lon="10.455325"><ele>185.0</ele><time>2026-03-28T18:02:45.887Z</time></trkpt><trkpt lat="45.512295" lon="10.4553767"><ele>185.0</ele><time>2026-03-28T18:02:46.887Z</time></trkpt><trkpt lat="45.51222" lon="10.4554283"><ele>185.0</ele><time>2026-03-28T18:02:47.887Z</time></trkpt><trkpt lat="45.51215" lon="10.45548"><ele>185.0</ele><time>2026-03-28T18:02:48.888Z</time></trkpt><trkpt lat="45.5120817" lon="10.4555417"><ele>185.0</ele><time>2026-03-28T18:02:49.887Z</time></trkpt><trkpt lat="45.5120183" lon="10.4556"><ele>185.0</ele><time>2026-03-28T18:02:50.887Z</time></trkpt><trkpt lat="45.5119617" lon="10.4556583"><ele>185.0</ele><time>2026-03-28T18:02:51.887Z</time></trkpt><trkpt lat="45.5119033" lon="10.4557267"><ele>185.0</ele><time>2026-03-28T18:02:52.887Z</time></trkpt><trkpt lat="45.5118433" lon="10.4558"><ele>185.0</ele><time>2026-03-28T18:02:53.887Z</time></trkpt><trkpt lat="45.511785" lon="10.455875"><ele>184.99999999999997</ele><time>2026-03-28T18:02:54.887Z</time></trkpt><trkpt lat="45.5117383" lon="10.455945"><ele>185.0</ele><time>2026-03-28T18:02:55.887Z</time></trkpt><trkpt lat="45.5116883" lon="10.4560167"><ele>185.0</ele><time>2026-03-28T18:02:56.887Z</time></trkpt><trkpt lat="45.5116383" lon="10.4560917"><ele>185.0</ele><time>2026-03-28T18:02:57.887Z</time></trkpt><trkpt lat="45.5115867" lon="10.4561517"><ele>185.0</ele><time>2026-03-28T18:02:58.887Z</time></trkpt><trkpt lat="45.5115383" lon="10.4562167"><ele>184.99999999999997</ele><time>2026-03-28T18:02:59.887Z</time></trkpt><trkpt lat="45.5114933" lon="10.45629"><ele>185.0</ele><time>2026-03-28T18:03:00.887Z</time></trkpt><trkpt lat="45.51144" lon="10.456355"><ele>185.0</ele><time>2026-03-28T18:03:01.888Z</time></trkpt><trkpt lat="45.511395" lon="10.4564183"><ele>185.0</ele><time>2026-03-28T18:03:02.887Z</time></trkpt><trkpt lat="45.5113383" lon="10.456485"><ele>185.0</ele><time>2026-03-28T18:03:03.887Z</time></trkpt><trkpt lat="45.5112933" lon="10.45656"><ele>185.0</ele><time>2026-03-28T18:03:04.887Z</time></trkpt><trkpt lat="45.51119" lon="10.4566733"><ele>185.0</ele><time>2026-03-28T18:03:06.887Z</time></trkpt><trkpt lat="45.5111367" lon="10.45673"><ele>185.0</ele><time>2026-03-28T18:03:07.887Z</time></trkpt><trkpt lat="45.5110817" lon="10.4568"><ele>184.99999999999997</ele><time>2026-03-28T18:03:08.887Z</time></trkpt><trkpt lat="45.5110233" lon="10.4568717"><ele>185.0</ele><time>2026-03-28T18:03:09.887Z</time></trkpt><trkpt lat="45.51097" lon="10.4569383"><ele>185.0</ele><time>2026-03-28T18:03:10.887Z</time></trkpt><trkpt lat="45.510915" lon="10.4569967"><ele>185.0</ele><time>2026-03-28T18:03:11.887Z</time></trkpt><trkpt lat="45.5108683" lon="10.4570583"><ele>185.0</ele><time>2026-03-28T18:03:12.887Z</time></trkpt><trkpt lat="45.51082" lon="10.457125"><ele>184.99999999999997</ele><time>2026-03-28T18:03:13.887Z</time></trkpt><trkpt lat="45.51077" lon="10.4571833"><ele>185.0</ele><time>2026-03-28T18:03:14.887Z</time></trkpt><trkpt lat="45.5107183" lon="10.45725"><ele>185.0</ele><time>2026-03-28T18:03:15.887Z</time></trkpt><trkpt lat="45.5106617" lon="10.4573233"><ele>185.0</ele><time>2026-03-28T18:03:16.887Z</time></trkpt><trkpt lat="45.5106" lon="10.4574067"><ele>185.0</ele><time>2026-03-28T18:03:17.887Z</time></trkpt><trkpt lat="45.5105233" lon="10.4575067"><ele>185.0</ele><time>2026-03-28T18:03:18.887Z</time></trkpt><trkpt lat="45.5104483" lon="10.4576067"><ele>185.0</ele><time>2026-03-28T18:03:19.887Z</time></trkpt><trkpt lat="45.5103783" lon="10.4577067"><ele>184.75</ele><time>2026-03-28T18:03:20.887Z</time></trkpt><trkpt lat="45.5103017" lon="10.45782"><ele>184.5</ele><time>2026-03-28T18:03:21.887Z</time></trkpt><trkpt lat="45.51023" lon="10.4579417"><ele>184.25</ele><time>2026-03-28T18:03:22.887Z</time></trkpt><trkpt lat="45.510155" lon="10.4580683"><ele>184.0</ele><time>2026-03-28T18:03:23.887Z</time></trkpt><trkpt lat="45.5100833" lon="10.4581983"><ele>184.0</ele><time>2026-03-28T18:03:24.887Z</time></trkpt><trkpt lat="45.51001" lon="10.4583133"><ele>184.0</ele><time>2026-03-28T18:03:25.887Z</time></trkpt><trkpt lat="45.5099367" lon="10.4584333"><ele>184.0</ele><time>2026-03-28T18:03:26.887Z</time></trkpt><trkpt lat="45.5098617" lon="10.4585583"><ele>184.0</ele><time>2026-03-28T18:03:27.887Z</time></trkpt><trkpt lat="45.5097767" lon="10.4586967"><ele>184.0</ele><time>2026-03-28T18:03:28.887Z</time></trkpt><trkpt lat="45.5096933" lon="10.4588383"><ele>184.0</ele><time>2026-03-28T18:03:29.887Z</time></trkpt><trkpt lat="45.5096167" lon="10.4589733"><ele>184.0</ele><time>2026-03-28T18:03:30.887Z</time></trkpt><trkpt lat="45.5095383" lon="10.459095"><ele>184.0</ele><time>2026-03-28T18:03:31.887Z</time></trkpt><trkpt lat="45.509475" lon="10.4592167"><ele>184.0</ele><time>2026-03-28T18:03:32.887Z</time></trkpt><trkpt lat="45.5094033" lon="10.4593467"><ele>184.0</ele><time>2026-03-28T18:03:33.887Z</time></trkpt><trkpt lat="45.50934" lon="10.4594717"><ele>184.0</ele><time>2026-03-28T18:03:34.887Z</time></trkpt><trkpt lat="45.5092817" lon="10.459595"><ele>184.0</ele><time>2026-03-28T18:03:35.887Z</time></trkpt><trkpt lat="45.50922" lon="10.4597283"><ele>184.0</ele><time>2026-03-28T18:03:36.887Z</time></trkpt><trkpt lat="45.5091567" lon="10.45986"><ele>184.0</ele><time>2026-03-28T18:03:37.887Z</time></trkpt><trkpt lat="45.5090817" lon="10.4599917"><ele>184.0</ele><time>2026-03-28T18:03:38.887Z</time></trkpt><trkpt lat="45.5090067" lon="10.4601117"><ele>184.0</ele><time>2026-03-28T18:03:39.887Z</time></trkpt><trkpt lat="45.5089383" lon="10.4602267"><ele>184.0</ele><time>2026-03-28T18:03:40.887Z</time></trkpt><trkpt lat="45.508865" lon="10.4603533"><ele>184.0</ele><time>2026-03-28T18:03:41.888Z</time></trkpt><trkpt lat="45.5088033" lon="10.4604783"><ele>184.0</ele><time>2026-03-28T18:03:42.887Z</time></trkpt><trkpt lat="45.5087483" lon="10.4606117"><ele>184.0</ele><time>2026-03-28T18:03:43.887Z</time></trkpt><trkpt lat="45.5086767" lon="10.460745"><ele>184.0</ele><time>2026-03-28T18:03:44.887Z</time></trkpt><trkpt lat="45.508605" lon="10.4608633"><ele>184.0</ele><time>2026-03-28T18:03:45.887Z</time></trkpt><trkpt lat="45.5085383" lon="10.4609683"><ele>184.0</ele><time>2026-03-28T18:03:46.887Z</time></trkpt><trkpt lat="45.5084633" lon="10.4610717"><ele>184.0</ele><time>2026-03-28T18:03:47.887Z</time></trkpt><trkpt lat="45.508395" lon="10.461165"><ele>184.0</ele><time>2026-03-28T18:03:48.887Z</time></trkpt><trkpt lat="45.508325" lon="10.4612567"><ele>184.0</ele><time>2026-03-28T18:03:49.887Z</time></trkpt><trkpt lat="45.508265" lon="10.4613533"><ele>184.0</ele><time>2026-03-28T18:03:50.887Z</time></trkpt><trkpt lat="45.5082167" lon="10.4614633"><ele>184.39999999999998</ele><time>2026-03-28T18:03:51.887Z</time></trkpt><trkpt lat="45.5081867" lon="10.4615983"><ele>184.8</ele><time>2026-03-28T18:03:52.887Z</time></trkpt><trkpt lat="45.5081733" lon="10.461735"><ele>185.2</ele><time>2026-03-28T18:03:53.887Z</time></trkpt><trkpt lat="45.5081817" lon="10.4618767"><ele>185.60000000000002</ele><time>2026-03-28T18:03:54.887Z</time></trkpt><trkpt lat="45.5081867" lon="10.4620267"><ele>186.0</ele><time>2026-03-28T18:03:55.887Z</time></trkpt><trkpt lat="45.508195" lon="10.4621517"><ele>186.33333333333334</ele><time>2026-03-28T18:03:56.887Z</time></trkpt><trkpt lat="45.5082033" lon="10.4622633"><ele>186.66666666666666</ele><time>2026-03-28T18:03:57.887Z</time></trkpt><trkpt lat="45.5082117" lon="10.4623817"><ele>187.0</ele><time>2026-03-28T18:03:58.887Z</time></trkpt><trkpt lat="45.508225" lon="10.462495"><ele>187.33333333333331</ele><time>2026-03-28T18:03:59.887Z</time></trkpt><trkpt lat="45.5082367" lon="10.4626283"><ele>187.66666666666666</ele><time>2026-03-28T18:04:00.887Z</time></trkpt><trkpt lat="45.5082517" lon="10.46276"><ele>188.0</ele><time>2026-03-28T18:04:01.887Z</time></trkpt><trkpt lat="45.5082667" lon="10.4628933"><ele>188.0</ele><time>2026-03-28T18:04:02.887Z</time></trkpt><trkpt lat="45.5082783" lon="10.4630217"><ele>188.0</ele><time>2026-03-28T18:04:03.887Z</time></trkpt><trkpt lat="45.5082983" lon="10.4631483"><ele>188.0</ele><time>2026-03-28T18:04:04.888Z</time></trkpt><trkpt lat="45.5083117" lon="10.4632567"><ele>188.0</ele><time>2026-03-28T18:04:05.887Z</time></trkpt><trkpt lat="45.5083267" lon="10.463345"><ele>188.0</ele><time>2026-03-28T18:04:06.887Z</time></trkpt><trkpt lat="45.5083333" lon="10.4634733"><ele>188.0</ele><time>2026-03-28T18:04:08.887Z</time></trkpt><trkpt lat="45.5082833" lon="10.4635533"><ele>188.0</ele><time>2026-03-28T18:04:11.887Z</time></trkpt><trkpt lat="45.5082133" lon="10.4634883"><ele>188.0</ele><time>2026-03-28T18:04:14.887Z</time></trkpt><trkpt lat="45.5081767" lon="10.4634017"><ele>188.0</ele><time>2026-03-28T18:04:16.887Z</time></trkpt><trkpt lat="45.5081267" lon="10.46333"><ele>188.0</ele><time>2026-03-28T18:04:18.887Z</time></trkpt><trkpt lat="45.50805" lon="10.4632867"><ele>188.0</ele><time>2026-03-28T18:04:21.887Z</time></trkpt></trkseg></trk></gpx>